<?xml version="1.0" encoding="UTF-8" standalone="no" ?>
<gpx xmlns="http://www.topografix.com/GPX/1/1" xmlns:xsi="http://www.w3.org/2001/XMLSchema-instance" xsi:schemaLocation="http://www.topografix.com/GPX/1/1 http://www.topografix.com/GPX/1/1/gpx.xsd" version="1.1" creator="VisuGPX - https://www.visugpx.com">
  <metadata>
    <name>Théméricourt   Vilette</name>
  </metadata>
  <trk>
    <name><![CDATA[Théméricourt   Vilette_1]]></name>
    <trkseg>
      <trkpt lat="49.0867" lon="1.88955">
        <ele>83.7</ele>
        <time>2022-10-23T07:29:44Z</time>
      </trkpt>
      <trkpt lat="49.08674" lon="1.88957">
        <ele>83.7</ele>
        <time>2022-10-23T07:29:49Z</time>
      </trkpt>
      <trkpt lat="49.08673" lon="1.88952">
        <ele>83.8</ele>
        <time>2022-10-23T07:29:54Z</time>
      </trkpt>
      <trkpt lat="49.08673" lon="1.8895">
        <ele>83.9</ele>
        <time>2022-10-23T07:29:59Z</time>
      </trkpt>
      <trkpt lat="49.08671" lon="1.88949">
        <ele>83.9</ele>
        <time>2022-10-23T07:30:05Z</time>
      </trkpt>
      <trkpt lat="49.0867" lon="1.88949">
        <ele>83.9</ele>
        <time>2022-10-23T07:30:10Z</time>
      </trkpt>
      <trkpt lat="49.0867" lon="1.88949">
        <ele>83.9</ele>
        <time>2022-10-23T07:30:16Z</time>
      </trkpt>
      <trkpt lat="49.0867" lon="1.88949">
        <ele>83.9</ele>
        <time>2022-10-23T07:30:22Z</time>
      </trkpt>
      <trkpt lat="49.0867" lon="1.88949">
        <ele>83.9</ele>
        <time>2022-10-23T07:30:27Z</time>
      </trkpt>
      <trkpt lat="49.0867" lon="1.88949">
        <ele>83.9</ele>
        <time>2022-10-23T07:30:33Z</time>
      </trkpt>
      <trkpt lat="49.08669" lon="1.88954">
        <ele>83.7</ele>
        <time>2022-10-23T07:30:38Z</time>
      </trkpt>
      <trkpt lat="49.08665" lon="1.88964">
        <ele>83.3</ele>
        <time>2022-10-23T07:30:45Z</time>
      </trkpt>
      <trkpt lat="49.08662" lon="1.88977">
        <ele>83.1</ele>
        <time>2022-10-23T07:30:50Z</time>
      </trkpt>
      <trkpt lat="49.08661" lon="1.8898">
        <ele>83.2</ele>
        <time>2022-10-23T07:30:55Z</time>
      </trkpt>
      <trkpt lat="49.08658" lon="1.88989">
        <ele>83.1</ele>
        <time>2022-10-23T07:31:01Z</time>
      </trkpt>
      <trkpt lat="49.08657" lon="1.88999">
        <ele>83</ele>
        <time>2022-10-23T07:31:06Z</time>
      </trkpt>
      <trkpt lat="49.08655" lon="1.8901">
        <ele>83</ele>
        <time>2022-10-23T07:31:12Z</time>
      </trkpt>
      <trkpt lat="49.08652" lon="1.89023">
        <ele>83</ele>
        <time>2022-10-23T07:31:18Z</time>
      </trkpt>
      <trkpt lat="49.08649" lon="1.89033">
        <ele>82.8</ele>
        <time>2022-10-23T07:31:23Z</time>
      </trkpt>
      <trkpt lat="49.08646" lon="1.89043">
        <ele>82.4</ele>
        <time>2022-10-23T07:31:28Z</time>
      </trkpt>
      <trkpt lat="49.08643" lon="1.89053">
        <ele>82.1</ele>
        <time>2022-10-23T07:31:33Z</time>
      </trkpt>
      <trkpt lat="49.08638" lon="1.89064">
        <ele>82</ele>
        <time>2022-10-23T07:31:39Z</time>
      </trkpt>
      <trkpt lat="49.08633" lon="1.89073">
        <ele>82</ele>
        <time>2022-10-23T07:31:44Z</time>
      </trkpt>
      <trkpt lat="49.08628" lon="1.89083">
        <ele>82</ele>
        <time>2022-10-23T07:31:50Z</time>
      </trkpt>
      <trkpt lat="49.08624" lon="1.89091">
        <ele>81.9</ele>
        <time>2022-10-23T07:31:55Z</time>
      </trkpt>
      <trkpt lat="49.08621" lon="1.891">
        <ele>81.8</ele>
        <time>2022-10-23T07:32:00Z</time>
      </trkpt>
      <trkpt lat="49.08618" lon="1.89111">
        <ele>81.8</ele>
        <time>2022-10-23T07:32:06Z</time>
      </trkpt>
      <trkpt lat="49.08614" lon="1.8912">
        <ele>81.9</ele>
        <time>2022-10-23T07:32:11Z</time>
      </trkpt>
      <trkpt lat="49.08609" lon="1.89131">
        <ele>82</ele>
        <time>2022-10-23T07:32:17Z</time>
      </trkpt>
      <trkpt lat="49.08605" lon="1.8914">
        <ele>82</ele>
        <time>2022-10-23T07:32:22Z</time>
      </trkpt>
      <trkpt lat="49.086" lon="1.8915">
        <ele>82</ele>
        <time>2022-10-23T07:32:28Z</time>
      </trkpt>
      <trkpt lat="49.08595" lon="1.89157">
        <ele>82</ele>
        <time>2022-10-23T07:32:33Z</time>
      </trkpt>
      <trkpt lat="49.08592" lon="1.89168">
        <ele>82</ele>
        <time>2022-10-23T07:32:39Z</time>
      </trkpt>
      <trkpt lat="49.08589" lon="1.89179">
        <ele>81.9</ele>
        <time>2022-10-23T07:32:45Z</time>
      </trkpt>
      <trkpt lat="49.08587" lon="1.89189">
        <ele>81.9</ele>
        <time>2022-10-23T07:32:50Z</time>
      </trkpt>
      <trkpt lat="49.08583" lon="1.89201">
        <ele>82</ele>
        <time>2022-10-23T07:32:56Z</time>
      </trkpt>
      <trkpt lat="49.08579" lon="1.89211">
        <ele>82</ele>
        <time>2022-10-23T07:33:01Z</time>
      </trkpt>
      <trkpt lat="49.08576" lon="1.89222">
        <ele>82</ele>
        <time>2022-10-23T07:33:07Z</time>
      </trkpt>
      <trkpt lat="49.08572" lon="1.89232">
        <ele>81.8</ele>
        <time>2022-10-23T07:33:12Z</time>
      </trkpt>
      <trkpt lat="49.08568" lon="1.89244">
        <ele>81.7</ele>
        <time>2022-10-23T07:33:18Z</time>
      </trkpt>
      <trkpt lat="49.08565" lon="1.89255">
        <ele>81.6</ele>
        <time>2022-10-23T07:33:23Z</time>
      </trkpt>
      <trkpt lat="49.08561" lon="1.89266">
        <ele>81.7</ele>
        <time>2022-10-23T07:33:29Z</time>
      </trkpt>
      <trkpt lat="49.08558" lon="1.89277">
        <ele>81.8</ele>
        <time>2022-10-23T07:33:34Z</time>
      </trkpt>
      <trkpt lat="49.08554" lon="1.89289">
        <ele>81.6</ele>
        <time>2022-10-23T07:33:40Z</time>
      </trkpt>
      <trkpt lat="49.0855" lon="1.89301">
        <ele>81.4</ele>
        <time>2022-10-23T07:33:46Z</time>
      </trkpt>
      <trkpt lat="49.08546" lon="1.89313">
        <ele>81.3</ele>
        <time>2022-10-23T07:33:52Z</time>
      </trkpt>
      <trkpt lat="49.08543" lon="1.89325">
        <ele>81.5</ele>
        <time>2022-10-23T07:33:58Z</time>
      </trkpt>
      <trkpt lat="49.0854" lon="1.89338">
        <ele>81.6</ele>
        <time>2022-10-23T07:34:04Z</time>
      </trkpt>
      <trkpt lat="49.08537" lon="1.89351">
        <ele>81.7</ele>
        <time>2022-10-23T07:34:10Z</time>
      </trkpt>
      <trkpt lat="49.08533" lon="1.89363">
        <ele>81.8</ele>
        <time>2022-10-23T07:34:16Z</time>
      </trkpt>
      <trkpt lat="49.0853" lon="1.89373">
        <ele>81.9</ele>
        <time>2022-10-23T07:34:21Z</time>
      </trkpt>
      <trkpt lat="49.08528" lon="1.89385">
        <ele>82</ele>
        <time>2022-10-23T07:34:27Z</time>
      </trkpt>
      <trkpt lat="49.08525" lon="1.89396">
        <ele>81.8</ele>
        <time>2022-10-23T07:34:33Z</time>
      </trkpt>
      <trkpt lat="49.08523" lon="1.89406">
        <ele>81.5</ele>
        <time>2022-10-23T07:34:38Z</time>
      </trkpt>
      <trkpt lat="49.0852" lon="1.89419">
        <ele>81.3</ele>
        <time>2022-10-23T07:34:44Z</time>
      </trkpt>
      <trkpt lat="49.08517" lon="1.89432">
        <ele>81.4</ele>
        <time>2022-10-23T07:34:50Z</time>
      </trkpt>
      <trkpt lat="49.08515" lon="1.89442">
        <ele>81.5</ele>
        <time>2022-10-23T07:34:55Z</time>
      </trkpt>
      <trkpt lat="49.08513" lon="1.89455">
        <ele>81.4</ele>
        <time>2022-10-23T07:35:01Z</time>
      </trkpt>
      <trkpt lat="49.08511" lon="1.89466">
        <ele>81.3</ele>
        <time>2022-10-23T07:35:06Z</time>
      </trkpt>
      <trkpt lat="49.08508" lon="1.89478">
        <ele>81.5</ele>
        <time>2022-10-23T07:35:12Z</time>
      </trkpt>
      <trkpt lat="49.08504" lon="1.89489">
        <ele>81.7</ele>
        <time>2022-10-23T07:35:17Z</time>
      </trkpt>
      <trkpt lat="49.085" lon="1.89502">
        <ele>81.9</ele>
        <time>2022-10-23T07:35:23Z</time>
      </trkpt>
      <trkpt lat="49.08497" lon="1.89513">
        <ele>81.6</ele>
        <time>2022-10-23T07:35:28Z</time>
      </trkpt>
      <trkpt lat="49.08493" lon="1.89527">
        <ele>81.3</ele>
        <time>2022-10-23T07:35:34Z</time>
      </trkpt>
      <trkpt lat="49.08489" lon="1.89537">
        <ele>81.3</ele>
        <time>2022-10-23T07:35:39Z</time>
      </trkpt>
      <trkpt lat="49.08483" lon="1.8955">
        <ele>81.1</ele>
        <time>2022-10-23T07:35:45Z</time>
      </trkpt>
      <trkpt lat="49.08478" lon="1.89561">
        <ele>80.9</ele>
        <time>2022-10-23T07:35:51Z</time>
      </trkpt>
      <trkpt lat="49.08474" lon="1.89573">
        <ele>80.9</ele>
        <time>2022-10-23T07:35:57Z</time>
      </trkpt>
      <trkpt lat="49.0847" lon="1.89587">
        <ele>80.9</ele>
        <time>2022-10-23T07:36:03Z</time>
      </trkpt>
      <trkpt lat="49.08467" lon="1.89599">
        <ele>80.5</ele>
        <time>2022-10-23T07:36:09Z</time>
      </trkpt>
      <trkpt lat="49.08464" lon="1.8961">
        <ele>80.3</ele>
        <time>2022-10-23T07:36:14Z</time>
      </trkpt>
      <trkpt lat="49.0846" lon="1.89621">
        <ele>80.4</ele>
        <time>2022-10-23T07:36:20Z</time>
      </trkpt>
      <trkpt lat="49.08456" lon="1.89633">
        <ele>80.6</ele>
        <time>2022-10-23T07:36:26Z</time>
      </trkpt>
      <trkpt lat="49.08452" lon="1.89644">
        <ele>80.4</ele>
        <time>2022-10-23T07:36:32Z</time>
      </trkpt>
      <trkpt lat="49.08448" lon="1.89655">
        <ele>79.9</ele>
        <time>2022-10-23T07:36:37Z</time>
      </trkpt>
      <trkpt lat="49.08443" lon="1.89666">
        <ele>79.1</ele>
        <time>2022-10-23T07:36:43Z</time>
      </trkpt>
      <trkpt lat="49.08439" lon="1.89676">
        <ele>79.1</ele>
        <time>2022-10-23T07:36:48Z</time>
      </trkpt>
      <trkpt lat="49.08435" lon="1.89689">
        <ele>79.1</ele>
        <time>2022-10-23T07:36:54Z</time>
      </trkpt>
      <trkpt lat="49.0843" lon="1.89701">
        <ele>79</ele>
        <time>2022-10-23T07:37:00Z</time>
      </trkpt>
      <trkpt lat="49.08425" lon="1.89711">
        <ele>79</ele>
        <time>2022-10-23T07:37:06Z</time>
      </trkpt>
      <trkpt lat="49.08418" lon="1.89719">
        <ele>79</ele>
        <time>2022-10-23T07:37:12Z</time>
      </trkpt>
      <trkpt lat="49.08412" lon="1.89724">
        <ele>79.3</ele>
        <time>2022-10-23T07:37:17Z</time>
      </trkpt>
      <trkpt lat="49.08405" lon="1.8973">
        <ele>79.6</ele>
        <time>2022-10-23T07:37:23Z</time>
      </trkpt>
      <trkpt lat="49.08397" lon="1.89737">
        <ele>79.7</ele>
        <time>2022-10-23T07:37:29Z</time>
      </trkpt>
      <trkpt lat="49.08391" lon="1.89742">
        <ele>79.5</ele>
        <time>2022-10-23T07:37:34Z</time>
      </trkpt>
      <trkpt lat="49.08383" lon="1.89749">
        <ele>79.5</ele>
        <time>2022-10-23T07:37:40Z</time>
      </trkpt>
      <trkpt lat="49.08375" lon="1.89756">
        <ele>79.9</ele>
        <time>2022-10-23T07:37:46Z</time>
      </trkpt>
      <trkpt lat="49.08368" lon="1.89764">
        <ele>80.1</ele>
        <time>2022-10-23T07:37:52Z</time>
      </trkpt>
      <trkpt lat="49.08361" lon="1.89774">
        <ele>80.1</ele>
        <time>2022-10-23T07:37:58Z</time>
      </trkpt>
      <trkpt lat="49.08356" lon="1.89784">
        <ele>80</ele>
        <time>2022-10-23T07:38:03Z</time>
      </trkpt>
      <trkpt lat="49.08351" lon="1.89795">
        <ele>80</ele>
        <time>2022-10-23T07:38:09Z</time>
      </trkpt>
      <trkpt lat="49.08347" lon="1.89805">
        <ele>80</ele>
        <time>2022-10-23T07:38:14Z</time>
      </trkpt>
      <trkpt lat="49.08342" lon="1.89818">
        <ele>80.1</ele>
        <time>2022-10-23T07:38:20Z</time>
      </trkpt>
      <trkpt lat="49.08337" lon="1.89828">
        <ele>80.1</ele>
        <time>2022-10-23T07:38:25Z</time>
      </trkpt>
      <trkpt lat="49.08331" lon="1.8984">
        <ele>79.9</ele>
        <time>2022-10-23T07:38:31Z</time>
      </trkpt>
      <trkpt lat="49.08326" lon="1.89849">
        <ele>79.9</ele>
        <time>2022-10-23T07:38:36Z</time>
      </trkpt>
      <trkpt lat="49.08319" lon="1.89858">
        <ele>80.1</ele>
        <time>2022-10-23T07:38:41Z</time>
      </trkpt>
      <trkpt lat="49.08312" lon="1.89868">
        <ele>80.4</ele>
        <time>2022-10-23T07:38:47Z</time>
      </trkpt>
      <trkpt lat="49.08304" lon="1.89875">
        <ele>80.5</ele>
        <time>2022-10-23T07:38:53Z</time>
      </trkpt>
      <trkpt lat="49.08296" lon="1.89881">
        <ele>80.5</ele>
        <time>2022-10-23T07:38:59Z</time>
      </trkpt>
      <trkpt lat="49.08288" lon="1.89887">
        <ele>80.7</ele>
        <time>2022-10-23T07:39:05Z</time>
      </trkpt>
      <trkpt lat="49.08281" lon="1.89893">
        <ele>80.9</ele>
        <time>2022-10-23T07:39:11Z</time>
      </trkpt>
      <trkpt lat="49.08275" lon="1.899">
        <ele>81.1</ele>
        <time>2022-10-23T07:39:16Z</time>
      </trkpt>
      <trkpt lat="49.08268" lon="1.89907">
        <ele>81.4</ele>
        <time>2022-10-23T07:39:22Z</time>
      </trkpt>
      <trkpt lat="49.08259" lon="1.89915">
        <ele>81.7</ele>
        <time>2022-10-23T07:39:28Z</time>
      </trkpt>
      <trkpt lat="49.08252" lon="1.89922">
        <ele>81.9</ele>
        <time>2022-10-23T07:39:33Z</time>
      </trkpt>
      <trkpt lat="49.08245" lon="1.89931">
        <ele>82.2</ele>
        <time>2022-10-23T07:39:39Z</time>
      </trkpt>
      <trkpt lat="49.08238" lon="1.89937">
        <ele>82.4</ele>
        <time>2022-10-23T07:39:44Z</time>
      </trkpt>
      <trkpt lat="49.08231" lon="1.89945">
        <ele>82.7</ele>
        <time>2022-10-23T07:39:50Z</time>
      </trkpt>
      <trkpt lat="49.08224" lon="1.89951">
        <ele>82.9</ele>
        <time>2022-10-23T07:39:55Z</time>
      </trkpt>
      <trkpt lat="49.08215" lon="1.89956">
        <ele>83.3</ele>
        <time>2022-10-23T07:40:01Z</time>
      </trkpt>
      <trkpt lat="49.08207" lon="1.89961">
        <ele>83.6</ele>
        <time>2022-10-23T07:40:07Z</time>
      </trkpt>
      <trkpt lat="49.08199" lon="1.89964">
        <ele>83.8</ele>
        <time>2022-10-23T07:40:12Z</time>
      </trkpt>
      <trkpt lat="49.08189" lon="1.89968">
        <ele>84.2</ele>
        <time>2022-10-23T07:40:18Z</time>
      </trkpt>
      <trkpt lat="49.08181" lon="1.89972">
        <ele>84.5</ele>
        <time>2022-10-23T07:40:23Z</time>
      </trkpt>
      <trkpt lat="49.08172" lon="1.89978">
        <ele>84.8</ele>
        <time>2022-10-23T07:40:29Z</time>
      </trkpt>
      <trkpt lat="49.08166" lon="1.89983">
        <ele>85.1</ele>
        <time>2022-10-23T07:40:34Z</time>
      </trkpt>
      <trkpt lat="49.08159" lon="1.89988">
        <ele>85.4</ele>
        <time>2022-10-23T07:40:40Z</time>
      </trkpt>
      <trkpt lat="49.08152" lon="1.89992">
        <ele>85.7</ele>
        <time>2022-10-23T07:40:45Z</time>
      </trkpt>
      <trkpt lat="49.08145" lon="1.89995">
        <ele>85.9</ele>
        <time>2022-10-23T07:40:50Z</time>
      </trkpt>
      <trkpt lat="49.08138" lon="1.89999">
        <ele>86.1</ele>
        <time>2022-10-23T07:40:55Z</time>
      </trkpt>
      <trkpt lat="49.08129" lon="1.90003">
        <ele>86.5</ele>
        <time>2022-10-23T07:41:01Z</time>
      </trkpt>
      <trkpt lat="49.08122" lon="1.90005">
        <ele>86.8</ele>
        <time>2022-10-23T07:41:06Z</time>
      </trkpt>
      <trkpt lat="49.08113" lon="1.90009">
        <ele>87.3</ele>
        <time>2022-10-23T07:41:12Z</time>
      </trkpt>
      <trkpt lat="49.08104" lon="1.90011">
        <ele>87.6</ele>
        <time>2022-10-23T07:41:18Z</time>
      </trkpt>
      <trkpt lat="49.08094" lon="1.90013">
        <ele>87.8</ele>
        <time>2022-10-23T07:41:24Z</time>
      </trkpt>
      <trkpt lat="49.08086" lon="1.90015">
        <ele>88</ele>
        <time>2022-10-23T07:41:30Z</time>
      </trkpt>
      <trkpt lat="49.08079" lon="1.90016">
        <ele>88.1</ele>
        <time>2022-10-23T07:41:35Z</time>
      </trkpt>
      <trkpt lat="49.08071" lon="1.90017">
        <ele>88.2</ele>
        <time>2022-10-23T07:41:40Z</time>
      </trkpt>
      <trkpt lat="49.08061" lon="1.90015">
        <ele>88.4</ele>
        <time>2022-10-23T07:41:46Z</time>
      </trkpt>
      <trkpt lat="49.08052" lon="1.90016">
        <ele>88.5</ele>
        <time>2022-10-23T07:41:52Z</time>
      </trkpt>
      <trkpt lat="49.08045" lon="1.90016">
        <ele>88.6</ele>
        <time>2022-10-23T07:41:57Z</time>
      </trkpt>
      <trkpt lat="49.08036" lon="1.90015">
        <ele>88.8</ele>
        <time>2022-10-23T07:42:03Z</time>
      </trkpt>
      <trkpt lat="49.08026" lon="1.90015">
        <ele>89</ele>
        <time>2022-10-23T07:42:09Z</time>
      </trkpt>
      <trkpt lat="49.08019" lon="1.90016">
        <ele>89</ele>
        <time>2022-10-23T07:42:14Z</time>
      </trkpt>
      <trkpt lat="49.0801" lon="1.90017">
        <ele>89</ele>
        <time>2022-10-23T07:42:20Z</time>
      </trkpt>
      <trkpt lat="49.08002" lon="1.9002">
        <ele>89</ele>
        <time>2022-10-23T07:42:26Z</time>
      </trkpt>
      <trkpt lat="49.07994" lon="1.90021">
        <ele>88.8</ele>
        <time>2022-10-23T07:42:32Z</time>
      </trkpt>
      <trkpt lat="49.07985" lon="1.90021">
        <ele>88.6</ele>
        <time>2022-10-23T07:42:38Z</time>
      </trkpt>
      <trkpt lat="49.07977" lon="1.90022">
        <ele>88.3</ele>
        <time>2022-10-23T07:42:43Z</time>
      </trkpt>
      <trkpt lat="49.07968" lon="1.90025">
        <ele>88.1</ele>
        <time>2022-10-23T07:42:49Z</time>
      </trkpt>
      <trkpt lat="49.0796" lon="1.90028">
        <ele>88</ele>
        <time>2022-10-23T07:42:54Z</time>
      </trkpt>
      <trkpt lat="49.07953" lon="1.9003">
        <ele>88</ele>
        <time>2022-10-23T07:42:59Z</time>
      </trkpt>
      <trkpt lat="49.07944" lon="1.90034">
        <ele>88</ele>
        <time>2022-10-23T07:43:05Z</time>
      </trkpt>
      <trkpt lat="49.07936" lon="1.90036">
        <ele>87.7</ele>
        <time>2022-10-23T07:43:11Z</time>
      </trkpt>
      <trkpt lat="49.07928" lon="1.90038">
        <ele>87.4</ele>
        <time>2022-10-23T07:43:17Z</time>
      </trkpt>
      <trkpt lat="49.07921" lon="1.90039">
        <ele>87.1</ele>
        <time>2022-10-23T07:43:22Z</time>
      </trkpt>
      <trkpt lat="49.07913" lon="1.90038">
        <ele>86.8</ele>
        <time>2022-10-23T07:43:27Z</time>
      </trkpt>
      <trkpt lat="49.07905" lon="1.90039">
        <ele>86.4</ele>
        <time>2022-10-23T07:43:33Z</time>
      </trkpt>
      <trkpt lat="49.07895" lon="1.9004">
        <ele>85.9</ele>
        <time>2022-10-23T07:43:39Z</time>
      </trkpt>
      <trkpt lat="49.07887" lon="1.90041">
        <ele>85.5</ele>
        <time>2022-10-23T07:43:44Z</time>
      </trkpt>
      <trkpt lat="49.07876" lon="1.9004">
        <ele>85.6</ele>
        <time>2022-10-23T07:43:50Z</time>
      </trkpt>
      <trkpt lat="49.07869" lon="1.90041">
        <ele>85.5</ele>
        <time>2022-10-23T07:43:55Z</time>
      </trkpt>
      <trkpt lat="49.07859" lon="1.90041">
        <ele>85.6</ele>
        <time>2022-10-23T07:44:01Z</time>
      </trkpt>
      <trkpt lat="49.07852" lon="1.9004">
        <ele>85.7</ele>
        <time>2022-10-23T07:44:06Z</time>
      </trkpt>
      <trkpt lat="49.07844" lon="1.9004">
        <ele>85.8</ele>
        <time>2022-10-23T07:44:12Z</time>
      </trkpt>
      <trkpt lat="49.07834" lon="1.90037">
        <ele>86</ele>
        <time>2022-10-23T07:44:18Z</time>
      </trkpt>
      <trkpt lat="49.07825" lon="1.90037">
        <ele>86.3</ele>
        <time>2022-10-23T07:44:24Z</time>
      </trkpt>
      <trkpt lat="49.07817" lon="1.90036">
        <ele>86.6</ele>
        <time>2022-10-23T07:44:30Z</time>
      </trkpt>
      <trkpt lat="49.07808" lon="1.90035">
        <ele>86.9</ele>
        <time>2022-10-23T07:44:36Z</time>
      </trkpt>
      <trkpt lat="49.07799" lon="1.90035">
        <ele>87.5</ele>
        <time>2022-10-23T07:44:42Z</time>
      </trkpt>
      <trkpt lat="49.07792" lon="1.90034">
        <ele>88</ele>
        <time>2022-10-23T07:44:48Z</time>
      </trkpt>
      <trkpt lat="49.07786" lon="1.90033">
        <ele>88.4</ele>
        <time>2022-10-23T07:44:53Z</time>
      </trkpt>
      <trkpt lat="49.07779" lon="1.90033">
        <ele>88.9</ele>
        <time>2022-10-23T07:44:58Z</time>
      </trkpt>
      <trkpt lat="49.07771" lon="1.90033">
        <ele>89.2</ele>
        <time>2022-10-23T07:45:04Z</time>
      </trkpt>
      <trkpt lat="49.07765" lon="1.90034">
        <ele>89.5</ele>
        <time>2022-10-23T07:45:09Z</time>
      </trkpt>
      <trkpt lat="49.07757" lon="1.90034">
        <ele>89.7</ele>
        <time>2022-10-23T07:45:15Z</time>
      </trkpt>
      <trkpt lat="49.0775" lon="1.90031">
        <ele>90</ele>
        <time>2022-10-23T07:45:20Z</time>
      </trkpt>
      <trkpt lat="49.07742" lon="1.90029">
        <ele>90.3</ele>
        <time>2022-10-23T07:45:26Z</time>
      </trkpt>
      <trkpt lat="49.07734" lon="1.90028">
        <ele>90.6</ele>
        <time>2022-10-23T07:45:31Z</time>
      </trkpt>
      <trkpt lat="49.07726" lon="1.90026">
        <ele>90.9</ele>
        <time>2022-10-23T07:45:37Z</time>
      </trkpt>
      <trkpt lat="49.07721" lon="1.90026">
        <ele>91</ele>
        <time>2022-10-23T07:45:42Z</time>
      </trkpt>
      <trkpt lat="49.07715" lon="1.90027">
        <ele>91</ele>
        <time>2022-10-23T07:45:47Z</time>
      </trkpt>
      <trkpt lat="49.07706" lon="1.90025">
        <ele>91</ele>
        <time>2022-10-23T07:45:53Z</time>
      </trkpt>
      <trkpt lat="49.07697" lon="1.90022">
        <ele>91</ele>
        <time>2022-10-23T07:45:59Z</time>
      </trkpt>
      <trkpt lat="49.07689" lon="1.90021">
        <ele>91.2</ele>
        <time>2022-10-23T07:46:05Z</time>
      </trkpt>
      <trkpt lat="49.07682" lon="1.90018">
        <ele>91.5</ele>
        <time>2022-10-23T07:46:10Z</time>
      </trkpt>
      <trkpt lat="49.07674" lon="1.90018">
        <ele>91.7</ele>
        <time>2022-10-23T07:46:16Z</time>
      </trkpt>
      <trkpt lat="49.07667" lon="1.90018">
        <ele>92</ele>
        <time>2022-10-23T07:46:21Z</time>
      </trkpt>
      <trkpt lat="49.07657" lon="1.90015">
        <ele>92.2</ele>
        <time>2022-10-23T07:46:27Z</time>
      </trkpt>
      <trkpt lat="49.07651" lon="1.90014">
        <ele>92.3</ele>
        <time>2022-10-23T07:46:32Z</time>
      </trkpt>
      <trkpt lat="49.07642" lon="1.90013">
        <ele>92.5</ele>
        <time>2022-10-23T07:46:38Z</time>
      </trkpt>
      <trkpt lat="49.07633" lon="1.90009">
        <ele>92.7</ele>
        <time>2022-10-23T07:46:44Z</time>
      </trkpt>
      <trkpt lat="49.07628" lon="1.90009">
        <ele>92.8</ele>
        <time>2022-10-23T07:46:50Z</time>
      </trkpt>
      <trkpt lat="49.07619" lon="1.90009">
        <ele>92.9</ele>
        <time>2022-10-23T07:46:55Z</time>
      </trkpt>
      <trkpt lat="49.0761" lon="1.90007">
        <ele>93</ele>
        <time>2022-10-23T07:47:01Z</time>
      </trkpt>
      <trkpt lat="49.07604" lon="1.90005">
        <ele>93.2</ele>
        <time>2022-10-23T07:47:06Z</time>
      </trkpt>
      <trkpt lat="49.07597" lon="1.90004">
        <ele>93.4</ele>
        <time>2022-10-23T07:47:11Z</time>
      </trkpt>
      <trkpt lat="49.07587" lon="1.90002">
        <ele>93.8</ele>
        <time>2022-10-23T07:47:17Z</time>
      </trkpt>
      <trkpt lat="49.07581" lon="1.89999">
        <ele>94</ele>
        <time>2022-10-23T07:47:22Z</time>
      </trkpt>
      <trkpt lat="49.07573" lon="1.89998">
        <ele>93.9</ele>
        <time>2022-10-23T07:47:28Z</time>
      </trkpt>
      <trkpt lat="49.07565" lon="1.89996">
        <ele>94</ele>
        <time>2022-10-23T07:47:33Z</time>
      </trkpt>
      <trkpt lat="49.07559" lon="1.9">
        <ele>94</ele>
        <time>2022-10-23T07:47:39Z</time>
      </trkpt>
      <trkpt lat="49.07555" lon="1.90011">
        <ele>93.6</ele>
        <time>2022-10-23T07:47:44Z</time>
      </trkpt>
      <trkpt lat="49.07549" lon="1.90024">
        <ele>93.1</ele>
        <time>2022-10-23T07:47:50Z</time>
      </trkpt>
      <trkpt lat="49.07547" lon="1.90031">
        <ele>93</ele>
        <time>2022-10-23T07:47:55Z</time>
      </trkpt>
      <trkpt lat="49.07544" lon="1.90041">
        <ele>93</ele>
        <time>2022-10-23T07:48:01Z</time>
      </trkpt>
      <trkpt lat="49.07537" lon="1.90051">
        <ele>93</ele>
        <time>2022-10-23T07:48:06Z</time>
      </trkpt>
      <trkpt lat="49.07533" lon="1.9006">
        <ele>93</ele>
        <time>2022-10-23T07:48:12Z</time>
      </trkpt>
      <trkpt lat="49.07527" lon="1.90072">
        <ele>93</ele>
        <time>2022-10-23T07:48:18Z</time>
      </trkpt>
      <trkpt lat="49.07525" lon="1.90078">
        <ele>93</ele>
        <time>2022-10-23T07:48:23Z</time>
      </trkpt>
      <trkpt lat="49.0752" lon="1.90089">
        <ele>93</ele>
        <time>2022-10-23T07:48:29Z</time>
      </trkpt>
      <trkpt lat="49.07515" lon="1.90098">
        <ele>93</ele>
        <time>2022-10-23T07:48:34Z</time>
      </trkpt>
      <trkpt lat="49.0751" lon="1.9011">
        <ele>93</ele>
        <time>2022-10-23T07:48:40Z</time>
      </trkpt>
      <trkpt lat="49.07506" lon="1.90119">
        <ele>93</ele>
        <time>2022-10-23T07:48:46Z</time>
      </trkpt>
      <trkpt lat="49.07501" lon="1.90131">
        <ele>93</ele>
        <time>2022-10-23T07:48:52Z</time>
      </trkpt>
      <trkpt lat="49.07497" lon="1.90138">
        <ele>93</ele>
        <time>2022-10-23T07:48:57Z</time>
      </trkpt>
      <trkpt lat="49.07493" lon="1.90149">
        <ele>93</ele>
        <time>2022-10-23T07:49:03Z</time>
      </trkpt>
      <trkpt lat="49.07487" lon="1.90162">
        <ele>93</ele>
        <time>2022-10-23T07:49:09Z</time>
      </trkpt>
      <trkpt lat="49.07484" lon="1.90172">
        <ele>92.9</ele>
        <time>2022-10-23T07:49:15Z</time>
      </trkpt>
      <trkpt lat="49.0748" lon="1.90182">
        <ele>92.6</ele>
        <time>2022-10-23T07:49:21Z</time>
      </trkpt>
      <trkpt lat="49.07474" lon="1.90195">
        <ele>92.1</ele>
        <time>2022-10-23T07:49:27Z</time>
      </trkpt>
      <trkpt lat="49.07469" lon="1.90204">
        <ele>92</ele>
        <time>2022-10-23T07:49:33Z</time>
      </trkpt>
      <trkpt lat="49.07465" lon="1.90212">
        <ele>92</ele>
        <time>2022-10-23T07:49:38Z</time>
      </trkpt>
      <trkpt lat="49.07459" lon="1.90225">
        <ele>92</ele>
        <time>2022-10-23T07:49:44Z</time>
      </trkpt>
      <trkpt lat="49.07455" lon="1.90235">
        <ele>92</ele>
        <time>2022-10-23T07:49:49Z</time>
      </trkpt>
      <trkpt lat="49.07449" lon="1.90247">
        <ele>92</ele>
        <time>2022-10-23T07:49:55Z</time>
      </trkpt>
      <trkpt lat="49.07444" lon="1.90258">
        <ele>92</ele>
        <time>2022-10-23T07:50:01Z</time>
      </trkpt>
      <trkpt lat="49.07441" lon="1.90267">
        <ele>91.9</ele>
        <time>2022-10-23T07:50:07Z</time>
      </trkpt>
      <trkpt lat="49.07436" lon="1.90274">
        <ele>91.7</ele>
        <time>2022-10-23T07:50:12Z</time>
      </trkpt>
      <trkpt lat="49.0743" lon="1.90287">
        <ele>91.3</ele>
        <time>2022-10-23T07:50:18Z</time>
      </trkpt>
      <trkpt lat="49.07425" lon="1.90299">
        <ele>91.1</ele>
        <time>2022-10-23T07:50:24Z</time>
      </trkpt>
      <trkpt lat="49.07421" lon="1.90306">
        <ele>91</ele>
        <time>2022-10-23T07:50:29Z</time>
      </trkpt>
      <trkpt lat="49.07416" lon="1.90315">
        <ele>91</ele>
        <time>2022-10-23T07:50:35Z</time>
      </trkpt>
      <trkpt lat="49.07412" lon="1.90327">
        <ele>90.8</ele>
        <time>2022-10-23T07:50:40Z</time>
      </trkpt>
      <trkpt lat="49.07408" lon="1.90337">
        <ele>90.6</ele>
        <time>2022-10-23T07:50:45Z</time>
      </trkpt>
      <trkpt lat="49.07403" lon="1.90345">
        <ele>90.3</ele>
        <time>2022-10-23T07:50:51Z</time>
      </trkpt>
      <trkpt lat="49.07398" lon="1.90354">
        <ele>90.1</ele>
        <time>2022-10-23T07:50:57Z</time>
      </trkpt>
      <trkpt lat="49.07392" lon="1.90362">
        <ele>90</ele>
        <time>2022-10-23T07:51:02Z</time>
      </trkpt>
      <trkpt lat="49.07386" lon="1.90369">
        <ele>89.6</ele>
        <time>2022-10-23T07:51:08Z</time>
      </trkpt>
      <trkpt lat="49.07379" lon="1.90362">
        <ele>89.6</ele>
        <time>2022-10-23T07:51:14Z</time>
      </trkpt>
      <trkpt lat="49.07374" lon="1.90359">
        <ele>89.5</ele>
        <time>2022-10-23T07:51:19Z</time>
      </trkpt>
      <trkpt lat="49.07367" lon="1.90353">
        <ele>89.4</ele>
        <time>2022-10-23T07:51:24Z</time>
      </trkpt>
      <trkpt lat="49.0736" lon="1.90348">
        <ele>89.4</ele>
        <time>2022-10-23T07:51:30Z</time>
      </trkpt>
      <trkpt lat="49.07353" lon="1.90343">
        <ele>89.4</ele>
        <time>2022-10-23T07:51:35Z</time>
      </trkpt>
      <trkpt lat="49.07347" lon="1.90338">
        <ele>89.3</ele>
        <time>2022-10-23T07:51:40Z</time>
      </trkpt>
      <trkpt lat="49.07342" lon="1.90334">
        <ele>89.3</ele>
        <time>2022-10-23T07:51:45Z</time>
      </trkpt>
      <trkpt lat="49.07336" lon="1.9033">
        <ele>89.1</ele>
        <time>2022-10-23T07:51:51Z</time>
      </trkpt>
      <trkpt lat="49.07325" lon="1.90322">
        <ele>88.7</ele>
        <time>2022-10-23T07:51:57Z</time>
      </trkpt>
      <trkpt lat="49.07317" lon="1.90316">
        <ele>88.4</ele>
        <time>2022-10-23T07:52:02Z</time>
      </trkpt>
      <trkpt lat="49.07309" lon="1.90311">
        <ele>88.1</ele>
        <time>2022-10-23T07:52:08Z</time>
      </trkpt>
      <trkpt lat="49.07304" lon="1.90307">
        <ele>88</ele>
        <time>2022-10-23T07:52:14Z</time>
      </trkpt>
      <trkpt lat="49.07296" lon="1.90302">
        <ele>88</ele>
        <time>2022-10-23T07:52:20Z</time>
      </trkpt>
      <trkpt lat="49.07288" lon="1.90298">
        <ele>88</ele>
        <time>2022-10-23T07:52:25Z</time>
      </trkpt>
      <trkpt lat="49.07279" lon="1.90294">
        <ele>88</ele>
        <time>2022-10-23T07:52:31Z</time>
      </trkpt>
      <trkpt lat="49.07272" lon="1.90287">
        <ele>88</ele>
        <time>2022-10-23T07:52:37Z</time>
      </trkpt>
      <trkpt lat="49.07265" lon="1.90283">
        <ele>88</ele>
        <time>2022-10-23T07:52:42Z</time>
      </trkpt>
      <trkpt lat="49.07256" lon="1.90277">
        <ele>88</ele>
        <time>2022-10-23T07:52:48Z</time>
      </trkpt>
      <trkpt lat="49.07249" lon="1.90272">
        <ele>88</ele>
        <time>2022-10-23T07:52:54Z</time>
      </trkpt>
      <trkpt lat="49.07243" lon="1.90268">
        <ele>88</ele>
        <time>2022-10-23T07:52:59Z</time>
      </trkpt>
      <trkpt lat="49.07235" lon="1.90262">
        <ele>88</ele>
        <time>2022-10-23T07:53:05Z</time>
      </trkpt>
      <trkpt lat="49.07226" lon="1.90256">
        <ele>88</ele>
        <time>2022-10-23T07:53:10Z</time>
      </trkpt>
      <trkpt lat="49.07219" lon="1.9025">
        <ele>88.1</ele>
        <time>2022-10-23T07:53:16Z</time>
      </trkpt>
      <trkpt lat="49.07211" lon="1.90242">
        <ele>88.4</ele>
        <time>2022-10-23T07:53:22Z</time>
      </trkpt>
      <trkpt lat="49.07205" lon="1.90238">
        <ele>88.6</ele>
        <time>2022-10-23T07:53:27Z</time>
      </trkpt>
      <trkpt lat="49.07196" lon="1.90232">
        <ele>88.9</ele>
        <time>2022-10-23T07:53:33Z</time>
      </trkpt>
      <trkpt lat="49.07187" lon="1.90228">
        <ele>89.2</ele>
        <time>2022-10-23T07:53:39Z</time>
      </trkpt>
      <trkpt lat="49.0718" lon="1.90222">
        <ele>89.5</ele>
        <time>2022-10-23T07:53:45Z</time>
      </trkpt>
      <trkpt lat="49.07173" lon="1.90216">
        <ele>89.6</ele>
        <time>2022-10-23T07:53:51Z</time>
      </trkpt>
      <trkpt lat="49.07166" lon="1.90211">
        <ele>89.6</ele>
        <time>2022-10-23T07:53:56Z</time>
      </trkpt>
      <trkpt lat="49.07156" lon="1.90206">
        <ele>89.6</ele>
        <time>2022-10-23T07:54:02Z</time>
      </trkpt>
      <trkpt lat="49.0715" lon="1.90202">
        <ele>89.7</ele>
        <time>2022-10-23T07:54:07Z</time>
      </trkpt>
      <trkpt lat="49.07142" lon="1.90199">
        <ele>89.9</ele>
        <time>2022-10-23T07:54:13Z</time>
      </trkpt>
      <trkpt lat="49.07136" lon="1.90209">
        <ele>90</ele>
        <time>2022-10-23T07:54:19Z</time>
      </trkpt>
      <trkpt lat="49.07131" lon="1.9022">
        <ele>90</ele>
        <time>2022-10-23T07:54:24Z</time>
      </trkpt>
      <trkpt lat="49.07126" lon="1.90231">
        <ele>90</ele>
        <time>2022-10-23T07:54:30Z</time>
      </trkpt>
      <trkpt lat="49.0712" lon="1.90246">
        <ele>90</ele>
        <time>2022-10-23T07:54:36Z</time>
      </trkpt>
      <trkpt lat="49.07116" lon="1.90256">
        <ele>90</ele>
        <time>2022-10-23T07:54:41Z</time>
      </trkpt>
      <trkpt lat="49.07111" lon="1.90265">
        <ele>90</ele>
        <time>2022-10-23T07:54:47Z</time>
      </trkpt>
      <trkpt lat="49.07106" lon="1.90275">
        <ele>90</ele>
        <time>2022-10-23T07:54:53Z</time>
      </trkpt>
      <trkpt lat="49.07102" lon="1.90285">
        <ele>89.8</ele>
        <time>2022-10-23T07:54:59Z</time>
      </trkpt>
      <trkpt lat="49.07096" lon="1.90296">
        <ele>89.7</ele>
        <time>2022-10-23T07:55:05Z</time>
      </trkpt>
      <trkpt lat="49.07091" lon="1.9031">
        <ele>89.7</ele>
        <time>2022-10-23T07:55:11Z</time>
      </trkpt>
      <trkpt lat="49.07084" lon="1.9032">
        <ele>90</ele>
        <time>2022-10-23T07:55:16Z</time>
      </trkpt>
      <trkpt lat="49.07077" lon="1.90331">
        <ele>90.2</ele>
        <time>2022-10-23T07:55:22Z</time>
      </trkpt>
      <trkpt lat="49.07071" lon="1.90341">
        <ele>90.4</ele>
        <time>2022-10-23T07:55:28Z</time>
      </trkpt>
      <trkpt lat="49.07068" lon="1.90348">
        <ele>90.6</ele>
        <time>2022-10-23T07:55:33Z</time>
      </trkpt>
      <trkpt lat="49.07064" lon="1.90358">
        <ele>90.7</ele>
        <time>2022-10-23T07:55:39Z</time>
      </trkpt>
      <trkpt lat="49.07058" lon="1.9037">
        <ele>90.9</ele>
        <time>2022-10-23T07:55:45Z</time>
      </trkpt>
      <trkpt lat="49.07053" lon="1.9038">
        <ele>91</ele>
        <time>2022-10-23T07:55:50Z</time>
      </trkpt>
      <trkpt lat="49.07046" lon="1.90392">
        <ele>91</ele>
        <time>2022-10-23T07:55:56Z</time>
      </trkpt>
      <trkpt lat="49.07041" lon="1.90404">
        <ele>91.3</ele>
        <time>2022-10-23T07:56:02Z</time>
      </trkpt>
      <trkpt lat="49.07036" lon="1.90412">
        <ele>91.6</ele>
        <time>2022-10-23T07:56:07Z</time>
      </trkpt>
      <trkpt lat="49.0703" lon="1.9042">
        <ele>91.8</ele>
        <time>2022-10-23T07:56:13Z</time>
      </trkpt>
      <trkpt lat="49.07027" lon="1.90429">
        <ele>91.6</ele>
        <time>2022-10-23T07:56:19Z</time>
      </trkpt>
      <trkpt lat="49.07022" lon="1.9044">
        <ele>91.3</ele>
        <time>2022-10-23T07:56:25Z</time>
      </trkpt>
      <trkpt lat="49.07017" lon="1.9045">
        <ele>91.4</ele>
        <time>2022-10-23T07:56:30Z</time>
      </trkpt>
      <trkpt lat="49.0701" lon="1.90465">
        <ele>91.6</ele>
        <time>2022-10-23T07:56:38Z</time>
      </trkpt>
      <trkpt lat="49.07005" lon="1.90477">
        <ele>91.7</ele>
        <time>2022-10-23T07:56:43Z</time>
      </trkpt>
      <trkpt lat="49.06999" lon="1.90488">
        <ele>91.4</ele>
        <time>2022-10-23T07:56:49Z</time>
      </trkpt>
      <trkpt lat="49.06993" lon="1.90501">
        <ele>91</ele>
        <time>2022-10-23T07:56:55Z</time>
      </trkpt>
      <trkpt lat="49.06986" lon="1.9051">
        <ele>90.8</ele>
        <time>2022-10-23T07:57:00Z</time>
      </trkpt>
      <trkpt lat="49.06982" lon="1.9052">
        <ele>90.8</ele>
        <time>2022-10-23T07:57:05Z</time>
      </trkpt>
      <trkpt lat="49.06975" lon="1.90531">
        <ele>90.8</ele>
        <time>2022-10-23T07:57:11Z</time>
      </trkpt>
      <trkpt lat="49.0697" lon="1.90543">
        <ele>90.4</ele>
        <time>2022-10-23T07:57:17Z</time>
      </trkpt>
      <trkpt lat="49.06964" lon="1.90555">
        <ele>90</ele>
        <time>2022-10-23T07:57:23Z</time>
      </trkpt>
      <trkpt lat="49.06959" lon="1.90565">
        <ele>90</ele>
        <time>2022-10-23T07:57:28Z</time>
      </trkpt>
      <trkpt lat="49.06956" lon="1.90576">
        <ele>90</ele>
        <time>2022-10-23T07:57:33Z</time>
      </trkpt>
      <trkpt lat="49.06953" lon="1.90587">
        <ele>89.9</ele>
        <time>2022-10-23T07:57:39Z</time>
      </trkpt>
      <trkpt lat="49.06948" lon="1.90598">
        <ele>89.5</ele>
        <time>2022-10-23T07:57:44Z</time>
      </trkpt>
      <trkpt lat="49.06943" lon="1.9061">
        <ele>89</ele>
        <time>2022-10-23T07:57:50Z</time>
      </trkpt>
      <trkpt lat="49.06938" lon="1.90621">
        <ele>88.7</ele>
        <time>2022-10-23T07:57:55Z</time>
      </trkpt>
      <trkpt lat="49.06935" lon="1.90631">
        <ele>88.3</ele>
        <time>2022-10-23T07:58:01Z</time>
      </trkpt>
      <trkpt lat="49.0693" lon="1.90643">
        <ele>87.9</ele>
        <time>2022-10-23T07:58:07Z</time>
      </trkpt>
      <trkpt lat="49.06924" lon="1.90656">
        <ele>87.6</ele>
        <time>2022-10-23T07:58:13Z</time>
      </trkpt>
      <trkpt lat="49.06921" lon="1.90669">
        <ele>87.1</ele>
        <time>2022-10-23T07:58:19Z</time>
      </trkpt>
      <trkpt lat="49.06917" lon="1.90683">
        <ele>87</ele>
        <time>2022-10-23T07:58:25Z</time>
      </trkpt>
      <trkpt lat="49.06912" lon="1.90693">
        <ele>87</ele>
        <time>2022-10-23T07:58:30Z</time>
      </trkpt>
      <trkpt lat="49.0691" lon="1.90701">
        <ele>86.8</ele>
        <time>2022-10-23T07:58:36Z</time>
      </trkpt>
      <trkpt lat="49.06906" lon="1.90713">
        <ele>86.3</ele>
        <time>2022-10-23T07:58:41Z</time>
      </trkpt>
      <trkpt lat="49.06901" lon="1.90724">
        <ele>86</ele>
        <time>2022-10-23T07:58:47Z</time>
      </trkpt>
      <trkpt lat="49.06897" lon="1.90733">
        <ele>86</ele>
        <time>2022-10-23T07:58:52Z</time>
      </trkpt>
      <trkpt lat="49.06892" lon="1.90746">
        <ele>86</ele>
        <time>2022-10-23T07:58:58Z</time>
      </trkpt>
      <trkpt lat="49.06887" lon="1.90759">
        <ele>85.6</ele>
        <time>2022-10-23T07:59:04Z</time>
      </trkpt>
      <trkpt lat="49.06882" lon="1.90774">
        <ele>85.1</ele>
        <time>2022-10-23T07:59:10Z</time>
      </trkpt>
      <trkpt lat="49.06879" lon="1.90788">
        <ele>84.9</ele>
        <time>2022-10-23T07:59:16Z</time>
      </trkpt>
      <trkpt lat="49.06876" lon="1.90798">
        <ele>84.7</ele>
        <time>2022-10-23T07:59:21Z</time>
      </trkpt>
      <trkpt lat="49.06873" lon="1.90813">
        <ele>84.3</ele>
        <time>2022-10-23T07:59:27Z</time>
      </trkpt>
      <trkpt lat="49.06868" lon="1.90825">
        <ele>84.1</ele>
        <time>2022-10-23T07:59:33Z</time>
      </trkpt>
      <trkpt lat="49.06861" lon="1.90833">
        <ele>84</ele>
        <time>2022-10-23T07:59:38Z</time>
      </trkpt>
      <trkpt lat="49.06857" lon="1.90843">
        <ele>83.8</ele>
        <time>2022-10-23T07:59:44Z</time>
      </trkpt>
      <trkpt lat="49.06852" lon="1.90854">
        <ele>83.7</ele>
        <time>2022-10-23T07:59:49Z</time>
      </trkpt>
      <trkpt lat="49.06848" lon="1.90867">
        <ele>83.4</ele>
        <time>2022-10-23T07:59:55Z</time>
      </trkpt>
      <trkpt lat="49.06844" lon="1.90876">
        <ele>83.2</ele>
        <time>2022-10-23T08:00:00Z</time>
      </trkpt>
      <trkpt lat="49.06838" lon="1.90889">
        <ele>83</ele>
        <time>2022-10-23T08:00:06Z</time>
      </trkpt>
      <trkpt lat="49.06834" lon="1.90899">
        <ele>83</ele>
        <time>2022-10-23T08:00:11Z</time>
      </trkpt>
      <trkpt lat="49.06828" lon="1.90912">
        <ele>82.8</ele>
        <time>2022-10-23T08:00:17Z</time>
      </trkpt>
      <trkpt lat="49.06824" lon="1.90923">
        <ele>82.5</ele>
        <time>2022-10-23T08:00:23Z</time>
      </trkpt>
      <trkpt lat="49.0682" lon="1.90934">
        <ele>82.2</ele>
        <time>2022-10-23T08:00:28Z</time>
      </trkpt>
      <trkpt lat="49.06816" lon="1.90944">
        <ele>82</ele>
        <time>2022-10-23T08:00:34Z</time>
      </trkpt>
      <trkpt lat="49.0681" lon="1.90955">
        <ele>82</ele>
        <time>2022-10-23T08:00:40Z</time>
      </trkpt>
      <trkpt lat="49.06804" lon="1.90966">
        <ele>81.9</ele>
        <time>2022-10-23T08:00:46Z</time>
      </trkpt>
      <trkpt lat="49.06799" lon="1.90975">
        <ele>81.8</ele>
        <time>2022-10-23T08:00:51Z</time>
      </trkpt>
      <trkpt lat="49.06793" lon="1.90985">
        <ele>81.6</ele>
        <time>2022-10-23T08:00:57Z</time>
      </trkpt>
      <trkpt lat="49.06786" lon="1.90996">
        <ele>81.3</ele>
        <time>2022-10-23T08:01:03Z</time>
      </trkpt>
      <trkpt lat="49.0678" lon="1.91009">
        <ele>81.4</ele>
        <time>2022-10-23T08:01:09Z</time>
      </trkpt>
      <trkpt lat="49.06773" lon="1.91022">
        <ele>81.5</ele>
        <time>2022-10-23T08:01:15Z</time>
      </trkpt>
      <trkpt lat="49.06767" lon="1.91031">
        <ele>81.2</ele>
        <time>2022-10-23T08:01:21Z</time>
      </trkpt>
      <trkpt lat="49.06762" lon="1.91038">
        <ele>80.9</ele>
        <time>2022-10-23T08:01:26Z</time>
      </trkpt>
      <trkpt lat="49.06758" lon="1.91048">
        <ele>80.9</ele>
        <time>2022-10-23T08:01:32Z</time>
      </trkpt>
      <trkpt lat="49.06752" lon="1.91059">
        <ele>81</ele>
        <time>2022-10-23T08:01:38Z</time>
      </trkpt>
      <trkpt lat="49.06746" lon="1.91069">
        <ele>80.9</ele>
        <time>2022-10-23T08:01:44Z</time>
      </trkpt>
      <trkpt lat="49.06741" lon="1.91079">
        <ele>80.7</ele>
        <time>2022-10-23T08:01:50Z</time>
      </trkpt>
      <trkpt lat="49.06733" lon="1.91089">
        <ele>80.5</ele>
        <time>2022-10-23T08:01:56Z</time>
      </trkpt>
      <trkpt lat="49.06727" lon="1.911">
        <ele>80.7</ele>
        <time>2022-10-23T08:02:01Z</time>
      </trkpt>
      <trkpt lat="49.06721" lon="1.91113">
        <ele>80.9</ele>
        <time>2022-10-23T08:02:07Z</time>
      </trkpt>
      <trkpt lat="49.06714" lon="1.91125">
        <ele>80.4</ele>
        <time>2022-10-23T08:02:13Z</time>
      </trkpt>
      <trkpt lat="49.06708" lon="1.91137">
        <ele>80</ele>
        <time>2022-10-23T08:02:19Z</time>
      </trkpt>
      <trkpt lat="49.06702" lon="1.91144">
        <ele>80</ele>
        <time>2022-10-23T08:02:24Z</time>
      </trkpt>
      <trkpt lat="49.06697" lon="1.91154">
        <ele>80</ele>
        <time>2022-10-23T08:02:29Z</time>
      </trkpt>
      <trkpt lat="49.06692" lon="1.91164">
        <ele>79.9</ele>
        <time>2022-10-23T08:02:34Z</time>
      </trkpt>
      <trkpt lat="49.06685" lon="1.91175">
        <ele>79.7</ele>
        <time>2022-10-23T08:02:40Z</time>
      </trkpt>
      <trkpt lat="49.0668" lon="1.91183">
        <ele>79.5</ele>
        <time>2022-10-23T08:02:45Z</time>
      </trkpt>
      <trkpt lat="49.06676" lon="1.91195">
        <ele>79.3</ele>
        <time>2022-10-23T08:02:51Z</time>
      </trkpt>
      <trkpt lat="49.06671" lon="1.91208">
        <ele>79.1</ele>
        <time>2022-10-23T08:02:57Z</time>
      </trkpt>
      <trkpt lat="49.06667" lon="1.91219">
        <ele>79</ele>
        <time>2022-10-23T08:03:03Z</time>
      </trkpt>
      <trkpt lat="49.06662" lon="1.91232">
        <ele>78.8</ele>
        <time>2022-10-23T08:03:09Z</time>
      </trkpt>
      <trkpt lat="49.06657" lon="1.91241">
        <ele>78.5</ele>
        <time>2022-10-23T08:03:14Z</time>
      </trkpt>
      <trkpt lat="49.06653" lon="1.91251">
        <ele>78.5</ele>
        <time>2022-10-23T08:03:19Z</time>
      </trkpt>
      <trkpt lat="49.06648" lon="1.91265">
        <ele>78.2</ele>
        <time>2022-10-23T08:03:25Z</time>
      </trkpt>
      <trkpt lat="49.06642" lon="1.91278">
        <ele>78</ele>
        <time>2022-10-23T08:03:31Z</time>
      </trkpt>
      <trkpt lat="49.06636" lon="1.91292">
        <ele>77.9</ele>
        <time>2022-10-23T08:03:37Z</time>
      </trkpt>
      <trkpt lat="49.06631" lon="1.91303">
        <ele>77.4</ele>
        <time>2022-10-23T08:03:42Z</time>
      </trkpt>
      <trkpt lat="49.06625" lon="1.91314">
        <ele>76.9</ele>
        <time>2022-10-23T08:03:48Z</time>
      </trkpt>
      <trkpt lat="49.06622" lon="1.91322">
        <ele>76.6</ele>
        <time>2022-10-23T08:03:53Z</time>
      </trkpt>
      <trkpt lat="49.06619" lon="1.91334">
        <ele>76.3</ele>
        <time>2022-10-23T08:03:59Z</time>
      </trkpt>
      <trkpt lat="49.06614" lon="1.91347">
        <ele>76.6</ele>
        <time>2022-10-23T08:04:05Z</time>
      </trkpt>
      <trkpt lat="49.06609" lon="1.91356">
        <ele>76.6</ele>
        <time>2022-10-23T08:04:10Z</time>
      </trkpt>
      <trkpt lat="49.06602" lon="1.9137">
        <ele>76.4</ele>
        <time>2022-10-23T08:04:16Z</time>
      </trkpt>
      <trkpt lat="49.06598" lon="1.9138">
        <ele>76</ele>
        <time>2022-10-23T08:04:21Z</time>
      </trkpt>
      <trkpt lat="49.06594" lon="1.91392">
        <ele>75.8</ele>
        <time>2022-10-23T08:04:27Z</time>
      </trkpt>
      <trkpt lat="49.0659" lon="1.91402">
        <ele>75.9</ele>
        <time>2022-10-23T08:04:32Z</time>
      </trkpt>
      <trkpt lat="49.06585" lon="1.91412">
        <ele>75.9</ele>
        <time>2022-10-23T08:04:38Z</time>
      </trkpt>
      <trkpt lat="49.06582" lon="1.91419">
        <ele>75.9</ele>
        <time>2022-10-23T08:04:43Z</time>
      </trkpt>
      <trkpt lat="49.06577" lon="1.9143">
        <ele>75.6</ele>
        <time>2022-10-23T08:04:49Z</time>
      </trkpt>
      <trkpt lat="49.06572" lon="1.9144">
        <ele>75.2</ele>
        <time>2022-10-23T08:04:54Z</time>
      </trkpt>
      <trkpt lat="49.06566" lon="1.91458">
        <ele>74.7</ele>
        <time>2022-10-23T08:05:00Z</time>
      </trkpt>
      <trkpt lat="49.06561" lon="1.91468">
        <ele>74.4</ele>
        <time>2022-10-23T08:05:05Z</time>
      </trkpt>
      <trkpt lat="49.06556" lon="1.91483">
        <ele>74.4</ele>
        <time>2022-10-23T08:05:11Z</time>
      </trkpt>
      <trkpt lat="49.06551" lon="1.91493">
        <ele>74.6</ele>
        <time>2022-10-23T08:05:17Z</time>
      </trkpt>
      <trkpt lat="49.06546" lon="1.91506">
        <ele>74.6</ele>
        <time>2022-10-23T08:05:23Z</time>
      </trkpt>
      <trkpt lat="49.06543" lon="1.91517">
        <ele>74.3</ele>
        <time>2022-10-23T08:05:28Z</time>
      </trkpt>
      <trkpt lat="49.06538" lon="1.91533">
        <ele>73.7</ele>
        <time>2022-10-23T08:05:34Z</time>
      </trkpt>
      <trkpt lat="49.06535" lon="1.91544">
        <ele>73.5</ele>
        <time>2022-10-23T08:05:40Z</time>
      </trkpt>
      <trkpt lat="49.06532" lon="1.91556">
        <ele>73.3</ele>
        <time>2022-10-23T08:05:45Z</time>
      </trkpt>
      <trkpt lat="49.06528" lon="1.91567">
        <ele>73</ele>
        <time>2022-10-23T08:05:50Z</time>
      </trkpt>
      <trkpt lat="49.06525" lon="1.91579">
        <ele>73</ele>
        <time>2022-10-23T08:05:56Z</time>
      </trkpt>
      <trkpt lat="49.06522" lon="1.9159">
        <ele>73</ele>
        <time>2022-10-23T08:06:02Z</time>
      </trkpt>
      <trkpt lat="49.0652" lon="1.91601">
        <ele>72.8</ele>
        <time>2022-10-23T08:06:07Z</time>
      </trkpt>
      <trkpt lat="49.06518" lon="1.91612">
        <ele>72.6</ele>
        <time>2022-10-23T08:06:12Z</time>
      </trkpt>
      <trkpt lat="49.06514" lon="1.91624">
        <ele>72.5</ele>
        <time>2022-10-23T08:06:17Z</time>
      </trkpt>
      <trkpt lat="49.06512" lon="1.91636">
        <ele>72.4</ele>
        <time>2022-10-23T08:06:23Z</time>
      </trkpt>
      <trkpt lat="49.06509" lon="1.91648">
        <ele>72.1</ele>
        <time>2022-10-23T08:06:28Z</time>
      </trkpt>
      <trkpt lat="49.06507" lon="1.91659">
        <ele>71.7</ele>
        <time>2022-10-23T08:06:33Z</time>
      </trkpt>
      <trkpt lat="49.06504" lon="1.91674">
        <ele>71.3</ele>
        <time>2022-10-23T08:06:39Z</time>
      </trkpt>
      <trkpt lat="49.065" lon="1.91685">
        <ele>71</ele>
        <time>2022-10-23T08:06:44Z</time>
      </trkpt>
      <trkpt lat="49.06498" lon="1.91697">
        <ele>71</ele>
        <time>2022-10-23T08:06:49Z</time>
      </trkpt>
      <trkpt lat="49.06495" lon="1.91709">
        <ele>71</ele>
        <time>2022-10-23T08:06:55Z</time>
      </trkpt>
      <trkpt lat="49.06492" lon="1.91725">
        <ele>71</ele>
        <time>2022-10-23T08:07:01Z</time>
      </trkpt>
      <trkpt lat="49.06489" lon="1.91735">
        <ele>70.8</ele>
        <time>2022-10-23T08:07:06Z</time>
      </trkpt>
      <trkpt lat="49.06487" lon="1.91749">
        <ele>70.5</ele>
        <time>2022-10-23T08:07:12Z</time>
      </trkpt>
      <trkpt lat="49.06483" lon="1.91762">
        <ele>70.4</ele>
        <time>2022-10-23T08:07:17Z</time>
      </trkpt>
      <trkpt lat="49.06481" lon="1.91772">
        <ele>70.3</ele>
        <time>2022-10-23T08:07:22Z</time>
      </trkpt>
      <trkpt lat="49.06478" lon="1.91784">
        <ele>70.2</ele>
        <time>2022-10-23T08:07:27Z</time>
      </trkpt>
      <trkpt lat="49.06475" lon="1.91797">
        <ele>70.2</ele>
        <time>2022-10-23T08:07:32Z</time>
      </trkpt>
      <trkpt lat="49.06472" lon="1.91811">
        <ele>70.2</ele>
        <time>2022-10-23T08:07:38Z</time>
      </trkpt>
      <trkpt lat="49.06469" lon="1.91823">
        <ele>70.5</ele>
        <time>2022-10-23T08:07:43Z</time>
      </trkpt>
      <trkpt lat="49.06465" lon="1.91837">
        <ele>70.6</ele>
        <time>2022-10-23T08:07:49Z</time>
      </trkpt>
      <trkpt lat="49.06461" lon="1.91851">
        <ele>70.2</ele>
        <time>2022-10-23T08:07:54Z</time>
      </trkpt>
      <trkpt lat="49.06457" lon="1.91864">
        <ele>70</ele>
        <time>2022-10-23T08:08:00Z</time>
      </trkpt>
      <trkpt lat="49.06454" lon="1.91874">
        <ele>70</ele>
        <time>2022-10-23T08:08:05Z</time>
      </trkpt>
      <trkpt lat="49.06448" lon="1.91885">
        <ele>70</ele>
        <time>2022-10-23T08:08:11Z</time>
      </trkpt>
      <trkpt lat="49.06441" lon="1.91895">
        <ele>70</ele>
        <time>2022-10-23T08:08:17Z</time>
      </trkpt>
      <trkpt lat="49.06434" lon="1.91905">
        <ele>70</ele>
        <time>2022-10-23T08:08:23Z</time>
      </trkpt>
      <trkpt lat="49.06427" lon="1.91915">
        <ele>70</ele>
        <time>2022-10-23T08:08:29Z</time>
      </trkpt>
      <trkpt lat="49.0642" lon="1.91924">
        <ele>70</ele>
        <time>2022-10-23T08:08:35Z</time>
      </trkpt>
      <trkpt lat="49.06411" lon="1.91931">
        <ele>70</ele>
        <time>2022-10-23T08:08:41Z</time>
      </trkpt>
      <trkpt lat="49.06404" lon="1.91939">
        <ele>70</ele>
        <time>2022-10-23T08:08:47Z</time>
      </trkpt>
      <trkpt lat="49.06397" lon="1.91944">
        <ele>70</ele>
        <time>2022-10-23T08:08:52Z</time>
      </trkpt>
      <trkpt lat="49.0639" lon="1.9195">
        <ele>70.2</ele>
        <time>2022-10-23T08:08:58Z</time>
      </trkpt>
      <trkpt lat="49.06383" lon="1.91956">
        <ele>70.6</ele>
        <time>2022-10-23T08:09:04Z</time>
      </trkpt>
      <trkpt lat="49.06374" lon="1.91963">
        <ele>71.2</ele>
        <time>2022-10-23T08:09:10Z</time>
      </trkpt>
      <trkpt lat="49.06364" lon="1.91969">
        <ele>71.8</ele>
        <time>2022-10-23T08:09:16Z</time>
      </trkpt>
      <trkpt lat="49.06356" lon="1.91975">
        <ele>72.3</ele>
        <time>2022-10-23T08:09:22Z</time>
      </trkpt>
      <trkpt lat="49.06348" lon="1.91979">
        <ele>72.7</ele>
        <time>2022-10-23T08:09:27Z</time>
      </trkpt>
      <trkpt lat="49.06338" lon="1.91985">
        <ele>73.3</ele>
        <time>2022-10-23T08:09:33Z</time>
      </trkpt>
      <trkpt lat="49.0633" lon="1.91991">
        <ele>73.7</ele>
        <time>2022-10-23T08:09:38Z</time>
      </trkpt>
      <trkpt lat="49.06321" lon="1.91998">
        <ele>74</ele>
        <time>2022-10-23T08:09:44Z</time>
      </trkpt>
      <trkpt lat="49.06314" lon="1.92002">
        <ele>74.1</ele>
        <time>2022-10-23T08:09:49Z</time>
      </trkpt>
      <trkpt lat="49.06307" lon="1.92006">
        <ele>74.2</ele>
        <time>2022-10-23T08:09:55Z</time>
      </trkpt>
      <trkpt lat="49.06297" lon="1.92013">
        <ele>74.6</ele>
        <time>2022-10-23T08:10:01Z</time>
      </trkpt>
      <trkpt lat="49.06289" lon="1.92019">
        <ele>74.9</ele>
        <time>2022-10-23T08:10:07Z</time>
      </trkpt>
      <trkpt lat="49.06283" lon="1.9202">
        <ele>74.9</ele>
        <time>2022-10-23T08:10:12Z</time>
      </trkpt>
      <trkpt lat="49.06275" lon="1.92024">
        <ele>75</ele>
        <time>2022-10-23T08:10:18Z</time>
      </trkpt>
      <trkpt lat="49.06268" lon="1.92029">
        <ele>75</ele>
        <time>2022-10-23T08:10:23Z</time>
      </trkpt>
      <trkpt lat="49.06259" lon="1.92034">
        <ele>75.2</ele>
        <time>2022-10-23T08:10:29Z</time>
      </trkpt>
      <trkpt lat="49.06251" lon="1.92041">
        <ele>75.5</ele>
        <time>2022-10-23T08:10:35Z</time>
      </trkpt>
      <trkpt lat="49.06244" lon="1.92045">
        <ele>75.7</ele>
        <time>2022-10-23T08:10:40Z</time>
      </trkpt>
      <trkpt lat="49.06237" lon="1.92048">
        <ele>75.9</ele>
        <time>2022-10-23T08:10:45Z</time>
      </trkpt>
      <trkpt lat="49.06229" lon="1.92051">
        <ele>76</ele>
        <time>2022-10-23T08:10:51Z</time>
      </trkpt>
      <trkpt lat="49.06224" lon="1.92059">
        <ele>76.1</ele>
        <time>2022-10-23T08:10:56Z</time>
      </trkpt>
      <trkpt lat="49.0623" lon="1.92068">
        <ele>76.5</ele>
        <time>2022-10-23T08:11:02Z</time>
      </trkpt>
      <trkpt lat="49.06237" lon="1.9207">
        <ele>76.5</ele>
        <time>2022-10-23T08:11:07Z</time>
      </trkpt>
      <trkpt lat="49.06244" lon="1.92073">
        <ele>76.6</ele>
        <time>2022-10-23T08:11:13Z</time>
      </trkpt>
      <trkpt lat="49.0625" lon="1.92076">
        <ele>76.7</ele>
        <time>2022-10-23T08:11:18Z</time>
      </trkpt>
      <trkpt lat="49.06259" lon="1.92078">
        <ele>76.8</ele>
        <time>2022-10-23T08:11:24Z</time>
      </trkpt>
      <trkpt lat="49.06269" lon="1.9208">
        <ele>76.9</ele>
        <time>2022-10-23T08:11:30Z</time>
      </trkpt>
      <trkpt lat="49.06277" lon="1.92084">
        <ele>77</ele>
        <time>2022-10-23T08:11:35Z</time>
      </trkpt>
      <trkpt lat="49.06286" lon="1.92088">
        <ele>77</ele>
        <time>2022-10-23T08:11:41Z</time>
      </trkpt>
      <trkpt lat="49.06294" lon="1.92092">
        <ele>77</ele>
        <time>2022-10-23T08:11:47Z</time>
      </trkpt>
      <trkpt lat="49.063" lon="1.92095">
        <ele>77</ele>
        <time>2022-10-23T08:11:52Z</time>
      </trkpt>
      <trkpt lat="49.0631" lon="1.92099">
        <ele>76.9</ele>
        <time>2022-10-23T08:11:58Z</time>
      </trkpt>
      <trkpt lat="49.06318" lon="1.92101">
        <ele>76.8</ele>
        <time>2022-10-23T08:12:04Z</time>
      </trkpt>
      <trkpt lat="49.06327" lon="1.92102">
        <ele>76.7</ele>
        <time>2022-10-23T08:12:09Z</time>
      </trkpt>
      <trkpt lat="49.06335" lon="1.92105">
        <ele>76.8</ele>
        <time>2022-10-23T08:12:15Z</time>
      </trkpt>
      <trkpt lat="49.06343" lon="1.92109">
        <ele>76.9</ele>
        <time>2022-10-23T08:12:20Z</time>
      </trkpt>
      <trkpt lat="49.06353" lon="1.92113">
        <ele>77</ele>
        <time>2022-10-23T08:12:26Z</time>
      </trkpt>
      <trkpt lat="49.06362" lon="1.92117">
        <ele>77</ele>
        <time>2022-10-23T08:12:32Z</time>
      </trkpt>
      <trkpt lat="49.06371" lon="1.92119">
        <ele>76.7</ele>
        <time>2022-10-23T08:12:38Z</time>
      </trkpt>
      <trkpt lat="49.06378" lon="1.92122">
        <ele>76.4</ele>
        <time>2022-10-23T08:12:43Z</time>
      </trkpt>
      <trkpt lat="49.06389" lon="1.92126">
        <ele>76</ele>
        <time>2022-10-23T08:12:49Z</time>
      </trkpt>
      <trkpt lat="49.06398" lon="1.92129">
        <ele>75.7</ele>
        <time>2022-10-23T08:12:55Z</time>
      </trkpt>
      <trkpt lat="49.06408" lon="1.92132">
        <ele>75.3</ele>
        <time>2022-10-23T08:13:01Z</time>
      </trkpt>
      <trkpt lat="49.06415" lon="1.92135">
        <ele>75.1</ele>
        <time>2022-10-23T08:13:06Z</time>
      </trkpt>
      <trkpt lat="49.06422" lon="1.9214">
        <ele>74.4</ele>
        <time>2022-10-23T08:13:11Z</time>
      </trkpt>
      <trkpt lat="49.0643" lon="1.92145">
        <ele>73.8</ele>
        <time>2022-10-23T08:13:17Z</time>
      </trkpt>
      <trkpt lat="49.06438" lon="1.9215">
        <ele>73.3</ele>
        <time>2022-10-23T08:13:22Z</time>
      </trkpt>
      <trkpt lat="49.06447" lon="1.92159">
        <ele>73.2</ele>
        <time>2022-10-23T08:13:28Z</time>
      </trkpt>
      <trkpt lat="49.06456" lon="1.92168">
        <ele>72.8</ele>
        <time>2022-10-23T08:13:34Z</time>
      </trkpt>
      <trkpt lat="49.06463" lon="1.92174">
        <ele>72</ele>
        <time>2022-10-23T08:13:40Z</time>
      </trkpt>
      <trkpt lat="49.0647" lon="1.9218">
        <ele>71.2</ele>
        <time>2022-10-23T08:13:46Z</time>
      </trkpt>
      <trkpt lat="49.06478" lon="1.92187">
        <ele>70.2</ele>
        <time>2022-10-23T08:13:51Z</time>
      </trkpt>
      <trkpt lat="49.06484" lon="1.92193">
        <ele>69.2</ele>
        <time>2022-10-23T08:13:56Z</time>
      </trkpt>
      <trkpt lat="49.06492" lon="1.92199">
        <ele>68.4</ele>
        <time>2022-10-23T08:14:01Z</time>
      </trkpt>
      <trkpt lat="49.06499" lon="1.92202">
        <ele>67.4</ele>
        <time>2022-10-23T08:14:07Z</time>
      </trkpt>
      <trkpt lat="49.06505" lon="1.92207">
        <ele>67</ele>
        <time>2022-10-23T08:14:12Z</time>
      </trkpt>
      <trkpt lat="49.06512" lon="1.92212">
        <ele>66.5</ele>
        <time>2022-10-23T08:14:18Z</time>
      </trkpt>
      <trkpt lat="49.0652" lon="1.92217">
        <ele>65.8</ele>
        <time>2022-10-23T08:14:24Z</time>
      </trkpt>
      <trkpt lat="49.06527" lon="1.9222">
        <ele>65</ele>
        <time>2022-10-23T08:14:29Z</time>
      </trkpt>
      <trkpt lat="49.06534" lon="1.92225">
        <ele>65.2</ele>
        <time>2022-10-23T08:14:35Z</time>
      </trkpt>
      <trkpt lat="49.06545" lon="1.92231">
        <ele>65</ele>
        <time>2022-10-23T08:14:41Z</time>
      </trkpt>
      <trkpt lat="49.06552" lon="1.92236">
        <ele>64.6</ele>
        <time>2022-10-23T08:14:46Z</time>
      </trkpt>
      <trkpt lat="49.06561" lon="1.92242">
        <ele>64.1</ele>
        <time>2022-10-23T08:14:52Z</time>
      </trkpt>
      <trkpt lat="49.06569" lon="1.92247">
        <ele>64.2</ele>
        <time>2022-10-23T08:14:58Z</time>
      </trkpt>
      <trkpt lat="49.06576" lon="1.92253">
        <ele>64.3</ele>
        <time>2022-10-23T08:15:03Z</time>
      </trkpt>
      <trkpt lat="49.06586" lon="1.92259">
        <ele>64.5</ele>
        <time>2022-10-23T08:15:09Z</time>
      </trkpt>
      <trkpt lat="49.06594" lon="1.92265">
        <ele>64.5</ele>
        <time>2022-10-23T08:15:15Z</time>
      </trkpt>
      <trkpt lat="49.06601" lon="1.92268">
        <ele>64.6</ele>
        <time>2022-10-23T08:15:20Z</time>
      </trkpt>
      <trkpt lat="49.06611" lon="1.9227">
        <ele>64.8</ele>
        <time>2022-10-23T08:15:26Z</time>
      </trkpt>
      <trkpt lat="49.06618" lon="1.92271">
        <ele>64.2</ele>
        <time>2022-10-23T08:15:31Z</time>
      </trkpt>
      <trkpt lat="49.06625" lon="1.92274">
        <ele>63.4</ele>
        <time>2022-10-23T08:15:36Z</time>
      </trkpt>
      <trkpt lat="49.06634" lon="1.92277">
        <ele>62.4</ele>
        <time>2022-10-23T08:15:42Z</time>
      </trkpt>
      <trkpt lat="49.06641" lon="1.92279">
        <ele>61.7</ele>
        <time>2022-10-23T08:15:48Z</time>
      </trkpt>
      <trkpt lat="49.06648" lon="1.92282">
        <ele>60.8</ele>
        <time>2022-10-23T08:15:54Z</time>
      </trkpt>
      <trkpt lat="49.06657" lon="1.92286">
        <ele>59.7</ele>
        <time>2022-10-23T08:16:00Z</time>
      </trkpt>
      <trkpt lat="49.06666" lon="1.9229">
        <ele>58.6</ele>
        <time>2022-10-23T08:16:05Z</time>
      </trkpt>
      <trkpt lat="49.06676" lon="1.92293">
        <ele>58.2</ele>
        <time>2022-10-23T08:16:10Z</time>
      </trkpt>
      <trkpt lat="49.06686" lon="1.92297">
        <ele>57.9</ele>
        <time>2022-10-23T08:16:16Z</time>
      </trkpt>
      <trkpt lat="49.06694" lon="1.923">
        <ele>57.8</ele>
        <time>2022-10-23T08:16:21Z</time>
      </trkpt>
      <trkpt lat="49.06703" lon="1.92302">
        <ele>57.9</ele>
        <time>2022-10-23T08:16:26Z</time>
      </trkpt>
      <trkpt lat="49.06713" lon="1.92305">
        <ele>58</ele>
        <time>2022-10-23T08:16:32Z</time>
      </trkpt>
      <trkpt lat="49.06722" lon="1.9231">
        <ele>58</ele>
        <time>2022-10-23T08:16:38Z</time>
      </trkpt>
      <trkpt lat="49.06731" lon="1.92311">
        <ele>58.1</ele>
        <time>2022-10-23T08:16:43Z</time>
      </trkpt>
      <trkpt lat="49.06739" lon="1.92304">
        <ele>58</ele>
        <time>2022-10-23T08:16:49Z</time>
      </trkpt>
      <trkpt lat="49.06745" lon="1.92296">
        <ele>57.9</ele>
        <time>2022-10-23T08:16:54Z</time>
      </trkpt>
      <trkpt lat="49.06751" lon="1.92286">
        <ele>58.2</ele>
        <time>2022-10-23T08:17:00Z</time>
      </trkpt>
      <trkpt lat="49.06755" lon="1.92277">
        <ele>58.7</ele>
        <time>2022-10-23T08:17:05Z</time>
      </trkpt>
      <trkpt lat="49.0676" lon="1.92268">
        <ele>59.1</ele>
        <time>2022-10-23T08:17:10Z</time>
      </trkpt>
      <trkpt lat="49.06765" lon="1.9226">
        <ele>59.5</ele>
        <time>2022-10-23T08:17:15Z</time>
      </trkpt>
      <trkpt lat="49.06767" lon="1.92259">
        <ele>59.6</ele>
        <time>2022-10-23T08:17:20Z</time>
      </trkpt>
      <trkpt lat="49.0677" lon="1.92259">
        <ele>59.8</ele>
        <time>2022-10-23T08:17:26Z</time>
      </trkpt>
      <trkpt lat="49.06772" lon="1.92262">
        <ele>60.2</ele>
        <time>2022-10-23T08:17:32Z</time>
      </trkpt>
      <trkpt lat="49.06773" lon="1.92266">
        <ele>60.7</ele>
        <time>2022-10-23T08:17:37Z</time>
      </trkpt>
      <trkpt lat="49.06773" lon="1.92268">
        <ele>60.8</ele>
        <time>2022-10-23T08:17:42Z</time>
      </trkpt>
      <trkpt lat="49.06773" lon="1.92266">
        <ele>60.7</ele>
        <time>2022-10-23T08:17:48Z</time>
      </trkpt>
      <trkpt lat="49.06773" lon="1.92265">
        <ele>60.6</ele>
        <time>2022-10-23T08:17:54Z</time>
      </trkpt>
      <trkpt lat="49.06773" lon="1.92264">
        <ele>60.6</ele>
        <time>2022-10-23T08:17:59Z</time>
      </trkpt>
      <trkpt lat="49.06774" lon="1.92264">
        <ele>60.6</ele>
        <time>2022-10-23T08:18:05Z</time>
      </trkpt>
      <trkpt lat="49.06773" lon="1.92263">
        <ele>60.5</ele>
        <time>2022-10-23T08:18:11Z</time>
      </trkpt>
      <trkpt lat="49.06773" lon="1.92264">
        <ele>60.5</ele>
        <time>2022-10-23T08:18:17Z</time>
      </trkpt>
      <trkpt lat="49.06772" lon="1.92266">
        <ele>60.5</ele>
        <time>2022-10-23T08:18:23Z</time>
      </trkpt>
      <trkpt lat="49.06771" lon="1.92266">
        <ele>60.4</ele>
        <time>2022-10-23T08:18:29Z</time>
      </trkpt>
      <trkpt lat="49.06771" lon="1.92266">
        <ele>60.4</ele>
        <time>2022-10-23T08:18:34Z</time>
      </trkpt>
      <trkpt lat="49.06771" lon="1.92266">
        <ele>60.4</ele>
        <time>2022-10-23T08:18:40Z</time>
      </trkpt>
      <trkpt lat="49.06771" lon="1.92266">
        <ele>60.4</ele>
        <time>2022-10-23T08:18:45Z</time>
      </trkpt>
      <trkpt lat="49.06771" lon="1.92266">
        <ele>60.3</ele>
        <time>2022-10-23T08:18:50Z</time>
      </trkpt>
      <trkpt lat="49.06771" lon="1.92266">
        <ele>60.3</ele>
        <time>2022-10-23T08:18:56Z</time>
      </trkpt>
      <trkpt lat="49.0677" lon="1.92266">
        <ele>60.3</ele>
        <time>2022-10-23T08:19:02Z</time>
      </trkpt>
      <trkpt lat="49.0677" lon="1.92266">
        <ele>60.3</ele>
        <time>2022-10-23T08:19:07Z</time>
      </trkpt>
      <trkpt lat="49.0677" lon="1.92266">
        <ele>60.3</ele>
        <time>2022-10-23T08:19:13Z</time>
      </trkpt>
      <trkpt lat="49.0677" lon="1.92265">
        <ele>60.2</ele>
        <time>2022-10-23T08:19:19Z</time>
      </trkpt>
      <trkpt lat="49.06771" lon="1.92266">
        <ele>60.3</ele>
        <time>2022-10-23T08:19:25Z</time>
      </trkpt>
      <trkpt lat="49.06772" lon="1.92266">
        <ele>60.5</ele>
        <time>2022-10-23T08:19:31Z</time>
      </trkpt>
      <trkpt lat="49.06772" lon="1.92266">
        <ele>60.5</ele>
        <time>2022-10-23T08:19:37Z</time>
      </trkpt>
      <trkpt lat="49.06772" lon="1.92264">
        <ele>60.4</ele>
        <time>2022-10-23T08:19:43Z</time>
      </trkpt>
      <trkpt lat="49.06774" lon="1.92267">
        <ele>60.8</ele>
        <time>2022-10-23T08:19:49Z</time>
      </trkpt>
      <trkpt lat="49.06774" lon="1.92268">
        <ele>60.8</ele>
        <time>2022-10-23T08:19:54Z</time>
      </trkpt>
      <trkpt lat="49.06774" lon="1.92268">
        <ele>60.8</ele>
        <time>2022-10-23T08:19:59Z</time>
      </trkpt>
      <trkpt lat="49.06774" lon="1.92267">
        <ele>60.7</ele>
        <time>2022-10-23T08:20:05Z</time>
      </trkpt>
      <trkpt lat="49.06773" lon="1.92267">
        <ele>60.7</ele>
        <time>2022-10-23T08:20:10Z</time>
      </trkpt>
      <trkpt lat="49.06774" lon="1.92267">
        <ele>60.8</ele>
        <time>2022-10-23T08:20:16Z</time>
      </trkpt>
      <trkpt lat="49.06774" lon="1.92267">
        <ele>60.7</ele>
        <time>2022-10-23T08:20:21Z</time>
      </trkpt>
      <trkpt lat="49.06773" lon="1.92268">
        <ele>60.8</ele>
        <time>2022-10-23T08:20:27Z</time>
      </trkpt>
      <trkpt lat="49.06774" lon="1.9227">
        <ele>60.9</ele>
        <time>2022-10-23T08:20:32Z</time>
      </trkpt>
      <trkpt lat="49.06773" lon="1.92272">
        <ele>61</ele>
        <time>2022-10-23T08:20:38Z</time>
      </trkpt>
      <trkpt lat="49.06773" lon="1.92273">
        <ele>61</ele>
        <time>2022-10-23T08:20:43Z</time>
      </trkpt>
      <trkpt lat="49.06773" lon="1.92273">
        <ele>61</ele>
        <time>2022-10-23T08:20:49Z</time>
      </trkpt>
      <trkpt lat="49.06773" lon="1.92274">
        <ele>61.1</ele>
        <time>2022-10-23T08:20:54Z</time>
      </trkpt>
      <trkpt lat="49.06773" lon="1.92276">
        <ele>61.1</ele>
        <time>2022-10-23T08:21:00Z</time>
      </trkpt>
      <trkpt lat="49.06773" lon="1.92278">
        <ele>61.3</ele>
        <time>2022-10-23T08:21:05Z</time>
      </trkpt>
      <trkpt lat="49.06775" lon="1.92279">
        <ele>61.6</ele>
        <time>2022-10-23T08:21:11Z</time>
      </trkpt>
      <trkpt lat="49.06776" lon="1.92278">
        <ele>61.8</ele>
        <time>2022-10-23T08:21:16Z</time>
      </trkpt>
      <trkpt lat="49.06775" lon="1.92278">
        <ele>61.6</ele>
        <time>2022-10-23T08:21:22Z</time>
      </trkpt>
      <trkpt lat="49.06775" lon="1.92279">
        <ele>61.6</ele>
        <time>2022-10-23T08:21:28Z</time>
      </trkpt>
      <trkpt lat="49.06775" lon="1.92279">
        <ele>61.7</ele>
        <time>2022-10-23T08:21:34Z</time>
      </trkpt>
      <trkpt lat="49.06777" lon="1.92276">
        <ele>61.7</ele>
        <time>2022-10-23T08:21:40Z</time>
      </trkpt>
      <trkpt lat="49.06776" lon="1.92274">
        <ele>61.5</ele>
        <time>2022-10-23T08:21:46Z</time>
      </trkpt>
      <trkpt lat="49.06776" lon="1.92275">
        <ele>61.5</ele>
        <time>2022-10-23T08:21:52Z</time>
      </trkpt>
      <trkpt lat="49.06775" lon="1.92276">
        <ele>61.6</ele>
        <time>2022-10-23T08:21:57Z</time>
      </trkpt>
      <trkpt lat="49.06775" lon="1.92278">
        <ele>61.7</ele>
        <time>2022-10-23T08:22:03Z</time>
      </trkpt>
      <trkpt lat="49.06775" lon="1.92279">
        <ele>61.7</ele>
        <time>2022-10-23T08:22:09Z</time>
      </trkpt>
      <trkpt lat="49.06775" lon="1.92278">
        <ele>61.6</ele>
        <time>2022-10-23T08:22:14Z</time>
      </trkpt>
      <trkpt lat="49.06776" lon="1.92276">
        <ele>61.6</ele>
        <time>2022-10-23T08:22:19Z</time>
      </trkpt>
      <trkpt lat="49.06776" lon="1.92275">
        <ele>61.5</ele>
        <time>2022-10-23T08:22:25Z</time>
      </trkpt>
      <trkpt lat="49.06774" lon="1.92273">
        <ele>61.1</ele>
        <time>2022-10-23T08:22:30Z</time>
      </trkpt>
      <trkpt lat="49.0677" lon="1.92282">
        <ele>61.1</ele>
        <time>2022-10-23T08:22:36Z</time>
      </trkpt>
      <trkpt lat="49.06767" lon="1.92289">
        <ele>60.9</ele>
        <time>2022-10-23T08:22:41Z</time>
      </trkpt>
      <trkpt lat="49.06762" lon="1.923">
        <ele>60.5</ele>
        <time>2022-10-23T08:22:47Z</time>
      </trkpt>
      <trkpt lat="49.06759" lon="1.92313">
        <ele>60.2</ele>
        <time>2022-10-23T08:22:52Z</time>
      </trkpt>
      <trkpt lat="49.06755" lon="1.92325">
        <ele>59.7</ele>
        <time>2022-10-23T08:22:58Z</time>
      </trkpt>
      <trkpt lat="49.06753" lon="1.92335">
        <ele>59.7</ele>
        <time>2022-10-23T08:23:03Z</time>
      </trkpt>
      <trkpt lat="49.06748" lon="1.92347">
        <ele>59.4</ele>
        <time>2022-10-23T08:23:09Z</time>
      </trkpt>
      <trkpt lat="49.06746" lon="1.9236">
        <ele>59.5</ele>
        <time>2022-10-23T08:23:15Z</time>
      </trkpt>
      <trkpt lat="49.06743" lon="1.92377">
        <ele>60.4</ele>
        <time>2022-10-23T08:23:21Z</time>
      </trkpt>
      <trkpt lat="49.0674" lon="1.92387">
        <ele>60.7</ele>
        <time>2022-10-23T08:23:26Z</time>
      </trkpt>
      <trkpt lat="49.06736" lon="1.92398">
        <ele>60.6</ele>
        <time>2022-10-23T08:23:32Z</time>
      </trkpt>
      <trkpt lat="49.06733" lon="1.92405">
        <ele>60.4</ele>
        <time>2022-10-23T08:23:37Z</time>
      </trkpt>
      <trkpt lat="49.06728" lon="1.92417">
        <ele>60.2</ele>
        <time>2022-10-23T08:23:43Z</time>
      </trkpt>
      <trkpt lat="49.06724" lon="1.92428">
        <ele>60.1</ele>
        <time>2022-10-23T08:23:49Z</time>
      </trkpt>
      <trkpt lat="49.0672" lon="1.92439">
        <ele>60.4</ele>
        <time>2022-10-23T08:23:54Z</time>
      </trkpt>
      <trkpt lat="49.06717" lon="1.92449">
        <ele>60.6</ele>
        <time>2022-10-23T08:23:59Z</time>
      </trkpt>
      <trkpt lat="49.06715" lon="1.92461">
        <ele>60.8</ele>
        <time>2022-10-23T08:24:05Z</time>
      </trkpt>
      <trkpt lat="49.06712" lon="1.92473">
        <ele>60.8</ele>
        <time>2022-10-23T08:24:10Z</time>
      </trkpt>
      <trkpt lat="49.06709" lon="1.92488">
        <ele>60.2</ele>
        <time>2022-10-23T08:24:16Z</time>
      </trkpt>
      <trkpt lat="49.06708" lon="1.92499">
        <ele>59.8</ele>
        <time>2022-10-23T08:24:21Z</time>
      </trkpt>
      <trkpt lat="49.06707" lon="1.92514">
        <ele>59.9</ele>
        <time>2022-10-23T08:24:27Z</time>
      </trkpt>
      <trkpt lat="49.06705" lon="1.92527">
        <ele>59.9</ele>
        <time>2022-10-23T08:24:32Z</time>
      </trkpt>
      <trkpt lat="49.06706" lon="1.92541">
        <ele>59.8</ele>
        <time>2022-10-23T08:24:38Z</time>
      </trkpt>
      <trkpt lat="49.06704" lon="1.9255">
        <ele>59.5</ele>
        <time>2022-10-23T08:24:43Z</time>
      </trkpt>
      <trkpt lat="49.06703" lon="1.92558">
        <ele>59.4</ele>
        <time>2022-10-23T08:24:48Z</time>
      </trkpt>
      <trkpt lat="49.06702" lon="1.92572">
        <ele>59.8</ele>
        <time>2022-10-23T08:24:54Z</time>
      </trkpt>
      <trkpt lat="49.067" lon="1.92587">
        <ele>60.1</ele>
        <time>2022-10-23T08:25:00Z</time>
      </trkpt>
      <trkpt lat="49.06697" lon="1.92597">
        <ele>59.9</ele>
        <time>2022-10-23T08:25:05Z</time>
      </trkpt>
      <trkpt lat="49.06693" lon="1.92612">
        <ele>59.8</ele>
        <time>2022-10-23T08:25:11Z</time>
      </trkpt>
      <trkpt lat="49.0669" lon="1.92628">
        <ele>59.8</ele>
        <time>2022-10-23T08:25:17Z</time>
      </trkpt>
      <trkpt lat="49.06688" lon="1.92636">
        <ele>59.8</ele>
        <time>2022-10-23T08:25:22Z</time>
      </trkpt>
      <trkpt lat="49.06686" lon="1.92648">
        <ele>59.8</ele>
        <time>2022-10-23T08:25:28Z</time>
      </trkpt>
      <trkpt lat="49.06683" lon="1.92658">
        <ele>59.7</ele>
        <time>2022-10-23T08:25:33Z</time>
      </trkpt>
      <trkpt lat="49.06682" lon="1.92668">
        <ele>59.8</ele>
        <time>2022-10-23T08:25:39Z</time>
      </trkpt>
      <trkpt lat="49.06681" lon="1.92682">
        <ele>60.1</ele>
        <time>2022-10-23T08:25:44Z</time>
      </trkpt>
      <trkpt lat="49.06677" lon="1.92696">
        <ele>60.1</ele>
        <time>2022-10-23T08:25:50Z</time>
      </trkpt>
      <trkpt lat="49.06671" lon="1.92709">
        <ele>60</ele>
        <time>2022-10-23T08:25:56Z</time>
      </trkpt>
      <trkpt lat="49.06666" lon="1.92724">
        <ele>59.9</ele>
        <time>2022-10-23T08:26:02Z</time>
      </trkpt>
      <trkpt lat="49.06662" lon="1.92736">
        <ele>59.7</ele>
        <time>2022-10-23T08:26:08Z</time>
      </trkpt>
      <trkpt lat="49.06661" lon="1.92747">
        <ele>59.8</ele>
        <time>2022-10-23T08:26:14Z</time>
      </trkpt>
      <trkpt lat="49.06657" lon="1.92758">
        <ele>60.3</ele>
        <time>2022-10-23T08:26:19Z</time>
      </trkpt>
      <trkpt lat="49.06655" lon="1.92767">
        <ele>60.9</ele>
        <time>2022-10-23T08:26:25Z</time>
      </trkpt>
      <trkpt lat="49.0665" lon="1.92778">
        <ele>60.9</ele>
        <time>2022-10-23T08:26:31Z</time>
      </trkpt>
      <trkpt lat="49.06644" lon="1.92793">
        <ele>60.3</ele>
        <time>2022-10-23T08:26:37Z</time>
      </trkpt>
      <trkpt lat="49.0664" lon="1.92804">
        <ele>60.1</ele>
        <time>2022-10-23T08:26:42Z</time>
      </trkpt>
      <trkpt lat="49.06637" lon="1.92815">
        <ele>60.6</ele>
        <time>2022-10-23T08:26:48Z</time>
      </trkpt>
      <trkpt lat="49.06632" lon="1.92825">
        <ele>60.8</ele>
        <time>2022-10-23T08:26:54Z</time>
      </trkpt>
      <trkpt lat="49.06628" lon="1.92838">
        <ele>61</ele>
        <time>2022-10-23T08:27:00Z</time>
      </trkpt>
      <trkpt lat="49.06626" lon="1.92846">
        <ele>61.1</ele>
        <time>2022-10-23T08:27:05Z</time>
      </trkpt>
      <trkpt lat="49.06622" lon="1.92855">
        <ele>60.8</ele>
        <time>2022-10-23T08:27:10Z</time>
      </trkpt>
      <trkpt lat="49.06618" lon="1.92865">
        <ele>60.4</ele>
        <time>2022-10-23T08:27:16Z</time>
      </trkpt>
      <trkpt lat="49.06613" lon="1.92882">
        <ele>60</ele>
        <time>2022-10-23T08:27:22Z</time>
      </trkpt>
      <trkpt lat="49.06609" lon="1.92897">
        <ele>59.8</ele>
        <time>2022-10-23T08:27:27Z</time>
      </trkpt>
      <trkpt lat="49.06605" lon="1.92909">
        <ele>59.6</ele>
        <time>2022-10-23T08:27:33Z</time>
      </trkpt>
      <trkpt lat="49.06601" lon="1.92919">
        <ele>59.4</ele>
        <time>2022-10-23T08:27:38Z</time>
      </trkpt>
      <trkpt lat="49.06598" lon="1.92932">
        <ele>59.8</ele>
        <time>2022-10-23T08:27:44Z</time>
      </trkpt>
      <trkpt lat="49.06593" lon="1.92944">
        <ele>59.7</ele>
        <time>2022-10-23T08:27:49Z</time>
      </trkpt>
      <trkpt lat="49.0659" lon="1.92959">
        <ele>60.3</ele>
        <time>2022-10-23T08:27:55Z</time>
      </trkpt>
      <trkpt lat="49.06588" lon="1.92971">
        <ele>60.4</ele>
        <time>2022-10-23T08:28:00Z</time>
      </trkpt>
      <trkpt lat="49.06584" lon="1.92983">
        <ele>59.5</ele>
        <time>2022-10-23T08:28:06Z</time>
      </trkpt>
      <trkpt lat="49.0658" lon="1.92994">
        <ele>59.2</ele>
        <time>2022-10-23T08:28:11Z</time>
      </trkpt>
      <trkpt lat="49.06578" lon="1.93006">
        <ele>59.3</ele>
        <time>2022-10-23T08:28:16Z</time>
      </trkpt>
      <trkpt lat="49.06575" lon="1.93018">
        <ele>59.1</ele>
        <time>2022-10-23T08:28:22Z</time>
      </trkpt>
      <trkpt lat="49.06573" lon="1.93031">
        <ele>59.2</ele>
        <time>2022-10-23T08:28:28Z</time>
      </trkpt>
      <trkpt lat="49.06569" lon="1.93042">
        <ele>59</ele>
        <time>2022-10-23T08:28:34Z</time>
      </trkpt>
      <trkpt lat="49.06569" lon="1.9305">
        <ele>59.2</ele>
        <time>2022-10-23T08:28:39Z</time>
      </trkpt>
      <trkpt lat="49.06566" lon="1.93063">
        <ele>59.2</ele>
        <time>2022-10-23T08:28:45Z</time>
      </trkpt>
      <trkpt lat="49.06564" lon="1.93079">
        <ele>59.4</ele>
        <time>2022-10-23T08:28:51Z</time>
      </trkpt>
      <trkpt lat="49.06561" lon="1.93091">
        <ele>59.3</ele>
        <time>2022-10-23T08:28:56Z</time>
      </trkpt>
      <trkpt lat="49.06557" lon="1.93104">
        <ele>59.1</ele>
        <time>2022-10-23T08:29:02Z</time>
      </trkpt>
      <trkpt lat="49.06557" lon="1.93117">
        <ele>59.7</ele>
        <time>2022-10-23T08:29:07Z</time>
      </trkpt>
      <trkpt lat="49.06552" lon="1.93133">
        <ele>60</ele>
        <time>2022-10-23T08:29:13Z</time>
      </trkpt>
      <trkpt lat="49.06549" lon="1.93143">
        <ele>59.9</ele>
        <time>2022-10-23T08:29:19Z</time>
      </trkpt>
      <trkpt lat="49.06547" lon="1.93157">
        <ele>60.1</ele>
        <time>2022-10-23T08:29:25Z</time>
      </trkpt>
      <trkpt lat="49.06544" lon="1.93169">
        <ele>60</ele>
        <time>2022-10-23T08:29:31Z</time>
      </trkpt>
      <trkpt lat="49.06543" lon="1.93179">
        <ele>60.1</ele>
        <time>2022-10-23T08:29:36Z</time>
      </trkpt>
      <trkpt lat="49.06542" lon="1.93191">
        <ele>60.5</ele>
        <time>2022-10-23T08:29:41Z</time>
      </trkpt>
      <trkpt lat="49.06541" lon="1.93204">
        <ele>60.5</ele>
        <time>2022-10-23T08:29:47Z</time>
      </trkpt>
      <trkpt lat="49.06537" lon="1.9322">
        <ele>60.2</ele>
        <time>2022-10-23T08:29:53Z</time>
      </trkpt>
      <trkpt lat="49.06536" lon="1.93231">
        <ele>60.5</ele>
        <time>2022-10-23T08:29:58Z</time>
      </trkpt>
      <trkpt lat="49.06534" lon="1.93243">
        <ele>60.6</ele>
        <time>2022-10-23T08:30:04Z</time>
      </trkpt>
      <trkpt lat="49.06533" lon="1.93253">
        <ele>60.9</ele>
        <time>2022-10-23T08:30:10Z</time>
      </trkpt>
      <trkpt lat="49.0653" lon="1.93263">
        <ele>61.2</ele>
        <time>2022-10-23T08:30:15Z</time>
      </trkpt>
      <trkpt lat="49.06526" lon="1.93279">
        <ele>61.8</ele>
        <time>2022-10-23T08:30:21Z</time>
      </trkpt>
      <trkpt lat="49.0652" lon="1.93291">
        <ele>61</ele>
        <time>2022-10-23T08:30:27Z</time>
      </trkpt>
      <trkpt lat="49.06514" lon="1.93303">
        <ele>60.5</ele>
        <time>2022-10-23T08:30:32Z</time>
      </trkpt>
      <trkpt lat="49.06509" lon="1.93314">
        <ele>60.7</ele>
        <time>2022-10-23T08:30:38Z</time>
      </trkpt>
      <trkpt lat="49.06504" lon="1.93324">
        <ele>61.3</ele>
        <time>2022-10-23T08:30:44Z</time>
      </trkpt>
      <trkpt lat="49.06499" lon="1.93332">
        <ele>61.7</ele>
        <time>2022-10-23T08:30:49Z</time>
      </trkpt>
      <trkpt lat="49.06494" lon="1.93339">
        <ele>61.5</ele>
        <time>2022-10-23T08:30:55Z</time>
      </trkpt>
      <trkpt lat="49.06487" lon="1.93347">
        <ele>61.3</ele>
        <time>2022-10-23T08:31:00Z</time>
      </trkpt>
      <trkpt lat="49.06479" lon="1.93357">
        <ele>61.3</ele>
        <time>2022-10-23T08:31:06Z</time>
      </trkpt>
      <trkpt lat="49.06473" lon="1.93365">
        <ele>61</ele>
        <time>2022-10-23T08:31:11Z</time>
      </trkpt>
      <trkpt lat="49.06465" lon="1.93375">
        <ele>60.5</ele>
        <time>2022-10-23T08:31:16Z</time>
      </trkpt>
      <trkpt lat="49.06459" lon="1.93384">
        <ele>60.4</ele>
        <time>2022-10-23T08:31:21Z</time>
      </trkpt>
      <trkpt lat="49.06455" lon="1.93389">
        <ele>60.4</ele>
        <time>2022-10-23T08:31:27Z</time>
      </trkpt>
      <trkpt lat="49.06448" lon="1.93392">
        <ele>60.6</ele>
        <time>2022-10-23T08:31:33Z</time>
      </trkpt>
      <trkpt lat="49.06443" lon="1.934">
        <ele>60.9</ele>
        <time>2022-10-23T08:31:38Z</time>
      </trkpt>
      <trkpt lat="49.06437" lon="1.93409">
        <ele>60.5</ele>
        <time>2022-10-23T08:31:44Z</time>
      </trkpt>
      <trkpt lat="49.06428" lon="1.93419">
        <ele>59.1</ele>
        <time>2022-10-23T08:31:50Z</time>
      </trkpt>
      <trkpt lat="49.06422" lon="1.93429">
        <ele>58.8</ele>
        <time>2022-10-23T08:31:56Z</time>
      </trkpt>
      <trkpt lat="49.06415" lon="1.93433">
        <ele>58.2</ele>
        <time>2022-10-23T08:32:01Z</time>
      </trkpt>
      <trkpt lat="49.0641" lon="1.93436">
        <ele>58</ele>
        <time>2022-10-23T08:32:06Z</time>
      </trkpt>
      <trkpt lat="49.06403" lon="1.93437">
        <ele>57.4</ele>
        <time>2022-10-23T08:32:11Z</time>
      </trkpt>
      <trkpt lat="49.06393" lon="1.93437">
        <ele>56.3</ele>
        <time>2022-10-23T08:32:17Z</time>
      </trkpt>
      <trkpt lat="49.06384" lon="1.93436">
        <ele>55.7</ele>
        <time>2022-10-23T08:32:22Z</time>
      </trkpt>
      <trkpt lat="49.06375" lon="1.93436">
        <ele>55.7</ele>
        <time>2022-10-23T08:32:28Z</time>
      </trkpt>
      <trkpt lat="49.06369" lon="1.93439">
        <ele>55.8</ele>
        <time>2022-10-23T08:32:33Z</time>
      </trkpt>
      <trkpt lat="49.06363" lon="1.93445">
        <ele>56</ele>
        <time>2022-10-23T08:32:38Z</time>
      </trkpt>
      <trkpt lat="49.06355" lon="1.93453">
        <ele>56.4</ele>
        <time>2022-10-23T08:32:44Z</time>
      </trkpt>
      <trkpt lat="49.06346" lon="1.93459">
        <ele>56.5</ele>
        <time>2022-10-23T08:32:50Z</time>
      </trkpt>
      <trkpt lat="49.06337" lon="1.93462">
        <ele>56.4</ele>
        <time>2022-10-23T08:32:56Z</time>
      </trkpt>
      <trkpt lat="49.0633" lon="1.9346">
        <ele>56.1</ele>
        <time>2022-10-23T08:33:02Z</time>
      </trkpt>
      <trkpt lat="49.06319" lon="1.9346">
        <ele>55.9</ele>
        <time>2022-10-23T08:33:08Z</time>
      </trkpt>
      <trkpt lat="49.06312" lon="1.93457">
        <ele>55.5</ele>
        <time>2022-10-23T08:33:13Z</time>
      </trkpt>
      <trkpt lat="49.06304" lon="1.93453">
        <ele>55</ele>
        <time>2022-10-23T08:33:19Z</time>
      </trkpt>
      <trkpt lat="49.06298" lon="1.93452">
        <ele>55</ele>
        <time>2022-10-23T08:33:24Z</time>
      </trkpt>
      <trkpt lat="49.06289" lon="1.9345">
        <ele>55</ele>
        <time>2022-10-23T08:33:30Z</time>
      </trkpt>
      <trkpt lat="49.06283" lon="1.93449">
        <ele>55.2</ele>
        <time>2022-10-23T08:33:35Z</time>
      </trkpt>
      <trkpt lat="49.06274" lon="1.93445">
        <ele>55.2</ele>
        <time>2022-10-23T08:33:41Z</time>
      </trkpt>
      <trkpt lat="49.06266" lon="1.93441">
        <ele>55.2</ele>
        <time>2022-10-23T08:33:47Z</time>
      </trkpt>
      <trkpt lat="49.06258" lon="1.9344">
        <ele>55.4</ele>
        <time>2022-10-23T08:33:52Z</time>
      </trkpt>
      <trkpt lat="49.06249" lon="1.93434">
        <ele>55.3</ele>
        <time>2022-10-23T08:33:58Z</time>
      </trkpt>
      <trkpt lat="49.06241" lon="1.93429">
        <ele>54.9</ele>
        <time>2022-10-23T08:34:04Z</time>
      </trkpt>
      <trkpt lat="49.06234" lon="1.93425">
        <ele>54.4</ele>
        <time>2022-10-23T08:34:09Z</time>
      </trkpt>
      <trkpt lat="49.06225" lon="1.9342">
        <ele>53.6</ele>
        <time>2022-10-23T08:34:15Z</time>
      </trkpt>
      <trkpt lat="49.06218" lon="1.9342">
        <ele>53.6</ele>
        <time>2022-10-23T08:34:20Z</time>
      </trkpt>
      <trkpt lat="49.06209" lon="1.93417">
        <ele>53.5</ele>
        <time>2022-10-23T08:34:26Z</time>
      </trkpt>
      <trkpt lat="49.06201" lon="1.93415">
        <ele>53.6</ele>
        <time>2022-10-23T08:34:32Z</time>
      </trkpt>
      <trkpt lat="49.06195" lon="1.93414">
        <ele>53.8</ele>
        <time>2022-10-23T08:34:37Z</time>
      </trkpt>
      <trkpt lat="49.06185" lon="1.93413">
        <ele>53.8</ele>
        <time>2022-10-23T08:34:43Z</time>
      </trkpt>
      <trkpt lat="49.06175" lon="1.93411">
        <ele>53.6</ele>
        <time>2022-10-23T08:34:48Z</time>
      </trkpt>
      <trkpt lat="49.06168" lon="1.93409">
        <ele>53.5</ele>
        <time>2022-10-23T08:34:54Z</time>
      </trkpt>
      <trkpt lat="49.06158" lon="1.93405">
        <ele>53.4</ele>
        <time>2022-10-23T08:35:00Z</time>
      </trkpt>
      <trkpt lat="49.06147" lon="1.93403">
        <ele>53.4</ele>
        <time>2022-10-23T08:35:06Z</time>
      </trkpt>
      <trkpt lat="49.06138" lon="1.93398">
        <ele>52.9</ele>
        <time>2022-10-23T08:35:12Z</time>
      </trkpt>
      <trkpt lat="49.0613" lon="1.93398">
        <ele>52.6</ele>
        <time>2022-10-23T08:35:17Z</time>
      </trkpt>
      <trkpt lat="49.06121" lon="1.93402">
        <ele>52.8</ele>
        <time>2022-10-23T08:35:23Z</time>
      </trkpt>
      <trkpt lat="49.06116" lon="1.93404">
        <ele>52.9</ele>
        <time>2022-10-23T08:35:28Z</time>
      </trkpt>
      <trkpt lat="49.06111" lon="1.93409">
        <ele>53.2</ele>
        <time>2022-10-23T08:35:33Z</time>
      </trkpt>
      <trkpt lat="49.06104" lon="1.93416">
        <ele>53.9</ele>
        <time>2022-10-23T08:35:38Z</time>
      </trkpt>
      <trkpt lat="49.06098" lon="1.93427">
        <ele>55.1</ele>
        <time>2022-10-23T08:35:44Z</time>
      </trkpt>
      <trkpt lat="49.06094" lon="1.93429">
        <ele>55.3</ele>
        <time>2022-10-23T08:35:50Z</time>
      </trkpt>
      <trkpt lat="49.06089" lon="1.93425">
        <ele>54.9</ele>
        <time>2022-10-23T08:35:56Z</time>
      </trkpt>
      <trkpt lat="49.0608" lon="1.93425">
        <ele>54.9</ele>
        <time>2022-10-23T08:36:02Z</time>
      </trkpt>
      <trkpt lat="49.06075" lon="1.93423">
        <ele>54.8</ele>
        <time>2022-10-23T08:36:07Z</time>
      </trkpt>
      <trkpt lat="49.06064" lon="1.9342">
        <ele>54.5</ele>
        <time>2022-10-23T08:36:13Z</time>
      </trkpt>
      <trkpt lat="49.06056" lon="1.93418">
        <ele>54.2</ele>
        <time>2022-10-23T08:36:18Z</time>
      </trkpt>
      <trkpt lat="49.06049" lon="1.93418">
        <ele>54.1</ele>
        <time>2022-10-23T08:36:24Z</time>
      </trkpt>
      <trkpt lat="49.06041" lon="1.93417">
        <ele>54</ele>
        <time>2022-10-23T08:36:29Z</time>
      </trkpt>
      <trkpt lat="49.06033" lon="1.93415">
        <ele>53.8</ele>
        <time>2022-10-23T08:36:35Z</time>
      </trkpt>
      <trkpt lat="49.06023" lon="1.93412">
        <ele>53.3</ele>
        <time>2022-10-23T08:36:41Z</time>
      </trkpt>
      <trkpt lat="49.06014" lon="1.9341">
        <ele>52.9</ele>
        <time>2022-10-23T08:36:46Z</time>
      </trkpt>
      <trkpt lat="49.06005" lon="1.93406">
        <ele>52.3</ele>
        <time>2022-10-23T08:36:52Z</time>
      </trkpt>
      <trkpt lat="49.05996" lon="1.93403">
        <ele>52.2</ele>
        <time>2022-10-23T08:36:57Z</time>
      </trkpt>
      <trkpt lat="49.05985" lon="1.93401">
        <ele>52.4</ele>
        <time>2022-10-23T08:37:03Z</time>
      </trkpt>
      <trkpt lat="49.05978" lon="1.93399">
        <ele>52.5</ele>
        <time>2022-10-23T08:37:08Z</time>
      </trkpt>
      <trkpt lat="49.05969" lon="1.93398">
        <ele>52.6</ele>
        <time>2022-10-23T08:37:14Z</time>
      </trkpt>
      <trkpt lat="49.05958" lon="1.93398">
        <ele>52.3</ele>
        <time>2022-10-23T08:37:20Z</time>
      </trkpt>
      <trkpt lat="49.0595" lon="1.93401">
        <ele>52.4</ele>
        <time>2022-10-23T08:37:25Z</time>
      </trkpt>
      <trkpt lat="49.0594" lon="1.93405">
        <ele>52.6</ele>
        <time>2022-10-23T08:37:31Z</time>
      </trkpt>
      <trkpt lat="49.05933" lon="1.93408">
        <ele>52.7</ele>
        <time>2022-10-23T08:37:36Z</time>
      </trkpt>
      <trkpt lat="49.05924" lon="1.93412">
        <ele>52.7</ele>
        <time>2022-10-23T08:37:42Z</time>
      </trkpt>
      <trkpt lat="49.05914" lon="1.93418">
        <ele>52.9</ele>
        <time>2022-10-23T08:37:48Z</time>
      </trkpt>
      <trkpt lat="49.05905" lon="1.93421">
        <ele>52.6</ele>
        <time>2022-10-23T08:37:53Z</time>
      </trkpt>
      <trkpt lat="49.05899" lon="1.93424">
        <ele>52.4</ele>
        <time>2022-10-23T08:37:58Z</time>
      </trkpt>
      <trkpt lat="49.05889" lon="1.93429">
        <ele>52.3</ele>
        <time>2022-10-23T08:38:04Z</time>
      </trkpt>
      <trkpt lat="49.05882" lon="1.93431">
        <ele>52.3</ele>
        <time>2022-10-23T08:38:10Z</time>
      </trkpt>
      <trkpt lat="49.05873" lon="1.93437">
        <ele>52.6</ele>
        <time>2022-10-23T08:38:16Z</time>
      </trkpt>
      <trkpt lat="49.05865" lon="1.9344">
        <ele>52.7</ele>
        <time>2022-10-23T08:38:22Z</time>
      </trkpt>
      <trkpt lat="49.05856" lon="1.93444">
        <ele>52.6</ele>
        <time>2022-10-23T08:38:28Z</time>
      </trkpt>
      <trkpt lat="49.05849" lon="1.93446">
        <ele>52.3</ele>
        <time>2022-10-23T08:38:33Z</time>
      </trkpt>
      <trkpt lat="49.0584" lon="1.93452">
        <ele>52.3</ele>
        <time>2022-10-23T08:38:39Z</time>
      </trkpt>
      <trkpt lat="49.0583" lon="1.93459">
        <ele>52.4</ele>
        <time>2022-10-23T08:38:45Z</time>
      </trkpt>
      <trkpt lat="49.05822" lon="1.93464">
        <ele>52.4</ele>
        <time>2022-10-23T08:38:50Z</time>
      </trkpt>
      <trkpt lat="49.05812" lon="1.9347">
        <ele>52.3</ele>
        <time>2022-10-23T08:38:56Z</time>
      </trkpt>
      <trkpt lat="49.05807" lon="1.93473">
        <ele>52.2</ele>
        <time>2022-10-23T08:39:01Z</time>
      </trkpt>
      <trkpt lat="49.05796" lon="1.93481">
        <ele>52.2</ele>
        <time>2022-10-23T08:39:07Z</time>
      </trkpt>
      <trkpt lat="49.05788" lon="1.93486">
        <ele>51.9</ele>
        <time>2022-10-23T08:39:13Z</time>
      </trkpt>
      <trkpt lat="49.05779" lon="1.93493">
        <ele>51.6</ele>
        <time>2022-10-23T08:39:18Z</time>
      </trkpt>
      <trkpt lat="49.0577" lon="1.935">
        <ele>51.4</ele>
        <time>2022-10-23T08:39:24Z</time>
      </trkpt>
      <trkpt lat="49.05761" lon="1.9351">
        <ele>51.8</ele>
        <time>2022-10-23T08:39:30Z</time>
      </trkpt>
      <trkpt lat="49.05755" lon="1.93517">
        <ele>52.2</ele>
        <time>2022-10-23T08:39:35Z</time>
      </trkpt>
      <trkpt lat="49.05747" lon="1.93525">
        <ele>52.4</ele>
        <time>2022-10-23T08:39:41Z</time>
      </trkpt>
      <trkpt lat="49.05741" lon="1.9353">
        <ele>52.2</ele>
        <time>2022-10-23T08:39:46Z</time>
      </trkpt>
      <trkpt lat="49.05732" lon="1.93537">
        <ele>52</ele>
        <time>2022-10-23T08:39:52Z</time>
      </trkpt>
      <trkpt lat="49.05724" lon="1.93544">
        <ele>52</ele>
        <time>2022-10-23T08:39:58Z</time>
      </trkpt>
      <trkpt lat="49.05718" lon="1.93552">
        <ele>52.1</ele>
        <time>2022-10-23T08:40:03Z</time>
      </trkpt>
      <trkpt lat="49.05708" lon="1.93561">
        <ele>51.9</ele>
        <time>2022-10-23T08:40:09Z</time>
      </trkpt>
      <trkpt lat="49.05699" lon="1.93573">
        <ele>51.8</ele>
        <time>2022-10-23T08:40:15Z</time>
      </trkpt>
      <trkpt lat="49.05691" lon="1.93581">
        <ele>51.6</ele>
        <time>2022-10-23T08:40:21Z</time>
      </trkpt>
      <trkpt lat="49.05684" lon="1.93587">
        <ele>51.6</ele>
        <time>2022-10-23T08:40:26Z</time>
      </trkpt>
      <trkpt lat="49.05677" lon="1.93594">
        <ele>51.6</ele>
        <time>2022-10-23T08:40:32Z</time>
      </trkpt>
      <trkpt lat="49.05669" lon="1.93601">
        <ele>51.5</ele>
        <time>2022-10-23T08:40:37Z</time>
      </trkpt>
      <trkpt lat="49.05662" lon="1.93612">
        <ele>51.5</ele>
        <time>2022-10-23T08:40:43Z</time>
      </trkpt>
      <trkpt lat="49.05656" lon="1.9362">
        <ele>51.5</ele>
        <time>2022-10-23T08:40:48Z</time>
      </trkpt>
      <trkpt lat="49.05647" lon="1.93631">
        <ele>51.3</ele>
        <time>2022-10-23T08:40:54Z</time>
      </trkpt>
      <trkpt lat="49.0564" lon="1.93637">
        <ele>51</ele>
        <time>2022-10-23T08:40:59Z</time>
      </trkpt>
      <trkpt lat="49.05634" lon="1.93643">
        <ele>51</ele>
        <time>2022-10-23T08:41:05Z</time>
      </trkpt>
      <trkpt lat="49.05627" lon="1.9365">
        <ele>51</ele>
        <time>2022-10-23T08:41:10Z</time>
      </trkpt>
      <trkpt lat="49.05619" lon="1.93661">
        <ele>50.8</ele>
        <time>2022-10-23T08:41:16Z</time>
      </trkpt>
      <trkpt lat="49.05613" lon="1.9367">
        <ele>50.6</ele>
        <time>2022-10-23T08:41:21Z</time>
      </trkpt>
      <trkpt lat="49.05607" lon="1.93679">
        <ele>51</ele>
        <time>2022-10-23T08:41:26Z</time>
      </trkpt>
      <trkpt lat="49.056" lon="1.93688">
        <ele>51.1</ele>
        <time>2022-10-23T08:41:32Z</time>
      </trkpt>
      <trkpt lat="49.05595" lon="1.93697">
        <ele>50.7</ele>
        <time>2022-10-23T08:41:37Z</time>
      </trkpt>
      <trkpt lat="49.05587" lon="1.93711">
        <ele>50.1</ele>
        <time>2022-10-23T08:41:43Z</time>
      </trkpt>
      <trkpt lat="49.0558" lon="1.93719">
        <ele>49.8</ele>
        <time>2022-10-23T08:41:48Z</time>
      </trkpt>
      <trkpt lat="49.05573" lon="1.9373">
        <ele>50.2</ele>
        <time>2022-10-23T08:41:54Z</time>
      </trkpt>
      <trkpt lat="49.05568" lon="1.93741">
        <ele>50.4</ele>
        <time>2022-10-23T08:42:00Z</time>
      </trkpt>
      <trkpt lat="49.05562" lon="1.93752">
        <ele>50.1</ele>
        <time>2022-10-23T08:42:05Z</time>
      </trkpt>
      <trkpt lat="49.05555" lon="1.93763">
        <ele>49.9</ele>
        <time>2022-10-23T08:42:11Z</time>
      </trkpt>
      <trkpt lat="49.05549" lon="1.93775">
        <ele>50.2</ele>
        <time>2022-10-23T08:42:17Z</time>
      </trkpt>
      <trkpt lat="49.05544" lon="1.93785">
        <ele>50</ele>
        <time>2022-10-23T08:42:22Z</time>
      </trkpt>
      <trkpt lat="49.0554" lon="1.93791">
        <ele>49.8</ele>
        <time>2022-10-23T08:42:27Z</time>
      </trkpt>
      <trkpt lat="49.05534" lon="1.93803">
        <ele>49.6</ele>
        <time>2022-10-23T08:42:33Z</time>
      </trkpt>
      <trkpt lat="49.0553" lon="1.93813">
        <ele>49.5</ele>
        <time>2022-10-23T08:42:38Z</time>
      </trkpt>
      <trkpt lat="49.05523" lon="1.93827">
        <ele>49.5</ele>
        <time>2022-10-23T08:42:44Z</time>
      </trkpt>
      <trkpt lat="49.05516" lon="1.93839">
        <ele>49.3</ele>
        <time>2022-10-23T08:42:49Z</time>
      </trkpt>
      <trkpt lat="49.05513" lon="1.93848">
        <ele>49.2</ele>
        <time>2022-10-23T08:42:55Z</time>
      </trkpt>
      <trkpt lat="49.05507" lon="1.93862">
        <ele>48.8</ele>
        <time>2022-10-23T08:43:01Z</time>
      </trkpt>
      <trkpt lat="49.05502" lon="1.93874">
        <ele>48.7</ele>
        <time>2022-10-23T08:43:06Z</time>
      </trkpt>
      <trkpt lat="49.05499" lon="1.93885">
        <ele>48.8</ele>
        <time>2022-10-23T08:43:11Z</time>
      </trkpt>
      <trkpt lat="49.05495" lon="1.93896">
        <ele>48.9</ele>
        <time>2022-10-23T08:43:16Z</time>
      </trkpt>
      <trkpt lat="49.0549" lon="1.93907">
        <ele>48.9</ele>
        <time>2022-10-23T08:43:22Z</time>
      </trkpt>
      <trkpt lat="49.05487" lon="1.93914">
        <ele>49</ele>
        <time>2022-10-23T08:43:27Z</time>
      </trkpt>
      <trkpt lat="49.05481" lon="1.93929">
        <ele>49.1</ele>
        <time>2022-10-23T08:43:33Z</time>
      </trkpt>
      <trkpt lat="49.05476" lon="1.93942">
        <ele>49.1</ele>
        <time>2022-10-23T08:43:38Z</time>
      </trkpt>
      <trkpt lat="49.05472" lon="1.93952">
        <ele>49</ele>
        <time>2022-10-23T08:43:44Z</time>
      </trkpt>
      <trkpt lat="49.05467" lon="1.93963">
        <ele>48.8</ele>
        <time>2022-10-23T08:43:50Z</time>
      </trkpt>
      <trkpt lat="49.05462" lon="1.93974">
        <ele>48.6</ele>
        <time>2022-10-23T08:43:55Z</time>
      </trkpt>
      <trkpt lat="49.05456" lon="1.93988">
        <ele>48.4</ele>
        <time>2022-10-23T08:44:01Z</time>
      </trkpt>
      <trkpt lat="49.05451" lon="1.94001">
        <ele>48.3</ele>
        <time>2022-10-23T08:44:06Z</time>
      </trkpt>
      <trkpt lat="49.05447" lon="1.94011">
        <ele>48.5</ele>
        <time>2022-10-23T08:44:11Z</time>
      </trkpt>
      <trkpt lat="49.05442" lon="1.94021">
        <ele>48.7</ele>
        <time>2022-10-23T08:44:17Z</time>
      </trkpt>
      <trkpt lat="49.05437" lon="1.94033">
        <ele>48.8</ele>
        <time>2022-10-23T08:44:22Z</time>
      </trkpt>
      <trkpt lat="49.05433" lon="1.94045">
        <ele>48.8</ele>
        <time>2022-10-23T08:44:28Z</time>
      </trkpt>
      <trkpt lat="49.05429" lon="1.94058">
        <ele>49</ele>
        <time>2022-10-23T08:44:34Z</time>
      </trkpt>
      <trkpt lat="49.05425" lon="1.94071">
        <ele>49.2</ele>
        <time>2022-10-23T08:44:40Z</time>
      </trkpt>
      <trkpt lat="49.05423" lon="1.9408">
        <ele>49.2</ele>
        <time>2022-10-23T08:44:45Z</time>
      </trkpt>
      <trkpt lat="49.0542" lon="1.94092">
        <ele>49.2</ele>
        <time>2022-10-23T08:44:51Z</time>
      </trkpt>
      <trkpt lat="49.05416" lon="1.94104">
        <ele>49</ele>
        <time>2022-10-23T08:44:57Z</time>
      </trkpt>
      <trkpt lat="49.05413" lon="1.94114">
        <ele>49</ele>
        <time>2022-10-23T08:45:02Z</time>
      </trkpt>
      <trkpt lat="49.05409" lon="1.94128">
        <ele>49.2</ele>
        <time>2022-10-23T08:45:08Z</time>
      </trkpt>
      <trkpt lat="49.05405" lon="1.94142">
        <ele>49.2</ele>
        <time>2022-10-23T08:45:14Z</time>
      </trkpt>
      <trkpt lat="49.05401" lon="1.94155">
        <ele>49.2</ele>
        <time>2022-10-23T08:45:20Z</time>
      </trkpt>
      <trkpt lat="49.054" lon="1.94168">
        <ele>49.2</ele>
        <time>2022-10-23T08:45:26Z</time>
      </trkpt>
      <trkpt lat="49.054" lon="1.94179">
        <ele>49.2</ele>
        <time>2022-10-23T08:45:32Z</time>
      </trkpt>
      <trkpt lat="49.05399" lon="1.94194">
        <ele>49.1</ele>
        <time>2022-10-23T08:45:38Z</time>
      </trkpt>
      <trkpt lat="49.05395" lon="1.94207">
        <ele>49</ele>
        <time>2022-10-23T08:45:44Z</time>
      </trkpt>
      <trkpt lat="49.05391" lon="1.94219">
        <ele>49.1</ele>
        <time>2022-10-23T08:45:49Z</time>
      </trkpt>
      <trkpt lat="49.05387" lon="1.94232">
        <ele>48.9</ele>
        <time>2022-10-23T08:45:54Z</time>
      </trkpt>
      <trkpt lat="49.05386" lon="1.94245">
        <ele>48.7</ele>
        <time>2022-10-23T08:45:59Z</time>
      </trkpt>
      <trkpt lat="49.05385" lon="1.9426">
        <ele>48.7</ele>
        <time>2022-10-23T08:46:05Z</time>
      </trkpt>
      <trkpt lat="49.05384" lon="1.94275">
        <ele>48.6</ele>
        <time>2022-10-23T08:46:11Z</time>
      </trkpt>
      <trkpt lat="49.05381" lon="1.94289">
        <ele>48.4</ele>
        <time>2022-10-23T08:46:17Z</time>
      </trkpt>
      <trkpt lat="49.05378" lon="1.94302">
        <ele>48.2</ele>
        <time>2022-10-23T08:46:23Z</time>
      </trkpt>
      <trkpt lat="49.05374" lon="1.94315">
        <ele>48.1</ele>
        <time>2022-10-23T08:46:29Z</time>
      </trkpt>
      <trkpt lat="49.05372" lon="1.94329">
        <ele>48.1</ele>
        <time>2022-10-23T08:46:35Z</time>
      </trkpt>
      <trkpt lat="49.05369" lon="1.94342">
        <ele>48.1</ele>
        <time>2022-10-23T08:46:40Z</time>
      </trkpt>
      <trkpt lat="49.05368" lon="1.94357">
        <ele>48.4</ele>
        <time>2022-10-23T08:46:46Z</time>
      </trkpt>
      <trkpt lat="49.05367" lon="1.94371">
        <ele>48.4</ele>
        <time>2022-10-23T08:46:51Z</time>
      </trkpt>
      <trkpt lat="49.05363" lon="1.94386">
        <ele>48.1</ele>
        <time>2022-10-23T08:46:57Z</time>
      </trkpt>
      <trkpt lat="49.05359" lon="1.94396">
        <ele>48.1</ele>
        <time>2022-10-23T08:47:02Z</time>
      </trkpt>
      <trkpt lat="49.05355" lon="1.94406">
        <ele>48.3</ele>
        <time>2022-10-23T08:47:07Z</time>
      </trkpt>
      <trkpt lat="49.05351" lon="1.94415">
        <ele>48.6</ele>
        <time>2022-10-23T08:47:13Z</time>
      </trkpt>
      <trkpt lat="49.05348" lon="1.94424">
        <ele>48.5</ele>
        <time>2022-10-23T08:47:18Z</time>
      </trkpt>
      <trkpt lat="49.05344" lon="1.94433">
        <ele>48.4</ele>
        <time>2022-10-23T08:47:24Z</time>
      </trkpt>
      <trkpt lat="49.05339" lon="1.94443">
        <ele>48.2</ele>
        <time>2022-10-23T08:47:29Z</time>
      </trkpt>
      <trkpt lat="49.05333" lon="1.94454">
        <ele>48.3</ele>
        <time>2022-10-23T08:47:35Z</time>
      </trkpt>
      <trkpt lat="49.05328" lon="1.94463">
        <ele>48.4</ele>
        <time>2022-10-23T08:47:40Z</time>
      </trkpt>
      <trkpt lat="49.05323" lon="1.94472">
        <ele>48.6</ele>
        <time>2022-10-23T08:47:46Z</time>
      </trkpt>
      <trkpt lat="49.05318" lon="1.94481">
        <ele>48.6</ele>
        <time>2022-10-23T08:47:51Z</time>
      </trkpt>
      <trkpt lat="49.05312" lon="1.94494">
        <ele>48.4</ele>
        <time>2022-10-23T08:47:57Z</time>
      </trkpt>
      <trkpt lat="49.05306" lon="1.94507">
        <ele>48.5</ele>
        <time>2022-10-23T08:48:03Z</time>
      </trkpt>
      <trkpt lat="49.05299" lon="1.94518">
        <ele>48.7</ele>
        <time>2022-10-23T08:48:08Z</time>
      </trkpt>
      <trkpt lat="49.05293" lon="1.9453">
        <ele>48.8</ele>
        <time>2022-10-23T08:48:14Z</time>
      </trkpt>
      <trkpt lat="49.05287" lon="1.94544">
        <ele>48.7</ele>
        <time>2022-10-23T08:48:20Z</time>
      </trkpt>
      <trkpt lat="49.05281" lon="1.94554">
        <ele>48.5</ele>
        <time>2022-10-23T08:48:25Z</time>
      </trkpt>
      <trkpt lat="49.05275" lon="1.94564">
        <ele>48.4</ele>
        <time>2022-10-23T08:48:31Z</time>
      </trkpt>
      <trkpt lat="49.0527" lon="1.94572">
        <ele>48.8</ele>
        <time>2022-10-23T08:48:36Z</time>
      </trkpt>
      <trkpt lat="49.05266" lon="1.9458">
        <ele>49</ele>
        <time>2022-10-23T08:48:41Z</time>
      </trkpt>
      <trkpt lat="49.05261" lon="1.94587">
        <ele>48.9</ele>
        <time>2022-10-23T08:48:47Z</time>
      </trkpt>
      <trkpt lat="49.05257" lon="1.94593">
        <ele>48.7</ele>
        <time>2022-10-23T08:48:52Z</time>
      </trkpt>
      <trkpt lat="49.05252" lon="1.94603">
        <ele>48.3</ele>
        <time>2022-10-23T08:48:58Z</time>
      </trkpt>
      <trkpt lat="49.05249" lon="1.94614">
        <ele>48.2</ele>
        <time>2022-10-23T08:49:03Z</time>
      </trkpt>
      <trkpt lat="49.05245" lon="1.94628">
        <ele>49.4</ele>
        <time>2022-10-23T08:49:09Z</time>
      </trkpt>
      <trkpt lat="49.05241" lon="1.94638">
        <ele>50</ele>
        <time>2022-10-23T08:49:14Z</time>
      </trkpt>
      <trkpt lat="49.05237" lon="1.9465">
        <ele>49.8</ele>
        <time>2022-10-23T08:49:20Z</time>
      </trkpt>
      <trkpt lat="49.05232" lon="1.94661">
        <ele>49.3</ele>
        <time>2022-10-23T08:49:25Z</time>
      </trkpt>
      <trkpt lat="49.05225" lon="1.94676">
        <ele>49</ele>
        <time>2022-10-23T08:49:31Z</time>
      </trkpt>
      <trkpt lat="49.05219" lon="1.94688">
        <ele>49.4</ele>
        <time>2022-10-23T08:49:36Z</time>
      </trkpt>
      <trkpt lat="49.05214" lon="1.94703">
        <ele>49.6</ele>
        <time>2022-10-23T08:49:42Z</time>
      </trkpt>
      <trkpt lat="49.05209" lon="1.94713">
        <ele>49.4</ele>
        <time>2022-10-23T08:49:47Z</time>
      </trkpt>
      <trkpt lat="49.05203" lon="1.9472">
        <ele>48.9</ele>
        <time>2022-10-23T08:49:53Z</time>
      </trkpt>
      <trkpt lat="49.05196" lon="1.94729">
        <ele>48.6</ele>
        <time>2022-10-23T08:49:59Z</time>
      </trkpt>
      <trkpt lat="49.0519" lon="1.94737">
        <ele>48.7</ele>
        <time>2022-10-23T08:50:04Z</time>
      </trkpt>
      <trkpt lat="49.05183" lon="1.94745">
        <ele>48.5</ele>
        <time>2022-10-23T08:50:10Z</time>
      </trkpt>
      <trkpt lat="49.05176" lon="1.94753">
        <ele>48</ele>
        <time>2022-10-23T08:50:15Z</time>
      </trkpt>
      <trkpt lat="49.05167" lon="1.94761">
        <ele>47.1</ele>
        <time>2022-10-23T08:50:21Z</time>
      </trkpt>
      <trkpt lat="49.0516" lon="1.94768">
        <ele>46.9</ele>
        <time>2022-10-23T08:50:26Z</time>
      </trkpt>
      <trkpt lat="49.05151" lon="1.94774">
        <ele>46.9</ele>
        <time>2022-10-23T08:50:32Z</time>
      </trkpt>
      <trkpt lat="49.05143" lon="1.94782">
        <ele>46.9</ele>
        <time>2022-10-23T08:50:38Z</time>
      </trkpt>
      <trkpt lat="49.05135" lon="1.94791">
        <ele>46.4</ele>
        <time>2022-10-23T08:50:44Z</time>
      </trkpt>
      <trkpt lat="49.05128" lon="1.94802">
        <ele>46.1</ele>
        <time>2022-10-23T08:50:50Z</time>
      </trkpt>
      <trkpt lat="49.05122" lon="1.94813">
        <ele>46.1</ele>
        <time>2022-10-23T08:50:55Z</time>
      </trkpt>
      <trkpt lat="49.05116" lon="1.94825">
        <ele>46.1</ele>
        <time>2022-10-23T08:51:01Z</time>
      </trkpt>
      <trkpt lat="49.05111" lon="1.94835">
        <ele>46</ele>
        <time>2022-10-23T08:51:06Z</time>
      </trkpt>
      <trkpt lat="49.05106" lon="1.94845">
        <ele>46</ele>
        <time>2022-10-23T08:51:12Z</time>
      </trkpt>
      <trkpt lat="49.05101" lon="1.94854">
        <ele>46</ele>
        <time>2022-10-23T08:51:17Z</time>
      </trkpt>
      <trkpt lat="49.05095" lon="1.94865">
        <ele>46.1</ele>
        <time>2022-10-23T08:51:23Z</time>
      </trkpt>
      <trkpt lat="49.05089" lon="1.94876">
        <ele>46.1</ele>
        <time>2022-10-23T08:51:29Z</time>
      </trkpt>
      <trkpt lat="49.05083" lon="1.94885">
        <ele>46</ele>
        <time>2022-10-23T08:51:35Z</time>
      </trkpt>
      <trkpt lat="49.05077" lon="1.9488">
        <ele>45.8</ele>
        <time>2022-10-23T08:51:41Z</time>
      </trkpt>
      <trkpt lat="49.05071" lon="1.94871">
        <ele>45.5</ele>
        <time>2022-10-23T08:51:46Z</time>
      </trkpt>
      <trkpt lat="49.05062" lon="1.94859">
        <ele>45.2</ele>
        <time>2022-10-23T08:51:52Z</time>
      </trkpt>
      <trkpt lat="49.05055" lon="1.94851">
        <ele>45</ele>
        <time>2022-10-23T08:51:57Z</time>
      </trkpt>
      <trkpt lat="49.0505" lon="1.94844">
        <ele>44.8</ele>
        <time>2022-10-23T08:52:02Z</time>
      </trkpt>
      <trkpt lat="49.05045" lon="1.9484">
        <ele>44.6</ele>
        <time>2022-10-23T08:52:07Z</time>
      </trkpt>
      <trkpt lat="49.05039" lon="1.94834">
        <ele>44.4</ele>
        <time>2022-10-23T08:52:13Z</time>
      </trkpt>
      <trkpt lat="49.05033" lon="1.94826">
        <ele>44.2</ele>
        <time>2022-10-23T08:52:19Z</time>
      </trkpt>
      <trkpt lat="49.05028" lon="1.94816">
        <ele>44</ele>
        <time>2022-10-23T08:52:24Z</time>
      </trkpt>
      <trkpt lat="49.05022" lon="1.94806">
        <ele>44.2</ele>
        <time>2022-10-23T08:52:29Z</time>
      </trkpt>
      <trkpt lat="49.05016" lon="1.94795">
        <ele>44.6</ele>
        <time>2022-10-23T08:52:35Z</time>
      </trkpt>
      <trkpt lat="49.0501" lon="1.94785">
        <ele>44.9</ele>
        <time>2022-10-23T08:52:41Z</time>
      </trkpt>
      <trkpt lat="49.05007" lon="1.94776">
        <ele>44.9</ele>
        <time>2022-10-23T08:52:46Z</time>
      </trkpt>
      <trkpt lat="49.05003" lon="1.94767">
        <ele>44.7</ele>
        <time>2022-10-23T08:52:51Z</time>
      </trkpt>
      <trkpt lat="49.05" lon="1.94759">
        <ele>44.3</ele>
        <time>2022-10-23T08:52:56Z</time>
      </trkpt>
      <trkpt lat="49.04995" lon="1.9475">
        <ele>44</ele>
        <time>2022-10-23T08:53:02Z</time>
      </trkpt>
      <trkpt lat="49.0499" lon="1.94742">
        <ele>44</ele>
        <time>2022-10-23T08:53:07Z</time>
      </trkpt>
      <trkpt lat="49.04985" lon="1.94732">
        <ele>44</ele>
        <time>2022-10-23T08:53:13Z</time>
      </trkpt>
      <trkpt lat="49.0498" lon="1.94724">
        <ele>44</ele>
        <time>2022-10-23T08:53:18Z</time>
      </trkpt>
      <trkpt lat="49.04975" lon="1.94717">
        <ele>44.2</ele>
        <time>2022-10-23T08:53:24Z</time>
      </trkpt>
      <trkpt lat="49.04969" lon="1.94709">
        <ele>44.4</ele>
        <time>2022-10-23T08:53:30Z</time>
      </trkpt>
      <trkpt lat="49.04964" lon="1.94703">
        <ele>44.5</ele>
        <time>2022-10-23T08:53:35Z</time>
      </trkpt>
      <trkpt lat="49.04957" lon="1.94699">
        <ele>44.4</ele>
        <time>2022-10-23T08:53:41Z</time>
      </trkpt>
      <trkpt lat="49.04948" lon="1.94697">
        <ele>44.1</ele>
        <time>2022-10-23T08:53:47Z</time>
      </trkpt>
      <trkpt lat="49.04939" lon="1.94695">
        <ele>44.2</ele>
        <time>2022-10-23T08:53:53Z</time>
      </trkpt>
      <trkpt lat="49.04933" lon="1.94695">
        <ele>44.4</ele>
        <time>2022-10-23T08:53:58Z</time>
      </trkpt>
      <trkpt lat="49.04925" lon="1.94698">
        <ele>44.7</ele>
        <time>2022-10-23T08:54:04Z</time>
      </trkpt>
      <trkpt lat="49.04915" lon="1.94701">
        <ele>45</ele>
        <time>2022-10-23T08:54:10Z</time>
      </trkpt>
      <trkpt lat="49.04905" lon="1.94703">
        <ele>44.9</ele>
        <time>2022-10-23T08:54:16Z</time>
      </trkpt>
      <trkpt lat="49.04898" lon="1.94705">
        <ele>44.7</ele>
        <time>2022-10-23T08:54:21Z</time>
      </trkpt>
      <trkpt lat="49.04889" lon="1.94706">
        <ele>44.6</ele>
        <time>2022-10-23T08:54:27Z</time>
      </trkpt>
      <trkpt lat="49.04881" lon="1.94707">
        <ele>44.7</ele>
        <time>2022-10-23T08:54:33Z</time>
      </trkpt>
      <trkpt lat="49.04873" lon="1.9471">
        <ele>44.8</ele>
        <time>2022-10-23T08:54:39Z</time>
      </trkpt>
      <trkpt lat="49.04866" lon="1.94712">
        <ele>44.9</ele>
        <time>2022-10-23T08:54:44Z</time>
      </trkpt>
      <trkpt lat="49.04857" lon="1.94713">
        <ele>44.9</ele>
        <time>2022-10-23T08:54:50Z</time>
      </trkpt>
      <trkpt lat="49.04848" lon="1.94715">
        <ele>44.6</ele>
        <time>2022-10-23T08:54:55Z</time>
      </trkpt>
      <trkpt lat="49.04837" lon="1.94716">
        <ele>44.3</ele>
        <time>2022-10-23T08:55:01Z</time>
      </trkpt>
      <trkpt lat="49.04829" lon="1.94716">
        <ele>44.1</ele>
        <time>2022-10-23T08:55:06Z</time>
      </trkpt>
      <trkpt lat="49.04822" lon="1.94713">
        <ele>43.9</ele>
        <time>2022-10-23T08:55:12Z</time>
      </trkpt>
      <trkpt lat="49.04818" lon="1.9471">
        <ele>43.9</ele>
        <time>2022-10-23T08:55:17Z</time>
      </trkpt>
      <trkpt lat="49.04812" lon="1.94707">
        <ele>43.8</ele>
        <time>2022-10-23T08:55:23Z</time>
      </trkpt>
      <trkpt lat="49.04803" lon="1.94702">
        <ele>43.7</ele>
        <time>2022-10-23T08:55:29Z</time>
      </trkpt>
      <trkpt lat="49.04795" lon="1.94698">
        <ele>43.9</ele>
        <time>2022-10-23T08:55:34Z</time>
      </trkpt>
      <trkpt lat="49.04787" lon="1.94691">
        <ele>44</ele>
        <time>2022-10-23T08:55:40Z</time>
      </trkpt>
      <trkpt lat="49.04785" lon="1.94679">
        <ele>44.1</ele>
        <time>2022-10-23T08:55:46Z</time>
      </trkpt>
      <trkpt lat="49.04784" lon="1.94664">
        <ele>44.3</ele>
        <time>2022-10-23T08:55:52Z</time>
      </trkpt>
      <trkpt lat="49.04785" lon="1.9465">
        <ele>44.8</ele>
        <time>2022-10-23T08:55:57Z</time>
      </trkpt>
      <trkpt lat="49.04785" lon="1.94633">
        <ele>45.6</ele>
        <time>2022-10-23T08:56:03Z</time>
      </trkpt>
      <trkpt lat="49.04784" lon="1.9462">
        <ele>46.6</ele>
        <time>2022-10-23T08:56:08Z</time>
      </trkpt>
      <trkpt lat="49.04784" lon="1.94604">
        <ele>47.8</ele>
        <time>2022-10-23T08:56:14Z</time>
      </trkpt>
      <trkpt lat="49.04785" lon="1.94594">
        <ele>48.6</ele>
        <time>2022-10-23T08:56:19Z</time>
      </trkpt>
      <trkpt lat="49.04786" lon="1.94582">
        <ele>49.6</ele>
        <time>2022-10-23T08:56:25Z</time>
      </trkpt>
      <trkpt lat="49.04785" lon="1.94567">
        <ele>50.5</ele>
        <time>2022-10-23T08:56:31Z</time>
      </trkpt>
      <trkpt lat="49.04784" lon="1.94552">
        <ele>51.5</ele>
        <time>2022-10-23T08:56:37Z</time>
      </trkpt>
      <trkpt lat="49.04784" lon="1.94538">
        <ele>52.3</ele>
        <time>2022-10-23T08:56:43Z</time>
      </trkpt>
      <trkpt lat="49.04785" lon="1.94527">
        <ele>53</ele>
        <time>2022-10-23T08:56:48Z</time>
      </trkpt>
      <trkpt lat="49.04785" lon="1.94516">
        <ele>53.4</ele>
        <time>2022-10-23T08:56:54Z</time>
      </trkpt>
      <trkpt lat="49.04784" lon="1.94507">
        <ele>53.8</ele>
        <time>2022-10-23T08:56:59Z</time>
      </trkpt>
      <trkpt lat="49.04782" lon="1.94497">
        <ele>54</ele>
        <time>2022-10-23T08:57:04Z</time>
      </trkpt>
      <trkpt lat="49.04781" lon="1.94485">
        <ele>54.1</ele>
        <time>2022-10-23T08:57:09Z</time>
      </trkpt>
      <trkpt lat="49.04779" lon="1.94469">
        <ele>54</ele>
        <time>2022-10-23T08:57:15Z</time>
      </trkpt>
      <trkpt lat="49.04778" lon="1.94454">
        <ele>54</ele>
        <time>2022-10-23T08:57:21Z</time>
      </trkpt>
      <trkpt lat="49.04778" lon="1.94441">
        <ele>54.1</ele>
        <time>2022-10-23T08:57:26Z</time>
      </trkpt>
      <trkpt lat="49.04777" lon="1.94427">
        <ele>54.6</ele>
        <time>2022-10-23T08:57:32Z</time>
      </trkpt>
      <trkpt lat="49.04777" lon="1.94414">
        <ele>55</ele>
        <time>2022-10-23T08:57:38Z</time>
      </trkpt>
      <trkpt lat="49.04776" lon="1.94401">
        <ele>54.9</ele>
        <time>2022-10-23T08:57:43Z</time>
      </trkpt>
      <trkpt lat="49.04776" lon="1.94386">
        <ele>54.9</ele>
        <time>2022-10-23T08:57:49Z</time>
      </trkpt>
      <trkpt lat="49.04775" lon="1.9437">
        <ele>54.9</ele>
        <time>2022-10-23T08:57:55Z</time>
      </trkpt>
      <trkpt lat="49.04774" lon="1.94356">
        <ele>54.9</ele>
        <time>2022-10-23T08:58:01Z</time>
      </trkpt>
      <trkpt lat="49.04773" lon="1.94344">
        <ele>54.8</ele>
        <time>2022-10-23T08:58:06Z</time>
      </trkpt>
      <trkpt lat="49.04773" lon="1.94331">
        <ele>54.8</ele>
        <time>2022-10-23T08:58:11Z</time>
      </trkpt>
      <trkpt lat="49.04772" lon="1.94316">
        <ele>54.8</ele>
        <time>2022-10-23T08:58:17Z</time>
      </trkpt>
      <trkpt lat="49.04771" lon="1.94301">
        <ele>54.8</ele>
        <time>2022-10-23T08:58:23Z</time>
      </trkpt>
      <trkpt lat="49.0477" lon="1.9429">
        <ele>54.7</ele>
        <time>2022-10-23T08:58:28Z</time>
      </trkpt>
      <trkpt lat="49.0477" lon="1.94276">
        <ele>54.7</ele>
        <time>2022-10-23T08:58:34Z</time>
      </trkpt>
      <trkpt lat="49.04769" lon="1.94264">
        <ele>54.3</ele>
        <time>2022-10-23T08:58:39Z</time>
      </trkpt>
      <trkpt lat="49.0477" lon="1.9425">
        <ele>54</ele>
        <time>2022-10-23T08:58:45Z</time>
      </trkpt>
      <trkpt lat="49.04769" lon="1.94237">
        <ele>54.1</ele>
        <time>2022-10-23T08:58:51Z</time>
      </trkpt>
      <trkpt lat="49.04767" lon="1.94227">
        <ele>54.3</ele>
        <time>2022-10-23T08:58:56Z</time>
      </trkpt>
      <trkpt lat="49.04766" lon="1.94227">
        <ele>54.3</ele>
        <time>2022-10-23T08:59:02Z</time>
      </trkpt>
      <trkpt lat="49.04767" lon="1.94229">
        <ele>54.3</ele>
        <time>2022-10-23T08:59:07Z</time>
      </trkpt>
      <trkpt lat="49.04767" lon="1.94231">
        <ele>54.3</ele>
        <time>2022-10-23T08:59:13Z</time>
      </trkpt>
      <trkpt lat="49.04767" lon="1.94232">
        <ele>54.2</ele>
        <time>2022-10-23T08:59:19Z</time>
      </trkpt>
      <trkpt lat="49.04767" lon="1.94233">
        <ele>54.2</ele>
        <time>2022-10-23T08:59:24Z</time>
      </trkpt>
      <trkpt lat="49.04767" lon="1.94233">
        <ele>54.2</ele>
        <time>2022-10-23T08:59:30Z</time>
      </trkpt>
      <trkpt lat="49.04767" lon="1.94234">
        <ele>54.2</ele>
        <time>2022-10-23T08:59:35Z</time>
      </trkpt>
      <trkpt lat="49.0476" lon="1.94237">
        <ele>54.3</ele>
        <time>2022-10-23T08:59:41Z</time>
      </trkpt>
      <trkpt lat="49.04753" lon="1.94241">
        <ele>54.3</ele>
        <time>2022-10-23T08:59:46Z</time>
      </trkpt>
      <trkpt lat="49.04744" lon="1.94249">
        <ele>54.1</ele>
        <time>2022-10-23T08:59:52Z</time>
      </trkpt>
      <trkpt lat="49.04735" lon="1.94256">
        <ele>54</ele>
        <time>2022-10-23T08:59:58Z</time>
      </trkpt>
      <trkpt lat="49.04727" lon="1.94265">
        <ele>54</ele>
        <time>2022-10-23T09:00:04Z</time>
      </trkpt>
      <trkpt lat="49.0472" lon="1.94271">
        <ele>53.9</ele>
        <time>2022-10-23T09:00:09Z</time>
      </trkpt>
      <trkpt lat="49.04712" lon="1.94279">
        <ele>53.6</ele>
        <time>2022-10-23T09:00:15Z</time>
      </trkpt>
      <trkpt lat="49.04704" lon="1.94285">
        <ele>53.1</ele>
        <time>2022-10-23T09:00:21Z</time>
      </trkpt>
      <trkpt lat="49.04697" lon="1.94291">
        <ele>52.6</ele>
        <time>2022-10-23T09:00:27Z</time>
      </trkpt>
      <trkpt lat="49.0469" lon="1.94294">
        <ele>52.4</ele>
        <time>2022-10-23T09:00:32Z</time>
      </trkpt>
      <trkpt lat="49.04683" lon="1.94298">
        <ele>52.2</ele>
        <time>2022-10-23T09:00:37Z</time>
      </trkpt>
      <trkpt lat="49.04676" lon="1.94302">
        <ele>52</ele>
        <time>2022-10-23T09:00:42Z</time>
      </trkpt>
      <trkpt lat="49.04667" lon="1.94307">
        <ele>52</ele>
        <time>2022-10-23T09:00:48Z</time>
      </trkpt>
      <trkpt lat="49.04657" lon="1.94313">
        <ele>51.6</ele>
        <time>2022-10-23T09:00:54Z</time>
      </trkpt>
      <trkpt lat="49.04647" lon="1.9432">
        <ele>51.1</ele>
        <time>2022-10-23T09:01:00Z</time>
      </trkpt>
      <trkpt lat="49.04639" lon="1.94325">
        <ele>50.6</ele>
        <time>2022-10-23T09:01:05Z</time>
      </trkpt>
      <trkpt lat="49.04629" lon="1.94329">
        <ele>50.3</ele>
        <time>2022-10-23T09:01:11Z</time>
      </trkpt>
      <trkpt lat="49.0462" lon="1.94332">
        <ele>50</ele>
        <time>2022-10-23T09:01:17Z</time>
      </trkpt>
      <trkpt lat="49.04614" lon="1.94335">
        <ele>49.9</ele>
        <time>2022-10-23T09:01:22Z</time>
      </trkpt>
      <trkpt lat="49.04607" lon="1.94338">
        <ele>49.8</ele>
        <time>2022-10-23T09:01:27Z</time>
      </trkpt>
      <trkpt lat="49.046" lon="1.9434">
        <ele>49.8</ele>
        <time>2022-10-23T09:01:33Z</time>
      </trkpt>
      <trkpt lat="49.04594" lon="1.9434">
        <ele>49.7</ele>
        <time>2022-10-23T09:01:38Z</time>
      </trkpt>
      <trkpt lat="49.04586" lon="1.9434">
        <ele>49.7</ele>
        <time>2022-10-23T09:01:44Z</time>
      </trkpt>
      <trkpt lat="49.0458" lon="1.94341">
        <ele>49.7</ele>
        <time>2022-10-23T09:01:49Z</time>
      </trkpt>
      <trkpt lat="49.04572" lon="1.94341">
        <ele>49.7</ele>
        <time>2022-10-23T09:01:54Z</time>
      </trkpt>
      <trkpt lat="49.04564" lon="1.94341">
        <ele>49.7</ele>
        <time>2022-10-23T09:01:59Z</time>
      </trkpt>
      <trkpt lat="49.04553" lon="1.9434">
        <ele>49.7</ele>
        <time>2022-10-23T09:02:05Z</time>
      </trkpt>
      <trkpt lat="49.04544" lon="1.94341">
        <ele>49.6</ele>
        <time>2022-10-23T09:02:10Z</time>
      </trkpt>
      <trkpt lat="49.04534" lon="1.94342">
        <ele>49.4</ele>
        <time>2022-10-23T09:02:15Z</time>
      </trkpt>
      <trkpt lat="49.04523" lon="1.94344">
        <ele>49.3</ele>
        <time>2022-10-23T09:02:21Z</time>
      </trkpt>
      <trkpt lat="49.04514" lon="1.94343">
        <ele>49.3</ele>
        <time>2022-10-23T09:02:26Z</time>
      </trkpt>
      <trkpt lat="49.04504" lon="1.94341">
        <ele>49.4</ele>
        <time>2022-10-23T09:02:32Z</time>
      </trkpt>
      <trkpt lat="49.04495" lon="1.94339">
        <ele>49.6</ele>
        <time>2022-10-23T09:02:38Z</time>
      </trkpt>
      <trkpt lat="49.04489" lon="1.94336">
        <ele>49.8</ele>
        <time>2022-10-23T09:02:43Z</time>
      </trkpt>
      <trkpt lat="49.04479" lon="1.94333">
        <ele>50</ele>
        <time>2022-10-23T09:02:49Z</time>
      </trkpt>
      <trkpt lat="49.0447" lon="1.94334">
        <ele>49.9</ele>
        <time>2022-10-23T09:02:54Z</time>
      </trkpt>
      <trkpt lat="49.04459" lon="1.94332">
        <ele>49.6</ele>
        <time>2022-10-23T09:03:00Z</time>
      </trkpt>
      <trkpt lat="49.04451" lon="1.94331">
        <ele>49.4</ele>
        <time>2022-10-23T09:03:05Z</time>
      </trkpt>
      <trkpt lat="49.04442" lon="1.94329">
        <ele>49.3</ele>
        <time>2022-10-23T09:03:10Z</time>
      </trkpt>
      <trkpt lat="49.04432" lon="1.94326">
        <ele>48.7</ele>
        <time>2022-10-23T09:03:16Z</time>
      </trkpt>
      <trkpt lat="49.04425" lon="1.94323">
        <ele>48.1</ele>
        <time>2022-10-23T09:03:21Z</time>
      </trkpt>
      <trkpt lat="49.04417" lon="1.94319">
        <ele>47.6</ele>
        <time>2022-10-23T09:03:26Z</time>
      </trkpt>
      <trkpt lat="49.04409" lon="1.94314">
        <ele>47.4</ele>
        <time>2022-10-23T09:03:32Z</time>
      </trkpt>
      <trkpt lat="49.04403" lon="1.9431">
        <ele>47.3</ele>
        <time>2022-10-23T09:03:37Z</time>
      </trkpt>
      <trkpt lat="49.04394" lon="1.94306">
        <ele>47.2</ele>
        <time>2022-10-23T09:03:43Z</time>
      </trkpt>
      <trkpt lat="49.04385" lon="1.94302">
        <ele>46.9</ele>
        <time>2022-10-23T09:03:49Z</time>
      </trkpt>
      <trkpt lat="49.04376" lon="1.94295">
        <ele>46.5</ele>
        <time>2022-10-23T09:03:55Z</time>
      </trkpt>
      <trkpt lat="49.04367" lon="1.94291">
        <ele>46.2</ele>
        <time>2022-10-23T09:04:01Z</time>
      </trkpt>
      <trkpt lat="49.04363" lon="1.94286">
        <ele>46.1</ele>
        <time>2022-10-23T09:04:06Z</time>
      </trkpt>
      <trkpt lat="49.04363" lon="1.94279">
        <ele>46.1</ele>
        <time>2022-10-23T09:04:11Z</time>
      </trkpt>
      <trkpt lat="49.04359" lon="1.94273">
        <ele>46</ele>
        <time>2022-10-23T09:04:17Z</time>
      </trkpt>
      <trkpt lat="49.0435" lon="1.94272">
        <ele>46</ele>
        <time>2022-10-23T09:04:23Z</time>
      </trkpt>
      <trkpt lat="49.04343" lon="1.94271">
        <ele>46</ele>
        <time>2022-10-23T09:04:28Z</time>
      </trkpt>
      <trkpt lat="49.04329" lon="1.94271">
        <ele>46</ele>
        <time>2022-10-23T09:04:34Z</time>
      </trkpt>
      <trkpt lat="49.04317" lon="1.94275">
        <ele>46</ele>
        <time>2022-10-23T09:04:40Z</time>
      </trkpt>
      <trkpt lat="49.04308" lon="1.94278">
        <ele>46</ele>
        <time>2022-10-23T09:04:45Z</time>
      </trkpt>
      <trkpt lat="49.04301" lon="1.9428">
        <ele>45.9</ele>
        <time>2022-10-23T09:04:50Z</time>
      </trkpt>
      <trkpt lat="49.04295" lon="1.94279">
        <ele>46</ele>
        <time>2022-10-23T09:04:56Z</time>
      </trkpt>
      <trkpt lat="49.04289" lon="1.94278">
        <ele>46</ele>
        <time>2022-10-23T09:05:01Z</time>
      </trkpt>
      <trkpt lat="49.04283" lon="1.94279">
        <ele>46</ele>
        <time>2022-10-23T09:05:07Z</time>
      </trkpt>
      <trkpt lat="49.04277" lon="1.94278">
        <ele>46</ele>
        <time>2022-10-23T09:05:13Z</time>
      </trkpt>
      <trkpt lat="49.04271" lon="1.94277">
        <ele>46.2</ele>
        <time>2022-10-23T09:05:18Z</time>
      </trkpt>
      <trkpt lat="49.04257" lon="1.94277">
        <ele>46.8</ele>
        <time>2022-10-23T09:05:24Z</time>
      </trkpt>
      <trkpt lat="49.04246" lon="1.94279">
        <ele>47.1</ele>
        <time>2022-10-23T09:05:29Z</time>
      </trkpt>
      <trkpt lat="49.04236" lon="1.94282">
        <ele>47.4</ele>
        <time>2022-10-23T09:05:34Z</time>
      </trkpt>
      <trkpt lat="49.04226" lon="1.94286">
        <ele>47.6</ele>
        <time>2022-10-23T09:05:40Z</time>
      </trkpt>
      <trkpt lat="49.04218" lon="1.94291">
        <ele>47.5</ele>
        <time>2022-10-23T09:05:45Z</time>
      </trkpt>
      <trkpt lat="49.0421" lon="1.94296">
        <ele>47.1</ele>
        <time>2022-10-23T09:05:50Z</time>
      </trkpt>
      <trkpt lat="49.04202" lon="1.94299">
        <ele>46.7</ele>
        <time>2022-10-23T09:05:55Z</time>
      </trkpt>
      <trkpt lat="49.04193" lon="1.94302">
        <ele>46.2</ele>
        <time>2022-10-23T09:06:01Z</time>
      </trkpt>
      <trkpt lat="49.04185" lon="1.94304">
        <ele>46.1</ele>
        <time>2022-10-23T09:06:06Z</time>
      </trkpt>
      <trkpt lat="49.04175" lon="1.94306">
        <ele>46</ele>
        <time>2022-10-23T09:06:12Z</time>
      </trkpt>
      <trkpt lat="49.04167" lon="1.94306">
        <ele>46</ele>
        <time>2022-10-23T09:06:17Z</time>
      </trkpt>
      <trkpt lat="49.04157" lon="1.943">
        <ele>45.5</ele>
        <time>2022-10-23T09:06:23Z</time>
      </trkpt>
      <trkpt lat="49.04148" lon="1.94291">
        <ele>45.3</ele>
        <time>2022-10-23T09:06:29Z</time>
      </trkpt>
      <trkpt lat="49.04141" lon="1.94282">
        <ele>45.7</ele>
        <time>2022-10-23T09:06:35Z</time>
      </trkpt>
      <trkpt lat="49.04135" lon="1.94275">
        <ele>45.9</ele>
        <time>2022-10-23T09:06:41Z</time>
      </trkpt>
      <trkpt lat="49.0413" lon="1.9427">
        <ele>46</ele>
        <time>2022-10-23T09:06:46Z</time>
      </trkpt>
      <trkpt lat="49.04122" lon="1.94265">
        <ele>45.8</ele>
        <time>2022-10-23T09:06:52Z</time>
      </trkpt>
      <trkpt lat="49.04116" lon="1.94258">
        <ele>45.9</ele>
        <time>2022-10-23T09:06:57Z</time>
      </trkpt>
      <trkpt lat="49.0411" lon="1.94248">
        <ele>46</ele>
        <time>2022-10-23T09:07:03Z</time>
      </trkpt>
      <trkpt lat="49.04104" lon="1.94242">
        <ele>46.1</ele>
        <time>2022-10-23T09:07:09Z</time>
      </trkpt>
      <trkpt lat="49.041" lon="1.94234">
        <ele>46.4</ele>
        <time>2022-10-23T09:07:14Z</time>
      </trkpt>
      <trkpt lat="49.04093" lon="1.94228">
        <ele>46.7</ele>
        <time>2022-10-23T09:07:20Z</time>
      </trkpt>
      <trkpt lat="49.04087" lon="1.94218">
        <ele>47.2</ele>
        <time>2022-10-23T09:07:25Z</time>
      </trkpt>
      <trkpt lat="49.04081" lon="1.94206">
        <ele>47.6</ele>
        <time>2022-10-23T09:07:31Z</time>
      </trkpt>
      <trkpt lat="49.04078" lon="1.94193">
        <ele>48.2</ele>
        <time>2022-10-23T09:07:36Z</time>
      </trkpt>
      <trkpt lat="49.04075" lon="1.94182">
        <ele>49.4</ele>
        <time>2022-10-23T09:07:41Z</time>
      </trkpt>
      <trkpt lat="49.04069" lon="1.94172">
        <ele>50</ele>
        <time>2022-10-23T09:07:47Z</time>
      </trkpt>
      <trkpt lat="49.04064" lon="1.94161">
        <ele>50.1</ele>
        <time>2022-10-23T09:07:53Z</time>
      </trkpt>
      <trkpt lat="49.04061" lon="1.94152">
        <ele>50.1</ele>
        <time>2022-10-23T09:07:58Z</time>
      </trkpt>
      <trkpt lat="49.0406" lon="1.94148">
        <ele>50.2</ele>
        <time>2022-10-23T09:08:03Z</time>
      </trkpt>
      <trkpt lat="49.04061" lon="1.94148">
        <ele>50.3</ele>
        <time>2022-10-23T09:08:09Z</time>
      </trkpt>
      <trkpt lat="49.04061" lon="1.94148">
        <ele>50.3</ele>
        <time>2022-10-23T09:08:14Z</time>
      </trkpt>
      <trkpt lat="49.04063" lon="1.94148">
        <ele>50.4</ele>
        <time>2022-10-23T09:08:20Z</time>
      </trkpt>
      <trkpt lat="49.04063" lon="1.94149">
        <ele>50.4</ele>
        <time>2022-10-23T09:08:26Z</time>
      </trkpt>
      <trkpt lat="49.04063" lon="1.94149">
        <ele>50.4</ele>
        <time>2022-10-23T09:08:32Z</time>
      </trkpt>
      <trkpt lat="49.04063" lon="1.94149">
        <ele>50.5</ele>
        <time>2022-10-23T09:08:37Z</time>
      </trkpt>
      <trkpt lat="49.04063" lon="1.94148">
        <ele>50.5</ele>
        <time>2022-10-23T09:08:43Z</time>
      </trkpt>
      <trkpt lat="49.04063" lon="1.94145">
        <ele>50.6</ele>
        <time>2022-10-23T09:08:48Z</time>
      </trkpt>
      <trkpt lat="49.04063" lon="1.94144">
        <ele>50.7</ele>
        <time>2022-10-23T09:08:53Z</time>
      </trkpt>
      <trkpt lat="49.04064" lon="1.94143">
        <ele>50.7</ele>
        <time>2022-10-23T09:08:59Z</time>
      </trkpt>
      <trkpt lat="49.04064" lon="1.94141">
        <ele>50.8</ele>
        <time>2022-10-23T09:09:05Z</time>
      </trkpt>
      <trkpt lat="49.04064" lon="1.9414">
        <ele>50.9</ele>
        <time>2022-10-23T09:09:11Z</time>
      </trkpt>
      <trkpt lat="49.04063" lon="1.94142">
        <ele>50.7</ele>
        <time>2022-10-23T09:09:17Z</time>
      </trkpt>
      <trkpt lat="49.04062" lon="1.94143">
        <ele>50.5</ele>
        <time>2022-10-23T09:09:23Z</time>
      </trkpt>
      <trkpt lat="49.04061" lon="1.94144">
        <ele>50.4</ele>
        <time>2022-10-23T09:09:29Z</time>
      </trkpt>
      <trkpt lat="49.04061" lon="1.94144">
        <ele>50.3</ele>
        <time>2022-10-23T09:09:35Z</time>
      </trkpt>
      <trkpt lat="49.04059" lon="1.94144">
        <ele>50.2</ele>
        <time>2022-10-23T09:09:41Z</time>
      </trkpt>
      <trkpt lat="49.04059" lon="1.94142">
        <ele>50.3</ele>
        <time>2022-10-23T09:09:46Z</time>
      </trkpt>
      <trkpt lat="49.0406" lon="1.9414">
        <ele>50.4</ele>
        <time>2022-10-23T09:09:51Z</time>
      </trkpt>
      <trkpt lat="49.0406" lon="1.9414">
        <ele>50.5</ele>
        <time>2022-10-23T09:09:57Z</time>
      </trkpt>
      <trkpt lat="49.0406" lon="1.9414">
        <ele>50.5</ele>
        <time>2022-10-23T09:10:02Z</time>
      </trkpt>
      <trkpt lat="49.0406" lon="1.9414">
        <ele>50.5</ele>
        <time>2022-10-23T09:10:07Z</time>
      </trkpt>
      <trkpt lat="49.0406" lon="1.94139">
        <ele>50.5</ele>
        <time>2022-10-23T09:10:13Z</time>
      </trkpt>
      <trkpt lat="49.0406" lon="1.94139">
        <ele>50.5</ele>
        <time>2022-10-23T09:10:19Z</time>
      </trkpt>
      <trkpt lat="49.0406" lon="1.94138">
        <ele>50.5</ele>
        <time>2022-10-23T09:10:24Z</time>
      </trkpt>
      <trkpt lat="49.04059" lon="1.94139">
        <ele>50.3</ele>
        <time>2022-10-23T09:10:29Z</time>
      </trkpt>
      <trkpt lat="49.04058" lon="1.94138">
        <ele>50.3</ele>
        <time>2022-10-23T09:10:35Z</time>
      </trkpt>
      <trkpt lat="49.04059" lon="1.94127">
        <ele>51.3</ele>
        <time>2022-10-23T09:10:41Z</time>
      </trkpt>
      <trkpt lat="49.04062" lon="1.94117">
        <ele>52.3</ele>
        <time>2022-10-23T09:10:46Z</time>
      </trkpt>
      <trkpt lat="49.04064" lon="1.94107">
        <ele>53</ele>
        <time>2022-10-23T09:10:52Z</time>
      </trkpt>
      <trkpt lat="49.04064" lon="1.94095">
        <ele>53.3</ele>
        <time>2022-10-23T09:10:58Z</time>
      </trkpt>
      <trkpt lat="49.04066" lon="1.94085">
        <ele>53.7</ele>
        <time>2022-10-23T09:11:03Z</time>
      </trkpt>
      <trkpt lat="49.04065" lon="1.94071">
        <ele>54.2</ele>
        <time>2022-10-23T09:11:09Z</time>
      </trkpt>
      <trkpt lat="49.04064" lon="1.94059">
        <ele>54.8</ele>
        <time>2022-10-23T09:11:14Z</time>
      </trkpt>
      <trkpt lat="49.04062" lon="1.94056">
        <ele>55</ele>
        <time>2022-10-23T09:11:19Z</time>
      </trkpt>
      <trkpt lat="49.04054" lon="1.94057">
        <ele>55</ele>
        <time>2022-10-23T09:11:25Z</time>
      </trkpt>
      <trkpt lat="49.04047" lon="1.94057">
        <ele>55.2</ele>
        <time>2022-10-23T09:11:30Z</time>
      </trkpt>
      <trkpt lat="49.04039" lon="1.94056">
        <ele>55.5</ele>
        <time>2022-10-23T09:11:36Z</time>
      </trkpt>
      <trkpt lat="49.04033" lon="1.94056">
        <ele>55.8</ele>
        <time>2022-10-23T09:11:41Z</time>
      </trkpt>
      <trkpt lat="49.04025" lon="1.94056">
        <ele>56.1</ele>
        <time>2022-10-23T09:11:47Z</time>
      </trkpt>
      <trkpt lat="49.04017" lon="1.94056">
        <ele>56.3</ele>
        <time>2022-10-23T09:11:52Z</time>
      </trkpt>
      <trkpt lat="49.04009" lon="1.94055">
        <ele>56.7</ele>
        <time>2022-10-23T09:11:57Z</time>
      </trkpt>
      <trkpt lat="49.04" lon="1.94056">
        <ele>56.9</ele>
        <time>2022-10-23T09:12:03Z</time>
      </trkpt>
      <trkpt lat="49.03994" lon="1.94056">
        <ele>56.9</ele>
        <time>2022-10-23T09:12:08Z</time>
      </trkpt>
      <trkpt lat="49.03986" lon="1.94056">
        <ele>56.9</ele>
        <time>2022-10-23T09:12:14Z</time>
      </trkpt>
      <trkpt lat="49.03978" lon="1.94055">
        <ele>57</ele>
        <time>2022-10-23T09:12:19Z</time>
      </trkpt>
      <trkpt lat="49.03969" lon="1.94055">
        <ele>57</ele>
        <time>2022-10-23T09:12:25Z</time>
      </trkpt>
      <trkpt lat="49.03961" lon="1.94054">
        <ele>57</ele>
        <time>2022-10-23T09:12:31Z</time>
      </trkpt>
      <trkpt lat="49.03961" lon="1.94045">
        <ele>57.4</ele>
        <time>2022-10-23T09:12:36Z</time>
      </trkpt>
      <trkpt lat="49.03964" lon="1.94032">
        <ele>57.8</ele>
        <time>2022-10-23T09:12:41Z</time>
      </trkpt>
      <trkpt lat="49.03966" lon="1.9402">
        <ele>58</ele>
        <time>2022-10-23T09:12:47Z</time>
      </trkpt>
      <trkpt lat="49.03967" lon="1.94011">
        <ele>58</ele>
        <time>2022-10-23T09:12:52Z</time>
      </trkpt>
      <trkpt lat="49.03968" lon="1.94">
        <ele>58</ele>
        <time>2022-10-23T09:12:58Z</time>
      </trkpt>
      <trkpt lat="49.03969" lon="1.9399">
        <ele>58</ele>
        <time>2022-10-23T09:13:04Z</time>
      </trkpt>
      <trkpt lat="49.03964" lon="1.93983">
        <ele>58</ele>
        <time>2022-10-23T09:13:09Z</time>
      </trkpt>
      <trkpt lat="49.03956" lon="1.93978">
        <ele>58</ele>
        <time>2022-10-23T09:13:15Z</time>
      </trkpt>
      <trkpt lat="49.03956" lon="1.93968">
        <ele>58.1</ele>
        <time>2022-10-23T09:13:20Z</time>
      </trkpt>
      <trkpt lat="49.03959" lon="1.93955">
        <ele>58.6</ele>
        <time>2022-10-23T09:13:26Z</time>
      </trkpt>
      <trkpt lat="49.03962" lon="1.93943">
        <ele>59.1</ele>
        <time>2022-10-23T09:13:31Z</time>
      </trkpt>
      <trkpt lat="49.03965" lon="1.93929">
        <ele>60</ele>
        <time>2022-10-23T09:13:37Z</time>
      </trkpt>
      <trkpt lat="49.03966" lon="1.9392">
        <ele>60.6</ele>
        <time>2022-10-23T09:13:42Z</time>
      </trkpt>
      <trkpt lat="49.03967" lon="1.93908">
        <ele>61.4</ele>
        <time>2022-10-23T09:13:48Z</time>
      </trkpt>
      <trkpt lat="49.03969" lon="1.93897">
        <ele>62.2</ele>
        <time>2022-10-23T09:13:54Z</time>
      </trkpt>
      <trkpt lat="49.03971" lon="1.93887">
        <ele>63</ele>
        <time>2022-10-23T09:13:59Z</time>
      </trkpt>
      <trkpt lat="49.03973" lon="1.93875">
        <ele>64</ele>
        <time>2022-10-23T09:14:05Z</time>
      </trkpt>
      <trkpt lat="49.03975" lon="1.93868">
        <ele>64.5</ele>
        <time>2022-10-23T09:14:10Z</time>
      </trkpt>
      <trkpt lat="49.03977" lon="1.93855">
        <ele>65.7</ele>
        <time>2022-10-23T09:14:16Z</time>
      </trkpt>
      <trkpt lat="49.03979" lon="1.93845">
        <ele>66.8</ele>
        <time>2022-10-23T09:14:22Z</time>
      </trkpt>
      <trkpt lat="49.03981" lon="1.93838">
        <ele>67.5</ele>
        <time>2022-10-23T09:14:27Z</time>
      </trkpt>
      <trkpt lat="49.03988" lon="1.93838">
        <ele>67.5</ele>
        <time>2022-10-23T09:14:33Z</time>
      </trkpt>
      <trkpt lat="49.03993" lon="1.93845">
        <ele>66.8</ele>
        <time>2022-10-23T09:14:38Z</time>
      </trkpt>
      <trkpt lat="49.03998" lon="1.93851">
        <ele>66.1</ele>
        <time>2022-10-23T09:14:43Z</time>
      </trkpt>
      <trkpt lat="49.04004" lon="1.93859">
        <ele>65.3</ele>
        <time>2022-10-23T09:14:49Z</time>
      </trkpt>
      <trkpt lat="49.04009" lon="1.93868">
        <ele>64.8</ele>
        <time>2022-10-23T09:14:55Z</time>
      </trkpt>
      <trkpt lat="49.04014" lon="1.93876">
        <ele>64.4</ele>
        <time>2022-10-23T09:15:00Z</time>
      </trkpt>
      <trkpt lat="49.04019" lon="1.93884">
        <ele>64</ele>
        <time>2022-10-23T09:15:06Z</time>
      </trkpt>
      <trkpt lat="49.04025" lon="1.93891">
        <ele>63.7</ele>
        <time>2022-10-23T09:15:11Z</time>
      </trkpt>
      <trkpt lat="49.04031" lon="1.939">
        <ele>63.3</ele>
        <time>2022-10-23T09:15:16Z</time>
      </trkpt>
      <trkpt lat="49.0404" lon="1.9391">
        <ele>62.6</ele>
        <time>2022-10-23T09:15:22Z</time>
      </trkpt>
      <trkpt lat="49.04045" lon="1.93918">
        <ele>61.9</ele>
        <time>2022-10-23T09:15:27Z</time>
      </trkpt>
      <trkpt lat="49.04052" lon="1.93925">
        <ele>61.4</ele>
        <time>2022-10-23T09:15:32Z</time>
      </trkpt>
      <trkpt lat="49.04058" lon="1.93935">
        <ele>60.8</ele>
        <time>2022-10-23T09:15:38Z</time>
      </trkpt>
      <trkpt lat="49.04063" lon="1.93941">
        <ele>60.5</ele>
        <time>2022-10-23T09:15:44Z</time>
      </trkpt>
      <trkpt lat="49.04069" lon="1.93949">
        <ele>60.3</ele>
        <time>2022-10-23T09:15:49Z</time>
      </trkpt>
      <trkpt lat="49.04074" lon="1.93952">
        <ele>60.3</ele>
        <time>2022-10-23T09:15:55Z</time>
      </trkpt>
      <trkpt lat="49.04078" lon="1.93947">
        <ele>60.7</ele>
        <time>2022-10-23T09:16:00Z</time>
      </trkpt>
      <trkpt lat="49.04083" lon="1.93932">
        <ele>61.9</ele>
        <time>2022-10-23T09:16:06Z</time>
      </trkpt>
      <trkpt lat="49.04087" lon="1.93918">
        <ele>63.3</ele>
        <time>2022-10-23T09:16:12Z</time>
      </trkpt>
      <trkpt lat="49.04087" lon="1.93907">
        <ele>64.4</ele>
        <time>2022-10-23T09:16:18Z</time>
      </trkpt>
      <trkpt lat="49.04087" lon="1.93898">
        <ele>65.3</ele>
        <time>2022-10-23T09:16:23Z</time>
      </trkpt>
      <trkpt lat="49.04088" lon="1.93886">
        <ele>66.6</ele>
        <time>2022-10-23T09:16:29Z</time>
      </trkpt>
      <trkpt lat="49.04091" lon="1.93878">
        <ele>67.5</ele>
        <time>2022-10-23T09:16:34Z</time>
      </trkpt>
      <trkpt lat="49.04093" lon="1.93869">
        <ele>68.4</ele>
        <time>2022-10-23T09:16:40Z</time>
      </trkpt>
      <trkpt lat="49.04097" lon="1.93858">
        <ele>69.2</ele>
        <time>2022-10-23T09:16:46Z</time>
      </trkpt>
      <trkpt lat="49.04099" lon="1.93847">
        <ele>70</ele>
        <time>2022-10-23T09:16:51Z</time>
      </trkpt>
      <trkpt lat="49.04101" lon="1.93834">
        <ele>71</ele>
        <time>2022-10-23T09:16:57Z</time>
      </trkpt>
      <trkpt lat="49.04102" lon="1.93822">
        <ele>71.8</ele>
        <time>2022-10-23T09:17:03Z</time>
      </trkpt>
      <trkpt lat="49.04103" lon="1.93812">
        <ele>72.5</ele>
        <time>2022-10-23T09:17:09Z</time>
      </trkpt>
      <trkpt lat="49.04104" lon="1.93804">
        <ele>73.1</ele>
        <time>2022-10-23T09:17:14Z</time>
      </trkpt>
      <trkpt lat="49.04105" lon="1.93794">
        <ele>74.1</ele>
        <time>2022-10-23T09:17:20Z</time>
      </trkpt>
      <trkpt lat="49.04107" lon="1.93784">
        <ele>75.1</ele>
        <time>2022-10-23T09:17:26Z</time>
      </trkpt>
      <trkpt lat="49.04108" lon="1.93775">
        <ele>76</ele>
        <time>2022-10-23T09:17:32Z</time>
      </trkpt>
      <trkpt lat="49.04111" lon="1.93768">
        <ele>76.7</ele>
        <time>2022-10-23T09:17:37Z</time>
      </trkpt>
      <trkpt lat="49.04112" lon="1.93761">
        <ele>77.2</ele>
        <time>2022-10-23T09:17:42Z</time>
      </trkpt>
      <trkpt lat="49.04114" lon="1.9375">
        <ele>78.1</ele>
        <time>2022-10-23T09:17:48Z</time>
      </trkpt>
      <trkpt lat="49.04117" lon="1.9374">
        <ele>78.9</ele>
        <time>2022-10-23T09:17:53Z</time>
      </trkpt>
      <trkpt lat="49.04121" lon="1.9373">
        <ele>79.8</ele>
        <time>2022-10-23T09:17:59Z</time>
      </trkpt>
      <trkpt lat="49.04123" lon="1.9372">
        <ele>80.5</ele>
        <time>2022-10-23T09:18:04Z</time>
      </trkpt>
      <trkpt lat="49.04125" lon="1.93709">
        <ele>81</ele>
        <time>2022-10-23T09:18:10Z</time>
      </trkpt>
      <trkpt lat="49.04128" lon="1.93697">
        <ele>81.5</ele>
        <time>2022-10-23T09:18:16Z</time>
      </trkpt>
      <trkpt lat="49.04131" lon="1.93684">
        <ele>82.5</ele>
        <time>2022-10-23T09:18:22Z</time>
      </trkpt>
      <trkpt lat="49.04133" lon="1.93673">
        <ele>83.3</ele>
        <time>2022-10-23T09:18:27Z</time>
      </trkpt>
      <trkpt lat="49.04136" lon="1.93663">
        <ele>84</ele>
        <time>2022-10-23T09:18:33Z</time>
      </trkpt>
      <trkpt lat="49.04138" lon="1.93655">
        <ele>84.4</ele>
        <time>2022-10-23T09:18:38Z</time>
      </trkpt>
      <trkpt lat="49.04139" lon="1.93643">
        <ele>84.9</ele>
        <time>2022-10-23T09:18:44Z</time>
      </trkpt>
      <trkpt lat="49.04136" lon="1.93634">
        <ele>85.2</ele>
        <time>2022-10-23T09:18:49Z</time>
      </trkpt>
      <trkpt lat="49.0413" lon="1.93627">
        <ele>85.4</ele>
        <time>2022-10-23T09:18:55Z</time>
      </trkpt>
      <trkpt lat="49.04124" lon="1.93621">
        <ele>85.7</ele>
        <time>2022-10-23T09:19:01Z</time>
      </trkpt>
      <trkpt lat="49.04119" lon="1.93613">
        <ele>85.9</ele>
        <time>2022-10-23T09:19:06Z</time>
      </trkpt>
      <trkpt lat="49.04114" lon="1.93607">
        <ele>86.2</ele>
        <time>2022-10-23T09:19:11Z</time>
      </trkpt>
      <trkpt lat="49.04108" lon="1.936">
        <ele>86.3</ele>
        <time>2022-10-23T09:19:17Z</time>
      </trkpt>
      <trkpt lat="49.04101" lon="1.93593">
        <ele>86.3</ele>
        <time>2022-10-23T09:19:22Z</time>
      </trkpt>
      <trkpt lat="49.04098" lon="1.93586">
        <ele>86.4</ele>
        <time>2022-10-23T09:19:27Z</time>
      </trkpt>
      <trkpt lat="49.04092" lon="1.93577">
        <ele>86.7</ele>
        <time>2022-10-23T09:19:33Z</time>
      </trkpt>
      <trkpt lat="49.04087" lon="1.93568">
        <ele>87.2</ele>
        <time>2022-10-23T09:19:39Z</time>
      </trkpt>
      <trkpt lat="49.0408" lon="1.93559">
        <ele>87.5</ele>
        <time>2022-10-23T09:19:45Z</time>
      </trkpt>
      <trkpt lat="49.04074" lon="1.93548">
        <ele>87.7</ele>
        <time>2022-10-23T09:19:50Z</time>
      </trkpt>
      <trkpt lat="49.04066" lon="1.93535">
        <ele>88</ele>
        <time>2022-10-23T09:19:56Z</time>
      </trkpt>
      <trkpt lat="49.0406" lon="1.93526">
        <ele>88.2</ele>
        <time>2022-10-23T09:20:02Z</time>
      </trkpt>
      <trkpt lat="49.04056" lon="1.93521">
        <ele>88.3</ele>
        <time>2022-10-23T09:20:08Z</time>
      </trkpt>
      <trkpt lat="49.04052" lon="1.93517">
        <ele>88.3</ele>
        <time>2022-10-23T09:20:13Z</time>
      </trkpt>
      <trkpt lat="49.04046" lon="1.93511">
        <ele>88.3</ele>
        <time>2022-10-23T09:20:19Z</time>
      </trkpt>
      <trkpt lat="49.04041" lon="1.935">
        <ele>88.5</ele>
        <time>2022-10-23T09:20:24Z</time>
      </trkpt>
      <trkpt lat="49.04035" lon="1.9349">
        <ele>88.9</ele>
        <time>2022-10-23T09:20:30Z</time>
      </trkpt>
      <trkpt lat="49.04032" lon="1.93484">
        <ele>89.2</ele>
        <time>2022-10-23T09:20:35Z</time>
      </trkpt>
      <trkpt lat="49.04026" lon="1.93473">
        <ele>89.9</ele>
        <time>2022-10-23T09:20:41Z</time>
      </trkpt>
      <trkpt lat="49.0402" lon="1.93462">
        <ele>90.2</ele>
        <time>2022-10-23T09:20:46Z</time>
      </trkpt>
      <trkpt lat="49.04014" lon="1.93453">
        <ele>90.5</ele>
        <time>2022-10-23T09:20:52Z</time>
      </trkpt>
      <trkpt lat="49.04008" lon="1.93445">
        <ele>91</ele>
        <time>2022-10-23T09:20:57Z</time>
      </trkpt>
      <trkpt lat="49.04001" lon="1.93435">
        <ele>91.3</ele>
        <time>2022-10-23T09:21:03Z</time>
      </trkpt>
      <trkpt lat="49.03995" lon="1.93428">
        <ele>91.4</ele>
        <time>2022-10-23T09:21:09Z</time>
      </trkpt>
      <trkpt lat="49.03991" lon="1.93417">
        <ele>91.6</ele>
        <time>2022-10-23T09:21:15Z</time>
      </trkpt>
      <trkpt lat="49.03985" lon="1.93408">
        <ele>91.8</ele>
        <time>2022-10-23T09:21:20Z</time>
      </trkpt>
      <trkpt lat="49.03981" lon="1.93397">
        <ele>92.3</ele>
        <time>2022-10-23T09:21:26Z</time>
      </trkpt>
      <trkpt lat="49.03975" lon="1.93389">
        <ele>92.9</ele>
        <time>2022-10-23T09:21:32Z</time>
      </trkpt>
      <trkpt lat="49.0397" lon="1.9338">
        <ele>92.9</ele>
        <time>2022-10-23T09:21:37Z</time>
      </trkpt>
      <trkpt lat="49.03965" lon="1.93367">
        <ele>92.9</ele>
        <time>2022-10-23T09:21:43Z</time>
      </trkpt>
      <trkpt lat="49.0396" lon="1.93355">
        <ele>93.2</ele>
        <time>2022-10-23T09:21:49Z</time>
      </trkpt>
      <trkpt lat="49.03954" lon="1.93345">
        <ele>93.6</ele>
        <time>2022-10-23T09:21:55Z</time>
      </trkpt>
      <trkpt lat="49.03948" lon="1.93336">
        <ele>93.9</ele>
        <time>2022-10-23T09:22:00Z</time>
      </trkpt>
      <trkpt lat="49.03942" lon="1.93326">
        <ele>94.3</ele>
        <time>2022-10-23T09:22:06Z</time>
      </trkpt>
      <trkpt lat="49.03939" lon="1.93317">
        <ele>94.6</ele>
        <time>2022-10-23T09:22:11Z</time>
      </trkpt>
      <trkpt lat="49.03935" lon="1.93305">
        <ele>95</ele>
        <time>2022-10-23T09:22:17Z</time>
      </trkpt>
      <trkpt lat="49.0393" lon="1.93294">
        <ele>95.2</ele>
        <time>2022-10-23T09:22:22Z</time>
      </trkpt>
      <trkpt lat="49.03927" lon="1.93283">
        <ele>95.5</ele>
        <time>2022-10-23T09:22:28Z</time>
      </trkpt>
      <trkpt lat="49.03923" lon="1.93272">
        <ele>95.8</ele>
        <time>2022-10-23T09:22:34Z</time>
      </trkpt>
      <trkpt lat="49.03918" lon="1.93261">
        <ele>96</ele>
        <time>2022-10-23T09:22:39Z</time>
      </trkpt>
      <trkpt lat="49.03914" lon="1.93251">
        <ele>96</ele>
        <time>2022-10-23T09:22:45Z</time>
      </trkpt>
      <trkpt lat="49.0391" lon="1.93242">
        <ele>96</ele>
        <time>2022-10-23T09:22:50Z</time>
      </trkpt>
      <trkpt lat="49.03905" lon="1.9323">
        <ele>96</ele>
        <time>2022-10-23T09:22:56Z</time>
      </trkpt>
      <trkpt lat="49.039" lon="1.93217">
        <ele>96.2</ele>
        <time>2022-10-23T09:23:02Z</time>
      </trkpt>
      <trkpt lat="49.03898" lon="1.93207">
        <ele>96.6</ele>
        <time>2022-10-23T09:23:07Z</time>
      </trkpt>
      <trkpt lat="49.03896" lon="1.93197">
        <ele>96.9</ele>
        <time>2022-10-23T09:23:12Z</time>
      </trkpt>
      <trkpt lat="49.03893" lon="1.93187">
        <ele>97.2</ele>
        <time>2022-10-23T09:23:18Z</time>
      </trkpt>
      <trkpt lat="49.0389" lon="1.93179">
        <ele>97.6</ele>
        <time>2022-10-23T09:23:23Z</time>
      </trkpt>
      <trkpt lat="49.03886" lon="1.93166">
        <ele>97.9</ele>
        <time>2022-10-23T09:23:29Z</time>
      </trkpt>
      <trkpt lat="49.03882" lon="1.93151">
        <ele>97.8</ele>
        <time>2022-10-23T09:23:35Z</time>
      </trkpt>
      <trkpt lat="49.03882" lon="1.9314">
        <ele>97.7</ele>
        <time>2022-10-23T09:23:40Z</time>
      </trkpt>
      <trkpt lat="49.0388" lon="1.93129">
        <ele>97.8</ele>
        <time>2022-10-23T09:23:46Z</time>
      </trkpt>
      <trkpt lat="49.03875" lon="1.93119">
        <ele>97.9</ele>
        <time>2022-10-23T09:23:52Z</time>
      </trkpt>
      <trkpt lat="49.03871" lon="1.93104">
        <ele>98.1</ele>
        <time>2022-10-23T09:23:58Z</time>
      </trkpt>
      <trkpt lat="49.03869" lon="1.93089">
        <ele>98.2</ele>
        <time>2022-10-23T09:24:04Z</time>
      </trkpt>
      <trkpt lat="49.03866" lon="1.93075">
        <ele>98.4</ele>
        <time>2022-10-23T09:24:10Z</time>
      </trkpt>
      <trkpt lat="49.03865" lon="1.93065">
        <ele>98.7</ele>
        <time>2022-10-23T09:24:16Z</time>
      </trkpt>
      <trkpt lat="49.03864" lon="1.93054">
        <ele>99</ele>
        <time>2022-10-23T09:24:22Z</time>
      </trkpt>
      <trkpt lat="49.03861" lon="1.9304">
        <ele>99</ele>
        <time>2022-10-23T09:24:28Z</time>
      </trkpt>
      <trkpt lat="49.03857" lon="1.93025">
        <ele>99.1</ele>
        <time>2022-10-23T09:24:34Z</time>
      </trkpt>
      <trkpt lat="49.03856" lon="1.93015">
        <ele>99.4</ele>
        <time>2022-10-23T09:24:39Z</time>
      </trkpt>
      <trkpt lat="49.03855" lon="1.93006">
        <ele>99.6</ele>
        <time>2022-10-23T09:24:44Z</time>
      </trkpt>
      <trkpt lat="49.03852" lon="1.92994">
        <ele>99.7</ele>
        <time>2022-10-23T09:24:50Z</time>
      </trkpt>
      <trkpt lat="49.03848" lon="1.92979">
        <ele>99.9</ele>
        <time>2022-10-23T09:24:56Z</time>
      </trkpt>
      <trkpt lat="49.03847" lon="1.92965">
        <ele>100.3</ele>
        <time>2022-10-23T09:25:02Z</time>
      </trkpt>
      <trkpt lat="49.03845" lon="1.92953">
        <ele>100.7</ele>
        <time>2022-10-23T09:25:07Z</time>
      </trkpt>
      <trkpt lat="49.03842" lon="1.92943">
        <ele>101</ele>
        <time>2022-10-23T09:25:13Z</time>
      </trkpt>
      <trkpt lat="49.0384" lon="1.92932">
        <ele>101</ele>
        <time>2022-10-23T09:25:19Z</time>
      </trkpt>
      <trkpt lat="49.03839" lon="1.92919">
        <ele>101</ele>
        <time>2022-10-23T09:25:24Z</time>
      </trkpt>
      <trkpt lat="49.03839" lon="1.92907">
        <ele>101</ele>
        <time>2022-10-23T09:25:30Z</time>
      </trkpt>
      <trkpt lat="49.03837" lon="1.92898">
        <ele>101</ele>
        <time>2022-10-23T09:25:35Z</time>
      </trkpt>
      <trkpt lat="49.03835" lon="1.92888">
        <ele>101</ele>
        <time>2022-10-23T09:25:40Z</time>
      </trkpt>
      <trkpt lat="49.03833" lon="1.92877">
        <ele>101.5</ele>
        <time>2022-10-23T09:25:45Z</time>
      </trkpt>
      <trkpt lat="49.0383" lon="1.92862">
        <ele>102</ele>
        <time>2022-10-23T09:25:51Z</time>
      </trkpt>
      <trkpt lat="49.03829" lon="1.92851">
        <ele>102</ele>
        <time>2022-10-23T09:25:56Z</time>
      </trkpt>
      <trkpt lat="49.03828" lon="1.92838">
        <ele>102</ele>
        <time>2022-10-23T09:26:02Z</time>
      </trkpt>
      <trkpt lat="49.03825" lon="1.92824">
        <ele>102.3</ele>
        <time>2022-10-23T09:26:08Z</time>
      </trkpt>
      <trkpt lat="49.03823" lon="1.92811">
        <ele>102.8</ele>
        <time>2022-10-23T09:26:13Z</time>
      </trkpt>
      <trkpt lat="49.03822" lon="1.92794">
        <ele>103</ele>
        <time>2022-10-23T09:26:19Z</time>
      </trkpt>
      <trkpt lat="49.0382" lon="1.92783">
        <ele>103</ele>
        <time>2022-10-23T09:26:24Z</time>
      </trkpt>
      <trkpt lat="49.03818" lon="1.92774">
        <ele>103</ele>
        <time>2022-10-23T09:26:29Z</time>
      </trkpt>
      <trkpt lat="49.03815" lon="1.92763">
        <ele>103</ele>
        <time>2022-10-23T09:26:35Z</time>
      </trkpt>
      <trkpt lat="49.03812" lon="1.92753">
        <ele>103</ele>
        <time>2022-10-23T09:26:40Z</time>
      </trkpt>
      <trkpt lat="49.03804" lon="1.92747">
        <ele>103.1</ele>
        <time>2022-10-23T09:26:46Z</time>
      </trkpt>
      <trkpt lat="49.03797" lon="1.92753">
        <ele>103</ele>
        <time>2022-10-23T09:26:52Z</time>
      </trkpt>
      <trkpt lat="49.03793" lon="1.92765">
        <ele>103</ele>
        <time>2022-10-23T09:26:57Z</time>
      </trkpt>
      <trkpt lat="49.03787" lon="1.92781">
        <ele>103</ele>
        <time>2022-10-23T09:27:03Z</time>
      </trkpt>
      <trkpt lat="49.03781" lon="1.92794">
        <ele>103</ele>
        <time>2022-10-23T09:27:09Z</time>
      </trkpt>
      <trkpt lat="49.03776" lon="1.92804">
        <ele>103</ele>
        <time>2022-10-23T09:27:15Z</time>
      </trkpt>
      <trkpt lat="49.03773" lon="1.92812">
        <ele>102.6</ele>
        <time>2022-10-23T09:27:20Z</time>
      </trkpt>
      <trkpt lat="49.03768" lon="1.92821">
        <ele>102.1</ele>
        <time>2022-10-23T09:27:26Z</time>
      </trkpt>
      <trkpt lat="49.03762" lon="1.92829">
        <ele>101.6</ele>
        <time>2022-10-23T09:27:32Z</time>
      </trkpt>
      <trkpt lat="49.03756" lon="1.9284">
        <ele>101.2</ele>
        <time>2022-10-23T09:27:38Z</time>
      </trkpt>
      <trkpt lat="49.03751" lon="1.92849">
        <ele>101</ele>
        <time>2022-10-23T09:27:43Z</time>
      </trkpt>
      <trkpt lat="49.03745" lon="1.92861">
        <ele>100.8</ele>
        <time>2022-10-23T09:27:49Z</time>
      </trkpt>
      <trkpt lat="49.03739" lon="1.92871">
        <ele>100.4</ele>
        <time>2022-10-23T09:27:55Z</time>
      </trkpt>
      <trkpt lat="49.03731" lon="1.92883">
        <ele>100.1</ele>
        <time>2022-10-23T09:28:01Z</time>
      </trkpt>
      <trkpt lat="49.03726" lon="1.92894">
        <ele>99.8</ele>
        <time>2022-10-23T09:28:06Z</time>
      </trkpt>
      <trkpt lat="49.0372" lon="1.92902">
        <ele>99.5</ele>
        <time>2022-10-23T09:28:11Z</time>
      </trkpt>
      <trkpt lat="49.03712" lon="1.92913">
        <ele>98.8</ele>
        <time>2022-10-23T09:28:17Z</time>
      </trkpt>
      <trkpt lat="49.03705" lon="1.92923">
        <ele>98.3</ele>
        <time>2022-10-23T09:28:23Z</time>
      </trkpt>
      <trkpt lat="49.03697" lon="1.92931">
        <ele>98.1</ele>
        <time>2022-10-23T09:28:29Z</time>
      </trkpt>
      <trkpt lat="49.0369" lon="1.9294">
        <ele>97.9</ele>
        <time>2022-10-23T09:28:35Z</time>
      </trkpt>
      <trkpt lat="49.03683" lon="1.9295">
        <ele>97.4</ele>
        <time>2022-10-23T09:28:41Z</time>
      </trkpt>
      <trkpt lat="49.03675" lon="1.92957">
        <ele>96.9</ele>
        <time>2022-10-23T09:28:47Z</time>
      </trkpt>
      <trkpt lat="49.03669" lon="1.92962">
        <ele>96.5</ele>
        <time>2022-10-23T09:28:52Z</time>
      </trkpt>
      <trkpt lat="49.03664" lon="1.92967">
        <ele>96</ele>
        <time>2022-10-23T09:28:57Z</time>
      </trkpt>
      <trkpt lat="49.03656" lon="1.92974">
        <ele>95.1</ele>
        <time>2022-10-23T09:29:03Z</time>
      </trkpt>
      <trkpt lat="49.0365" lon="1.9298">
        <ele>94.5</ele>
        <time>2022-10-23T09:29:08Z</time>
      </trkpt>
      <trkpt lat="49.03644" lon="1.92985">
        <ele>93.9</ele>
        <time>2022-10-23T09:29:13Z</time>
      </trkpt>
      <trkpt lat="49.03637" lon="1.92992">
        <ele>93.2</ele>
        <time>2022-10-23T09:29:19Z</time>
      </trkpt>
      <trkpt lat="49.03632" lon="1.92998">
        <ele>92.8</ele>
        <time>2022-10-23T09:29:24Z</time>
      </trkpt>
      <trkpt lat="49.03624" lon="1.93007">
        <ele>92.2</ele>
        <time>2022-10-23T09:29:30Z</time>
      </trkpt>
      <trkpt lat="49.03618" lon="1.93014">
        <ele>91.5</ele>
        <time>2022-10-23T09:29:35Z</time>
      </trkpt>
      <trkpt lat="49.03612" lon="1.93021">
        <ele>90.5</ele>
        <time>2022-10-23T09:29:41Z</time>
      </trkpt>
      <trkpt lat="49.03606" lon="1.93029">
        <ele>89.3</ele>
        <time>2022-10-23T09:29:46Z</time>
      </trkpt>
      <trkpt lat="49.03602" lon="1.93038">
        <ele>88.2</ele>
        <time>2022-10-23T09:29:51Z</time>
      </trkpt>
      <trkpt lat="49.03599" lon="1.93051">
        <ele>87</ele>
        <time>2022-10-23T09:29:56Z</time>
      </trkpt>
      <trkpt lat="49.03595" lon="1.93062">
        <ele>85.9</ele>
        <time>2022-10-23T09:30:01Z</time>
      </trkpt>
      <trkpt lat="49.0359" lon="1.93075">
        <ele>84.9</ele>
        <time>2022-10-23T09:30:07Z</time>
      </trkpt>
      <trkpt lat="49.03587" lon="1.93087">
        <ele>84.1</ele>
        <time>2022-10-23T09:30:13Z</time>
      </trkpt>
      <trkpt lat="49.03583" lon="1.93097">
        <ele>83.5</ele>
        <time>2022-10-23T09:30:19Z</time>
      </trkpt>
      <trkpt lat="49.03581" lon="1.93107">
        <ele>83</ele>
        <time>2022-10-23T09:30:24Z</time>
      </trkpt>
      <trkpt lat="49.03581" lon="1.93118">
        <ele>82.4</ele>
        <time>2022-10-23T09:30:30Z</time>
      </trkpt>
      <trkpt lat="49.03579" lon="1.93127">
        <ele>81.7</ele>
        <time>2022-10-23T09:30:35Z</time>
      </trkpt>
      <trkpt lat="49.03575" lon="1.93134">
        <ele>81</ele>
        <time>2022-10-23T09:30:41Z</time>
      </trkpt>
      <trkpt lat="49.03573" lon="1.93142">
        <ele>80.6</ele>
        <time>2022-10-23T09:30:46Z</time>
      </trkpt>
      <trkpt lat="49.03569" lon="1.93153">
        <ele>80.5</ele>
        <time>2022-10-23T09:30:52Z</time>
      </trkpt>
      <trkpt lat="49.03564" lon="1.93165">
        <ele>80.7</ele>
        <time>2022-10-23T09:30:58Z</time>
      </trkpt>
      <trkpt lat="49.03559" lon="1.93176">
        <ele>80.6</ele>
        <time>2022-10-23T09:31:03Z</time>
      </trkpt>
      <trkpt lat="49.03552" lon="1.93189">
        <ele>80.1</ele>
        <time>2022-10-23T09:31:09Z</time>
      </trkpt>
      <trkpt lat="49.03545" lon="1.93199">
        <ele>80</ele>
        <time>2022-10-23T09:31:14Z</time>
      </trkpt>
      <trkpt lat="49.03537" lon="1.93209">
        <ele>80</ele>
        <time>2022-10-23T09:31:20Z</time>
      </trkpt>
      <trkpt lat="49.03528" lon="1.9322">
        <ele>80</ele>
        <time>2022-10-23T09:31:26Z</time>
      </trkpt>
      <trkpt lat="49.03521" lon="1.93228">
        <ele>80.4</ele>
        <time>2022-10-23T09:31:31Z</time>
      </trkpt>
      <trkpt lat="49.03513" lon="1.93235">
        <ele>80.7</ele>
        <time>2022-10-23T09:31:36Z</time>
      </trkpt>
      <trkpt lat="49.03506" lon="1.93241">
        <ele>80.9</ele>
        <time>2022-10-23T09:31:41Z</time>
      </trkpt>
      <trkpt lat="49.03498" lon="1.93246">
        <ele>81</ele>
        <time>2022-10-23T09:31:47Z</time>
      </trkpt>
      <trkpt lat="49.03492" lon="1.93251">
        <ele>81</ele>
        <time>2022-10-23T09:31:53Z</time>
      </trkpt>
      <trkpt lat="49.03487" lon="1.93254">
        <ele>81.2</ele>
        <time>2022-10-23T09:31:58Z</time>
      </trkpt>
      <trkpt lat="49.03479" lon="1.93259">
        <ele>81.3</ele>
        <time>2022-10-23T09:32:04Z</time>
      </trkpt>
      <trkpt lat="49.03469" lon="1.93264">
        <ele>81.4</ele>
        <time>2022-10-23T09:32:10Z</time>
      </trkpt>
      <trkpt lat="49.0346" lon="1.9327">
        <ele>81.3</ele>
        <time>2022-10-23T09:32:16Z</time>
      </trkpt>
      <trkpt lat="49.03453" lon="1.93273">
        <ele>81.1</ele>
        <time>2022-10-23T09:32:21Z</time>
      </trkpt>
      <trkpt lat="49.03445" lon="1.93277">
        <ele>81</ele>
        <time>2022-10-23T09:32:26Z</time>
      </trkpt>
      <trkpt lat="49.03434" lon="1.93281">
        <ele>80.6</ele>
        <time>2022-10-23T09:32:32Z</time>
      </trkpt>
      <trkpt lat="49.03426" lon="1.93287">
        <ele>80.3</ele>
        <time>2022-10-23T09:32:38Z</time>
      </trkpt>
      <trkpt lat="49.03416" lon="1.93293">
        <ele>80</ele>
        <time>2022-10-23T09:32:44Z</time>
      </trkpt>
      <trkpt lat="49.03409" lon="1.93298">
        <ele>79.7</ele>
        <time>2022-10-23T09:32:49Z</time>
      </trkpt>
      <trkpt lat="49.03399" lon="1.93303">
        <ele>79.4</ele>
        <time>2022-10-23T09:32:55Z</time>
      </trkpt>
      <trkpt lat="49.03394" lon="1.9331">
        <ele>79.1</ele>
        <time>2022-10-23T09:33:01Z</time>
      </trkpt>
      <trkpt lat="49.03388" lon="1.93317">
        <ele>79</ele>
        <time>2022-10-23T09:33:06Z</time>
      </trkpt>
      <trkpt lat="49.0338" lon="1.93325">
        <ele>78.7</ele>
        <time>2022-10-23T09:33:12Z</time>
      </trkpt>
      <trkpt lat="49.03374" lon="1.93333">
        <ele>78.5</ele>
        <time>2022-10-23T09:33:17Z</time>
      </trkpt>
      <trkpt lat="49.03367" lon="1.93341">
        <ele>78.2</ele>
        <time>2022-10-23T09:33:23Z</time>
      </trkpt>
      <trkpt lat="49.03361" lon="1.93347">
        <ele>78</ele>
        <time>2022-10-23T09:33:28Z</time>
      </trkpt>
      <trkpt lat="49.03355" lon="1.93356">
        <ele>77.6</ele>
        <time>2022-10-23T09:33:34Z</time>
      </trkpt>
      <trkpt lat="49.03349" lon="1.93364">
        <ele>77.1</ele>
        <time>2022-10-23T09:33:40Z</time>
      </trkpt>
      <trkpt lat="49.03345" lon="1.9337">
        <ele>76.5</ele>
        <time>2022-10-23T09:33:45Z</time>
      </trkpt>
      <trkpt lat="49.03337" lon="1.93378">
        <ele>75.6</ele>
        <time>2022-10-23T09:33:51Z</time>
      </trkpt>
      <trkpt lat="49.0333" lon="1.93386">
        <ele>75</ele>
        <time>2022-10-23T09:33:57Z</time>
      </trkpt>
      <trkpt lat="49.03324" lon="1.93393">
        <ele>74.6</ele>
        <time>2022-10-23T09:34:02Z</time>
      </trkpt>
      <trkpt lat="49.03316" lon="1.93405">
        <ele>74</ele>
        <time>2022-10-23T09:34:08Z</time>
      </trkpt>
      <trkpt lat="49.03307" lon="1.93414">
        <ele>73.2</ele>
        <time>2022-10-23T09:34:14Z</time>
      </trkpt>
      <trkpt lat="49.033" lon="1.93421">
        <ele>72.3</ele>
        <time>2022-10-23T09:34:19Z</time>
      </trkpt>
      <trkpt lat="49.03295" lon="1.93429">
        <ele>71.6</ele>
        <time>2022-10-23T09:34:25Z</time>
      </trkpt>
      <trkpt lat="49.03299" lon="1.93436">
        <ele>71.8</ele>
        <time>2022-10-23T09:34:30Z</time>
      </trkpt>
      <trkpt lat="49.03303" lon="1.93442">
        <ele>71.9</ele>
        <time>2022-10-23T09:34:35Z</time>
      </trkpt>
      <trkpt lat="49.03307" lon="1.93453">
        <ele>71.8</ele>
        <time>2022-10-23T09:34:41Z</time>
      </trkpt>
      <trkpt lat="49.03307" lon="1.93462">
        <ele>71.5</ele>
        <time>2022-10-23T09:34:46Z</time>
      </trkpt>
      <trkpt lat="49.03311" lon="1.93466">
        <ele>71.6</ele>
        <time>2022-10-23T09:34:52Z</time>
      </trkpt>
      <trkpt lat="49.03317" lon="1.93462">
        <ele>72.2</ele>
        <time>2022-10-23T09:34:58Z</time>
      </trkpt>
      <trkpt lat="49.03319" lon="1.93461">
        <ele>72.4</ele>
        <time>2022-10-23T09:35:04Z</time>
      </trkpt>
      <trkpt lat="49.03318" lon="1.9346">
        <ele>72.3</ele>
        <time>2022-10-23T09:35:10Z</time>
      </trkpt>
      <trkpt lat="49.03318" lon="1.9346">
        <ele>72.3</ele>
        <time>2022-10-23T09:35:15Z</time>
      </trkpt>
      <trkpt lat="49.03318" lon="1.9346">
        <ele>72.3</ele>
        <time>2022-10-23T09:35:20Z</time>
      </trkpt>
      <trkpt lat="49.0332" lon="1.93453">
        <ele>72.8</ele>
        <time>2022-10-23T09:35:26Z</time>
      </trkpt>
      <trkpt lat="49.03324" lon="1.93452">
        <ele>73.1</ele>
        <time>2022-10-23T09:35:31Z</time>
      </trkpt>
      <trkpt lat="49.0333" lon="1.93455">
        <ele>73.4</ele>
        <time>2022-10-23T09:35:36Z</time>
      </trkpt>
      <trkpt lat="49.03341" lon="1.93463">
        <ele>73.6</ele>
        <time>2022-10-23T09:35:42Z</time>
      </trkpt>
      <trkpt lat="49.03341" lon="1.93463">
        <ele>73.6</ele>
        <time>2022-10-23T09:35:48Z</time>
      </trkpt>
      <trkpt lat="49.03337" lon="1.93459">
        <ele>73.6</ele>
        <time>2022-10-23T09:35:54Z</time>
      </trkpt>
      <trkpt lat="49.03335" lon="1.93455">
        <ele>73.7</ele>
        <time>2022-10-23T09:35:59Z</time>
      </trkpt>
      <trkpt lat="49.03328" lon="1.93449">
        <ele>73.4</ele>
        <time>2022-10-23T09:36:05Z</time>
      </trkpt>
      <trkpt lat="49.03323" lon="1.93446">
        <ele>73.2</ele>
        <time>2022-10-23T09:36:10Z</time>
      </trkpt>
      <trkpt lat="49.03318" lon="1.9345">
        <ele>72.7</ele>
        <time>2022-10-23T09:36:15Z</time>
      </trkpt>
      <trkpt lat="49.03314" lon="1.93448">
        <ele>72.5</ele>
        <time>2022-10-23T09:36:21Z</time>
      </trkpt>
      <trkpt lat="49.03308" lon="1.93438">
        <ele>72.4</ele>
        <time>2022-10-23T09:36:27Z</time>
      </trkpt>
      <trkpt lat="49.03301" lon="1.93427">
        <ele>72.2</ele>
        <time>2022-10-23T09:36:33Z</time>
      </trkpt>
      <trkpt lat="49.03298" lon="1.9342">
        <ele>72</ele>
        <time>2022-10-23T09:36:38Z</time>
      </trkpt>
      <trkpt lat="49.0329" lon="1.93416">
        <ele>71.3</ele>
        <time>2022-10-23T09:36:44Z</time>
      </trkpt>
      <trkpt lat="49.03281" lon="1.93416">
        <ele>70.3</ele>
        <time>2022-10-23T09:36:49Z</time>
      </trkpt>
      <trkpt lat="49.0327" lon="1.93413">
        <ele>69.3</ele>
        <time>2022-10-23T09:36:55Z</time>
      </trkpt>
      <trkpt lat="49.03262" lon="1.93408">
        <ele>68.7</ele>
        <time>2022-10-23T09:37:00Z</time>
      </trkpt>
      <trkpt lat="49.03256" lon="1.93402">
        <ele>68.2</ele>
        <time>2022-10-23T09:37:06Z</time>
      </trkpt>
      <trkpt lat="49.03251" lon="1.93398">
        <ele>67.9</ele>
        <time>2022-10-23T09:37:12Z</time>
      </trkpt>
      <trkpt lat="49.03247" lon="1.9339">
        <ele>67.5</ele>
        <time>2022-10-23T09:37:17Z</time>
      </trkpt>
      <trkpt lat="49.03239" lon="1.93382">
        <ele>66.7</ele>
        <time>2022-10-23T09:37:23Z</time>
      </trkpt>
      <trkpt lat="49.03232" lon="1.93374">
        <ele>65.9</ele>
        <time>2022-10-23T09:37:28Z</time>
      </trkpt>
      <trkpt lat="49.03224" lon="1.93365">
        <ele>65.1</ele>
        <time>2022-10-23T09:37:34Z</time>
      </trkpt>
      <trkpt lat="49.03215" lon="1.93356">
        <ele>64</ele>
        <time>2022-10-23T09:37:40Z</time>
      </trkpt>
      <trkpt lat="49.03208" lon="1.9335">
        <ele>63.2</ele>
        <time>2022-10-23T09:37:45Z</time>
      </trkpt>
      <trkpt lat="49.03199" lon="1.93342">
        <ele>62.3</ele>
        <time>2022-10-23T09:37:51Z</time>
      </trkpt>
      <trkpt lat="49.03192" lon="1.93335">
        <ele>61.7</ele>
        <time>2022-10-23T09:37:56Z</time>
      </trkpt>
      <trkpt lat="49.03184" lon="1.93327">
        <ele>61.4</ele>
        <time>2022-10-23T09:38:02Z</time>
      </trkpt>
      <trkpt lat="49.03176" lon="1.93318">
        <ele>61.2</ele>
        <time>2022-10-23T09:38:08Z</time>
      </trkpt>
      <trkpt lat="49.03171" lon="1.93312">
        <ele>60.9</ele>
        <time>2022-10-23T09:38:13Z</time>
      </trkpt>
      <trkpt lat="49.03164" lon="1.93306">
        <ele>60.7</ele>
        <time>2022-10-23T09:38:19Z</time>
      </trkpt>
      <trkpt lat="49.03157" lon="1.93303">
        <ele>60.1</ele>
        <time>2022-10-23T09:38:24Z</time>
      </trkpt>
      <trkpt lat="49.03149" lon="1.93303">
        <ele>59.2</ele>
        <time>2022-10-23T09:38:30Z</time>
      </trkpt>
      <trkpt lat="49.03143" lon="1.93306">
        <ele>58.4</ele>
        <time>2022-10-23T09:38:36Z</time>
      </trkpt>
      <trkpt lat="49.0314" lon="1.9331">
        <ele>57.9</ele>
        <time>2022-10-23T09:38:41Z</time>
      </trkpt>
      <trkpt lat="49.03131" lon="1.93314">
        <ele>57.2</ele>
        <time>2022-10-23T09:38:47Z</time>
      </trkpt>
      <trkpt lat="49.03125" lon="1.9332">
        <ele>56.5</ele>
        <time>2022-10-23T09:38:52Z</time>
      </trkpt>
      <trkpt lat="49.03118" lon="1.93328">
        <ele>55.6</ele>
        <time>2022-10-23T09:38:57Z</time>
      </trkpt>
      <trkpt lat="49.0311" lon="1.93338">
        <ele>54.8</ele>
        <time>2022-10-23T09:39:02Z</time>
      </trkpt>
      <trkpt lat="49.03102" lon="1.93348">
        <ele>54.3</ele>
        <time>2022-10-23T09:39:08Z</time>
      </trkpt>
      <trkpt lat="49.03095" lon="1.93357">
        <ele>54.1</ele>
        <time>2022-10-23T09:39:13Z</time>
      </trkpt>
      <trkpt lat="49.03088" lon="1.93364">
        <ele>53.9</ele>
        <time>2022-10-23T09:39:19Z</time>
      </trkpt>
      <trkpt lat="49.03084" lon="1.9337">
        <ele>53.7</ele>
        <time>2022-10-23T09:39:24Z</time>
      </trkpt>
      <trkpt lat="49.03088" lon="1.93379">
        <ele>53.4</ele>
        <time>2022-10-23T09:39:30Z</time>
      </trkpt>
      <trkpt lat="49.03095" lon="1.93392">
        <ele>52.9</ele>
        <time>2022-10-23T09:39:36Z</time>
      </trkpt>
      <trkpt lat="49.03093" lon="1.93399">
        <ele>52.6</ele>
        <time>2022-10-23T09:39:41Z</time>
      </trkpt>
      <trkpt lat="49.03088" lon="1.93409">
        <ele>52.3</ele>
        <time>2022-10-23T09:39:47Z</time>
      </trkpt>
      <trkpt lat="49.03087" lon="1.93421">
        <ele>51.8</ele>
        <time>2022-10-23T09:39:52Z</time>
      </trkpt>
      <trkpt lat="49.03088" lon="1.93434">
        <ele>51</ele>
        <time>2022-10-23T09:39:58Z</time>
      </trkpt>
      <trkpt lat="49.03089" lon="1.93443">
        <ele>50.4</ele>
        <time>2022-10-23T09:40:03Z</time>
      </trkpt>
      <trkpt lat="49.0309" lon="1.93453">
        <ele>50.1</ele>
        <time>2022-10-23T09:40:09Z</time>
      </trkpt>
      <trkpt lat="49.0309" lon="1.93462">
        <ele>49.7</ele>
        <time>2022-10-23T09:40:14Z</time>
      </trkpt>
      <trkpt lat="49.03091" lon="1.93472">
        <ele>49.3</ele>
        <time>2022-10-23T09:40:19Z</time>
      </trkpt>
      <trkpt lat="49.03092" lon="1.93484">
        <ele>48.6</ele>
        <time>2022-10-23T09:40:25Z</time>
      </trkpt>
      <trkpt lat="49.03092" lon="1.93492">
        <ele>48.1</ele>
        <time>2022-10-23T09:40:30Z</time>
      </trkpt>
      <trkpt lat="49.03089" lon="1.93506">
        <ele>47.2</ele>
        <time>2022-10-23T09:40:36Z</time>
      </trkpt>
      <trkpt lat="49.03086" lon="1.93516">
        <ele>46.6</ele>
        <time>2022-10-23T09:40:41Z</time>
      </trkpt>
      <trkpt lat="49.03082" lon="1.9353">
        <ele>45.7</ele>
        <time>2022-10-23T09:40:47Z</time>
      </trkpt>
      <trkpt lat="49.03076" lon="1.93543">
        <ele>44.5</ele>
        <time>2022-10-23T09:40:53Z</time>
      </trkpt>
      <trkpt lat="49.03072" lon="1.93555">
        <ele>43.6</ele>
        <time>2022-10-23T09:40:58Z</time>
      </trkpt>
      <trkpt lat="49.03069" lon="1.9357">
        <ele>42.7</ele>
        <time>2022-10-23T09:41:04Z</time>
      </trkpt>
      <trkpt lat="49.03071" lon="1.93583">
        <ele>42.1</ele>
        <time>2022-10-23T09:41:09Z</time>
      </trkpt>
      <trkpt lat="49.03078" lon="1.93595">
        <ele>42.6</ele>
        <time>2022-10-23T09:41:15Z</time>
      </trkpt>
      <trkpt lat="49.03083" lon="1.93606">
        <ele>43</ele>
        <time>2022-10-23T09:41:21Z</time>
      </trkpt>
      <trkpt lat="49.03088" lon="1.93615">
        <ele>43.1</ele>
        <time>2022-10-23T09:41:27Z</time>
      </trkpt>
      <trkpt lat="49.03091" lon="1.9362">
        <ele>43</ele>
        <time>2022-10-23T09:41:32Z</time>
      </trkpt>
      <trkpt lat="49.03089" lon="1.93628">
        <ele>42.7</ele>
        <time>2022-10-23T09:41:38Z</time>
      </trkpt>
      <trkpt lat="49.03082" lon="1.93638">
        <ele>42</ele>
        <time>2022-10-23T09:41:44Z</time>
      </trkpt>
      <trkpt lat="49.03075" lon="1.93651">
        <ele>41.5</ele>
        <time>2022-10-23T09:41:50Z</time>
      </trkpt>
      <trkpt lat="49.03067" lon="1.9366">
        <ele>41.3</ele>
        <time>2022-10-23T09:41:56Z</time>
      </trkpt>
      <trkpt lat="49.03058" lon="1.93674">
        <ele>41.1</ele>
        <time>2022-10-23T09:42:04Z</time>
      </trkpt>
      <trkpt lat="49.03053" lon="1.93685">
        <ele>40.9</ele>
        <time>2022-10-23T09:42:09Z</time>
      </trkpt>
      <trkpt lat="49.03047" lon="1.93691">
        <ele>40.7</ele>
        <time>2022-10-23T09:42:14Z</time>
      </trkpt>
      <trkpt lat="49.03046" lon="1.93695">
        <ele>40.7</ele>
        <time>2022-10-23T09:42:20Z</time>
      </trkpt>
      <trkpt lat="49.03047" lon="1.93695">
        <ele>40.7</ele>
        <time>2022-10-23T09:42:25Z</time>
      </trkpt>
      <trkpt lat="49.03048" lon="1.93694">
        <ele>40.7</ele>
        <time>2022-10-23T09:42:31Z</time>
      </trkpt>
      <trkpt lat="49.03048" lon="1.93693">
        <ele>40.7</ele>
        <time>2022-10-23T09:42:36Z</time>
      </trkpt>
      <trkpt lat="49.03048" lon="1.93694">
        <ele>40.7</ele>
        <time>2022-10-23T09:42:42Z</time>
      </trkpt>
      <trkpt lat="49.03048" lon="1.93695">
        <ele>40.8</ele>
        <time>2022-10-23T09:42:47Z</time>
      </trkpt>
      <trkpt lat="49.03047" lon="1.93694">
        <ele>40.7</ele>
        <time>2022-10-23T09:42:54Z</time>
      </trkpt>
      <trkpt lat="49.03048" lon="1.93694">
        <ele>40.7</ele>
        <time>2022-10-23T09:42:59Z</time>
      </trkpt>
      <trkpt lat="49.03048" lon="1.93694">
        <ele>40.7</ele>
        <time>2022-10-23T09:43:04Z</time>
      </trkpt>
      <trkpt lat="49.03048" lon="1.93694">
        <ele>40.7</ele>
        <time>2022-10-23T09:43:10Z</time>
      </trkpt>
      <trkpt lat="49.03044" lon="1.93698">
        <ele>40.7</ele>
        <time>2022-10-23T09:43:16Z</time>
      </trkpt>
      <trkpt lat="49.0304" lon="1.93701">
        <ele>40.8</ele>
        <time>2022-10-23T09:43:22Z</time>
      </trkpt>
      <trkpt lat="49.03034" lon="1.93707">
        <ele>41</ele>
        <time>2022-10-23T09:43:29Z</time>
      </trkpt>
      <trkpt lat="49.0303" lon="1.93712">
        <ele>41.3</ele>
        <time>2022-10-23T09:43:34Z</time>
      </trkpt>
      <trkpt lat="49.03021" lon="1.93719">
        <ele>41.7</ele>
        <time>2022-10-23T09:43:40Z</time>
      </trkpt>
      <trkpt lat="49.03015" lon="1.93715">
        <ele>41.4</ele>
        <time>2022-10-23T09:43:46Z</time>
      </trkpt>
      <trkpt lat="49.03012" lon="1.93712">
        <ele>41.3</ele>
        <time>2022-10-23T09:43:51Z</time>
      </trkpt>
      <trkpt lat="49.03012" lon="1.93713">
        <ele>41.3</ele>
        <time>2022-10-23T09:43:57Z</time>
      </trkpt>
      <trkpt lat="49.03011" lon="1.93717">
        <ele>41.6</ele>
        <time>2022-10-23T09:44:02Z</time>
      </trkpt>
      <trkpt lat="49.03009" lon="1.93718">
        <ele>41.7</ele>
        <time>2022-10-23T09:44:08Z</time>
      </trkpt>
      <trkpt lat="49.03007" lon="1.9372">
        <ele>41.8</ele>
        <time>2022-10-23T09:44:14Z</time>
      </trkpt>
      <trkpt lat="49.03003" lon="1.93725">
        <ele>42.1</ele>
        <time>2022-10-23T09:44:19Z</time>
      </trkpt>
      <trkpt lat="49.03" lon="1.93732">
        <ele>42.4</ele>
        <time>2022-10-23T09:44:25Z</time>
      </trkpt>
      <trkpt lat="49.03001" lon="1.93738">
        <ele>42.5</ele>
        <time>2022-10-23T09:44:31Z</time>
      </trkpt>
      <trkpt lat="49.03003" lon="1.93741">
        <ele>42.6</ele>
        <time>2022-10-23T09:44:36Z</time>
      </trkpt>
      <trkpt lat="49.03005" lon="1.93745">
        <ele>42.7</ele>
        <time>2022-10-23T09:44:42Z</time>
      </trkpt>
      <trkpt lat="49.03004" lon="1.93748">
        <ele>42.8</ele>
        <time>2022-10-23T09:44:47Z</time>
      </trkpt>
      <trkpt lat="49.03" lon="1.93753">
        <ele>43</ele>
        <time>2022-10-23T09:44:53Z</time>
      </trkpt>
      <trkpt lat="49.02994" lon="1.9376">
        <ele>43.5</ele>
        <time>2022-10-23T09:44:58Z</time>
      </trkpt>
      <trkpt lat="49.02989" lon="1.93768">
        <ele>44.1</ele>
        <time>2022-10-23T09:45:03Z</time>
      </trkpt>
      <trkpt lat="49.02984" lon="1.93775">
        <ele>44.7</ele>
        <time>2022-10-23T09:45:09Z</time>
      </trkpt>
      <trkpt lat="49.0298" lon="1.9378">
        <ele>45.3</ele>
        <time>2022-10-23T09:45:14Z</time>
      </trkpt>
      <trkpt lat="49.02976" lon="1.93787">
        <ele>46</ele>
        <time>2022-10-23T09:45:19Z</time>
      </trkpt>
      <trkpt lat="49.02971" lon="1.93796">
        <ele>46.8</ele>
        <time>2022-10-23T09:45:25Z</time>
      </trkpt>
      <trkpt lat="49.02966" lon="1.93805">
        <ele>47.6</ele>
        <time>2022-10-23T09:45:31Z</time>
      </trkpt>
      <trkpt lat="49.02963" lon="1.93811">
        <ele>48.4</ele>
        <time>2022-10-23T09:45:37Z</time>
      </trkpt>
      <trkpt lat="49.0296" lon="1.93817">
        <ele>49.2</ele>
        <time>2022-10-23T09:45:42Z</time>
      </trkpt>
      <trkpt lat="49.02954" lon="1.93825">
        <ele>50.4</ele>
        <time>2022-10-23T09:45:48Z</time>
      </trkpt>
      <trkpt lat="49.0295" lon="1.93834">
        <ele>51.4</ele>
        <time>2022-10-23T09:45:53Z</time>
      </trkpt>
      <trkpt lat="49.02951" lon="1.93848">
        <ele>52.2</ele>
        <time>2022-10-23T09:45:59Z</time>
      </trkpt>
      <trkpt lat="49.02954" lon="1.93858">
        <ele>52.5</ele>
        <time>2022-10-23T09:46:04Z</time>
      </trkpt>
      <trkpt lat="49.02957" lon="1.93868">
        <ele>52.4</ele>
        <time>2022-10-23T09:46:09Z</time>
      </trkpt>
      <trkpt lat="49.02958" lon="1.93878">
        <ele>52.6</ele>
        <time>2022-10-23T09:46:14Z</time>
      </trkpt>
      <trkpt lat="49.02958" lon="1.93889">
        <ele>53</ele>
        <time>2022-10-23T09:46:20Z</time>
      </trkpt>
      <trkpt lat="49.02958" lon="1.939">
        <ele>53.4</ele>
        <time>2022-10-23T09:46:25Z</time>
      </trkpt>
      <trkpt lat="49.02958" lon="1.93909">
        <ele>53.8</ele>
        <time>2022-10-23T09:46:30Z</time>
      </trkpt>
      <trkpt lat="49.02958" lon="1.93921">
        <ele>54</ele>
        <time>2022-10-23T09:46:36Z</time>
      </trkpt>
      <trkpt lat="49.02958" lon="1.93931">
        <ele>54</ele>
        <time>2022-10-23T09:46:42Z</time>
      </trkpt>
      <trkpt lat="49.02957" lon="1.93941">
        <ele>54.1</ele>
        <time>2022-10-23T09:46:47Z</time>
      </trkpt>
      <trkpt lat="49.02954" lon="1.93953">
        <ele>54.6</ele>
        <time>2022-10-23T09:46:53Z</time>
      </trkpt>
      <trkpt lat="49.02952" lon="1.93963">
        <ele>55.1</ele>
        <time>2022-10-23T09:46:58Z</time>
      </trkpt>
      <trkpt lat="49.02951" lon="1.93976">
        <ele>55.7</ele>
        <time>2022-10-23T09:47:04Z</time>
      </trkpt>
      <trkpt lat="49.0295" lon="1.93986">
        <ele>56.1</ele>
        <time>2022-10-23T09:47:09Z</time>
      </trkpt>
      <trkpt lat="49.02949" lon="1.93998">
        <ele>56.6</ele>
        <time>2022-10-23T09:47:15Z</time>
      </trkpt>
      <trkpt lat="49.02949" lon="1.94008">
        <ele>57.2</ele>
        <time>2022-10-23T09:47:20Z</time>
      </trkpt>
      <trkpt lat="49.02948" lon="1.9402">
        <ele>58.2</ele>
        <time>2022-10-23T09:47:26Z</time>
      </trkpt>
      <trkpt lat="49.02946" lon="1.9403">
        <ele>59</ele>
        <time>2022-10-23T09:47:31Z</time>
      </trkpt>
      <trkpt lat="49.02945" lon="1.94043">
        <ele>59.5</ele>
        <time>2022-10-23T09:47:37Z</time>
      </trkpt>
      <trkpt lat="49.02945" lon="1.94055">
        <ele>60</ele>
        <time>2022-10-23T09:47:43Z</time>
      </trkpt>
      <trkpt lat="49.02944" lon="1.94065">
        <ele>60.4</ele>
        <time>2022-10-23T09:47:48Z</time>
      </trkpt>
      <trkpt lat="49.02943" lon="1.94078">
        <ele>60.9</ele>
        <time>2022-10-23T09:47:54Z</time>
      </trkpt>
      <trkpt lat="49.02942" lon="1.94088">
        <ele>61.5</ele>
        <time>2022-10-23T09:47:59Z</time>
      </trkpt>
      <trkpt lat="49.02941" lon="1.94097">
        <ele>62.2</ele>
        <time>2022-10-23T09:48:04Z</time>
      </trkpt>
      <trkpt lat="49.0294" lon="1.94106">
        <ele>63</ele>
        <time>2022-10-23T09:48:09Z</time>
      </trkpt>
      <trkpt lat="49.0294" lon="1.94118">
        <ele>63.6</ele>
        <time>2022-10-23T09:48:15Z</time>
      </trkpt>
      <trkpt lat="49.02941" lon="1.94127">
        <ele>63.9</ele>
        <time>2022-10-23T09:48:20Z</time>
      </trkpt>
      <trkpt lat="49.02941" lon="1.94139">
        <ele>64.4</ele>
        <time>2022-10-23T09:48:26Z</time>
      </trkpt>
      <trkpt lat="49.0294" lon="1.94147">
        <ele>65.1</ele>
        <time>2022-10-23T09:48:31Z</time>
      </trkpt>
      <trkpt lat="49.02938" lon="1.94155">
        <ele>65.8</ele>
        <time>2022-10-23T09:48:36Z</time>
      </trkpt>
      <trkpt lat="49.02938" lon="1.94163">
        <ele>66.5</ele>
        <time>2022-10-23T09:48:42Z</time>
      </trkpt>
      <trkpt lat="49.02937" lon="1.94173">
        <ele>67.5</ele>
        <time>2022-10-23T09:48:48Z</time>
      </trkpt>
      <trkpt lat="49.02935" lon="1.94183">
        <ele>68.7</ele>
        <time>2022-10-23T09:48:54Z</time>
      </trkpt>
      <trkpt lat="49.02934" lon="1.94191">
        <ele>69.8</ele>
        <time>2022-10-23T09:48:59Z</time>
      </trkpt>
      <trkpt lat="49.02932" lon="1.94203">
        <ele>71.3</ele>
        <time>2022-10-23T09:49:05Z</time>
      </trkpt>
      <trkpt lat="49.02933" lon="1.94214">
        <ele>72.7</ele>
        <time>2022-10-23T09:49:11Z</time>
      </trkpt>
      <trkpt lat="49.02934" lon="1.94225">
        <ele>73.9</ele>
        <time>2022-10-23T09:49:16Z</time>
      </trkpt>
      <trkpt lat="49.02936" lon="1.94236">
        <ele>75</ele>
        <time>2022-10-23T09:49:22Z</time>
      </trkpt>
      <trkpt lat="49.02938" lon="1.94243">
        <ele>75.7</ele>
        <time>2022-10-23T09:49:27Z</time>
      </trkpt>
      <trkpt lat="49.02941" lon="1.94251">
        <ele>76.5</ele>
        <time>2022-10-23T09:49:33Z</time>
      </trkpt>
      <trkpt lat="49.02943" lon="1.94258">
        <ele>77.1</ele>
        <time>2022-10-23T09:49:38Z</time>
      </trkpt>
      <trkpt lat="49.02945" lon="1.94267">
        <ele>77.7</ele>
        <time>2022-10-23T09:49:44Z</time>
      </trkpt>
      <trkpt lat="49.02948" lon="1.94276">
        <ele>78.3</ele>
        <time>2022-10-23T09:49:50Z</time>
      </trkpt>
      <trkpt lat="49.0295" lon="1.94284">
        <ele>78.6</ele>
        <time>2022-10-23T09:49:55Z</time>
      </trkpt>
      <trkpt lat="49.02954" lon="1.94294">
        <ele>79</ele>
        <time>2022-10-23T09:50:01Z</time>
      </trkpt>
      <trkpt lat="49.02957" lon="1.94301">
        <ele>79.3</ele>
        <time>2022-10-23T09:50:06Z</time>
      </trkpt>
      <trkpt lat="49.0296" lon="1.94311">
        <ele>80</ele>
        <time>2022-10-23T09:50:12Z</time>
      </trkpt>
      <trkpt lat="49.02961" lon="1.9432">
        <ele>81.1</ele>
        <time>2022-10-23T09:50:17Z</time>
      </trkpt>
      <trkpt lat="49.02964" lon="1.9433">
        <ele>82.2</ele>
        <time>2022-10-23T09:50:23Z</time>
      </trkpt>
      <trkpt lat="49.02967" lon="1.94338">
        <ele>82.8</ele>
        <time>2022-10-23T09:50:28Z</time>
      </trkpt>
      <trkpt lat="49.0297" lon="1.94345">
        <ele>83</ele>
        <time>2022-10-23T09:50:34Z</time>
      </trkpt>
      <trkpt lat="49.02974" lon="1.9435">
        <ele>83</ele>
        <time>2022-10-23T09:50:39Z</time>
      </trkpt>
      <trkpt lat="49.02981" lon="1.94357">
        <ele>82.8</ele>
        <time>2022-10-23T09:50:45Z</time>
      </trkpt>
      <trkpt lat="49.02989" lon="1.94364">
        <ele>82.5</ele>
        <time>2022-10-23T09:50:51Z</time>
      </trkpt>
      <trkpt lat="49.02997" lon="1.94371">
        <ele>82.4</ele>
        <time>2022-10-23T09:50:57Z</time>
      </trkpt>
      <trkpt lat="49.03002" lon="1.94376">
        <ele>82.4</ele>
        <time>2022-10-23T09:51:02Z</time>
      </trkpt>
      <trkpt lat="49.03007" lon="1.94384">
        <ele>82.7</ele>
        <time>2022-10-23T09:51:08Z</time>
      </trkpt>
      <trkpt lat="49.03012" lon="1.94393">
        <ele>83.1</ele>
        <time>2022-10-23T09:51:14Z</time>
      </trkpt>
      <trkpt lat="49.03014" lon="1.94404">
        <ele>83.9</ele>
        <time>2022-10-23T09:51:19Z</time>
      </trkpt>
      <trkpt lat="49.03014" lon="1.94414">
        <ele>84.8</ele>
        <time>2022-10-23T09:51:24Z</time>
      </trkpt>
      <trkpt lat="49.03013" lon="1.94425">
        <ele>85.4</ele>
        <time>2022-10-23T09:51:30Z</time>
      </trkpt>
      <trkpt lat="49.03013" lon="1.94435">
        <ele>85.7</ele>
        <time>2022-10-23T09:51:35Z</time>
      </trkpt>
      <trkpt lat="49.03012" lon="1.94447">
        <ele>86.3</ele>
        <time>2022-10-23T09:51:41Z</time>
      </trkpt>
      <trkpt lat="49.0301" lon="1.9446">
        <ele>87</ele>
        <time>2022-10-23T09:51:47Z</time>
      </trkpt>
      <trkpt lat="49.03006" lon="1.94469">
        <ele>87.6</ele>
        <time>2022-10-23T09:51:53Z</time>
      </trkpt>
      <trkpt lat="49.03001" lon="1.94476">
        <ele>88.1</ele>
        <time>2022-10-23T09:51:59Z</time>
      </trkpt>
      <trkpt lat="49.02996" lon="1.94482">
        <ele>88.6</ele>
        <time>2022-10-23T09:52:04Z</time>
      </trkpt>
      <trkpt lat="49.02992" lon="1.94488">
        <ele>89</ele>
        <time>2022-10-23T09:52:09Z</time>
      </trkpt>
      <trkpt lat="49.02987" lon="1.94492">
        <ele>89.3</ele>
        <time>2022-10-23T09:52:15Z</time>
      </trkpt>
      <trkpt lat="49.02981" lon="1.94494">
        <ele>89.6</ele>
        <time>2022-10-23T09:52:20Z</time>
      </trkpt>
      <trkpt lat="49.02974" lon="1.94492">
        <ele>89.9</ele>
        <time>2022-10-23T09:52:25Z</time>
      </trkpt>
      <trkpt lat="49.02966" lon="1.94491">
        <ele>90.4</ele>
        <time>2022-10-23T09:52:31Z</time>
      </trkpt>
      <trkpt lat="49.02958" lon="1.94492">
        <ele>90.9</ele>
        <time>2022-10-23T09:52:36Z</time>
      </trkpt>
      <trkpt lat="49.02947" lon="1.94494">
        <ele>91.6</ele>
        <time>2022-10-23T09:52:42Z</time>
      </trkpt>
      <trkpt lat="49.02937" lon="1.94495">
        <ele>92.1</ele>
        <time>2022-10-23T09:52:48Z</time>
      </trkpt>
      <trkpt lat="49.02928" lon="1.94496">
        <ele>92.5</ele>
        <time>2022-10-23T09:52:54Z</time>
      </trkpt>
      <trkpt lat="49.02922" lon="1.94498">
        <ele>92.8</ele>
        <time>2022-10-23T09:52:59Z</time>
      </trkpt>
      <trkpt lat="49.02913" lon="1.94499">
        <ele>93.2</ele>
        <time>2022-10-23T09:53:05Z</time>
      </trkpt>
      <trkpt lat="49.02902" lon="1.945">
        <ele>94.1</ele>
        <time>2022-10-23T09:53:10Z</time>
      </trkpt>
      <trkpt lat="49.02888" lon="1.94499">
        <ele>95</ele>
        <time>2022-10-23T09:53:16Z</time>
      </trkpt>
      <trkpt lat="49.02881" lon="1.94494">
        <ele>95.1</ele>
        <time>2022-10-23T09:53:21Z</time>
      </trkpt>
      <trkpt lat="49.02883" lon="1.94483">
        <ele>94.8</ele>
        <time>2022-10-23T09:53:27Z</time>
      </trkpt>
      <trkpt lat="49.02888" lon="1.94474">
        <ele>94.1</ele>
        <time>2022-10-23T09:53:32Z</time>
      </trkpt>
      <trkpt lat="49.02894" lon="1.94466">
        <ele>93.8</ele>
        <time>2022-10-23T09:53:38Z</time>
      </trkpt>
      <trkpt lat="49.02899" lon="1.94459">
        <ele>93.6</ele>
        <time>2022-10-23T09:53:43Z</time>
      </trkpt>
      <trkpt lat="49.02908" lon="1.94449">
        <ele>93.3</ele>
        <time>2022-10-23T09:53:49Z</time>
      </trkpt>
      <trkpt lat="49.02916" lon="1.9444">
        <ele>92.9</ele>
        <time>2022-10-23T09:53:55Z</time>
      </trkpt>
      <trkpt lat="49.02923" lon="1.94432">
        <ele>92.1</ele>
        <time>2022-10-23T09:54:01Z</time>
      </trkpt>
      <trkpt lat="49.02928" lon="1.94424">
        <ele>91.4</ele>
        <time>2022-10-23T09:54:06Z</time>
      </trkpt>
      <trkpt lat="49.02935" lon="1.94412">
        <ele>90.3</ele>
        <time>2022-10-23T09:54:12Z</time>
      </trkpt>
      <trkpt lat="49.0294" lon="1.94402">
        <ele>89.3</ele>
        <time>2022-10-23T09:54:17Z</time>
      </trkpt>
      <trkpt lat="49.02943" lon="1.94397">
        <ele>88.7</ele>
        <time>2022-10-23T09:54:23Z</time>
      </trkpt>
      <trkpt lat="49.02945" lon="1.94393">
        <ele>88.3</ele>
        <time>2022-10-23T09:54:28Z</time>
      </trkpt>
      <trkpt lat="49.02949" lon="1.94387">
        <ele>87.6</ele>
        <time>2022-10-23T09:54:34Z</time>
      </trkpt>
      <trkpt lat="49.02953" lon="1.94381">
        <ele>87</ele>
        <time>2022-10-23T09:54:40Z</time>
      </trkpt>
      <trkpt lat="49.02958" lon="1.94374">
        <ele>86.3</ele>
        <time>2022-10-23T09:54:46Z</time>
      </trkpt>
      <trkpt lat="49.0296" lon="1.9437">
        <ele>85.8</ele>
        <time>2022-10-23T09:54:52Z</time>
      </trkpt>
      <trkpt lat="49.02961" lon="1.94369">
        <ele>85.7</ele>
        <time>2022-10-23T09:54:58Z</time>
      </trkpt>
      <trkpt lat="49.0296" lon="1.94369">
        <ele>85.7</ele>
        <time>2022-10-23T09:55:03Z</time>
      </trkpt>
      <trkpt lat="49.0296" lon="1.94369">
        <ele>85.7</ele>
        <time>2022-10-23T09:55:09Z</time>
      </trkpt>
      <trkpt lat="49.02961" lon="1.94368">
        <ele>85.6</ele>
        <time>2022-10-23T09:55:14Z</time>
      </trkpt>
      <trkpt lat="49.02962" lon="1.94367">
        <ele>85.5</ele>
        <time>2022-10-23T09:55:20Z</time>
      </trkpt>
      <trkpt lat="49.02961" lon="1.94369">
        <ele>85.6</ele>
        <time>2022-10-23T09:55:26Z</time>
      </trkpt>
      <trkpt lat="49.02962" lon="1.94369">
        <ele>85.6</ele>
        <time>2022-10-23T09:55:31Z</time>
      </trkpt>
      <trkpt lat="49.02963" lon="1.9437">
        <ele>85.5</ele>
        <time>2022-10-23T09:55:37Z</time>
      </trkpt>
      <trkpt lat="49.02964" lon="1.94369">
        <ele>85.4</ele>
        <time>2022-10-23T09:55:43Z</time>
      </trkpt>
      <trkpt lat="49.02964" lon="1.94369">
        <ele>85.4</ele>
        <time>2022-10-23T09:55:48Z</time>
      </trkpt>
      <trkpt lat="49.02963" lon="1.9437">
        <ele>85.5</ele>
        <time>2022-10-23T09:55:54Z</time>
      </trkpt>
      <trkpt lat="49.02963" lon="1.94371">
        <ele>85.6</ele>
        <time>2022-10-23T09:55:59Z</time>
      </trkpt>
      <trkpt lat="49.02963" lon="1.94371">
        <ele>85.6</ele>
        <time>2022-10-23T09:56:05Z</time>
      </trkpt>
      <trkpt lat="49.02964" lon="1.94372">
        <ele>85.6</ele>
        <time>2022-10-23T09:56:11Z</time>
      </trkpt>
      <trkpt lat="49.02964" lon="1.94372">
        <ele>85.6</ele>
        <time>2022-10-23T09:56:16Z</time>
      </trkpt>
      <trkpt lat="49.02964" lon="1.94372">
        <ele>85.5</ele>
        <time>2022-10-23T09:56:22Z</time>
      </trkpt>
      <trkpt lat="49.02965" lon="1.94372">
        <ele>85.5</ele>
        <time>2022-10-23T09:56:27Z</time>
      </trkpt>
      <trkpt lat="49.02965" lon="1.94372">
        <ele>85.5</ele>
        <time>2022-10-23T09:56:33Z</time>
      </trkpt>
      <trkpt lat="49.02965" lon="1.94372">
        <ele>85.4</ele>
        <time>2022-10-23T09:56:38Z</time>
      </trkpt>
      <trkpt lat="49.02966" lon="1.94372">
        <ele>85.4</ele>
        <time>2022-10-23T09:56:44Z</time>
      </trkpt>
      <trkpt lat="49.02967" lon="1.94373">
        <ele>85.4</ele>
        <time>2022-10-23T09:56:50Z</time>
      </trkpt>
      <trkpt lat="49.02967" lon="1.94374">
        <ele>85.4</ele>
        <time>2022-10-23T09:56:56Z</time>
      </trkpt>
      <trkpt lat="49.02968" lon="1.94376">
        <ele>85.5</ele>
        <time>2022-10-23T09:57:02Z</time>
      </trkpt>
      <trkpt lat="49.02968" lon="1.94377">
        <ele>85.5</ele>
        <time>2022-10-23T09:57:08Z</time>
      </trkpt>
      <trkpt lat="49.02967" lon="1.94377">
        <ele>85.6</ele>
        <time>2022-10-23T09:57:13Z</time>
      </trkpt>
      <trkpt lat="49.0296" lon="1.94364">
        <ele>85.5</ele>
        <time>2022-10-23T10:41:12Z</time>
      </trkpt>
      <trkpt lat="49.02959" lon="1.94364">
        <ele>85.6</ele>
        <time>2022-10-23T10:41:17Z</time>
      </trkpt>
      <trkpt lat="49.02959" lon="1.94363">
        <ele>85.6</ele>
        <time>2022-10-23T10:41:23Z</time>
      </trkpt>
      <trkpt lat="49.02958" lon="1.94364">
        <ele>85.6</ele>
        <time>2022-10-23T10:41:29Z</time>
      </trkpt>
      <trkpt lat="49.02955" lon="1.94369">
        <ele>86.2</ele>
        <time>2022-10-23T10:41:34Z</time>
      </trkpt>
      <trkpt lat="49.0295" lon="1.94378">
        <ele>87.2</ele>
        <time>2022-10-23T10:41:40Z</time>
      </trkpt>
      <trkpt lat="49.02945" lon="1.94387">
        <ele>87.9</ele>
        <time>2022-10-23T10:41:45Z</time>
      </trkpt>
      <trkpt lat="49.0294" lon="1.94394">
        <ele>88.7</ele>
        <time>2022-10-23T10:41:51Z</time>
      </trkpt>
      <trkpt lat="49.02936" lon="1.94399">
        <ele>89.3</ele>
        <time>2022-10-23T10:41:56Z</time>
      </trkpt>
      <trkpt lat="49.02932" lon="1.94403">
        <ele>89.9</ele>
        <time>2022-10-23T10:42:01Z</time>
      </trkpt>
      <trkpt lat="49.02928" lon="1.94409">
        <ele>90.6</ele>
        <time>2022-10-23T10:42:07Z</time>
      </trkpt>
      <trkpt lat="49.02924" lon="1.94414">
        <ele>91.3</ele>
        <time>2022-10-23T10:42:12Z</time>
      </trkpt>
      <trkpt lat="49.02918" lon="1.9442">
        <ele>92</ele>
        <time>2022-10-23T10:42:18Z</time>
      </trkpt>
      <trkpt lat="49.02913" lon="1.94428">
        <ele>92.5</ele>
        <time>2022-10-23T10:42:24Z</time>
      </trkpt>
      <trkpt lat="49.0291" lon="1.94435">
        <ele>92.9</ele>
        <time>2022-10-23T10:42:29Z</time>
      </trkpt>
      <trkpt lat="49.02905" lon="1.94442">
        <ele>93.4</ele>
        <time>2022-10-23T10:42:35Z</time>
      </trkpt>
      <trkpt lat="49.029" lon="1.94449">
        <ele>93.6</ele>
        <time>2022-10-23T10:42:41Z</time>
      </trkpt>
      <trkpt lat="49.02897" lon="1.94455">
        <ele>93.7</ele>
        <time>2022-10-23T10:42:47Z</time>
      </trkpt>
      <trkpt lat="49.02894" lon="1.94464">
        <ele>93.8</ele>
        <time>2022-10-23T10:42:52Z</time>
      </trkpt>
      <trkpt lat="49.02889" lon="1.94474">
        <ele>94.1</ele>
        <time>2022-10-23T10:42:58Z</time>
      </trkpt>
      <trkpt lat="49.02886" lon="1.94483">
        <ele>94.5</ele>
        <time>2022-10-23T10:43:03Z</time>
      </trkpt>
      <trkpt lat="49.02883" lon="1.94491">
        <ele>95</ele>
        <time>2022-10-23T10:43:08Z</time>
      </trkpt>
      <trkpt lat="49.02878" lon="1.945">
        <ele>95.4</ele>
        <time>2022-10-23T10:43:14Z</time>
      </trkpt>
      <trkpt lat="49.02875" lon="1.94509">
        <ele>95.4</ele>
        <time>2022-10-23T10:43:20Z</time>
      </trkpt>
      <trkpt lat="49.0287" lon="1.94518">
        <ele>95.5</ele>
        <time>2022-10-23T10:43:26Z</time>
      </trkpt>
      <trkpt lat="49.02864" lon="1.94528">
        <ele>95.8</ele>
        <time>2022-10-23T10:43:32Z</time>
      </trkpt>
      <trkpt lat="49.0286" lon="1.94536">
        <ele>96.1</ele>
        <time>2022-10-23T10:43:37Z</time>
      </trkpt>
      <trkpt lat="49.02857" lon="1.94546">
        <ele>96.3</ele>
        <time>2022-10-23T10:43:42Z</time>
      </trkpt>
      <trkpt lat="49.02854" lon="1.94558">
        <ele>96.4</ele>
        <time>2022-10-23T10:43:48Z</time>
      </trkpt>
      <trkpt lat="49.02852" lon="1.9457">
        <ele>96.1</ele>
        <time>2022-10-23T10:43:54Z</time>
      </trkpt>
      <trkpt lat="49.02851" lon="1.9458">
        <ele>95.9</ele>
        <time>2022-10-23T10:43:59Z</time>
      </trkpt>
      <trkpt lat="49.02849" lon="1.94594">
        <ele>95.5</ele>
        <time>2022-10-23T10:44:05Z</time>
      </trkpt>
      <trkpt lat="49.02847" lon="1.94604">
        <ele>95.3</ele>
        <time>2022-10-23T10:44:10Z</time>
      </trkpt>
      <trkpt lat="49.02845" lon="1.94617">
        <ele>94.8</ele>
        <time>2022-10-23T10:44:16Z</time>
      </trkpt>
      <trkpt lat="49.02843" lon="1.9463">
        <ele>94.2</ele>
        <time>2022-10-23T10:44:22Z</time>
      </trkpt>
      <trkpt lat="49.02842" lon="1.9464">
        <ele>93.6</ele>
        <time>2022-10-23T10:44:27Z</time>
      </trkpt>
      <trkpt lat="49.0284" lon="1.94651">
        <ele>92.9</ele>
        <time>2022-10-23T10:44:32Z</time>
      </trkpt>
      <trkpt lat="49.02837" lon="1.94664">
        <ele>92</ele>
        <time>2022-10-23T10:44:38Z</time>
      </trkpt>
      <trkpt lat="49.02835" lon="1.94675">
        <ele>91.6</ele>
        <time>2022-10-23T10:44:44Z</time>
      </trkpt>
      <trkpt lat="49.02833" lon="1.94684">
        <ele>91.4</ele>
        <time>2022-10-23T10:44:49Z</time>
      </trkpt>
      <trkpt lat="49.02831" lon="1.94696">
        <ele>91</ele>
        <time>2022-10-23T10:44:55Z</time>
      </trkpt>
      <trkpt lat="49.02829" lon="1.94709">
        <ele>90.7</ele>
        <time>2022-10-23T10:45:00Z</time>
      </trkpt>
      <trkpt lat="49.02825" lon="1.94722">
        <ele>90.6</ele>
        <time>2022-10-23T10:45:06Z</time>
      </trkpt>
      <trkpt lat="49.02823" lon="1.94732">
        <ele>91</ele>
        <time>2022-10-23T10:45:12Z</time>
      </trkpt>
      <trkpt lat="49.02822" lon="1.94742">
        <ele>91.3</ele>
        <time>2022-10-23T10:45:17Z</time>
      </trkpt>
      <trkpt lat="49.02821" lon="1.94752">
        <ele>91.6</ele>
        <time>2022-10-23T10:45:22Z</time>
      </trkpt>
      <trkpt lat="49.02821" lon="1.94762">
        <ele>92.1</ele>
        <time>2022-10-23T10:45:27Z</time>
      </trkpt>
      <trkpt lat="49.0282" lon="1.94773">
        <ele>92.7</ele>
        <time>2022-10-23T10:45:33Z</time>
      </trkpt>
      <trkpt lat="49.0282" lon="1.94785">
        <ele>93.3</ele>
        <time>2022-10-23T10:45:39Z</time>
      </trkpt>
      <trkpt lat="49.0282" lon="1.94797">
        <ele>94</ele>
        <time>2022-10-23T10:45:45Z</time>
      </trkpt>
      <trkpt lat="49.02819" lon="1.9481">
        <ele>94.8</ele>
        <time>2022-10-23T10:45:51Z</time>
      </trkpt>
      <trkpt lat="49.02819" lon="1.94822">
        <ele>95.4</ele>
        <time>2022-10-23T10:45:57Z</time>
      </trkpt>
      <trkpt lat="49.02819" lon="1.94832">
        <ele>96</ele>
        <time>2022-10-23T10:46:03Z</time>
      </trkpt>
      <trkpt lat="49.02817" lon="1.94841">
        <ele>96.4</ele>
        <time>2022-10-23T10:46:08Z</time>
      </trkpt>
      <trkpt lat="49.02815" lon="1.94851">
        <ele>97</ele>
        <time>2022-10-23T10:46:14Z</time>
      </trkpt>
      <trkpt lat="49.02812" lon="1.94863">
        <ele>97.6</ele>
        <time>2022-10-23T10:46:19Z</time>
      </trkpt>
      <trkpt lat="49.0281" lon="1.94875">
        <ele>98.3</ele>
        <time>2022-10-23T10:46:25Z</time>
      </trkpt>
      <trkpt lat="49.02807" lon="1.94885">
        <ele>98.8</ele>
        <time>2022-10-23T10:46:30Z</time>
      </trkpt>
      <trkpt lat="49.02805" lon="1.94896">
        <ele>99</ele>
        <time>2022-10-23T10:46:36Z</time>
      </trkpt>
      <trkpt lat="49.02804" lon="1.94908">
        <ele>99.1</ele>
        <time>2022-10-23T10:46:41Z</time>
      </trkpt>
      <trkpt lat="49.02801" lon="1.94921">
        <ele>99.3</ele>
        <time>2022-10-23T10:46:47Z</time>
      </trkpt>
      <trkpt lat="49.028" lon="1.94931">
        <ele>99.6</ele>
        <time>2022-10-23T10:46:53Z</time>
      </trkpt>
      <trkpt lat="49.02797" lon="1.94942">
        <ele>99.9</ele>
        <time>2022-10-23T10:46:59Z</time>
      </trkpt>
      <trkpt lat="49.02797" lon="1.94953">
        <ele>99.8</ele>
        <time>2022-10-23T10:47:05Z</time>
      </trkpt>
      <trkpt lat="49.02796" lon="1.94964">
        <ele>99.5</ele>
        <time>2022-10-23T10:47:10Z</time>
      </trkpt>
      <trkpt lat="49.02797" lon="1.94977">
        <ele>99.1</ele>
        <time>2022-10-23T10:47:16Z</time>
      </trkpt>
      <trkpt lat="49.02802" lon="1.9499">
        <ele>98.5</ele>
        <time>2022-10-23T10:47:22Z</time>
      </trkpt>
      <trkpt lat="49.02806" lon="1.94993">
        <ele>98.2</ele>
        <time>2022-10-23T10:47:27Z</time>
      </trkpt>
      <trkpt lat="49.02816" lon="1.94997">
        <ele>97.8</ele>
        <time>2022-10-23T10:47:33Z</time>
      </trkpt>
      <trkpt lat="49.02826" lon="1.95">
        <ele>97.3</ele>
        <time>2022-10-23T10:47:39Z</time>
      </trkpt>
      <trkpt lat="49.02832" lon="1.95003">
        <ele>97</ele>
        <time>2022-10-23T10:47:44Z</time>
      </trkpt>
      <trkpt lat="49.02838" lon="1.95006">
        <ele>96.6</ele>
        <time>2022-10-23T10:47:50Z</time>
      </trkpt>
      <trkpt lat="49.02847" lon="1.95013">
        <ele>96</ele>
        <time>2022-10-23T10:47:56Z</time>
      </trkpt>
      <trkpt lat="49.02855" lon="1.95017">
        <ele>95.6</ele>
        <time>2022-10-23T10:48:01Z</time>
      </trkpt>
      <trkpt lat="49.02861" lon="1.95022">
        <ele>95.2</ele>
        <time>2022-10-23T10:48:07Z</time>
      </trkpt>
      <trkpt lat="49.02866" lon="1.95028">
        <ele>94.8</ele>
        <time>2022-10-23T10:48:13Z</time>
      </trkpt>
      <trkpt lat="49.02877" lon="1.95036">
        <ele>94.1</ele>
        <time>2022-10-23T10:48:19Z</time>
      </trkpt>
      <trkpt lat="49.02882" lon="1.9504">
        <ele>93.8</ele>
        <time>2022-10-23T10:48:24Z</time>
      </trkpt>
      <trkpt lat="49.02887" lon="1.95046">
        <ele>93.4</ele>
        <time>2022-10-23T10:48:30Z</time>
      </trkpt>
      <trkpt lat="49.02896" lon="1.95052">
        <ele>92.6</ele>
        <time>2022-10-23T10:48:36Z</time>
      </trkpt>
      <trkpt lat="49.02906" lon="1.95059">
        <ele>91.5</ele>
        <time>2022-10-23T10:48:42Z</time>
      </trkpt>
      <trkpt lat="49.02914" lon="1.95064">
        <ele>90.6</ele>
        <time>2022-10-23T10:48:47Z</time>
      </trkpt>
      <trkpt lat="49.0292" lon="1.95069">
        <ele>89.8</ele>
        <time>2022-10-23T10:48:52Z</time>
      </trkpt>
      <trkpt lat="49.02928" lon="1.95074">
        <ele>88.9</ele>
        <time>2022-10-23T10:48:57Z</time>
      </trkpt>
      <trkpt lat="49.02934" lon="1.95079">
        <ele>88</ele>
        <time>2022-10-23T10:49:03Z</time>
      </trkpt>
      <trkpt lat="49.02941" lon="1.95082">
        <ele>87.3</ele>
        <time>2022-10-23T10:49:09Z</time>
      </trkpt>
      <trkpt lat="49.02952" lon="1.95084">
        <ele>86.4</ele>
        <time>2022-10-23T10:49:15Z</time>
      </trkpt>
      <trkpt lat="49.02959" lon="1.95085">
        <ele>85.9</ele>
        <time>2022-10-23T10:49:20Z</time>
      </trkpt>
      <trkpt lat="49.02967" lon="1.95087">
        <ele>85.3</ele>
        <time>2022-10-23T10:49:26Z</time>
      </trkpt>
      <trkpt lat="49.02973" lon="1.95088">
        <ele>84.8</ele>
        <time>2022-10-23T10:49:32Z</time>
      </trkpt>
      <trkpt lat="49.02978" lon="1.95091">
        <ele>84.4</ele>
        <time>2022-10-23T10:49:37Z</time>
      </trkpt>
      <trkpt lat="49.02985" lon="1.95094">
        <ele>83.9</ele>
        <time>2022-10-23T10:49:43Z</time>
      </trkpt>
      <trkpt lat="49.02995" lon="1.95095">
        <ele>83.3</ele>
        <time>2022-10-23T10:49:49Z</time>
      </trkpt>
      <trkpt lat="49.03002" lon="1.95094">
        <ele>82.9</ele>
        <time>2022-10-23T10:49:54Z</time>
      </trkpt>
      <trkpt lat="49.0301" lon="1.95097">
        <ele>82.5</ele>
        <time>2022-10-23T10:49:59Z</time>
      </trkpt>
      <trkpt lat="49.03018" lon="1.95099">
        <ele>82.1</ele>
        <time>2022-10-23T10:50:05Z</time>
      </trkpt>
      <trkpt lat="49.03022" lon="1.951">
        <ele>81.9</ele>
        <time>2022-10-23T10:50:10Z</time>
      </trkpt>
      <trkpt lat="49.0303" lon="1.95103">
        <ele>81.8</ele>
        <time>2022-10-23T10:50:16Z</time>
      </trkpt>
      <trkpt lat="49.03035" lon="1.95105">
        <ele>82</ele>
        <time>2022-10-23T10:50:22Z</time>
      </trkpt>
      <trkpt lat="49.03042" lon="1.95105">
        <ele>82.2</ele>
        <time>2022-10-23T10:50:27Z</time>
      </trkpt>
      <trkpt lat="49.0305" lon="1.95106">
        <ele>82.5</ele>
        <time>2022-10-23T10:50:33Z</time>
      </trkpt>
      <trkpt lat="49.03056" lon="1.95105">
        <ele>82.6</ele>
        <time>2022-10-23T10:50:39Z</time>
      </trkpt>
      <trkpt lat="49.03066" lon="1.95101">
        <ele>82.8</ele>
        <time>2022-10-23T10:50:45Z</time>
      </trkpt>
      <trkpt lat="49.03075" lon="1.951">
        <ele>83.2</ele>
        <time>2022-10-23T10:50:51Z</time>
      </trkpt>
      <trkpt lat="49.0308" lon="1.95101">
        <ele>83.5</ele>
        <time>2022-10-23T10:50:56Z</time>
      </trkpt>
      <trkpt lat="49.03089" lon="1.95097">
        <ele>83.9</ele>
        <time>2022-10-23T10:51:04Z</time>
      </trkpt>
      <trkpt lat="49.03098" lon="1.9509">
        <ele>84.3</ele>
        <time>2022-10-23T10:51:09Z</time>
      </trkpt>
      <trkpt lat="49.03103" lon="1.95084">
        <ele>84.4</ele>
        <time>2022-10-23T10:51:14Z</time>
      </trkpt>
      <trkpt lat="49.03108" lon="1.95077">
        <ele>84.5</ele>
        <time>2022-10-23T10:51:19Z</time>
      </trkpt>
      <trkpt lat="49.03116" lon="1.95072">
        <ele>84.8</ele>
        <time>2022-10-23T10:51:25Z</time>
      </trkpt>
      <trkpt lat="49.03121" lon="1.95066">
        <ele>84.8</ele>
        <time>2022-10-23T10:51:30Z</time>
      </trkpt>
      <trkpt lat="49.03129" lon="1.95057">
        <ele>84.7</ele>
        <time>2022-10-23T10:51:36Z</time>
      </trkpt>
      <trkpt lat="49.03135" lon="1.95051">
        <ele>84.7</ele>
        <time>2022-10-23T10:51:42Z</time>
      </trkpt>
      <trkpt lat="49.03142" lon="1.95043">
        <ele>84.7</ele>
        <time>2022-10-23T10:51:48Z</time>
      </trkpt>
      <trkpt lat="49.03149" lon="1.95038">
        <ele>84.8</ele>
        <time>2022-10-23T10:51:53Z</time>
      </trkpt>
      <trkpt lat="49.03158" lon="1.95031">
        <ele>84.9</ele>
        <time>2022-10-23T10:51:59Z</time>
      </trkpt>
      <trkpt lat="49.03167" lon="1.95027">
        <ele>85</ele>
        <time>2022-10-23T10:52:05Z</time>
      </trkpt>
      <trkpt lat="49.03174" lon="1.9502">
        <ele>85.3</ele>
        <time>2022-10-23T10:52:10Z</time>
      </trkpt>
      <trkpt lat="49.03182" lon="1.95011">
        <ele>85.5</ele>
        <time>2022-10-23T10:52:16Z</time>
      </trkpt>
      <trkpt lat="49.03187" lon="1.95003">
        <ele>85.6</ele>
        <time>2022-10-23T10:52:22Z</time>
      </trkpt>
      <trkpt lat="49.03193" lon="1.94994">
        <ele>85.7</ele>
        <time>2022-10-23T10:52:28Z</time>
      </trkpt>
      <trkpt lat="49.03199" lon="1.94982">
        <ele>85.6</ele>
        <time>2022-10-23T10:52:33Z</time>
      </trkpt>
      <trkpt lat="49.03205" lon="1.94973">
        <ele>85.8</ele>
        <time>2022-10-23T10:52:39Z</time>
      </trkpt>
      <trkpt lat="49.03207" lon="1.94965">
        <ele>85.7</ele>
        <time>2022-10-23T10:52:44Z</time>
      </trkpt>
      <trkpt lat="49.03213" lon="1.94955">
        <ele>85.7</ele>
        <time>2022-10-23T10:52:50Z</time>
      </trkpt>
      <trkpt lat="49.03218" lon="1.94947">
        <ele>85.8</ele>
        <time>2022-10-23T10:52:55Z</time>
      </trkpt>
      <trkpt lat="49.03223" lon="1.94939">
        <ele>85.6</ele>
        <time>2022-10-23T10:53:00Z</time>
      </trkpt>
      <trkpt lat="49.03229" lon="1.94931">
        <ele>85.4</ele>
        <time>2022-10-23T10:53:06Z</time>
      </trkpt>
      <trkpt lat="49.03235" lon="1.94921">
        <ele>85.1</ele>
        <time>2022-10-23T10:53:11Z</time>
      </trkpt>
      <trkpt lat="49.03241" lon="1.94913">
        <ele>85.2</ele>
        <time>2022-10-23T10:53:17Z</time>
      </trkpt>
      <trkpt lat="49.03245" lon="1.94906">
        <ele>85.3</ele>
        <time>2022-10-23T10:53:22Z</time>
      </trkpt>
      <trkpt lat="49.03251" lon="1.94897">
        <ele>85.3</ele>
        <time>2022-10-23T10:53:27Z</time>
      </trkpt>
      <trkpt lat="49.03257" lon="1.94888">
        <ele>85.2</ele>
        <time>2022-10-23T10:53:33Z</time>
      </trkpt>
      <trkpt lat="49.03261" lon="1.94882">
        <ele>85</ele>
        <time>2022-10-23T10:53:38Z</time>
      </trkpt>
      <trkpt lat="49.03266" lon="1.94871">
        <ele>84.6</ele>
        <time>2022-10-23T10:53:44Z</time>
      </trkpt>
      <trkpt lat="49.03269" lon="1.94863">
        <ele>84.4</ele>
        <time>2022-10-23T10:53:49Z</time>
      </trkpt>
      <trkpt lat="49.03273" lon="1.94857">
        <ele>84.5</ele>
        <time>2022-10-23T10:53:55Z</time>
      </trkpt>
      <trkpt lat="49.03279" lon="1.94862">
        <ele>85.1</ele>
        <time>2022-10-23T10:54:00Z</time>
      </trkpt>
      <trkpt lat="49.03283" lon="1.94872">
        <ele>85.7</ele>
        <time>2022-10-23T10:54:06Z</time>
      </trkpt>
      <trkpt lat="49.0329" lon="1.94881">
        <ele>86.3</ele>
        <time>2022-10-23T10:54:12Z</time>
      </trkpt>
      <trkpt lat="49.03294" lon="1.94888">
        <ele>86.6</ele>
        <time>2022-10-23T10:54:17Z</time>
      </trkpt>
      <trkpt lat="49.03302" lon="1.94899">
        <ele>86.9</ele>
        <time>2022-10-23T10:54:23Z</time>
      </trkpt>
      <trkpt lat="49.03307" lon="1.94907">
        <ele>87.1</ele>
        <time>2022-10-23T10:54:28Z</time>
      </trkpt>
      <trkpt lat="49.03313" lon="1.94915">
        <ele>87.5</ele>
        <time>2022-10-23T10:54:34Z</time>
      </trkpt>
      <trkpt lat="49.03318" lon="1.94924">
        <ele>88.2</ele>
        <time>2022-10-23T10:54:39Z</time>
      </trkpt>
      <trkpt lat="49.03324" lon="1.94932">
        <ele>88.9</ele>
        <time>2022-10-23T10:54:45Z</time>
      </trkpt>
      <trkpt lat="49.03329" lon="1.94939">
        <ele>89.5</ele>
        <time>2022-10-23T10:54:50Z</time>
      </trkpt>
      <trkpt lat="49.03334" lon="1.94946">
        <ele>90</ele>
        <time>2022-10-23T10:54:55Z</time>
      </trkpt>
      <trkpt lat="49.03341" lon="1.94956">
        <ele>90.5</ele>
        <time>2022-10-23T10:55:01Z</time>
      </trkpt>
      <trkpt lat="49.03346" lon="1.94959">
        <ele>90.9</ele>
        <time>2022-10-23T10:55:06Z</time>
      </trkpt>
      <trkpt lat="49.03354" lon="1.94966">
        <ele>91.5</ele>
        <time>2022-10-23T10:55:12Z</time>
      </trkpt>
      <trkpt lat="49.0336" lon="1.94974">
        <ele>92</ele>
        <time>2022-10-23T10:55:18Z</time>
      </trkpt>
      <trkpt lat="49.03366" lon="1.94979">
        <ele>92.4</ele>
        <time>2022-10-23T10:55:23Z</time>
      </trkpt>
      <trkpt lat="49.03374" lon="1.94986">
        <ele>92.9</ele>
        <time>2022-10-23T10:55:29Z</time>
      </trkpt>
      <trkpt lat="49.0338" lon="1.94992">
        <ele>93.4</ele>
        <time>2022-10-23T10:55:35Z</time>
      </trkpt>
      <trkpt lat="49.03388" lon="1.95001">
        <ele>94</ele>
        <time>2022-10-23T10:55:41Z</time>
      </trkpt>
      <trkpt lat="49.03393" lon="1.95005">
        <ele>94.2</ele>
        <time>2022-10-23T10:55:46Z</time>
      </trkpt>
      <trkpt lat="49.034" lon="1.9501">
        <ele>94.4</ele>
        <time>2022-10-23T10:55:51Z</time>
      </trkpt>
      <trkpt lat="49.03409" lon="1.95017">
        <ele>94.7</ele>
        <time>2022-10-23T10:55:57Z</time>
      </trkpt>
      <trkpt lat="49.03414" lon="1.95022">
        <ele>94.9</ele>
        <time>2022-10-23T10:56:02Z</time>
      </trkpt>
      <trkpt lat="49.03422" lon="1.95031">
        <ele>95.2</ele>
        <time>2022-10-23T10:56:08Z</time>
      </trkpt>
      <trkpt lat="49.03427" lon="1.95038">
        <ele>95.5</ele>
        <time>2022-10-23T10:56:14Z</time>
      </trkpt>
      <trkpt lat="49.03433" lon="1.95045">
        <ele>96</ele>
        <time>2022-10-23T10:56:19Z</time>
      </trkpt>
      <trkpt lat="49.03439" lon="1.95053">
        <ele>96.5</ele>
        <time>2022-10-23T10:56:25Z</time>
      </trkpt>
      <trkpt lat="49.03444" lon="1.9506">
        <ele>97</ele>
        <time>2022-10-23T10:56:30Z</time>
      </trkpt>
      <trkpt lat="49.0345" lon="1.95067">
        <ele>97.1</ele>
        <time>2022-10-23T10:56:36Z</time>
      </trkpt>
      <trkpt lat="49.03455" lon="1.95076">
        <ele>97.3</ele>
        <time>2022-10-23T10:56:42Z</time>
      </trkpt>
      <trkpt lat="49.03462" lon="1.95084">
        <ele>97.7</ele>
        <time>2022-10-23T10:56:47Z</time>
      </trkpt>
      <trkpt lat="49.03468" lon="1.95093">
        <ele>98.2</ele>
        <time>2022-10-23T10:56:53Z</time>
      </trkpt>
      <trkpt lat="49.03474" lon="1.95102">
        <ele>98.7</ele>
        <time>2022-10-23T10:56:59Z</time>
      </trkpt>
      <trkpt lat="49.0348" lon="1.95112">
        <ele>99.3</ele>
        <time>2022-10-23T10:57:04Z</time>
      </trkpt>
      <trkpt lat="49.03487" lon="1.95119">
        <ele>99.5</ele>
        <time>2022-10-23T10:57:10Z</time>
      </trkpt>
      <trkpt lat="49.0349" lon="1.95124">
        <ele>99.7</ele>
        <time>2022-10-23T10:57:15Z</time>
      </trkpt>
      <trkpt lat="49.03497" lon="1.95133">
        <ele>99.9</ele>
        <time>2022-10-23T10:57:21Z</time>
      </trkpt>
      <trkpt lat="49.03501" lon="1.95139">
        <ele>100</ele>
        <time>2022-10-23T10:57:27Z</time>
      </trkpt>
      <trkpt lat="49.03508" lon="1.95146">
        <ele>100.1</ele>
        <time>2022-10-23T10:57:32Z</time>
      </trkpt>
      <trkpt lat="49.03514" lon="1.95157">
        <ele>100.3</ele>
        <time>2022-10-23T10:57:38Z</time>
      </trkpt>
      <trkpt lat="49.03518" lon="1.95164">
        <ele>100.6</ele>
        <time>2022-10-23T10:57:44Z</time>
      </trkpt>
      <trkpt lat="49.03524" lon="1.95174">
        <ele>100.9</ele>
        <time>2022-10-23T10:57:50Z</time>
      </trkpt>
      <trkpt lat="49.0353" lon="1.95182">
        <ele>101</ele>
        <time>2022-10-23T10:57:55Z</time>
      </trkpt>
      <trkpt lat="49.03537" lon="1.95192">
        <ele>101.3</ele>
        <time>2022-10-23T10:58:02Z</time>
      </trkpt>
      <trkpt lat="49.03545" lon="1.95199">
        <ele>101.7</ele>
        <time>2022-10-23T10:58:08Z</time>
      </trkpt>
      <trkpt lat="49.03552" lon="1.95206">
        <ele>101.9</ele>
        <time>2022-10-23T10:58:14Z</time>
      </trkpt>
      <trkpt lat="49.03557" lon="1.95212">
        <ele>102</ele>
        <time>2022-10-23T10:58:20Z</time>
      </trkpt>
      <trkpt lat="49.0356" lon="1.95219">
        <ele>102</ele>
        <time>2022-10-23T10:58:25Z</time>
      </trkpt>
      <trkpt lat="49.03567" lon="1.95221">
        <ele>102</ele>
        <time>2022-10-23T10:58:31Z</time>
      </trkpt>
      <trkpt lat="49.03574" lon="1.95215">
        <ele>102</ele>
        <time>2022-10-23T10:58:37Z</time>
      </trkpt>
      <trkpt lat="49.0358" lon="1.95207">
        <ele>102</ele>
        <time>2022-10-23T10:58:42Z</time>
      </trkpt>
      <trkpt lat="49.03587" lon="1.95198">
        <ele>101.9</ele>
        <time>2022-10-23T10:58:48Z</time>
      </trkpt>
      <trkpt lat="49.03592" lon="1.9519">
        <ele>101.5</ele>
        <time>2022-10-23T10:58:53Z</time>
      </trkpt>
      <trkpt lat="49.03598" lon="1.9518">
        <ele>101</ele>
        <time>2022-10-23T10:58:59Z</time>
      </trkpt>
      <trkpt lat="49.03602" lon="1.95166">
        <ele>100.3</ele>
        <time>2022-10-23T10:59:05Z</time>
      </trkpt>
      <trkpt lat="49.03606" lon="1.95157">
        <ele>100.1</ele>
        <time>2022-10-23T10:59:10Z</time>
      </trkpt>
      <trkpt lat="49.03611" lon="1.95147">
        <ele>100</ele>
        <time>2022-10-23T10:59:16Z</time>
      </trkpt>
      <trkpt lat="49.03615" lon="1.95139">
        <ele>100</ele>
        <time>2022-10-23T10:59:21Z</time>
      </trkpt>
      <trkpt lat="49.03618" lon="1.95129">
        <ele>99.6</ele>
        <time>2022-10-23T10:59:26Z</time>
      </trkpt>
      <trkpt lat="49.03624" lon="1.95119">
        <ele>99.3</ele>
        <time>2022-10-23T10:59:31Z</time>
      </trkpt>
      <trkpt lat="49.03629" lon="1.95108">
        <ele>98.9</ele>
        <time>2022-10-23T10:59:37Z</time>
      </trkpt>
      <trkpt lat="49.03634" lon="1.95101">
        <ele>98.6</ele>
        <time>2022-10-23T10:59:42Z</time>
      </trkpt>
      <trkpt lat="49.0364" lon="1.95092">
        <ele>98.3</ele>
        <time>2022-10-23T10:59:48Z</time>
      </trkpt>
      <trkpt lat="49.0365" lon="1.95084">
        <ele>97.6</ele>
        <time>2022-10-23T10:59:54Z</time>
      </trkpt>
      <trkpt lat="49.03658" lon="1.95075">
        <ele>97.2</ele>
        <time>2022-10-23T11:00:00Z</time>
      </trkpt>
      <trkpt lat="49.03664" lon="1.95067">
        <ele>97</ele>
        <time>2022-10-23T11:00:05Z</time>
      </trkpt>
      <trkpt lat="49.03673" lon="1.95058">
        <ele>96.8</ele>
        <time>2022-10-23T11:00:11Z</time>
      </trkpt>
      <trkpt lat="49.03679" lon="1.95054">
        <ele>96.5</ele>
        <time>2022-10-23T11:00:16Z</time>
      </trkpt>
      <trkpt lat="49.03685" lon="1.95048">
        <ele>96.1</ele>
        <time>2022-10-23T11:00:22Z</time>
      </trkpt>
      <trkpt lat="49.03693" lon="1.9504">
        <ele>95.5</ele>
        <time>2022-10-23T11:00:28Z</time>
      </trkpt>
      <trkpt lat="49.037" lon="1.95031">
        <ele>95.1</ele>
        <time>2022-10-23T11:00:34Z</time>
      </trkpt>
      <trkpt lat="49.03705" lon="1.95024">
        <ele>94.9</ele>
        <time>2022-10-23T11:00:39Z</time>
      </trkpt>
      <trkpt lat="49.03713" lon="1.95016">
        <ele>94.6</ele>
        <time>2022-10-23T11:00:45Z</time>
      </trkpt>
      <trkpt lat="49.03719" lon="1.95008">
        <ele>94.3</ele>
        <time>2022-10-23T11:00:50Z</time>
      </trkpt>
      <trkpt lat="49.03724" lon="1.95004">
        <ele>94.2</ele>
        <time>2022-10-23T11:00:55Z</time>
      </trkpt>
      <trkpt lat="49.03732" lon="1.94997">
        <ele>93.9</ele>
        <time>2022-10-23T11:01:01Z</time>
      </trkpt>
      <trkpt lat="49.03737" lon="1.9499">
        <ele>93.6</ele>
        <time>2022-10-23T11:01:06Z</time>
      </trkpt>
      <trkpt lat="49.03744" lon="1.94985">
        <ele>93.5</ele>
        <time>2022-10-23T11:01:11Z</time>
      </trkpt>
      <trkpt lat="49.03753" lon="1.94977">
        <ele>93.1</ele>
        <time>2022-10-23T11:01:17Z</time>
      </trkpt>
      <trkpt lat="49.0376" lon="1.94971">
        <ele>92.6</ele>
        <time>2022-10-23T11:01:22Z</time>
      </trkpt>
      <trkpt lat="49.03768" lon="1.94964">
        <ele>92.1</ele>
        <time>2022-10-23T11:01:28Z</time>
      </trkpt>
      <trkpt lat="49.03773" lon="1.94958">
        <ele>91.6</ele>
        <time>2022-10-23T11:01:33Z</time>
      </trkpt>
      <trkpt lat="49.0378" lon="1.9495">
        <ele>91.1</ele>
        <time>2022-10-23T11:01:39Z</time>
      </trkpt>
      <trkpt lat="49.03787" lon="1.94944">
        <ele>90.7</ele>
        <time>2022-10-23T11:01:44Z</time>
      </trkpt>
      <trkpt lat="49.03793" lon="1.94936">
        <ele>89.9</ele>
        <time>2022-10-23T11:01:50Z</time>
      </trkpt>
      <trkpt lat="49.03798" lon="1.94927">
        <ele>89.2</ele>
        <time>2022-10-23T11:01:56Z</time>
      </trkpt>
      <trkpt lat="49.03803" lon="1.94919">
        <ele>88.4</ele>
        <time>2022-10-23T11:02:01Z</time>
      </trkpt>
      <trkpt lat="49.03808" lon="1.9491">
        <ele>87.3</ele>
        <time>2022-10-23T11:02:07Z</time>
      </trkpt>
      <trkpt lat="49.03813" lon="1.94901">
        <ele>86.3</ele>
        <time>2022-10-23T11:02:13Z</time>
      </trkpt>
      <trkpt lat="49.03816" lon="1.94888">
        <ele>84.9</ele>
        <time>2022-10-23T11:02:19Z</time>
      </trkpt>
      <trkpt lat="49.03821" lon="1.9488">
        <ele>84.1</ele>
        <time>2022-10-23T11:02:24Z</time>
      </trkpt>
      <trkpt lat="49.03829" lon="1.94873">
        <ele>83.3</ele>
        <time>2022-10-23T11:02:30Z</time>
      </trkpt>
      <trkpt lat="49.03834" lon="1.94865">
        <ele>82.5</ele>
        <time>2022-10-23T11:02:36Z</time>
      </trkpt>
      <trkpt lat="49.03838" lon="1.9486">
        <ele>81.9</ele>
        <time>2022-10-23T11:02:41Z</time>
      </trkpt>
      <trkpt lat="49.03845" lon="1.94852">
        <ele>81</ele>
        <time>2022-10-23T11:02:47Z</time>
      </trkpt>
      <trkpt lat="49.03851" lon="1.94845">
        <ele>80.2</ele>
        <time>2022-10-23T11:02:52Z</time>
      </trkpt>
      <trkpt lat="49.03858" lon="1.94838">
        <ele>79.5</ele>
        <time>2022-10-23T11:02:57Z</time>
      </trkpt>
      <trkpt lat="49.03865" lon="1.94831">
        <ele>78.5</ele>
        <time>2022-10-23T11:03:03Z</time>
      </trkpt>
      <trkpt lat="49.03873" lon="1.94823">
        <ele>76.8</ele>
        <time>2022-10-23T11:03:09Z</time>
      </trkpt>
      <trkpt lat="49.03879" lon="1.94819">
        <ele>75.8</ele>
        <time>2022-10-23T11:03:14Z</time>
      </trkpt>
      <trkpt lat="49.03884" lon="1.94818">
        <ele>75.3</ele>
        <time>2022-10-23T11:03:19Z</time>
      </trkpt>
      <trkpt lat="49.03889" lon="1.94819">
        <ele>75</ele>
        <time>2022-10-23T11:03:24Z</time>
      </trkpt>
      <trkpt lat="49.03898" lon="1.94821">
        <ele>74.4</ele>
        <time>2022-10-23T11:03:30Z</time>
      </trkpt>
      <trkpt lat="49.03905" lon="1.9482">
        <ele>73.6</ele>
        <time>2022-10-23T11:03:35Z</time>
      </trkpt>
      <trkpt lat="49.03913" lon="1.94819">
        <ele>72.8</ele>
        <time>2022-10-23T11:03:41Z</time>
      </trkpt>
      <trkpt lat="49.03919" lon="1.94821">
        <ele>72.5</ele>
        <time>2022-10-23T11:03:46Z</time>
      </trkpt>
      <trkpt lat="49.03926" lon="1.94825">
        <ele>72.2</ele>
        <time>2022-10-23T11:03:52Z</time>
      </trkpt>
      <trkpt lat="49.03938" lon="1.94823">
        <ele>70.8</ele>
        <time>2022-10-23T11:03:58Z</time>
      </trkpt>
      <trkpt lat="49.0394" lon="1.94821">
        <ele>70.5</ele>
        <time>2022-10-23T11:04:03Z</time>
      </trkpt>
      <trkpt lat="49.03944" lon="1.94818">
        <ele>70</ele>
        <time>2022-10-23T11:04:08Z</time>
      </trkpt>
      <trkpt lat="49.03951" lon="1.94814">
        <ele>69.3</ele>
        <time>2022-10-23T11:04:14Z</time>
      </trkpt>
      <trkpt lat="49.03959" lon="1.94808">
        <ele>68.7</ele>
        <time>2022-10-23T11:04:19Z</time>
      </trkpt>
      <trkpt lat="49.03966" lon="1.94797">
        <ele>67.6</ele>
        <time>2022-10-23T11:04:25Z</time>
      </trkpt>
      <trkpt lat="49.03974" lon="1.94788">
        <ele>66.7</ele>
        <time>2022-10-23T11:04:30Z</time>
      </trkpt>
      <trkpt lat="49.03981" lon="1.94783">
        <ele>66</ele>
        <time>2022-10-23T11:04:36Z</time>
      </trkpt>
      <trkpt lat="49.03988" lon="1.94794">
        <ele>66.6</ele>
        <time>2022-10-23T11:04:42Z</time>
      </trkpt>
      <trkpt lat="49.03992" lon="1.94805">
        <ele>67.2</ele>
        <time>2022-10-23T11:04:47Z</time>
      </trkpt>
      <trkpt lat="49.03998" lon="1.94814">
        <ele>67.7</ele>
        <time>2022-10-23T11:04:53Z</time>
      </trkpt>
      <trkpt lat="49.04002" lon="1.94818">
        <ele>67.8</ele>
        <time>2022-10-23T11:04:59Z</time>
      </trkpt>
      <trkpt lat="49.04002" lon="1.94818">
        <ele>67.8</ele>
        <time>2022-10-23T11:05:05Z</time>
      </trkpt>
      <trkpt lat="49.04005" lon="1.94822">
        <ele>67.8</ele>
        <time>2022-10-23T11:05:11Z</time>
      </trkpt>
      <trkpt lat="49.04008" lon="1.94828">
        <ele>68</ele>
        <time>2022-10-23T11:05:16Z</time>
      </trkpt>
      <trkpt lat="49.04012" lon="1.94837">
        <ele>68.4</ele>
        <time>2022-10-23T11:05:22Z</time>
      </trkpt>
      <trkpt lat="49.04016" lon="1.94845">
        <ele>68.6</ele>
        <time>2022-10-23T11:05:27Z</time>
      </trkpt>
      <trkpt lat="49.04022" lon="1.94854">
        <ele>68.9</ele>
        <time>2022-10-23T11:05:33Z</time>
      </trkpt>
      <trkpt lat="49.04027" lon="1.94863">
        <ele>69.2</ele>
        <time>2022-10-23T11:05:38Z</time>
      </trkpt>
      <trkpt lat="49.04031" lon="1.94874">
        <ele>69.6</ele>
        <time>2022-10-23T11:05:43Z</time>
      </trkpt>
      <trkpt lat="49.04035" lon="1.94887">
        <ele>70.1</ele>
        <time>2022-10-23T11:05:49Z</time>
      </trkpt>
      <trkpt lat="49.04036" lon="1.94897">
        <ele>70.5</ele>
        <time>2022-10-23T11:05:55Z</time>
      </trkpt>
      <trkpt lat="49.04037" lon="1.94904">
        <ele>70.7</ele>
        <time>2022-10-23T11:06:00Z</time>
      </trkpt>
      <trkpt lat="49.04038" lon="1.94915">
        <ele>71.2</ele>
        <time>2022-10-23T11:06:06Z</time>
      </trkpt>
      <trkpt lat="49.04038" lon="1.94926">
        <ele>71.7</ele>
        <time>2022-10-23T11:06:11Z</time>
      </trkpt>
      <trkpt lat="49.04039" lon="1.94939">
        <ele>72.1</ele>
        <time>2022-10-23T11:06:17Z</time>
      </trkpt>
      <trkpt lat="49.0404" lon="1.94944">
        <ele>72.2</ele>
        <time>2022-10-23T11:06:22Z</time>
      </trkpt>
      <trkpt lat="49.04045" lon="1.9496">
        <ele>72.2</ele>
        <time>2022-10-23T11:06:28Z</time>
      </trkpt>
      <trkpt lat="49.04047" lon="1.94974">
        <ele>72.7</ele>
        <time>2022-10-23T11:06:33Z</time>
      </trkpt>
      <trkpt lat="49.04048" lon="1.94984">
        <ele>73</ele>
        <time>2022-10-23T11:06:39Z</time>
      </trkpt>
      <trkpt lat="49.04049" lon="1.94991">
        <ele>73.2</ele>
        <time>2022-10-23T11:06:44Z</time>
      </trkpt>
      <trkpt lat="49.04049" lon="1.95006">
        <ele>73.6</ele>
        <time>2022-10-23T11:06:50Z</time>
      </trkpt>
      <trkpt lat="49.04048" lon="1.95019">
        <ele>74</ele>
        <time>2022-10-23T11:06:56Z</time>
      </trkpt>
      <trkpt lat="49.04047" lon="1.95029">
        <ele>74.2</ele>
        <time>2022-10-23T11:07:01Z</time>
      </trkpt>
      <trkpt lat="49.04048" lon="1.95042">
        <ele>74.7</ele>
        <time>2022-10-23T11:07:07Z</time>
      </trkpt>
      <trkpt lat="49.04046" lon="1.95054">
        <ele>75.6</ele>
        <time>2022-10-23T11:07:13Z</time>
      </trkpt>
      <trkpt lat="49.04041" lon="1.95064">
        <ele>77.1</ele>
        <time>2022-10-23T11:07:19Z</time>
      </trkpt>
      <trkpt lat="49.04038" lon="1.95073">
        <ele>78.3</ele>
        <time>2022-10-23T11:07:25Z</time>
      </trkpt>
      <trkpt lat="49.04033" lon="1.95082">
        <ele>80</ele>
        <time>2022-10-23T11:07:30Z</time>
      </trkpt>
      <trkpt lat="49.04031" lon="1.95094">
        <ele>81.2</ele>
        <time>2022-10-23T11:07:36Z</time>
      </trkpt>
      <trkpt lat="49.04032" lon="1.95101">
        <ele>81.4</ele>
        <time>2022-10-23T11:07:43Z</time>
      </trkpt>
      <trkpt lat="49.04033" lon="1.95102">
        <ele>81.3</ele>
        <time>2022-10-23T11:07:48Z</time>
      </trkpt>
      <trkpt lat="49.04033" lon="1.95102">
        <ele>81.2</ele>
        <time>2022-10-23T11:07:54Z</time>
      </trkpt>
      <trkpt lat="49.04033" lon="1.95106">
        <ele>81.6</ele>
        <time>2022-10-23T11:08:00Z</time>
      </trkpt>
      <trkpt lat="49.04032" lon="1.95116">
        <ele>82.4</ele>
        <time>2022-10-23T11:08:06Z</time>
      </trkpt>
      <trkpt lat="49.04034" lon="1.95126">
        <ele>82.3</ele>
        <time>2022-10-23T11:08:12Z</time>
      </trkpt>
      <trkpt lat="49.04033" lon="1.95133">
        <ele>82.8</ele>
        <time>2022-10-23T11:08:17Z</time>
      </trkpt>
      <trkpt lat="49.04035" lon="1.95145">
        <ele>83.1</ele>
        <time>2022-10-23T11:08:23Z</time>
      </trkpt>
      <trkpt lat="49.04035" lon="1.95157">
        <ele>83.8</ele>
        <time>2022-10-23T11:08:28Z</time>
      </trkpt>
      <trkpt lat="49.04036" lon="1.95166">
        <ele>84.2</ele>
        <time>2022-10-23T11:08:33Z</time>
      </trkpt>
      <trkpt lat="49.04037" lon="1.95179">
        <ele>84.5</ele>
        <time>2022-10-23T11:08:39Z</time>
      </trkpt>
      <trkpt lat="49.04039" lon="1.95193">
        <ele>84.4</ele>
        <time>2022-10-23T11:08:45Z</time>
      </trkpt>
      <trkpt lat="49.04042" lon="1.95203">
        <ele>84.3</ele>
        <time>2022-10-23T11:08:50Z</time>
      </trkpt>
      <trkpt lat="49.04047" lon="1.95217">
        <ele>83.6</ele>
        <time>2022-10-23T11:08:56Z</time>
      </trkpt>
      <trkpt lat="49.04052" lon="1.95228">
        <ele>83</ele>
        <time>2022-10-23T11:09:01Z</time>
      </trkpt>
      <trkpt lat="49.04051" lon="1.95241">
        <ele>83.6</ele>
        <time>2022-10-23T11:09:07Z</time>
      </trkpt>
      <trkpt lat="49.0405" lon="1.95246">
        <ele>84</ele>
        <time>2022-10-23T11:09:13Z</time>
      </trkpt>
      <trkpt lat="49.0405" lon="1.95258">
        <ele>84.5</ele>
        <time>2022-10-23T11:09:19Z</time>
      </trkpt>
      <trkpt lat="49.0405" lon="1.9527">
        <ele>84.8</ele>
        <time>2022-10-23T11:09:25Z</time>
      </trkpt>
      <trkpt lat="49.04047" lon="1.95282">
        <ele>85.8</ele>
        <time>2022-10-23T11:09:31Z</time>
      </trkpt>
      <trkpt lat="49.04046" lon="1.9529">
        <ele>86.2</ele>
        <time>2022-10-23T11:09:36Z</time>
      </trkpt>
      <trkpt lat="49.04046" lon="1.95302">
        <ele>86.5</ele>
        <time>2022-10-23T11:09:42Z</time>
      </trkpt>
      <trkpt lat="49.04045" lon="1.9531">
        <ele>87</ele>
        <time>2022-10-23T11:09:47Z</time>
      </trkpt>
      <trkpt lat="49.04047" lon="1.95325">
        <ele>87</ele>
        <time>2022-10-23T11:09:53Z</time>
      </trkpt>
      <trkpt lat="49.04046" lon="1.95337">
        <ele>87.4</ele>
        <time>2022-10-23T11:09:59Z</time>
      </trkpt>
      <trkpt lat="49.04045" lon="1.95349">
        <ele>87.8</ele>
        <time>2022-10-23T11:10:04Z</time>
      </trkpt>
      <trkpt lat="49.04043" lon="1.95363">
        <ele>88.3</ele>
        <time>2022-10-23T11:10:10Z</time>
      </trkpt>
      <trkpt lat="49.04043" lon="1.95374">
        <ele>88.3</ele>
        <time>2022-10-23T11:10:15Z</time>
      </trkpt>
      <trkpt lat="49.04043" lon="1.95387">
        <ele>88.3</ele>
        <time>2022-10-23T11:10:21Z</time>
      </trkpt>
      <trkpt lat="49.0404" lon="1.95398">
        <ele>88.8</ele>
        <time>2022-10-23T11:10:27Z</time>
      </trkpt>
      <trkpt lat="49.04039" lon="1.95408">
        <ele>89</ele>
        <time>2022-10-23T11:10:32Z</time>
      </trkpt>
      <trkpt lat="49.04035" lon="1.95422">
        <ele>89.7</ele>
        <time>2022-10-23T11:10:38Z</time>
      </trkpt>
      <trkpt lat="49.04034" lon="1.95431">
        <ele>90</ele>
        <time>2022-10-23T11:10:43Z</time>
      </trkpt>
      <trkpt lat="49.04032" lon="1.95443">
        <ele>90.3</ele>
        <time>2022-10-23T11:10:48Z</time>
      </trkpt>
      <trkpt lat="49.04029" lon="1.95456">
        <ele>90.3</ele>
        <time>2022-10-23T11:10:54Z</time>
      </trkpt>
      <trkpt lat="49.04027" lon="1.95465">
        <ele>90.3</ele>
        <time>2022-10-23T11:10:59Z</time>
      </trkpt>
      <trkpt lat="49.04024" lon="1.95476">
        <ele>90.4</ele>
        <time>2022-10-23T11:11:05Z</time>
      </trkpt>
      <trkpt lat="49.04022" lon="1.95489">
        <ele>90.6</ele>
        <time>2022-10-23T11:11:10Z</time>
      </trkpt>
      <trkpt lat="49.04023" lon="1.95503">
        <ele>90.5</ele>
        <time>2022-10-23T11:11:16Z</time>
      </trkpt>
      <trkpt lat="49.04018" lon="1.95513">
        <ele>90.8</ele>
        <time>2022-10-23T11:11:21Z</time>
      </trkpt>
      <trkpt lat="49.04016" lon="1.95521">
        <ele>90.8</ele>
        <time>2022-10-23T11:11:27Z</time>
      </trkpt>
      <trkpt lat="49.04015" lon="1.95525">
        <ele>90.9</ele>
        <time>2022-10-23T11:11:32Z</time>
      </trkpt>
      <trkpt lat="49.04014" lon="1.95533">
        <ele>90.9</ele>
        <time>2022-10-23T11:11:38Z</time>
      </trkpt>
      <trkpt lat="49.04014" lon="1.95544">
        <ele>90.7</ele>
        <time>2022-10-23T11:11:44Z</time>
      </trkpt>
      <trkpt lat="49.04014" lon="1.95555">
        <ele>90.6</ele>
        <time>2022-10-23T11:11:49Z</time>
      </trkpt>
      <trkpt lat="49.04012" lon="1.95568">
        <ele>90.9</ele>
        <time>2022-10-23T11:11:55Z</time>
      </trkpt>
      <trkpt lat="49.0401" lon="1.95579">
        <ele>91.2</ele>
        <time>2022-10-23T11:12:00Z</time>
      </trkpt>
      <trkpt lat="49.04009" lon="1.95585">
        <ele>91.3</ele>
        <time>2022-10-23T11:12:05Z</time>
      </trkpt>
      <trkpt lat="49.04007" lon="1.95601">
        <ele>91.8</ele>
        <time>2022-10-23T11:12:10Z</time>
      </trkpt>
      <trkpt lat="49.04005" lon="1.95615">
        <ele>92</ele>
        <time>2022-10-23T11:12:16Z</time>
      </trkpt>
      <trkpt lat="49.04007" lon="1.95624">
        <ele>91.8</ele>
        <time>2022-10-23T11:12:21Z</time>
      </trkpt>
      <trkpt lat="49.04006" lon="1.95638">
        <ele>92</ele>
        <time>2022-10-23T11:12:27Z</time>
      </trkpt>
      <trkpt lat="49.04006" lon="1.95644">
        <ele>91.9</ele>
        <time>2022-10-23T11:12:32Z</time>
      </trkpt>
      <trkpt lat="49.04006" lon="1.95657">
        <ele>91.9</ele>
        <time>2022-10-23T11:12:38Z</time>
      </trkpt>
      <trkpt lat="49.04005" lon="1.95671">
        <ele>92.2</ele>
        <time>2022-10-23T11:12:44Z</time>
      </trkpt>
      <trkpt lat="49.04003" lon="1.95686">
        <ele>92.5</ele>
        <time>2022-10-23T11:12:50Z</time>
      </trkpt>
      <trkpt lat="49.04" lon="1.95698">
        <ele>93</ele>
        <time>2022-10-23T11:12:56Z</time>
      </trkpt>
      <trkpt lat="49.03999" lon="1.95708">
        <ele>93.2</ele>
        <time>2022-10-23T11:13:01Z</time>
      </trkpt>
      <trkpt lat="49.03997" lon="1.95722">
        <ele>93.3</ele>
        <time>2022-10-23T11:13:07Z</time>
      </trkpt>
      <trkpt lat="49.03995" lon="1.95733">
        <ele>93.2</ele>
        <time>2022-10-23T11:13:12Z</time>
      </trkpt>
      <trkpt lat="49.03994" lon="1.95747">
        <ele>92.9</ele>
        <time>2022-10-23T11:13:18Z</time>
      </trkpt>
      <trkpt lat="49.03991" lon="1.95759">
        <ele>92.8</ele>
        <time>2022-10-23T11:13:24Z</time>
      </trkpt>
      <trkpt lat="49.03988" lon="1.95772">
        <ele>92.4</ele>
        <time>2022-10-23T11:13:30Z</time>
      </trkpt>
      <trkpt lat="49.03985" lon="1.95785">
        <ele>92.2</ele>
        <time>2022-10-23T11:13:36Z</time>
      </trkpt>
      <trkpt lat="49.03981" lon="1.95795">
        <ele>92.2</ele>
        <time>2022-10-23T11:13:41Z</time>
      </trkpt>
      <trkpt lat="49.03976" lon="1.95809">
        <ele>92.1</ele>
        <time>2022-10-23T11:13:47Z</time>
      </trkpt>
      <trkpt lat="49.03971" lon="1.95819">
        <ele>92.2</ele>
        <time>2022-10-23T11:13:52Z</time>
      </trkpt>
      <trkpt lat="49.03967" lon="1.95826">
        <ele>92.2</ele>
        <time>2022-10-23T11:13:57Z</time>
      </trkpt>
      <trkpt lat="49.03964" lon="1.95837">
        <ele>91.9</ele>
        <time>2022-10-23T11:14:02Z</time>
      </trkpt>
      <trkpt lat="49.03962" lon="1.95847">
        <ele>91.6</ele>
        <time>2022-10-23T11:14:07Z</time>
      </trkpt>
      <trkpt lat="49.03959" lon="1.95859">
        <ele>91.5</ele>
        <time>2022-10-23T11:14:13Z</time>
      </trkpt>
      <trkpt lat="49.03955" lon="1.95872">
        <ele>91.8</ele>
        <time>2022-10-23T11:14:19Z</time>
      </trkpt>
      <trkpt lat="49.0395" lon="1.95884">
        <ele>92.2</ele>
        <time>2022-10-23T11:14:25Z</time>
      </trkpt>
      <trkpt lat="49.03946" lon="1.95898">
        <ele>92.3</ele>
        <time>2022-10-23T11:14:30Z</time>
      </trkpt>
      <trkpt lat="49.03945" lon="1.9591">
        <ele>92.2</ele>
        <time>2022-10-23T11:14:35Z</time>
      </trkpt>
      <trkpt lat="49.03941" lon="1.95922">
        <ele>92.6</ele>
        <time>2022-10-23T11:14:40Z</time>
      </trkpt>
      <trkpt lat="49.03938" lon="1.95932">
        <ele>93</ele>
        <time>2022-10-23T11:14:46Z</time>
      </trkpt>
      <trkpt lat="49.03937" lon="1.95943">
        <ele>93</ele>
        <time>2022-10-23T11:14:51Z</time>
      </trkpt>
      <trkpt lat="49.03936" lon="1.95956">
        <ele>93.3</ele>
        <time>2022-10-23T11:14:57Z</time>
      </trkpt>
      <trkpt lat="49.03932" lon="1.95964">
        <ele>93.9</ele>
        <time>2022-10-23T11:15:03Z</time>
      </trkpt>
      <trkpt lat="49.03929" lon="1.95977">
        <ele>94.1</ele>
        <time>2022-10-23T11:15:09Z</time>
      </trkpt>
      <trkpt lat="49.03926" lon="1.95992">
        <ele>94</ele>
        <time>2022-10-23T11:15:15Z</time>
      </trkpt>
      <trkpt lat="49.03925" lon="1.96011">
        <ele>93.4</ele>
        <time>2022-10-23T11:15:21Z</time>
      </trkpt>
      <trkpt lat="49.03921" lon="1.96023">
        <ele>93.4</ele>
        <time>2022-10-23T11:15:26Z</time>
      </trkpt>
      <trkpt lat="49.03916" lon="1.96036">
        <ele>93.8</ele>
        <time>2022-10-23T11:15:32Z</time>
      </trkpt>
      <trkpt lat="49.03914" lon="1.96048">
        <ele>93.6</ele>
        <time>2022-10-23T11:15:38Z</time>
      </trkpt>
      <trkpt lat="49.03912" lon="1.96061">
        <ele>93.4</ele>
        <time>2022-10-23T11:15:44Z</time>
      </trkpt>
      <trkpt lat="49.03909" lon="1.96071">
        <ele>93.3</ele>
        <time>2022-10-23T11:15:49Z</time>
      </trkpt>
      <trkpt lat="49.03905" lon="1.96084">
        <ele>93.2</ele>
        <time>2022-10-23T11:15:55Z</time>
      </trkpt>
      <trkpt lat="49.03903" lon="1.96098">
        <ele>93.2</ele>
        <time>2022-10-23T11:16:01Z</time>
      </trkpt>
      <trkpt lat="49.03902" lon="1.96108">
        <ele>93.1</ele>
        <time>2022-10-23T11:16:06Z</time>
      </trkpt>
      <trkpt lat="49.03902" lon="1.96121">
        <ele>93.1</ele>
        <time>2022-10-23T11:16:11Z</time>
      </trkpt>
      <trkpt lat="49.03903" lon="1.96135">
        <ele>93</ele>
        <time>2022-10-23T11:16:17Z</time>
      </trkpt>
      <trkpt lat="49.03903" lon="1.96146">
        <ele>92.9</ele>
        <time>2022-10-23T11:16:22Z</time>
      </trkpt>
      <trkpt lat="49.03905" lon="1.96157">
        <ele>92.6</ele>
        <time>2022-10-23T11:16:27Z</time>
      </trkpt>
      <trkpt lat="49.03909" lon="1.96171">
        <ele>92.2</ele>
        <time>2022-10-23T11:16:33Z</time>
      </trkpt>
      <trkpt lat="49.03911" lon="1.96182">
        <ele>92.2</ele>
        <time>2022-10-23T11:16:39Z</time>
      </trkpt>
      <trkpt lat="49.03913" lon="1.96192">
        <ele>92.3</ele>
        <time>2022-10-23T11:16:44Z</time>
      </trkpt>
      <trkpt lat="49.03915" lon="1.96205">
        <ele>92.5</ele>
        <time>2022-10-23T11:16:50Z</time>
      </trkpt>
      <trkpt lat="49.03917" lon="1.96217">
        <ele>92.8</ele>
        <time>2022-10-23T11:16:55Z</time>
      </trkpt>
      <trkpt lat="49.0392" lon="1.96233">
        <ele>92.8</ele>
        <time>2022-10-23T11:17:01Z</time>
      </trkpt>
      <trkpt lat="49.03922" lon="1.96243">
        <ele>92.8</ele>
        <time>2022-10-23T11:17:06Z</time>
      </trkpt>
      <trkpt lat="49.03925" lon="1.96254">
        <ele>92.7</ele>
        <time>2022-10-23T11:17:11Z</time>
      </trkpt>
      <trkpt lat="49.03928" lon="1.96265">
        <ele>92.8</ele>
        <time>2022-10-23T11:17:17Z</time>
      </trkpt>
      <trkpt lat="49.03931" lon="1.96277">
        <ele>92.9</ele>
        <time>2022-10-23T11:17:23Z</time>
      </trkpt>
      <trkpt lat="49.03935" lon="1.96291">
        <ele>92.7</ele>
        <time>2022-10-23T11:17:29Z</time>
      </trkpt>
      <trkpt lat="49.0394" lon="1.96305">
        <ele>92.5</ele>
        <time>2022-10-23T11:17:35Z</time>
      </trkpt>
      <trkpt lat="49.03942" lon="1.96317">
        <ele>92.6</ele>
        <time>2022-10-23T11:17:40Z</time>
      </trkpt>
      <trkpt lat="49.03946" lon="1.9633">
        <ele>92.6</ele>
        <time>2022-10-23T11:17:46Z</time>
      </trkpt>
      <trkpt lat="49.03949" lon="1.96341">
        <ele>92.4</ele>
        <time>2022-10-23T11:17:51Z</time>
      </trkpt>
      <trkpt lat="49.03952" lon="1.96354">
        <ele>92.4</ele>
        <time>2022-10-23T11:17:57Z</time>
      </trkpt>
      <trkpt lat="49.03955" lon="1.96364">
        <ele>92.2</ele>
        <time>2022-10-23T11:18:02Z</time>
      </trkpt>
      <trkpt lat="49.03959" lon="1.96375">
        <ele>91.6</ele>
        <time>2022-10-23T11:18:07Z</time>
      </trkpt>
      <trkpt lat="49.03963" lon="1.96389">
        <ele>91.3</ele>
        <time>2022-10-23T11:18:13Z</time>
      </trkpt>
      <trkpt lat="49.03966" lon="1.96401">
        <ele>91.2</ele>
        <time>2022-10-23T11:18:18Z</time>
      </trkpt>
      <trkpt lat="49.03968" lon="1.96413">
        <ele>91.3</ele>
        <time>2022-10-23T11:18:23Z</time>
      </trkpt>
      <trkpt lat="49.03971" lon="1.96427">
        <ele>91.5</ele>
        <time>2022-10-23T11:18:29Z</time>
      </trkpt>
      <trkpt lat="49.03974" lon="1.9644">
        <ele>91.5</ele>
        <time>2022-10-23T11:18:35Z</time>
      </trkpt>
      <trkpt lat="49.03977" lon="1.9645">
        <ele>91.1</ele>
        <time>2022-10-23T11:18:40Z</time>
      </trkpt>
      <trkpt lat="49.0398" lon="1.96461">
        <ele>90.6</ele>
        <time>2022-10-23T11:18:46Z</time>
      </trkpt>
      <trkpt lat="49.03982" lon="1.96473">
        <ele>90.2</ele>
        <time>2022-10-23T11:18:52Z</time>
      </trkpt>
      <trkpt lat="49.03984" lon="1.96483">
        <ele>90.3</ele>
        <time>2022-10-23T11:18:57Z</time>
      </trkpt>
      <trkpt lat="49.03986" lon="1.96496">
        <ele>90.3</ele>
        <time>2022-10-23T11:19:03Z</time>
      </trkpt>
      <trkpt lat="49.03989" lon="1.96508">
        <ele>90.3</ele>
        <time>2022-10-23T11:19:08Z</time>
      </trkpt>
      <trkpt lat="49.03992" lon="1.96521">
        <ele>90.3</ele>
        <time>2022-10-23T11:19:14Z</time>
      </trkpt>
      <trkpt lat="49.03996" lon="1.96533">
        <ele>90.1</ele>
        <time>2022-10-23T11:19:20Z</time>
      </trkpt>
      <trkpt lat="49.04" lon="1.96545">
        <ele>90.2</ele>
        <time>2022-10-23T11:19:25Z</time>
      </trkpt>
      <trkpt lat="49.04005" lon="1.96558">
        <ele>89.8</ele>
        <time>2022-10-23T11:19:31Z</time>
      </trkpt>
      <trkpt lat="49.0401" lon="1.96571">
        <ele>89.3</ele>
        <time>2022-10-23T11:19:37Z</time>
      </trkpt>
      <trkpt lat="49.04014" lon="1.96582">
        <ele>88.9</ele>
        <time>2022-10-23T11:19:42Z</time>
      </trkpt>
      <trkpt lat="49.04019" lon="1.96595">
        <ele>88.4</ele>
        <time>2022-10-23T11:19:48Z</time>
      </trkpt>
      <trkpt lat="49.04025" lon="1.96609">
        <ele>88.3</ele>
        <time>2022-10-23T11:19:54Z</time>
      </trkpt>
      <trkpt lat="49.04029" lon="1.9662">
        <ele>88.1</ele>
        <time>2022-10-23T11:19:59Z</time>
      </trkpt>
      <trkpt lat="49.04034" lon="1.96631">
        <ele>87.6</ele>
        <time>2022-10-23T11:20:05Z</time>
      </trkpt>
      <trkpt lat="49.04038" lon="1.96639">
        <ele>87.1</ele>
        <time>2022-10-23T11:20:10Z</time>
      </trkpt>
      <trkpt lat="49.04043" lon="1.96649">
        <ele>86.4</ele>
        <time>2022-10-23T11:20:15Z</time>
      </trkpt>
      <trkpt lat="49.04049" lon="1.96661">
        <ele>85.8</ele>
        <time>2022-10-23T11:20:21Z</time>
      </trkpt>
      <trkpt lat="49.04055" lon="1.96674">
        <ele>85.4</ele>
        <time>2022-10-23T11:20:27Z</time>
      </trkpt>
      <trkpt lat="49.04059" lon="1.96685">
        <ele>85</ele>
        <time>2022-10-23T11:20:33Z</time>
      </trkpt>
      <trkpt lat="49.04064" lon="1.96698">
        <ele>84.3</ele>
        <time>2022-10-23T11:20:39Z</time>
      </trkpt>
      <trkpt lat="49.04068" lon="1.9671">
        <ele>83.5</ele>
        <time>2022-10-23T11:20:44Z</time>
      </trkpt>
      <trkpt lat="49.04075" lon="1.96721">
        <ele>82.5</ele>
        <time>2022-10-23T11:20:50Z</time>
      </trkpt>
      <trkpt lat="49.0408" lon="1.96731">
        <ele>82.2</ele>
        <time>2022-10-23T11:20:55Z</time>
      </trkpt>
      <trkpt lat="49.04085" lon="1.96743">
        <ele>82.2</ele>
        <time>2022-10-23T11:21:01Z</time>
      </trkpt>
      <trkpt lat="49.04089" lon="1.96754">
        <ele>82.1</ele>
        <time>2022-10-23T11:21:07Z</time>
      </trkpt>
      <trkpt lat="49.04093" lon="1.96764">
        <ele>81.8</ele>
        <time>2022-10-23T11:21:12Z</time>
      </trkpt>
      <trkpt lat="49.04097" lon="1.96775">
        <ele>81.4</ele>
        <time>2022-10-23T11:21:18Z</time>
      </trkpt>
      <trkpt lat="49.04101" lon="1.96784">
        <ele>81</ele>
        <time>2022-10-23T11:21:23Z</time>
      </trkpt>
      <trkpt lat="49.04104" lon="1.96797">
        <ele>80.8</ele>
        <time>2022-10-23T11:21:29Z</time>
      </trkpt>
      <trkpt lat="49.04109" lon="1.96811">
        <ele>80.5</ele>
        <time>2022-10-23T11:21:35Z</time>
      </trkpt>
      <trkpt lat="49.04113" lon="1.96825">
        <ele>80.5</ele>
        <time>2022-10-23T11:21:41Z</time>
      </trkpt>
      <trkpt lat="49.04117" lon="1.96839">
        <ele>80.3</ele>
        <time>2022-10-23T11:21:47Z</time>
      </trkpt>
      <trkpt lat="49.04122" lon="1.96849">
        <ele>79.7</ele>
        <time>2022-10-23T11:21:53Z</time>
      </trkpt>
      <trkpt lat="49.04128" lon="1.9686">
        <ele>78.9</ele>
        <time>2022-10-23T11:21:59Z</time>
      </trkpt>
      <trkpt lat="49.04133" lon="1.96872">
        <ele>78</ele>
        <time>2022-10-23T11:22:05Z</time>
      </trkpt>
      <trkpt lat="49.04138" lon="1.96883">
        <ele>77.2</ele>
        <time>2022-10-23T11:22:11Z</time>
      </trkpt>
      <trkpt lat="49.04143" lon="1.96892">
        <ele>76.7</ele>
        <time>2022-10-23T11:22:17Z</time>
      </trkpt>
      <trkpt lat="49.04144" lon="1.96894">
        <ele>76.7</ele>
        <time>2022-10-23T11:22:22Z</time>
      </trkpt>
      <trkpt lat="49.04144" lon="1.96895">
        <ele>76.6</ele>
        <time>2022-10-23T11:22:28Z</time>
      </trkpt>
      <trkpt lat="49.04146" lon="1.96898">
        <ele>76.6</ele>
        <time>2022-10-23T11:22:33Z</time>
      </trkpt>
      <trkpt lat="49.0415" lon="1.96905">
        <ele>76.4</ele>
        <time>2022-10-23T11:22:39Z</time>
      </trkpt>
      <trkpt lat="49.04155" lon="1.9691">
        <ele>76</ele>
        <time>2022-10-23T11:22:45Z</time>
      </trkpt>
      <trkpt lat="49.0416" lon="1.96917">
        <ele>75.7</ele>
        <time>2022-10-23T11:22:50Z</time>
      </trkpt>
      <trkpt lat="49.04168" lon="1.96926">
        <ele>74.8</ele>
        <time>2022-10-23T11:22:56Z</time>
      </trkpt>
      <trkpt lat="49.04176" lon="1.96933">
        <ele>74</ele>
        <time>2022-10-23T11:23:01Z</time>
      </trkpt>
      <trkpt lat="49.04184" lon="1.96941">
        <ele>73.1</ele>
        <time>2022-10-23T11:23:07Z</time>
      </trkpt>
      <trkpt lat="49.04191" lon="1.96947">
        <ele>72.4</ele>
        <time>2022-10-23T11:23:12Z</time>
      </trkpt>
      <trkpt lat="49.04199" lon="1.96954">
        <ele>71.6</ele>
        <time>2022-10-23T11:23:18Z</time>
      </trkpt>
      <trkpt lat="49.04206" lon="1.9696">
        <ele>70.9</ele>
        <time>2022-10-23T11:23:24Z</time>
      </trkpt>
      <trkpt lat="49.04211" lon="1.96964">
        <ele>70.4</ele>
        <time>2022-10-23T11:23:29Z</time>
      </trkpt>
      <trkpt lat="49.04218" lon="1.9697">
        <ele>69.6</ele>
        <time>2022-10-23T11:23:35Z</time>
      </trkpt>
      <trkpt lat="49.04225" lon="1.96969">
        <ele>69</ele>
        <time>2022-10-23T11:23:41Z</time>
      </trkpt>
      <trkpt lat="49.04228" lon="1.96959">
        <ele>69.2</ele>
        <time>2022-10-23T11:23:46Z</time>
      </trkpt>
      <trkpt lat="49.0423" lon="1.96946">
        <ele>69.4</ele>
        <time>2022-10-23T11:23:52Z</time>
      </trkpt>
      <trkpt lat="49.0423" lon="1.96934">
        <ele>69.4</ele>
        <time>2022-10-23T11:23:57Z</time>
      </trkpt>
      <trkpt lat="49.04231" lon="1.96919">
        <ele>69.4</ele>
        <time>2022-10-23T11:24:03Z</time>
      </trkpt>
      <trkpt lat="49.04231" lon="1.96908">
        <ele>69.4</ele>
        <time>2022-10-23T11:24:08Z</time>
      </trkpt>
      <trkpt lat="49.0423" lon="1.96895">
        <ele>69.4</ele>
        <time>2022-10-23T11:24:14Z</time>
      </trkpt>
      <trkpt lat="49.0423" lon="1.96883">
        <ele>69.5</ele>
        <time>2022-10-23T11:24:19Z</time>
      </trkpt>
      <trkpt lat="49.04231" lon="1.96871">
        <ele>69.4</ele>
        <time>2022-10-23T11:24:25Z</time>
      </trkpt>
      <trkpt lat="49.04231" lon="1.96863">
        <ele>69.4</ele>
        <time>2022-10-23T11:24:30Z</time>
      </trkpt>
      <trkpt lat="49.0423" lon="1.96852">
        <ele>69.4</ele>
        <time>2022-10-23T11:24:35Z</time>
      </trkpt>
      <trkpt lat="49.04229" lon="1.96839">
        <ele>69.5</ele>
        <time>2022-10-23T11:24:40Z</time>
      </trkpt>
      <trkpt lat="49.04226" lon="1.96825">
        <ele>69.7</ele>
        <time>2022-10-23T11:24:45Z</time>
      </trkpt>
      <trkpt lat="49.04223" lon="1.96809">
        <ele>70</ele>
        <time>2022-10-23T11:24:51Z</time>
      </trkpt>
      <trkpt lat="49.04221" lon="1.96796">
        <ele>69.7</ele>
        <time>2022-10-23T11:24:57Z</time>
      </trkpt>
      <trkpt lat="49.0422" lon="1.96785">
        <ele>69.4</ele>
        <time>2022-10-23T11:25:03Z</time>
      </trkpt>
      <trkpt lat="49.04219" lon="1.96775">
        <ele>69.2</ele>
        <time>2022-10-23T11:25:08Z</time>
      </trkpt>
      <trkpt lat="49.0422" lon="1.96762">
        <ele>69.1</ele>
        <time>2022-10-23T11:25:14Z</time>
      </trkpt>
      <trkpt lat="49.04221" lon="1.96749">
        <ele>69</ele>
        <time>2022-10-23T11:25:20Z</time>
      </trkpt>
      <trkpt lat="49.04222" lon="1.96736">
        <ele>68.5</ele>
        <time>2022-10-23T11:25:26Z</time>
      </trkpt>
      <trkpt lat="49.04223" lon="1.96725">
        <ele>68.1</ele>
        <time>2022-10-23T11:25:31Z</time>
      </trkpt>
      <trkpt lat="49.04226" lon="1.96711">
        <ele>67.8</ele>
        <time>2022-10-23T11:25:37Z</time>
      </trkpt>
      <trkpt lat="49.04228" lon="1.96698">
        <ele>67.6</ele>
        <time>2022-10-23T11:25:42Z</time>
      </trkpt>
      <trkpt lat="49.04231" lon="1.96682">
        <ele>67.4</ele>
        <time>2022-10-23T11:25:48Z</time>
      </trkpt>
      <trkpt lat="49.04233" lon="1.96668">
        <ele>67.2</ele>
        <time>2022-10-23T11:25:54Z</time>
      </trkpt>
      <trkpt lat="49.04236" lon="1.96654">
        <ele>67.3</ele>
        <time>2022-10-23T11:26:00Z</time>
      </trkpt>
      <trkpt lat="49.04239" lon="1.9664">
        <ele>67.4</ele>
        <time>2022-10-23T11:26:06Z</time>
      </trkpt>
      <trkpt lat="49.04242" lon="1.96624">
        <ele>67.7</ele>
        <time>2022-10-23T11:26:12Z</time>
      </trkpt>
      <trkpt lat="49.04245" lon="1.96606">
        <ele>67.9</ele>
        <time>2022-10-23T11:26:18Z</time>
      </trkpt>
      <trkpt lat="49.04248" lon="1.9659">
        <ele>67.3</ele>
        <time>2022-10-23T11:26:24Z</time>
      </trkpt>
      <trkpt lat="49.0425" lon="1.96578">
        <ele>67</ele>
        <time>2022-10-23T11:26:30Z</time>
      </trkpt>
      <trkpt lat="49.04253" lon="1.96566">
        <ele>66.9</ele>
        <time>2022-10-23T11:26:36Z</time>
      </trkpt>
      <trkpt lat="49.04256" lon="1.96554">
        <ele>66.7</ele>
        <time>2022-10-23T11:26:42Z</time>
      </trkpt>
      <trkpt lat="49.04259" lon="1.96543">
        <ele>66.4</ele>
        <time>2022-10-23T11:26:48Z</time>
      </trkpt>
      <trkpt lat="49.04261" lon="1.96529">
        <ele>66</ele>
        <time>2022-10-23T11:26:54Z</time>
      </trkpt>
      <trkpt lat="49.04263" lon="1.96514">
        <ele>65.8</ele>
        <time>2022-10-23T11:27:00Z</time>
      </trkpt>
      <trkpt lat="49.04264" lon="1.96499">
        <ele>65.5</ele>
        <time>2022-10-23T11:27:06Z</time>
      </trkpt>
      <trkpt lat="49.04265" lon="1.96484">
        <ele>65.2</ele>
        <time>2022-10-23T11:27:12Z</time>
      </trkpt>
      <trkpt lat="49.04265" lon="1.9647">
        <ele>64.8</ele>
        <time>2022-10-23T11:27:18Z</time>
      </trkpt>
      <trkpt lat="49.04266" lon="1.96457">
        <ele>63.9</ele>
        <time>2022-10-23T11:27:23Z</time>
      </trkpt>
      <trkpt lat="49.04266" lon="1.96443">
        <ele>62.9</ele>
        <time>2022-10-23T11:27:28Z</time>
      </trkpt>
      <trkpt lat="49.04266" lon="1.96427">
        <ele>62</ele>
        <time>2022-10-23T11:27:34Z</time>
      </trkpt>
      <trkpt lat="49.04267" lon="1.96418">
        <ele>61.5</ele>
        <time>2022-10-23T11:27:39Z</time>
      </trkpt>
      <trkpt lat="49.04267" lon="1.96405">
        <ele>60.8</ele>
        <time>2022-10-23T11:27:45Z</time>
      </trkpt>
      <trkpt lat="49.04268" lon="1.96391">
        <ele>60.1</ele>
        <time>2022-10-23T11:27:51Z</time>
      </trkpt>
      <trkpt lat="49.04268" lon="1.96377">
        <ele>59.7</ele>
        <time>2022-10-23T11:27:57Z</time>
      </trkpt>
      <trkpt lat="49.04269" lon="1.96361">
        <ele>59.3</ele>
        <time>2022-10-23T11:28:03Z</time>
      </trkpt>
      <trkpt lat="49.0427" lon="1.96347">
        <ele>59.1</ele>
        <time>2022-10-23T11:28:08Z</time>
      </trkpt>
      <trkpt lat="49.04271" lon="1.9633">
        <ele>59</ele>
        <time>2022-10-23T11:28:14Z</time>
      </trkpt>
      <trkpt lat="49.04271" lon="1.96317">
        <ele>59</ele>
        <time>2022-10-23T11:28:19Z</time>
      </trkpt>
      <trkpt lat="49.04271" lon="1.96304">
        <ele>59</ele>
        <time>2022-10-23T11:28:25Z</time>
      </trkpt>
      <trkpt lat="49.04271" lon="1.96291">
        <ele>59</ele>
        <time>2022-10-23T11:28:31Z</time>
      </trkpt>
      <trkpt lat="49.04271" lon="1.96281">
        <ele>59</ele>
        <time>2022-10-23T11:28:36Z</time>
      </trkpt>
      <trkpt lat="49.04271" lon="1.96267">
        <ele>59</ele>
        <time>2022-10-23T11:28:42Z</time>
      </trkpt>
      <trkpt lat="49.04272" lon="1.96255">
        <ele>59</ele>
        <time>2022-10-23T11:28:47Z</time>
      </trkpt>
      <trkpt lat="49.04271" lon="1.96243">
        <ele>59.3</ele>
        <time>2022-10-23T11:28:53Z</time>
      </trkpt>
      <trkpt lat="49.04271" lon="1.96236">
        <ele>59.5</ele>
        <time>2022-10-23T11:28:59Z</time>
      </trkpt>
      <trkpt lat="49.04272" lon="1.96238">
        <ele>59.4</ele>
        <time>2022-10-23T11:29:04Z</time>
      </trkpt>
      <trkpt lat="49.04272" lon="1.96238">
        <ele>59.4</ele>
        <time>2022-10-23T11:29:10Z</time>
      </trkpt>
      <trkpt lat="49.04272" lon="1.96238">
        <ele>59.4</ele>
        <time>2022-10-23T11:29:16Z</time>
      </trkpt>
      <trkpt lat="49.04272" lon="1.96237">
        <ele>59.5</ele>
        <time>2022-10-23T11:29:21Z</time>
      </trkpt>
      <trkpt lat="49.04272" lon="1.96237">
        <ele>59.5</ele>
        <time>2022-10-23T11:29:26Z</time>
      </trkpt>
      <trkpt lat="49.04272" lon="1.96238">
        <ele>59.4</ele>
        <time>2022-10-23T11:29:32Z</time>
      </trkpt>
      <trkpt lat="49.04272" lon="1.96239">
        <ele>59.4</ele>
        <time>2022-10-23T11:29:38Z</time>
      </trkpt>
      <trkpt lat="49.04273" lon="1.96239">
        <ele>59.4</ele>
        <time>2022-10-23T11:29:43Z</time>
      </trkpt>
      <trkpt lat="49.04273" lon="1.9624">
        <ele>59.4</ele>
        <time>2022-10-23T11:29:49Z</time>
      </trkpt>
      <trkpt lat="49.04273" lon="1.96239">
        <ele>59.4</ele>
        <time>2022-10-23T11:29:54Z</time>
      </trkpt>
      <trkpt lat="49.04273" lon="1.9624">
        <ele>59.4</ele>
        <time>2022-10-23T11:30:00Z</time>
      </trkpt>
      <trkpt lat="49.04273" lon="1.9624">
        <ele>59.4</ele>
        <time>2022-10-23T11:30:06Z</time>
      </trkpt>
      <trkpt lat="49.04273" lon="1.9624">
        <ele>59.4</ele>
        <time>2022-10-23T11:30:11Z</time>
      </trkpt>
      <trkpt lat="49.04273" lon="1.96241">
        <ele>59.3</ele>
        <time>2022-10-23T11:30:17Z</time>
      </trkpt>
      <trkpt lat="49.04273" lon="1.96241">
        <ele>59.3</ele>
        <time>2022-10-23T11:30:22Z</time>
      </trkpt>
      <trkpt lat="49.04273" lon="1.9624">
        <ele>59.3</ele>
        <time>2022-10-23T11:30:28Z</time>
      </trkpt>
      <trkpt lat="49.04273" lon="1.96241">
        <ele>59.3</ele>
        <time>2022-10-23T11:30:33Z</time>
      </trkpt>
      <trkpt lat="49.04272" lon="1.96241">
        <ele>59.3</ele>
        <time>2022-10-23T11:30:39Z</time>
      </trkpt>
      <trkpt lat="49.04272" lon="1.96241">
        <ele>59.3</ele>
        <time>2022-10-23T11:30:44Z</time>
      </trkpt>
      <trkpt lat="49.04272" lon="1.96241">
        <ele>59.3</ele>
        <time>2022-10-23T11:30:50Z</time>
      </trkpt>
      <trkpt lat="49.04272" lon="1.96241">
        <ele>59.3</ele>
        <time>2022-10-23T11:30:55Z</time>
      </trkpt>
      <trkpt lat="49.04272" lon="1.96241">
        <ele>59.3</ele>
        <time>2022-10-23T11:31:01Z</time>
      </trkpt>
      <trkpt lat="49.04273" lon="1.9624">
        <ele>59.4</ele>
        <time>2022-10-23T11:31:07Z</time>
      </trkpt>
      <trkpt lat="49.04274" lon="1.9624">
        <ele>59.4</ele>
        <time>2022-10-23T11:31:13Z</time>
      </trkpt>
      <trkpt lat="49.04273" lon="1.9624">
        <ele>59.4</ele>
        <time>2022-10-23T11:31:18Z</time>
      </trkpt>
      <trkpt lat="49.04273" lon="1.96241">
        <ele>59.3</ele>
        <time>2022-10-23T11:31:24Z</time>
      </trkpt>
      <trkpt lat="49.04273" lon="1.96242">
        <ele>59.3</ele>
        <time>2022-10-23T11:31:30Z</time>
      </trkpt>
      <trkpt lat="49.04274" lon="1.96241">
        <ele>59.3</ele>
        <time>2022-10-23T11:31:35Z</time>
      </trkpt>
      <trkpt lat="49.04274" lon="1.96241">
        <ele>59.3</ele>
        <time>2022-10-23T11:31:41Z</time>
      </trkpt>
      <trkpt lat="49.04274" lon="1.9624">
        <ele>59.4</ele>
        <time>2022-10-23T11:31:46Z</time>
      </trkpt>
      <trkpt lat="49.04274" lon="1.9624">
        <ele>59.4</ele>
        <time>2022-10-23T11:31:52Z</time>
      </trkpt>
      <trkpt lat="49.04274" lon="1.96228">
        <ele>59.8</ele>
        <time>2022-10-23T11:31:57Z</time>
      </trkpt>
      <trkpt lat="49.04272" lon="1.96214">
        <ele>60</ele>
        <time>2022-10-23T11:32:03Z</time>
      </trkpt>
      <trkpt lat="49.04273" lon="1.96201">
        <ele>60</ele>
        <time>2022-10-23T11:32:09Z</time>
      </trkpt>
      <trkpt lat="49.04274" lon="1.9619">
        <ele>60.2</ele>
        <time>2022-10-23T11:32:14Z</time>
      </trkpt>
      <trkpt lat="49.04276" lon="1.96176">
        <ele>60.7</ele>
        <time>2022-10-23T11:32:20Z</time>
      </trkpt>
      <trkpt lat="49.04277" lon="1.96165">
        <ele>61.1</ele>
        <time>2022-10-23T11:32:25Z</time>
      </trkpt>
      <trkpt lat="49.04276" lon="1.96154">
        <ele>61.4</ele>
        <time>2022-10-23T11:32:30Z</time>
      </trkpt>
      <trkpt lat="49.04275" lon="1.96137">
        <ele>62</ele>
        <time>2022-10-23T11:32:36Z</time>
      </trkpt>
      <trkpt lat="49.04275" lon="1.96125">
        <ele>62.5</ele>
        <time>2022-10-23T11:32:41Z</time>
      </trkpt>
      <trkpt lat="49.04274" lon="1.96109">
        <ele>63.1</ele>
        <time>2022-10-23T11:32:47Z</time>
      </trkpt>
      <trkpt lat="49.04275" lon="1.96097">
        <ele>63.5</ele>
        <time>2022-10-23T11:32:52Z</time>
      </trkpt>
      <trkpt lat="49.04275" lon="1.96085">
        <ele>63.9</ele>
        <time>2022-10-23T11:32:58Z</time>
      </trkpt>
      <trkpt lat="49.04276" lon="1.96074">
        <ele>64.7</ele>
        <time>2022-10-23T11:33:04Z</time>
      </trkpt>
      <trkpt lat="49.04275" lon="1.96063">
        <ele>65.4</ele>
        <time>2022-10-23T11:33:09Z</time>
      </trkpt>
      <trkpt lat="49.04275" lon="1.96051">
        <ele>66.1</ele>
        <time>2022-10-23T11:33:14Z</time>
      </trkpt>
      <trkpt lat="49.04277" lon="1.96039">
        <ele>66.6</ele>
        <time>2022-10-23T11:33:20Z</time>
      </trkpt>
      <trkpt lat="49.04278" lon="1.9603">
        <ele>66.9</ele>
        <time>2022-10-23T11:33:25Z</time>
      </trkpt>
      <trkpt lat="49.04281" lon="1.96018">
        <ele>67.3</ele>
        <time>2022-10-23T11:33:31Z</time>
      </trkpt>
      <trkpt lat="49.04286" lon="1.96004">
        <ele>67.6</ele>
        <time>2022-10-23T11:33:37Z</time>
      </trkpt>
      <trkpt lat="49.0429" lon="1.95993">
        <ele>67.8</ele>
        <time>2022-10-23T11:33:42Z</time>
      </trkpt>
      <trkpt lat="49.04297" lon="1.95981">
        <ele>68</ele>
        <time>2022-10-23T11:33:48Z</time>
      </trkpt>
      <trkpt lat="49.043" lon="1.95974">
        <ele>68.1</ele>
        <time>2022-10-23T11:33:53Z</time>
      </trkpt>
      <trkpt lat="49.04304" lon="1.95966">
        <ele>68.3</ele>
        <time>2022-10-23T11:33:59Z</time>
      </trkpt>
      <trkpt lat="49.04309" lon="1.95958">
        <ele>68.4</ele>
        <time>2022-10-23T11:34:04Z</time>
      </trkpt>
      <trkpt lat="49.04312" lon="1.95949">
        <ele>68.6</ele>
        <time>2022-10-23T11:34:09Z</time>
      </trkpt>
      <trkpt lat="49.04317" lon="1.95936">
        <ele>68.7</ele>
        <time>2022-10-23T11:34:15Z</time>
      </trkpt>
      <trkpt lat="49.04322" lon="1.95923">
        <ele>68.9</ele>
        <time>2022-10-23T11:34:21Z</time>
      </trkpt>
      <trkpt lat="49.04327" lon="1.95911">
        <ele>69</ele>
        <time>2022-10-23T11:34:27Z</time>
      </trkpt>
      <trkpt lat="49.04332" lon="1.95897">
        <ele>69</ele>
        <time>2022-10-23T11:34:33Z</time>
      </trkpt>
      <trkpt lat="49.04335" lon="1.95887">
        <ele>69</ele>
        <time>2022-10-23T11:34:38Z</time>
      </trkpt>
      <trkpt lat="49.0434" lon="1.95876">
        <ele>68.8</ele>
        <time>2022-10-23T11:34:44Z</time>
      </trkpt>
      <trkpt lat="49.04342" lon="1.95868">
        <ele>68.7</ele>
        <time>2022-10-23T11:34:49Z</time>
      </trkpt>
      <trkpt lat="49.04347" lon="1.9586">
        <ele>68.5</ele>
        <time>2022-10-23T11:34:55Z</time>
      </trkpt>
      <trkpt lat="49.04351" lon="1.95847">
        <ele>68.3</ele>
        <time>2022-10-23T11:35:01Z</time>
      </trkpt>
      <trkpt lat="49.04355" lon="1.95836">
        <ele>68.2</ele>
        <time>2022-10-23T11:35:06Z</time>
      </trkpt>
      <trkpt lat="49.0436" lon="1.95826">
        <ele>68</ele>
        <time>2022-10-23T11:35:12Z</time>
      </trkpt>
      <trkpt lat="49.04365" lon="1.95818">
        <ele>67.9</ele>
        <time>2022-10-23T11:35:17Z</time>
      </trkpt>
      <trkpt lat="49.04368" lon="1.9581">
        <ele>67.7</ele>
        <time>2022-10-23T11:35:22Z</time>
      </trkpt>
      <trkpt lat="49.04373" lon="1.95801">
        <ele>67.6</ele>
        <time>2022-10-23T11:35:27Z</time>
      </trkpt>
      <trkpt lat="49.0438" lon="1.95789">
        <ele>67.3</ele>
        <time>2022-10-23T11:35:33Z</time>
      </trkpt>
      <trkpt lat="49.04384" lon="1.95778">
        <ele>67.2</ele>
        <time>2022-10-23T11:35:38Z</time>
      </trkpt>
      <trkpt lat="49.04389" lon="1.95765">
        <ele>67</ele>
        <time>2022-10-23T11:35:44Z</time>
      </trkpt>
      <trkpt lat="49.04396" lon="1.95756">
        <ele>67</ele>
        <time>2022-10-23T11:35:50Z</time>
      </trkpt>
      <trkpt lat="49.04401" lon="1.95746">
        <ele>66.9</ele>
        <time>2022-10-23T11:35:55Z</time>
      </trkpt>
      <trkpt lat="49.04404" lon="1.95733">
        <ele>66.7</ele>
        <time>2022-10-23T11:36:01Z</time>
      </trkpt>
      <trkpt lat="49.04408" lon="1.95722">
        <ele>66.3</ele>
        <time>2022-10-23T11:36:06Z</time>
      </trkpt>
      <trkpt lat="49.04413" lon="1.95712">
        <ele>66.1</ele>
        <time>2022-10-23T11:36:12Z</time>
      </trkpt>
      <trkpt lat="49.04418" lon="1.95699">
        <ele>66</ele>
        <time>2022-10-23T11:36:18Z</time>
      </trkpt>
      <trkpt lat="49.04422" lon="1.9569">
        <ele>65.8</ele>
        <time>2022-10-23T11:36:23Z</time>
      </trkpt>
      <trkpt lat="49.04428" lon="1.95678">
        <ele>65.6</ele>
        <time>2022-10-23T11:36:29Z</time>
      </trkpt>
      <trkpt lat="49.04434" lon="1.95668">
        <ele>65.4</ele>
        <time>2022-10-23T11:36:34Z</time>
      </trkpt>
      <trkpt lat="49.04439" lon="1.95656">
        <ele>65.2</ele>
        <time>2022-10-23T11:36:40Z</time>
      </trkpt>
      <trkpt lat="49.04442" lon="1.95643">
        <ele>65.1</ele>
        <time>2022-10-23T11:36:46Z</time>
      </trkpt>
      <trkpt lat="49.04446" lon="1.95634">
        <ele>64.7</ele>
        <time>2022-10-23T11:36:51Z</time>
      </trkpt>
      <trkpt lat="49.04452" lon="1.95621">
        <ele>64</ele>
        <time>2022-10-23T11:36:57Z</time>
      </trkpt>
      <trkpt lat="49.04456" lon="1.95607">
        <ele>63.6</ele>
        <time>2022-10-23T11:37:03Z</time>
      </trkpt>
      <trkpt lat="49.04462" lon="1.95593">
        <ele>63.4</ele>
        <time>2022-10-23T11:37:09Z</time>
      </trkpt>
      <trkpt lat="49.04466" lon="1.95582">
        <ele>63.2</ele>
        <time>2022-10-23T11:37:14Z</time>
      </trkpt>
      <trkpt lat="49.04471" lon="1.95568">
        <ele>63</ele>
        <time>2022-10-23T11:37:20Z</time>
      </trkpt>
      <trkpt lat="49.04475" lon="1.95557">
        <ele>62.9</ele>
        <time>2022-10-23T11:37:25Z</time>
      </trkpt>
      <trkpt lat="49.04479" lon="1.95543">
        <ele>62.6</ele>
        <time>2022-10-23T11:37:31Z</time>
      </trkpt>
      <trkpt lat="49.04483" lon="1.95533">
        <ele>62.3</ele>
        <time>2022-10-23T11:37:37Z</time>
      </trkpt>
      <trkpt lat="49.04487" lon="1.95521">
        <ele>62</ele>
        <time>2022-10-23T11:37:42Z</time>
      </trkpt>
      <trkpt lat="49.04491" lon="1.95511">
        <ele>62.1</ele>
        <time>2022-10-23T11:37:47Z</time>
      </trkpt>
      <trkpt lat="49.04494" lon="1.95502">
        <ele>62.2</ele>
        <time>2022-10-23T11:37:52Z</time>
      </trkpt>
      <trkpt lat="49.04491" lon="1.95492">
        <ele>61.4</ele>
        <time>2022-10-23T11:37:58Z</time>
      </trkpt>
      <trkpt lat="49.04484" lon="1.9549">
        <ele>61.5</ele>
        <time>2022-10-23T11:38:03Z</time>
      </trkpt>
      <trkpt lat="49.04477" lon="1.95488">
        <ele>61.5</ele>
        <time>2022-10-23T11:38:08Z</time>
      </trkpt>
      <trkpt lat="49.04467" lon="1.95482">
        <ele>61.5</ele>
        <time>2022-10-23T11:38:13Z</time>
      </trkpt>
      <trkpt lat="49.04458" lon="1.95476">
        <ele>62.3</ele>
        <time>2022-10-23T11:38:19Z</time>
      </trkpt>
      <trkpt lat="49.0445" lon="1.95474">
        <ele>63.3</ele>
        <time>2022-10-23T11:38:25Z</time>
      </trkpt>
      <trkpt lat="49.04443" lon="1.9547">
        <ele>63.7</ele>
        <time>2022-10-23T11:38:30Z</time>
      </trkpt>
      <trkpt lat="49.04434" lon="1.95466">
        <ele>63.6</ele>
        <time>2022-10-23T11:38:36Z</time>
      </trkpt>
      <trkpt lat="49.04426" lon="1.95461">
        <ele>63.6</ele>
        <time>2022-10-23T11:38:42Z</time>
      </trkpt>
      <trkpt lat="49.04418" lon="1.95457">
        <ele>63.8</ele>
        <time>2022-10-23T11:38:48Z</time>
      </trkpt>
      <trkpt lat="49.04412" lon="1.95452">
        <ele>63.6</ele>
        <time>2022-10-23T11:38:53Z</time>
      </trkpt>
      <trkpt lat="49.04405" lon="1.95446">
        <ele>63.5</ele>
        <time>2022-10-23T11:38:58Z</time>
      </trkpt>
      <trkpt lat="49.04396" lon="1.95438">
        <ele>63.1</ele>
        <time>2022-10-23T11:39:04Z</time>
      </trkpt>
      <trkpt lat="49.04388" lon="1.95429">
        <ele>62.8</ele>
        <time>2022-10-23T11:39:10Z</time>
      </trkpt>
      <trkpt lat="49.04381" lon="1.95419">
        <ele>62.2</ele>
        <time>2022-10-23T11:39:16Z</time>
      </trkpt>
      <trkpt lat="49.04376" lon="1.95413">
        <ele>61.6</ele>
        <time>2022-10-23T11:39:21Z</time>
      </trkpt>
      <trkpt lat="49.0437" lon="1.95406">
        <ele>61</ele>
        <time>2022-10-23T11:39:26Z</time>
      </trkpt>
      <trkpt lat="49.04363" lon="1.95396">
        <ele>60.4</ele>
        <time>2022-10-23T11:39:32Z</time>
      </trkpt>
      <trkpt lat="49.04355" lon="1.95387">
        <ele>59.4</ele>
        <time>2022-10-23T11:39:37Z</time>
      </trkpt>
      <trkpt lat="49.04349" lon="1.95379">
        <ele>58.5</ele>
        <time>2022-10-23T11:39:42Z</time>
      </trkpt>
      <trkpt lat="49.04342" lon="1.95367">
        <ele>57.6</ele>
        <time>2022-10-23T11:39:48Z</time>
      </trkpt>
      <trkpt lat="49.04337" lon="1.95358">
        <ele>57.1</ele>
        <time>2022-10-23T11:39:53Z</time>
      </trkpt>
      <trkpt lat="49.04331" lon="1.95349">
        <ele>56.8</ele>
        <time>2022-10-23T11:39:59Z</time>
      </trkpt>
      <trkpt lat="49.04324" lon="1.95341">
        <ele>56.3</ele>
        <time>2022-10-23T11:40:05Z</time>
      </trkpt>
      <trkpt lat="49.04319" lon="1.95332">
        <ele>56</ele>
        <time>2022-10-23T11:40:10Z</time>
      </trkpt>
      <trkpt lat="49.04313" lon="1.95322">
        <ele>55.6</ele>
        <time>2022-10-23T11:40:16Z</time>
      </trkpt>
      <trkpt lat="49.04307" lon="1.95313">
        <ele>55.1</ele>
        <time>2022-10-23T11:40:21Z</time>
      </trkpt>
      <trkpt lat="49.04301" lon="1.95299">
        <ele>55.2</ele>
        <time>2022-10-23T11:40:26Z</time>
      </trkpt>
      <trkpt lat="49.04295" lon="1.95288">
        <ele>55.4</ele>
        <time>2022-10-23T11:40:31Z</time>
      </trkpt>
      <trkpt lat="49.04289" lon="1.95277">
        <ele>55.4</ele>
        <time>2022-10-23T11:40:37Z</time>
      </trkpt>
      <trkpt lat="49.04283" lon="1.95269">
        <ele>54.9</ele>
        <time>2022-10-23T11:40:42Z</time>
      </trkpt>
      <trkpt lat="49.04278" lon="1.95258">
        <ele>54.3</ele>
        <time>2022-10-23T11:40:48Z</time>
      </trkpt>
      <trkpt lat="49.04274" lon="1.95246">
        <ele>54.4</ele>
        <time>2022-10-23T11:40:54Z</time>
      </trkpt>
      <trkpt lat="49.04269" lon="1.95235">
        <ele>54.8</ele>
        <time>2022-10-23T11:40:59Z</time>
      </trkpt>
      <trkpt lat="49.04263" lon="1.95224">
        <ele>55</ele>
        <time>2022-10-23T11:41:05Z</time>
      </trkpt>
      <trkpt lat="49.0426" lon="1.95214">
        <ele>55</ele>
        <time>2022-10-23T11:41:10Z</time>
      </trkpt>
      <trkpt lat="49.04255" lon="1.95203">
        <ele>55</ele>
        <time>2022-10-23T11:41:16Z</time>
      </trkpt>
      <trkpt lat="49.04251" lon="1.95192">
        <ele>54.9</ele>
        <time>2022-10-23T11:41:21Z</time>
      </trkpt>
      <trkpt lat="49.04246" lon="1.95178">
        <ele>54.6</ele>
        <time>2022-10-23T11:41:27Z</time>
      </trkpt>
      <trkpt lat="49.04241" lon="1.95167">
        <ele>54.3</ele>
        <time>2022-10-23T11:41:33Z</time>
      </trkpt>
      <trkpt lat="49.04237" lon="1.95156">
        <ele>54.1</ele>
        <time>2022-10-23T11:41:38Z</time>
      </trkpt>
      <trkpt lat="49.04231" lon="1.95141">
        <ele>53.8</ele>
        <time>2022-10-23T11:41:44Z</time>
      </trkpt>
      <trkpt lat="49.04229" lon="1.95132">
        <ele>53.6</ele>
        <time>2022-10-23T11:41:49Z</time>
      </trkpt>
      <trkpt lat="49.04225" lon="1.95119">
        <ele>53.3</ele>
        <time>2022-10-23T11:41:55Z</time>
      </trkpt>
      <trkpt lat="49.04223" lon="1.95107">
        <ele>53</ele>
        <time>2022-10-23T11:42:00Z</time>
      </trkpt>
      <trkpt lat="49.04218" lon="1.95097">
        <ele>53.4</ele>
        <time>2022-10-23T11:42:06Z</time>
      </trkpt>
      <trkpt lat="49.04215" lon="1.95087">
        <ele>53.5</ele>
        <time>2022-10-23T11:42:11Z</time>
      </trkpt>
      <trkpt lat="49.04211" lon="1.95076">
        <ele>53.4</ele>
        <time>2022-10-23T11:42:17Z</time>
      </trkpt>
      <trkpt lat="49.04207" lon="1.95065">
        <ele>53.1</ele>
        <time>2022-10-23T11:42:22Z</time>
      </trkpt>
      <trkpt lat="49.04204" lon="1.95052">
        <ele>52.8</ele>
        <time>2022-10-23T11:42:28Z</time>
      </trkpt>
      <trkpt lat="49.04206" lon="1.95043">
        <ele>52.3</ele>
        <time>2022-10-23T11:42:34Z</time>
      </trkpt>
      <trkpt lat="49.04214" lon="1.95047">
        <ele>51.6</ele>
        <time>2022-10-23T11:42:40Z</time>
      </trkpt>
      <trkpt lat="49.04218" lon="1.95055">
        <ele>51.5</ele>
        <time>2022-10-23T11:42:45Z</time>
      </trkpt>
      <trkpt lat="49.0422" lon="1.95067">
        <ele>52</ele>
        <time>2022-10-23T11:42:51Z</time>
      </trkpt>
      <trkpt lat="49.04224" lon="1.95079">
        <ele>52.6</ele>
        <time>2022-10-23T11:42:56Z</time>
      </trkpt>
      <trkpt lat="49.04224" lon="1.95087">
        <ele>52.9</ele>
        <time>2022-10-23T11:43:02Z</time>
      </trkpt>
      <trkpt lat="49.04229" lon="1.95097">
        <ele>52.9</ele>
        <time>2022-10-23T11:43:07Z</time>
      </trkpt>
      <trkpt lat="49.04234" lon="1.95096">
        <ele>52.8</ele>
        <time>2022-10-23T11:43:13Z</time>
      </trkpt>
      <trkpt lat="49.04242" lon="1.95089">
        <ele>52.4</ele>
        <time>2022-10-23T11:43:19Z</time>
      </trkpt>
      <trkpt lat="49.04248" lon="1.95083">
        <ele>52</ele>
        <time>2022-10-23T11:43:24Z</time>
      </trkpt>
      <trkpt lat="49.04256" lon="1.95082">
        <ele>51.5</ele>
        <time>2022-10-23T11:43:30Z</time>
      </trkpt>
      <trkpt lat="49.04264" lon="1.95085">
        <ele>51.1</ele>
        <time>2022-10-23T11:43:36Z</time>
      </trkpt>
      <trkpt lat="49.04275" lon="1.95088">
        <ele>50.5</ele>
        <time>2022-10-23T11:43:42Z</time>
      </trkpt>
      <trkpt lat="49.04283" lon="1.95088">
        <ele>50.2</ele>
        <time>2022-10-23T11:43:47Z</time>
      </trkpt>
      <trkpt lat="49.04291" lon="1.95087">
        <ele>49.8</ele>
        <time>2022-10-23T11:43:53Z</time>
      </trkpt>
      <trkpt lat="49.04302" lon="1.95088">
        <ele>49.4</ele>
        <time>2022-10-23T11:43:59Z</time>
      </trkpt>
      <trkpt lat="49.04312" lon="1.95087">
        <ele>49.3</ele>
        <time>2022-10-23T11:44:05Z</time>
      </trkpt>
      <trkpt lat="49.0432" lon="1.95085">
        <ele>49.1</ele>
        <time>2022-10-23T11:44:10Z</time>
      </trkpt>
      <trkpt lat="49.04329" lon="1.95083">
        <ele>49</ele>
        <time>2022-10-23T11:44:15Z</time>
      </trkpt>
      <trkpt lat="49.04337" lon="1.9508">
        <ele>48.7</ele>
        <time>2022-10-23T11:44:21Z</time>
      </trkpt>
      <trkpt lat="49.04344" lon="1.95078">
        <ele>48.5</ele>
        <time>2022-10-23T11:44:26Z</time>
      </trkpt>
      <trkpt lat="49.04352" lon="1.95078">
        <ele>48.3</ele>
        <time>2022-10-23T11:44:32Z</time>
      </trkpt>
      <trkpt lat="49.04361" lon="1.95079">
        <ele>48</ele>
        <time>2022-10-23T11:44:38Z</time>
      </trkpt>
      <trkpt lat="49.04367" lon="1.95082">
        <ele>48.2</ele>
        <time>2022-10-23T11:44:43Z</time>
      </trkpt>
      <trkpt lat="49.04375" lon="1.95083">
        <ele>48.5</ele>
        <time>2022-10-23T11:44:50Z</time>
      </trkpt>
      <trkpt lat="49.04385" lon="1.95083">
        <ele>48.9</ele>
        <time>2022-10-23T11:44:55Z</time>
      </trkpt>
      <trkpt lat="49.04395" lon="1.95085">
        <ele>49</ele>
        <time>2022-10-23T11:45:02Z</time>
      </trkpt>
      <trkpt lat="49.04401" lon="1.95084">
        <ele>49</ele>
        <time>2022-10-23T11:45:08Z</time>
      </trkpt>
      <trkpt lat="49.04411" lon="1.95085">
        <ele>49</ele>
        <time>2022-10-23T11:45:13Z</time>
      </trkpt>
      <trkpt lat="49.04419" lon="1.95085">
        <ele>49.1</ele>
        <time>2022-10-23T11:45:19Z</time>
      </trkpt>
      <trkpt lat="49.04428" lon="1.95086">
        <ele>49.5</ele>
        <time>2022-10-23T11:45:24Z</time>
      </trkpt>
      <trkpt lat="49.04438" lon="1.95088">
        <ele>49.8</ele>
        <time>2022-10-23T11:45:30Z</time>
      </trkpt>
      <trkpt lat="49.04447" lon="1.95087">
        <ele>50.1</ele>
        <time>2022-10-23T11:45:36Z</time>
      </trkpt>
      <trkpt lat="49.04456" lon="1.9509">
        <ele>50.4</ele>
        <time>2022-10-23T11:45:42Z</time>
      </trkpt>
      <trkpt lat="49.04465" lon="1.95092">
        <ele>50.7</ele>
        <time>2022-10-23T11:45:48Z</time>
      </trkpt>
      <trkpt lat="49.04474" lon="1.95098">
        <ele>51</ele>
        <time>2022-10-23T11:45:54Z</time>
      </trkpt>
      <trkpt lat="49.04482" lon="1.951">
        <ele>51</ele>
        <time>2022-10-23T11:45:59Z</time>
      </trkpt>
      <trkpt lat="49.0449" lon="1.95102">
        <ele>51</ele>
        <time>2022-10-23T11:46:05Z</time>
      </trkpt>
      <trkpt lat="49.04497" lon="1.95104">
        <ele>51</ele>
        <time>2022-10-23T11:46:10Z</time>
      </trkpt>
      <trkpt lat="49.04507" lon="1.95106">
        <ele>51</ele>
        <time>2022-10-23T11:46:16Z</time>
      </trkpt>
      <trkpt lat="49.04515" lon="1.95111">
        <ele>51</ele>
        <time>2022-10-23T11:46:22Z</time>
      </trkpt>
      <trkpt lat="49.04524" lon="1.95115">
        <ele>51.1</ele>
        <time>2022-10-23T11:46:28Z</time>
      </trkpt>
      <trkpt lat="49.04532" lon="1.95118">
        <ele>51.2</ele>
        <time>2022-10-23T11:46:34Z</time>
      </trkpt>
      <trkpt lat="49.04541" lon="1.95123">
        <ele>51.2</ele>
        <time>2022-10-23T11:46:40Z</time>
      </trkpt>
      <trkpt lat="49.04548" lon="1.95127">
        <ele>51.2</ele>
        <time>2022-10-23T11:46:45Z</time>
      </trkpt>
      <trkpt lat="49.04558" lon="1.95133">
        <ele>51</ele>
        <time>2022-10-23T11:46:51Z</time>
      </trkpt>
      <trkpt lat="49.04569" lon="1.95138">
        <ele>51</ele>
        <time>2022-10-23T11:46:57Z</time>
      </trkpt>
      <trkpt lat="49.04575" lon="1.95138">
        <ele>51</ele>
        <time>2022-10-23T11:47:02Z</time>
      </trkpt>
      <trkpt lat="49.04584" lon="1.9514">
        <ele>51</ele>
        <time>2022-10-23T11:47:07Z</time>
      </trkpt>
      <trkpt lat="49.0459" lon="1.95146">
        <ele>50.8</ele>
        <time>2022-10-23T11:47:13Z</time>
      </trkpt>
      <trkpt lat="49.04599" lon="1.95156">
        <ele>50.8</ele>
        <time>2022-10-23T11:47:19Z</time>
      </trkpt>
      <trkpt lat="49.04605" lon="1.95162">
        <ele>50.9</ele>
        <time>2022-10-23T11:47:24Z</time>
      </trkpt>
      <trkpt lat="49.04612" lon="1.95172">
        <ele>51.4</ele>
        <time>2022-10-23T11:47:30Z</time>
      </trkpt>
      <trkpt lat="49.04621" lon="1.95181">
        <ele>51.2</ele>
        <time>2022-10-23T11:47:36Z</time>
      </trkpt>
      <trkpt lat="49.04625" lon="1.9519">
        <ele>51.2</ele>
        <time>2022-10-23T11:47:41Z</time>
      </trkpt>
      <trkpt lat="49.04631" lon="1.95197">
        <ele>50.9</ele>
        <time>2022-10-23T11:47:46Z</time>
      </trkpt>
      <trkpt lat="49.04636" lon="1.95195">
        <ele>50.4</ele>
        <time>2022-10-23T11:47:51Z</time>
      </trkpt>
      <trkpt lat="49.04643" lon="1.95178">
        <ele>49.2</ele>
        <time>2022-10-23T11:47:58Z</time>
      </trkpt>
      <trkpt lat="49.0465" lon="1.95171">
        <ele>48.7</ele>
        <time>2022-10-23T11:48:04Z</time>
      </trkpt>
      <trkpt lat="49.04654" lon="1.9516">
        <ele>48.5</ele>
        <time>2022-10-23T11:48:09Z</time>
      </trkpt>
      <trkpt lat="49.04661" lon="1.95151">
        <ele>48.2</ele>
        <time>2022-10-23T11:48:15Z</time>
      </trkpt>
      <trkpt lat="49.04667" lon="1.95141">
        <ele>48</ele>
        <time>2022-10-23T11:48:21Z</time>
      </trkpt>
      <trkpt lat="49.04676" lon="1.95133">
        <ele>47.2</ele>
        <time>2022-10-23T11:48:27Z</time>
      </trkpt>
      <trkpt lat="49.04678" lon="1.95118">
        <ele>46.7</ele>
        <time>2022-10-23T11:48:33Z</time>
      </trkpt>
      <trkpt lat="49.0468" lon="1.95107">
        <ele>46.4</ele>
        <time>2022-10-23T11:48:38Z</time>
      </trkpt>
      <trkpt lat="49.04686" lon="1.95099">
        <ele>45.8</ele>
        <time>2022-10-23T11:48:43Z</time>
      </trkpt>
      <trkpt lat="49.04697" lon="1.95099">
        <ele>45.6</ele>
        <time>2022-10-23T11:48:49Z</time>
      </trkpt>
      <trkpt lat="49.04705" lon="1.95097">
        <ele>45.5</ele>
        <time>2022-10-23T11:48:55Z</time>
      </trkpt>
      <trkpt lat="49.04712" lon="1.95098">
        <ele>45.5</ele>
        <time>2022-10-23T11:49:01Z</time>
      </trkpt>
      <trkpt lat="49.04719" lon="1.95102">
        <ele>45.7</ele>
        <time>2022-10-23T11:49:06Z</time>
      </trkpt>
      <trkpt lat="49.04725" lon="1.95101">
        <ele>45.6</ele>
        <time>2022-10-23T11:49:11Z</time>
      </trkpt>
      <trkpt lat="49.04731" lon="1.951">
        <ele>45.6</ele>
        <time>2022-10-23T11:49:17Z</time>
      </trkpt>
      <trkpt lat="49.04741" lon="1.95101">
        <ele>45.6</ele>
        <time>2022-10-23T11:49:22Z</time>
      </trkpt>
      <trkpt lat="49.04753" lon="1.95101">
        <ele>45.7</ele>
        <time>2022-10-23T11:49:28Z</time>
      </trkpt>
      <trkpt lat="49.0476" lon="1.95102">
        <ele>45.8</ele>
        <time>2022-10-23T11:49:33Z</time>
      </trkpt>
      <trkpt lat="49.04768" lon="1.95104">
        <ele>45.9</ele>
        <time>2022-10-23T11:49:39Z</time>
      </trkpt>
      <trkpt lat="49.0478" lon="1.95116">
        <ele>45.9</ele>
        <time>2022-10-23T11:49:45Z</time>
      </trkpt>
      <trkpt lat="49.04788" lon="1.95116">
        <ele>45.6</ele>
        <time>2022-10-23T11:49:50Z</time>
      </trkpt>
      <trkpt lat="49.04797" lon="1.95115">
        <ele>45.3</ele>
        <time>2022-10-23T11:49:55Z</time>
      </trkpt>
      <trkpt lat="49.04808" lon="1.95112">
        <ele>45.1</ele>
        <time>2022-10-23T11:50:01Z</time>
      </trkpt>
      <trkpt lat="49.04817" lon="1.95108">
        <ele>45.4</ele>
        <time>2022-10-23T11:50:07Z</time>
      </trkpt>
      <trkpt lat="49.04826" lon="1.95103">
        <ele>45.8</ele>
        <time>2022-10-23T11:50:13Z</time>
      </trkpt>
      <trkpt lat="49.04833" lon="1.95099">
        <ele>46</ele>
        <time>2022-10-23T11:50:19Z</time>
      </trkpt>
      <trkpt lat="49.0484" lon="1.95095">
        <ele>46.2</ele>
        <time>2022-10-23T11:50:24Z</time>
      </trkpt>
      <trkpt lat="49.04848" lon="1.95087">
        <ele>46.1</ele>
        <time>2022-10-23T11:50:30Z</time>
      </trkpt>
      <trkpt lat="49.04854" lon="1.95079">
        <ele>45.8</ele>
        <time>2022-10-23T11:50:35Z</time>
      </trkpt>
      <trkpt lat="49.04861" lon="1.95072">
        <ele>45.6</ele>
        <time>2022-10-23T11:50:41Z</time>
      </trkpt>
      <trkpt lat="49.04867" lon="1.95065">
        <ele>45.5</ele>
        <time>2022-10-23T11:50:47Z</time>
      </trkpt>
      <trkpt lat="49.04871" lon="1.95055">
        <ele>45.4</ele>
        <time>2022-10-23T11:50:53Z</time>
      </trkpt>
      <trkpt lat="49.04877" lon="1.95048">
        <ele>45.4</ele>
        <time>2022-10-23T11:50:58Z</time>
      </trkpt>
      <trkpt lat="49.04884" lon="1.95042">
        <ele>45.4</ele>
        <time>2022-10-23T11:51:03Z</time>
      </trkpt>
      <trkpt lat="49.04893" lon="1.95033">
        <ele>45.2</ele>
        <time>2022-10-23T11:51:09Z</time>
      </trkpt>
      <trkpt lat="49.04901" lon="1.95023">
        <ele>44.9</ele>
        <time>2022-10-23T11:51:15Z</time>
      </trkpt>
      <trkpt lat="49.04907" lon="1.95015">
        <ele>44.8</ele>
        <time>2022-10-23T11:51:20Z</time>
      </trkpt>
      <trkpt lat="49.04914" lon="1.95007">
        <ele>44.9</ele>
        <time>2022-10-23T11:51:25Z</time>
      </trkpt>
      <trkpt lat="49.04921" lon="1.94998">
        <ele>44.9</ele>
        <time>2022-10-23T11:51:31Z</time>
      </trkpt>
      <trkpt lat="49.04926" lon="1.9499">
        <ele>44.8</ele>
        <time>2022-10-23T11:51:36Z</time>
      </trkpt>
      <trkpt lat="49.04935" lon="1.94982">
        <ele>44.8</ele>
        <time>2022-10-23T11:51:42Z</time>
      </trkpt>
      <trkpt lat="49.04939" lon="1.94975">
        <ele>44.8</ele>
        <time>2022-10-23T11:51:47Z</time>
      </trkpt>
      <trkpt lat="49.04945" lon="1.94967">
        <ele>44.8</ele>
        <time>2022-10-23T11:51:52Z</time>
      </trkpt>
      <trkpt lat="49.04951" lon="1.9496">
        <ele>44.4</ele>
        <time>2022-10-23T11:51:57Z</time>
      </trkpt>
      <trkpt lat="49.04956" lon="1.94954">
        <ele>44.2</ele>
        <time>2022-10-23T11:52:02Z</time>
      </trkpt>
      <trkpt lat="49.04963" lon="1.9495">
        <ele>44.1</ele>
        <time>2022-10-23T11:52:07Z</time>
      </trkpt>
      <trkpt lat="49.04968" lon="1.94939">
        <ele>44</ele>
        <time>2022-10-23T11:52:13Z</time>
      </trkpt>
      <trkpt lat="49.04976" lon="1.94931">
        <ele>44.1</ele>
        <time>2022-10-23T11:52:19Z</time>
      </trkpt>
      <trkpt lat="49.04983" lon="1.94922">
        <ele>44.4</ele>
        <time>2022-10-23T11:52:25Z</time>
      </trkpt>
      <trkpt lat="49.04989" lon="1.94916">
        <ele>44.6</ele>
        <time>2022-10-23T11:52:30Z</time>
      </trkpt>
      <trkpt lat="49.04995" lon="1.94912">
        <ele>44.7</ele>
        <time>2022-10-23T11:52:35Z</time>
      </trkpt>
      <trkpt lat="49.04995" lon="1.94912">
        <ele>44.7</ele>
        <time>2022-10-23T11:52:41Z</time>
      </trkpt>
      <trkpt lat="49.0499" lon="1.94912">
        <ele>44.5</ele>
        <time>2022-10-23T11:52:46Z</time>
      </trkpt>
      <trkpt lat="49.04985" lon="1.94919">
        <ele>44.4</ele>
        <time>2022-10-23T11:52:52Z</time>
      </trkpt>
      <trkpt lat="49.04982" lon="1.94924">
        <ele>44.3</ele>
        <time>2022-10-23T11:52:57Z</time>
      </trkpt>
      <trkpt lat="49.04981" lon="1.94922">
        <ele>44.3</ele>
        <time>2022-10-23T11:53:02Z</time>
      </trkpt>
      <trkpt lat="49.0498" lon="1.94922">
        <ele>44.3</ele>
        <time>2022-10-23T11:53:07Z</time>
      </trkpt>
      <trkpt lat="49.04981" lon="1.94924">
        <ele>44.3</ele>
        <time>2022-10-23T11:53:13Z</time>
      </trkpt>
      <trkpt lat="49.04983" lon="1.94929">
        <ele>44.4</ele>
        <time>2022-10-23T11:53:18Z</time>
      </trkpt>
      <trkpt lat="49.04987" lon="1.94935">
        <ele>44.5</ele>
        <time>2022-10-23T11:53:24Z</time>
      </trkpt>
      <trkpt lat="49.04992" lon="1.9494">
        <ele>44.7</ele>
        <time>2022-10-23T11:53:29Z</time>
      </trkpt>
      <trkpt lat="49.04998" lon="1.94947">
        <ele>44.9</ele>
        <time>2022-10-23T11:53:34Z</time>
      </trkpt>
      <trkpt lat="49.05004" lon="1.94953">
        <ele>45</ele>
        <time>2022-10-23T11:53:39Z</time>
      </trkpt>
      <trkpt lat="49.0501" lon="1.94962">
        <ele>45.2</ele>
        <time>2022-10-23T11:53:45Z</time>
      </trkpt>
      <trkpt lat="49.05016" lon="1.94967">
        <ele>45.5</ele>
        <time>2022-10-23T11:53:50Z</time>
      </trkpt>
      <trkpt lat="49.05022" lon="1.94975">
        <ele>45.9</ele>
        <time>2022-10-23T11:53:56Z</time>
      </trkpt>
      <trkpt lat="49.0503" lon="1.94985">
        <ele>46.6</ele>
        <time>2022-10-23T11:54:02Z</time>
      </trkpt>
      <trkpt lat="49.05035" lon="1.94989">
        <ele>47.1</ele>
        <time>2022-10-23T11:54:08Z</time>
      </trkpt>
      <trkpt lat="49.05039" lon="1.94988">
        <ele>47.4</ele>
        <time>2022-10-23T11:54:13Z</time>
      </trkpt>
      <trkpt lat="49.05045" lon="1.9498">
        <ele>47.5</ele>
        <time>2022-10-23T11:54:19Z</time>
      </trkpt>
      <trkpt lat="49.05053" lon="1.94973">
        <ele>47.8</ele>
        <time>2022-10-23T11:54:25Z</time>
      </trkpt>
      <trkpt lat="49.05059" lon="1.94967">
        <ele>48.1</ele>
        <time>2022-10-23T11:54:31Z</time>
      </trkpt>
      <trkpt lat="49.05065" lon="1.94957">
        <ele>47.9</ele>
        <time>2022-10-23T11:54:37Z</time>
      </trkpt>
      <trkpt lat="49.05073" lon="1.94953">
        <ele>48.2</ele>
        <time>2022-10-23T11:54:43Z</time>
      </trkpt>
      <trkpt lat="49.05081" lon="1.94959">
        <ele>48.9</ele>
        <time>2022-10-23T11:54:48Z</time>
      </trkpt>
      <trkpt lat="49.05085" lon="1.94969">
        <ele>49.9</ele>
        <time>2022-10-23T11:54:54Z</time>
      </trkpt>
      <trkpt lat="49.05091" lon="1.94977">
        <ele>50.5</ele>
        <time>2022-10-23T11:54:59Z</time>
      </trkpt>
      <trkpt lat="49.05095" lon="1.94984">
        <ele>51</ele>
        <time>2022-10-23T11:55:05Z</time>
      </trkpt>
      <trkpt lat="49.051" lon="1.94993">
        <ele>51.8</ele>
        <time>2022-10-23T11:55:10Z</time>
      </trkpt>
      <trkpt lat="49.05107" lon="1.95003">
        <ele>52.8</ele>
        <time>2022-10-23T11:55:16Z</time>
      </trkpt>
      <trkpt lat="49.05114" lon="1.95013">
        <ele>53.6</ele>
        <time>2022-10-23T11:55:22Z</time>
      </trkpt>
      <trkpt lat="49.05121" lon="1.95021">
        <ele>54.1</ele>
        <time>2022-10-23T11:55:28Z</time>
      </trkpt>
      <trkpt lat="49.05126" lon="1.95027">
        <ele>54.5</ele>
        <time>2022-10-23T11:55:33Z</time>
      </trkpt>
      <trkpt lat="49.05133" lon="1.95033">
        <ele>55</ele>
        <time>2022-10-23T11:55:39Z</time>
      </trkpt>
      <trkpt lat="49.05138" lon="1.95039">
        <ele>55.4</ele>
        <time>2022-10-23T11:55:45Z</time>
      </trkpt>
      <trkpt lat="49.0514" lon="1.95041">
        <ele>55.5</ele>
        <time>2022-10-23T11:55:51Z</time>
      </trkpt>
      <trkpt lat="49.05143" lon="1.95046">
        <ele>55.6</ele>
        <time>2022-10-23T11:55:57Z</time>
      </trkpt>
      <trkpt lat="49.05145" lon="1.95049">
        <ele>55.8</ele>
        <time>2022-10-23T11:56:03Z</time>
      </trkpt>
      <trkpt lat="49.05145" lon="1.95051">
        <ele>55.8</ele>
        <time>2022-10-23T11:56:09Z</time>
      </trkpt>
      <trkpt lat="49.05145" lon="1.95051">
        <ele>55.8</ele>
        <time>2022-10-23T11:56:14Z</time>
      </trkpt>
      <trkpt lat="49.05145" lon="1.95051">
        <ele>55.9</ele>
        <time>2022-10-23T11:56:20Z</time>
      </trkpt>
      <trkpt lat="49.05146" lon="1.95051">
        <ele>55.9</ele>
        <time>2022-10-23T11:56:25Z</time>
      </trkpt>
      <trkpt lat="49.05145" lon="1.95052">
        <ele>55.9</ele>
        <time>2022-10-23T11:56:30Z</time>
      </trkpt>
      <trkpt lat="49.05145" lon="1.95052">
        <ele>55.9</ele>
        <time>2022-10-23T11:56:35Z</time>
      </trkpt>
      <trkpt lat="49.05145" lon="1.95051">
        <ele>55.8</ele>
        <time>2022-10-23T11:56:40Z</time>
      </trkpt>
      <trkpt lat="49.05145" lon="1.95051">
        <ele>55.8</ele>
        <time>2022-10-23T11:56:46Z</time>
      </trkpt>
      <trkpt lat="49.05145" lon="1.9505">
        <ele>55.8</ele>
        <time>2022-10-23T11:56:52Z</time>
      </trkpt>
      <trkpt lat="49.05145" lon="1.9505">
        <ele>55.8</ele>
        <time>2022-10-23T11:56:58Z</time>
      </trkpt>
      <trkpt lat="49.05145" lon="1.95051">
        <ele>55.8</ele>
        <time>2022-10-23T11:57:04Z</time>
      </trkpt>
      <trkpt lat="49.05145" lon="1.9505">
        <ele>55.8</ele>
        <time>2022-10-23T11:57:09Z</time>
      </trkpt>
      <trkpt lat="49.05145" lon="1.95051">
        <ele>55.8</ele>
        <time>2022-10-23T11:57:14Z</time>
      </trkpt>
      <trkpt lat="49.05144" lon="1.95051">
        <ele>55.8</ele>
        <time>2022-10-23T11:57:20Z</time>
      </trkpt>
      <trkpt lat="49.05144" lon="1.95051">
        <ele>55.8</ele>
        <time>2022-10-23T11:57:25Z</time>
      </trkpt>
      <trkpt lat="49.05144" lon="1.95051">
        <ele>55.8</ele>
        <time>2022-10-23T11:57:31Z</time>
      </trkpt>
      <trkpt lat="49.05144" lon="1.95051">
        <ele>55.8</ele>
        <time>2022-10-23T11:57:36Z</time>
      </trkpt>
      <trkpt lat="49.05145" lon="1.95051">
        <ele>55.8</ele>
        <time>2022-10-23T11:57:42Z</time>
      </trkpt>
      <trkpt lat="49.05145" lon="1.95051">
        <ele>55.8</ele>
        <time>2022-10-23T11:57:48Z</time>
      </trkpt>
      <trkpt lat="49.05145" lon="1.9505">
        <ele>55.8</ele>
        <time>2022-10-23T11:57:53Z</time>
      </trkpt>
      <trkpt lat="49.05145" lon="1.95051">
        <ele>55.8</ele>
        <time>2022-10-23T11:57:59Z</time>
      </trkpt>
      <trkpt lat="49.05145" lon="1.9505">
        <ele>55.8</ele>
        <time>2022-10-23T11:58:05Z</time>
      </trkpt>
      <trkpt lat="49.05145" lon="1.9505">
        <ele>55.8</ele>
        <time>2022-10-23T11:58:10Z</time>
      </trkpt>
      <trkpt lat="49.05145" lon="1.9505">
        <ele>55.8</ele>
        <time>2022-10-23T11:58:15Z</time>
      </trkpt>
      <trkpt lat="49.05145" lon="1.9505">
        <ele>55.8</ele>
        <time>2022-10-23T11:58:21Z</time>
      </trkpt>
      <trkpt lat="49.05144" lon="1.95052">
        <ele>55.9</ele>
        <time>2022-10-23T11:58:27Z</time>
      </trkpt>
      <trkpt lat="49.05145" lon="1.95052">
        <ele>55.9</ele>
        <time>2022-10-23T11:58:32Z</time>
      </trkpt>
      <trkpt lat="49.05145" lon="1.95053">
        <ele>55.9</ele>
        <time>2022-10-23T11:58:38Z</time>
      </trkpt>
      <trkpt lat="49.05146" lon="1.95054">
        <ele>55.9</ele>
        <time>2022-10-23T11:58:43Z</time>
      </trkpt>
      <trkpt lat="49.05145" lon="1.95054">
        <ele>55.9</ele>
        <time>2022-10-23T11:58:49Z</time>
      </trkpt>
      <trkpt lat="49.05145" lon="1.95054">
        <ele>55.9</ele>
        <time>2022-10-23T11:58:54Z</time>
      </trkpt>
      <trkpt lat="49.05145" lon="1.95054">
        <ele>56</ele>
        <time>2022-10-23T11:59:00Z</time>
      </trkpt>
      <trkpt lat="49.05145" lon="1.95054">
        <ele>55.9</ele>
        <time>2022-10-23T11:59:05Z</time>
      </trkpt>
      <trkpt lat="49.05146" lon="1.95053">
        <ele>55.9</ele>
        <time>2022-10-23T11:59:11Z</time>
      </trkpt>
      <trkpt lat="49.05147" lon="1.95052">
        <ele>55.9</ele>
        <time>2022-10-23T11:59:16Z</time>
      </trkpt>
      <trkpt lat="49.05149" lon="1.95056">
        <ele>56</ele>
        <time>2022-10-23T11:59:21Z</time>
      </trkpt>
      <trkpt lat="49.05148" lon="1.95058">
        <ele>56</ele>
        <time>2022-10-23T11:59:27Z</time>
      </trkpt>
      <trkpt lat="49.05148" lon="1.95059">
        <ele>56</ele>
        <time>2022-10-23T11:59:32Z</time>
      </trkpt>
      <trkpt lat="49.05148" lon="1.95061">
        <ele>56.1</ele>
        <time>2022-10-23T11:59:38Z</time>
      </trkpt>
      <trkpt lat="49.05148" lon="1.95061">
        <ele>56.1</ele>
        <time>2022-10-23T11:59:43Z</time>
      </trkpt>
      <trkpt lat="49.05148" lon="1.9506">
        <ele>56.1</ele>
        <time>2022-10-23T11:59:48Z</time>
      </trkpt>
      <trkpt lat="49.05154" lon="1.95056">
        <ele>56</ele>
        <time>2022-10-23T11:59:53Z</time>
      </trkpt>
      <trkpt lat="49.05159" lon="1.95054">
        <ele>55.9</ele>
        <time>2022-10-23T11:59:58Z</time>
      </trkpt>
      <trkpt lat="49.05165" lon="1.95054">
        <ele>55.9</ele>
        <time>2022-10-23T12:00:03Z</time>
      </trkpt>
      <trkpt lat="49.05174" lon="1.95059">
        <ele>56.1</ele>
        <time>2022-10-23T12:00:08Z</time>
      </trkpt>
      <trkpt lat="49.05182" lon="1.95064">
        <ele>56.3</ele>
        <time>2022-10-23T12:00:14Z</time>
      </trkpt>
      <trkpt lat="49.0519" lon="1.95071">
        <ele>56.5</ele>
        <time>2022-10-23T12:00:20Z</time>
      </trkpt>
      <trkpt lat="49.05196" lon="1.95077">
        <ele>56.8</ele>
        <time>2022-10-23T12:00:25Z</time>
      </trkpt>
      <trkpt lat="49.05202" lon="1.95083">
        <ele>57</ele>
        <time>2022-10-23T12:00:31Z</time>
      </trkpt>
      <trkpt lat="49.05208" lon="1.95092">
        <ele>57.3</ele>
        <time>2022-10-23T12:00:37Z</time>
      </trkpt>
      <trkpt lat="49.05214" lon="1.95102">
        <ele>57.7</ele>
        <time>2022-10-23T12:00:42Z</time>
      </trkpt>
      <trkpt lat="49.05221" lon="1.95114">
        <ele>58.1</ele>
        <time>2022-10-23T12:00:48Z</time>
      </trkpt>
      <trkpt lat="49.05227" lon="1.95123">
        <ele>58.3</ele>
        <time>2022-10-23T12:00:53Z</time>
      </trkpt>
      <trkpt lat="49.05232" lon="1.95132">
        <ele>58.4</ele>
        <time>2022-10-23T12:00:58Z</time>
      </trkpt>
      <trkpt lat="49.05238" lon="1.95143">
        <ele>58.5</ele>
        <time>2022-10-23T12:01:04Z</time>
      </trkpt>
      <trkpt lat="49.05243" lon="1.95153">
        <ele>58.6</ele>
        <time>2022-10-23T12:01:10Z</time>
      </trkpt>
      <trkpt lat="49.05248" lon="1.95163">
        <ele>58.9</ele>
        <time>2022-10-23T12:01:16Z</time>
      </trkpt>
      <trkpt lat="49.05255" lon="1.95175">
        <ele>59.3</ele>
        <time>2022-10-23T12:01:22Z</time>
      </trkpt>
      <trkpt lat="49.05261" lon="1.95184">
        <ele>59.4</ele>
        <time>2022-10-23T12:01:27Z</time>
      </trkpt>
      <trkpt lat="49.05267" lon="1.95193">
        <ele>59.4</ele>
        <time>2022-10-23T12:01:32Z</time>
      </trkpt>
      <trkpt lat="49.05275" lon="1.95204">
        <ele>59.4</ele>
        <time>2022-10-23T12:01:38Z</time>
      </trkpt>
      <trkpt lat="49.05279" lon="1.95215">
        <ele>59.7</ele>
        <time>2022-10-23T12:01:43Z</time>
      </trkpt>
      <trkpt lat="49.05283" lon="1.95226">
        <ele>60.1</ele>
        <time>2022-10-23T12:01:49Z</time>
      </trkpt>
      <trkpt lat="49.05287" lon="1.95233">
        <ele>60.3</ele>
        <time>2022-10-23T12:01:55Z</time>
      </trkpt>
      <trkpt lat="49.05292" lon="1.95239">
        <ele>60.3</ele>
        <time>2022-10-23T12:02:00Z</time>
      </trkpt>
      <trkpt lat="49.05298" lon="1.95246">
        <ele>60.2</ele>
        <time>2022-10-23T12:02:06Z</time>
      </trkpt>
      <trkpt lat="49.05303" lon="1.95255">
        <ele>60.3</ele>
        <time>2022-10-23T12:02:12Z</time>
      </trkpt>
      <trkpt lat="49.05307" lon="1.95264">
        <ele>60.5</ele>
        <time>2022-10-23T12:02:17Z</time>
      </trkpt>
      <trkpt lat="49.05313" lon="1.95275">
        <ele>60.9</ele>
        <time>2022-10-23T12:02:23Z</time>
      </trkpt>
      <trkpt lat="49.0532" lon="1.95289">
        <ele>61.2</ele>
        <time>2022-10-23T12:02:29Z</time>
      </trkpt>
      <trkpt lat="49.05326" lon="1.95298">
        <ele>61.2</ele>
        <time>2022-10-23T12:02:34Z</time>
      </trkpt>
      <trkpt lat="49.05333" lon="1.95304">
        <ele>61</ele>
        <time>2022-10-23T12:02:40Z</time>
      </trkpt>
      <trkpt lat="49.05338" lon="1.9531">
        <ele>61.2</ele>
        <time>2022-10-23T12:02:45Z</time>
      </trkpt>
      <trkpt lat="49.05344" lon="1.95318">
        <ele>61.4</ele>
        <time>2022-10-23T12:02:51Z</time>
      </trkpt>
      <trkpt lat="49.05349" lon="1.95326">
        <ele>61.7</ele>
        <time>2022-10-23T12:02:56Z</time>
      </trkpt>
      <trkpt lat="49.05356" lon="1.95334">
        <ele>62</ele>
        <time>2022-10-23T12:03:02Z</time>
      </trkpt>
      <trkpt lat="49.05363" lon="1.95343">
        <ele>62.3</ele>
        <time>2022-10-23T12:03:07Z</time>
      </trkpt>
      <trkpt lat="49.05373" lon="1.95352">
        <ele>62.4</ele>
        <time>2022-10-23T12:03:13Z</time>
      </trkpt>
      <trkpt lat="49.05379" lon="1.95361">
        <ele>62.4</ele>
        <time>2022-10-23T12:03:18Z</time>
      </trkpt>
      <trkpt lat="49.05387" lon="1.95372">
        <ele>62.8</ele>
        <time>2022-10-23T12:03:24Z</time>
      </trkpt>
      <trkpt lat="49.05393" lon="1.95382">
        <ele>63.4</ele>
        <time>2022-10-23T12:03:29Z</time>
      </trkpt>
      <trkpt lat="49.05398" lon="1.95391">
        <ele>63.7</ele>
        <time>2022-10-23T12:03:35Z</time>
      </trkpt>
      <trkpt lat="49.05402" lon="1.95399">
        <ele>63.7</ele>
        <time>2022-10-23T12:03:41Z</time>
      </trkpt>
      <trkpt lat="49.05409" lon="1.95408">
        <ele>63.8</ele>
        <time>2022-10-23T12:03:47Z</time>
      </trkpt>
      <trkpt lat="49.05413" lon="1.95415">
        <ele>64</ele>
        <time>2022-10-23T12:03:53Z</time>
      </trkpt>
      <trkpt lat="49.05418" lon="1.95423">
        <ele>64.2</ele>
        <time>2022-10-23T12:03:58Z</time>
      </trkpt>
      <trkpt lat="49.05424" lon="1.95431">
        <ele>64.4</ele>
        <time>2022-10-23T12:04:04Z</time>
      </trkpt>
      <trkpt lat="49.05431" lon="1.9544">
        <ele>64.4</ele>
        <time>2022-10-23T12:04:10Z</time>
      </trkpt>
      <trkpt lat="49.05437" lon="1.95448">
        <ele>64.5</ele>
        <time>2022-10-23T12:04:16Z</time>
      </trkpt>
      <trkpt lat="49.05442" lon="1.95458">
        <ele>65</ele>
        <time>2022-10-23T12:04:21Z</time>
      </trkpt>
      <trkpt lat="49.05445" lon="1.95465">
        <ele>65.5</ele>
        <time>2022-10-23T12:04:26Z</time>
      </trkpt>
      <trkpt lat="49.0545" lon="1.95472">
        <ele>65.8</ele>
        <time>2022-10-23T12:04:31Z</time>
      </trkpt>
      <trkpt lat="49.05458" lon="1.95483">
        <ele>65.7</ele>
        <time>2022-10-23T12:04:37Z</time>
      </trkpt>
      <trkpt lat="49.05466" lon="1.95494">
        <ele>65.8</ele>
        <time>2022-10-23T12:04:43Z</time>
      </trkpt>
      <trkpt lat="49.05472" lon="1.95502">
        <ele>66.1</ele>
        <time>2022-10-23T12:04:48Z</time>
      </trkpt>
      <trkpt lat="49.05478" lon="1.95512">
        <ele>66.8</ele>
        <time>2022-10-23T12:04:54Z</time>
      </trkpt>
      <trkpt lat="49.05483" lon="1.95518">
        <ele>67.1</ele>
        <time>2022-10-23T12:05:00Z</time>
      </trkpt>
      <trkpt lat="49.05485" lon="1.95523">
        <ele>67.3</ele>
        <time>2022-10-23T12:05:05Z</time>
      </trkpt>
      <trkpt lat="49.05491" lon="1.95529">
        <ele>67.4</ele>
        <time>2022-10-23T12:05:11Z</time>
      </trkpt>
      <trkpt lat="49.05497" lon="1.95536">
        <ele>67.7</ele>
        <time>2022-10-23T12:05:16Z</time>
      </trkpt>
      <trkpt lat="49.05502" lon="1.95536">
        <ele>67.6</ele>
        <time>2022-10-23T12:05:22Z</time>
      </trkpt>
      <trkpt lat="49.05505" lon="1.9553">
        <ele>67.1</ele>
        <time>2022-10-23T12:05:27Z</time>
      </trkpt>
      <trkpt lat="49.05509" lon="1.95517">
        <ele>66.6</ele>
        <time>2022-10-23T12:05:33Z</time>
      </trkpt>
      <trkpt lat="49.05514" lon="1.95507">
        <ele>66.3</ele>
        <time>2022-10-23T12:05:38Z</time>
      </trkpt>
      <trkpt lat="49.0552" lon="1.95496">
        <ele>66</ele>
        <time>2022-10-23T12:05:44Z</time>
      </trkpt>
      <trkpt lat="49.05526" lon="1.95489">
        <ele>66</ele>
        <time>2022-10-23T12:05:49Z</time>
      </trkpt>
      <trkpt lat="49.05529" lon="1.95479">
        <ele>66</ele>
        <time>2022-10-23T12:05:54Z</time>
      </trkpt>
      <trkpt lat="49.05534" lon="1.95467">
        <ele>65.8</ele>
        <time>2022-10-23T12:06:00Z</time>
      </trkpt>
      <trkpt lat="49.0554" lon="1.95456">
        <ele>65.7</ele>
        <time>2022-10-23T12:06:06Z</time>
      </trkpt>
      <trkpt lat="49.05544" lon="1.95447">
        <ele>65.6</ele>
        <time>2022-10-23T12:06:11Z</time>
      </trkpt>
      <trkpt lat="49.05547" lon="1.95435">
        <ele>65.7</ele>
        <time>2022-10-23T12:06:17Z</time>
      </trkpt>
      <trkpt lat="49.0555" lon="1.95423">
        <ele>65.8</ele>
        <time>2022-10-23T12:06:23Z</time>
      </trkpt>
      <trkpt lat="49.05553" lon="1.95411">
        <ele>65.9</ele>
        <time>2022-10-23T12:06:28Z</time>
      </trkpt>
      <trkpt lat="49.05557" lon="1.95399">
        <ele>66</ele>
        <time>2022-10-23T12:06:34Z</time>
      </trkpt>
      <trkpt lat="49.0556" lon="1.95385">
        <ele>66</ele>
        <time>2022-10-23T12:06:39Z</time>
      </trkpt>
      <trkpt lat="49.05564" lon="1.95369">
        <ele>66</ele>
        <time>2022-10-23T12:06:45Z</time>
      </trkpt>
      <trkpt lat="49.05568" lon="1.95356">
        <ele>66.1</ele>
        <time>2022-10-23T12:06:51Z</time>
      </trkpt>
      <trkpt lat="49.05572" lon="1.95343">
        <ele>66.4</ele>
        <time>2022-10-23T12:06:56Z</time>
      </trkpt>
      <trkpt lat="49.05575" lon="1.95333">
        <ele>66.7</ele>
        <time>2022-10-23T12:07:01Z</time>
      </trkpt>
      <trkpt lat="49.05582" lon="1.95326">
        <ele>66.9</ele>
        <time>2022-10-23T12:07:07Z</time>
      </trkpt>
      <trkpt lat="49.05586" lon="1.95317">
        <ele>67.1</ele>
        <time>2022-10-23T12:07:13Z</time>
      </trkpt>
      <trkpt lat="49.05589" lon="1.95306">
        <ele>67.2</ele>
        <time>2022-10-23T12:07:18Z</time>
      </trkpt>
      <trkpt lat="49.05594" lon="1.95297">
        <ele>67.6</ele>
        <time>2022-10-23T12:07:24Z</time>
      </trkpt>
      <trkpt lat="49.05597" lon="1.95287">
        <ele>67.8</ele>
        <time>2022-10-23T12:07:29Z</time>
      </trkpt>
      <trkpt lat="49.05601" lon="1.95275">
        <ele>68</ele>
        <time>2022-10-23T12:07:34Z</time>
      </trkpt>
      <trkpt lat="49.05606" lon="1.95262">
        <ele>68</ele>
        <time>2022-10-23T12:07:40Z</time>
      </trkpt>
      <trkpt lat="49.05611" lon="1.95254">
        <ele>68</ele>
        <time>2022-10-23T12:07:45Z</time>
      </trkpt>
      <trkpt lat="49.05614" lon="1.95243">
        <ele>68.1</ele>
        <time>2022-10-23T12:07:51Z</time>
      </trkpt>
      <trkpt lat="49.05617" lon="1.95234">
        <ele>68.2</ele>
        <time>2022-10-23T12:07:56Z</time>
      </trkpt>
      <trkpt lat="49.05623" lon="1.95222">
        <ele>68.4</ele>
        <time>2022-10-23T12:08:02Z</time>
      </trkpt>
      <trkpt lat="49.05627" lon="1.95211">
        <ele>68.6</ele>
        <time>2022-10-23T12:08:08Z</time>
      </trkpt>
      <trkpt lat="49.0563" lon="1.95203">
        <ele>68.7</ele>
        <time>2022-10-23T12:08:13Z</time>
      </trkpt>
      <trkpt lat="49.05634" lon="1.95196">
        <ele>68.8</ele>
        <time>2022-10-23T12:08:18Z</time>
      </trkpt>
      <trkpt lat="49.05636" lon="1.95189">
        <ele>68.9</ele>
        <time>2022-10-23T12:08:23Z</time>
      </trkpt>
      <trkpt lat="49.05639" lon="1.95177">
        <ele>69</ele>
        <time>2022-10-23T12:08:28Z</time>
      </trkpt>
      <trkpt lat="49.05644" lon="1.95162">
        <ele>69.2</ele>
        <time>2022-10-23T12:08:34Z</time>
      </trkpt>
      <trkpt lat="49.05649" lon="1.95151">
        <ele>69.4</ele>
        <time>2022-10-23T12:08:39Z</time>
      </trkpt>
      <trkpt lat="49.05655" lon="1.95141">
        <ele>69.6</ele>
        <time>2022-10-23T12:08:44Z</time>
      </trkpt>
      <trkpt lat="49.05661" lon="1.95129">
        <ele>69.8</ele>
        <time>2022-10-23T12:08:50Z</time>
      </trkpt>
      <trkpt lat="49.05668" lon="1.95116">
        <ele>70</ele>
        <time>2022-10-23T12:08:56Z</time>
      </trkpt>
      <trkpt lat="49.05672" lon="1.95106">
        <ele>69.8</ele>
        <time>2022-10-23T12:09:01Z</time>
      </trkpt>
      <trkpt lat="49.05675" lon="1.95096">
        <ele>69.5</ele>
        <time>2022-10-23T12:09:06Z</time>
      </trkpt>
      <trkpt lat="49.05679" lon="1.95083">
        <ele>69</ele>
        <time>2022-10-23T12:09:12Z</time>
      </trkpt>
      <trkpt lat="49.05684" lon="1.95074">
        <ele>68.9</ele>
        <time>2022-10-23T12:09:17Z</time>
      </trkpt>
      <trkpt lat="49.05691" lon="1.95063">
        <ele>68.9</ele>
        <time>2022-10-23T12:09:23Z</time>
      </trkpt>
      <trkpt lat="49.05694" lon="1.95052">
        <ele>68.9</ele>
        <time>2022-10-23T12:09:28Z</time>
      </trkpt>
      <trkpt lat="49.05699" lon="1.95041">
        <ele>68.6</ele>
        <time>2022-10-23T12:09:34Z</time>
      </trkpt>
      <trkpt lat="49.05703" lon="1.95032">
        <ele>68.4</ele>
        <time>2022-10-23T12:09:40Z</time>
      </trkpt>
      <trkpt lat="49.05706" lon="1.95023">
        <ele>68.3</ele>
        <time>2022-10-23T12:09:45Z</time>
      </trkpt>
      <trkpt lat="49.05712" lon="1.95016">
        <ele>68.5</ele>
        <time>2022-10-23T12:09:50Z</time>
      </trkpt>
      <trkpt lat="49.05718" lon="1.95004">
        <ele>68.7</ele>
        <time>2022-10-23T12:09:56Z</time>
      </trkpt>
      <trkpt lat="49.05723" lon="1.94996">
        <ele>68.9</ele>
        <time>2022-10-23T12:10:01Z</time>
      </trkpt>
      <trkpt lat="49.05727" lon="1.94987">
        <ele>68.6</ele>
        <time>2022-10-23T12:10:06Z</time>
      </trkpt>
      <trkpt lat="49.05732" lon="1.94972">
        <ele>68.4</ele>
        <time>2022-10-23T12:10:12Z</time>
      </trkpt>
      <trkpt lat="49.05737" lon="1.9496">
        <ele>68.3</ele>
        <time>2022-10-23T12:10:17Z</time>
      </trkpt>
      <trkpt lat="49.05743" lon="1.94948">
        <ele>68.5</ele>
        <time>2022-10-23T12:10:23Z</time>
      </trkpt>
      <trkpt lat="49.05749" lon="1.9494">
        <ele>68.8</ele>
        <time>2022-10-23T12:10:29Z</time>
      </trkpt>
      <trkpt lat="49.05757" lon="1.94929">
        <ele>68.8</ele>
        <time>2022-10-23T12:10:35Z</time>
      </trkpt>
      <trkpt lat="49.05762" lon="1.94921">
        <ele>68.9</ele>
        <time>2022-10-23T12:10:40Z</time>
      </trkpt>
      <trkpt lat="49.05764" lon="1.94912">
        <ele>69</ele>
        <time>2022-10-23T12:10:46Z</time>
      </trkpt>
      <trkpt lat="49.05768" lon="1.949">
        <ele>69.3</ele>
        <time>2022-10-23T12:10:51Z</time>
      </trkpt>
      <trkpt lat="49.05774" lon="1.94889">
        <ele>69.7</ele>
        <time>2022-10-23T12:10:57Z</time>
      </trkpt>
      <trkpt lat="49.05781" lon="1.94879">
        <ele>70.1</ele>
        <time>2022-10-23T12:11:03Z</time>
      </trkpt>
      <trkpt lat="49.05787" lon="1.9487">
        <ele>70.3</ele>
        <time>2022-10-23T12:11:09Z</time>
      </trkpt>
      <trkpt lat="49.05795" lon="1.94858">
        <ele>70.6</ele>
        <time>2022-10-23T12:11:15Z</time>
      </trkpt>
      <trkpt lat="49.05802" lon="1.94849">
        <ele>70.8</ele>
        <time>2022-10-23T12:11:21Z</time>
      </trkpt>
      <trkpt lat="49.05808" lon="1.94842">
        <ele>71.1</ele>
        <time>2022-10-23T12:11:27Z</time>
      </trkpt>
      <trkpt lat="49.05815" lon="1.94834">
        <ele>71.3</ele>
        <time>2022-10-23T12:11:33Z</time>
      </trkpt>
      <trkpt lat="49.05821" lon="1.94828">
        <ele>71.5</ele>
        <time>2022-10-23T12:11:39Z</time>
      </trkpt>
      <trkpt lat="49.05824" lon="1.94826">
        <ele>71.7</ele>
        <time>2022-10-23T12:11:44Z</time>
      </trkpt>
      <trkpt lat="49.05823" lon="1.94826">
        <ele>71.6</ele>
        <time>2022-10-23T12:11:50Z</time>
      </trkpt>
      <trkpt lat="49.05826" lon="1.94819">
        <ele>71.7</ele>
        <time>2022-10-23T12:11:56Z</time>
      </trkpt>
      <trkpt lat="49.05831" lon="1.94812">
        <ele>71.9</ele>
        <time>2022-10-23T12:12:01Z</time>
      </trkpt>
      <trkpt lat="49.05837" lon="1.94808">
        <ele>72.2</ele>
        <time>2022-10-23T12:12:06Z</time>
      </trkpt>
      <trkpt lat="49.05843" lon="1.94801">
        <ele>72.8</ele>
        <time>2022-10-23T12:12:12Z</time>
      </trkpt>
      <trkpt lat="49.0585" lon="1.94792">
        <ele>73.1</ele>
        <time>2022-10-23T12:12:17Z</time>
      </trkpt>
      <trkpt lat="49.05856" lon="1.94783">
        <ele>73.1</ele>
        <time>2022-10-23T12:12:23Z</time>
      </trkpt>
      <trkpt lat="49.0586" lon="1.94773">
        <ele>73</ele>
        <time>2022-10-23T12:12:29Z</time>
      </trkpt>
      <trkpt lat="49.05863" lon="1.94766">
        <ele>73.1</ele>
        <time>2022-10-23T12:12:34Z</time>
      </trkpt>
      <trkpt lat="49.05863" lon="1.94765">
        <ele>73.1</ele>
        <time>2022-10-23T12:12:40Z</time>
      </trkpt>
      <trkpt lat="49.05862" lon="1.94765">
        <ele>73.1</ele>
        <time>2022-10-23T12:12:46Z</time>
      </trkpt>
      <trkpt lat="49.05863" lon="1.94767">
        <ele>73.1</ele>
        <time>2022-10-23T12:12:52Z</time>
      </trkpt>
      <trkpt lat="49.05863" lon="1.94766">
        <ele>73.1</ele>
        <time>2022-10-23T12:12:57Z</time>
      </trkpt>
      <trkpt lat="49.05863" lon="1.9476">
        <ele>73.1</ele>
        <time>2022-10-23T12:13:03Z</time>
      </trkpt>
      <trkpt lat="49.05863" lon="1.9476">
        <ele>73.1</ele>
        <time>2022-10-23T12:13:08Z</time>
      </trkpt>
      <trkpt lat="49.05863" lon="1.9476">
        <ele>73.1</ele>
        <time>2022-10-23T12:13:13Z</time>
      </trkpt>
      <trkpt lat="49.05863" lon="1.94759">
        <ele>73.1</ele>
        <time>2022-10-23T12:13:19Z</time>
      </trkpt>
      <trkpt lat="49.05863" lon="1.94759">
        <ele>73.1</ele>
        <time>2022-10-23T12:13:24Z</time>
      </trkpt>
      <trkpt lat="49.05862" lon="1.9476">
        <ele>73.1</ele>
        <time>2022-10-23T12:13:30Z</time>
      </trkpt>
      <trkpt lat="49.05861" lon="1.94759">
        <ele>73</ele>
        <time>2022-10-23T12:13:36Z</time>
      </trkpt>
      <trkpt lat="49.05861" lon="1.94759">
        <ele>73</ele>
        <time>2022-10-23T12:13:42Z</time>
      </trkpt>
      <trkpt lat="49.05861" lon="1.94758">
        <ele>73</ele>
        <time>2022-10-23T12:13:47Z</time>
      </trkpt>
      <trkpt lat="49.05863" lon="1.94752">
        <ele>73.1</ele>
        <time>2022-10-23T12:13:53Z</time>
      </trkpt>
      <trkpt lat="49.05866" lon="1.94744">
        <ele>73</ele>
        <time>2022-10-23T12:13:58Z</time>
      </trkpt>
      <trkpt lat="49.05868" lon="1.94734">
        <ele>72.7</ele>
        <time>2022-10-23T12:14:04Z</time>
      </trkpt>
      <trkpt lat="49.05873" lon="1.94723">
        <ele>72.4</ele>
        <time>2022-10-23T12:14:10Z</time>
      </trkpt>
      <trkpt lat="49.05877" lon="1.94714">
        <ele>72.6</ele>
        <time>2022-10-23T12:14:16Z</time>
      </trkpt>
      <trkpt lat="49.0588" lon="1.94706">
        <ele>72.7</ele>
        <time>2022-10-23T12:14:21Z</time>
      </trkpt>
      <trkpt lat="49.05884" lon="1.94697">
        <ele>72.8</ele>
        <time>2022-10-23T12:14:27Z</time>
      </trkpt>
      <trkpt lat="49.0589" lon="1.94688">
        <ele>72.5</ele>
        <time>2022-10-23T12:14:33Z</time>
      </trkpt>
      <trkpt lat="49.05894" lon="1.94677">
        <ele>71.8</ele>
        <time>2022-10-23T12:14:38Z</time>
      </trkpt>
      <trkpt lat="49.05899" lon="1.94667">
        <ele>71.3</ele>
        <time>2022-10-23T12:14:44Z</time>
      </trkpt>
      <trkpt lat="49.05901" lon="1.94656">
        <ele>71.2</ele>
        <time>2022-10-23T12:14:50Z</time>
      </trkpt>
      <trkpt lat="49.05904" lon="1.94645">
        <ele>71.2</ele>
        <time>2022-10-23T12:14:55Z</time>
      </trkpt>
      <trkpt lat="49.05909" lon="1.9463">
        <ele>71.2</ele>
        <time>2022-10-23T12:15:01Z</time>
      </trkpt>
      <trkpt lat="49.05913" lon="1.94618">
        <ele>71.1</ele>
        <time>2022-10-23T12:15:06Z</time>
      </trkpt>
      <trkpt lat="49.05916" lon="1.94606">
        <ele>70.8</ele>
        <time>2022-10-23T12:15:11Z</time>
      </trkpt>
      <trkpt lat="49.0592" lon="1.94593">
        <ele>70.6</ele>
        <time>2022-10-23T12:15:17Z</time>
      </trkpt>
      <trkpt lat="49.05925" lon="1.94582">
        <ele>70.5</ele>
        <time>2022-10-23T12:15:23Z</time>
      </trkpt>
      <trkpt lat="49.05929" lon="1.94572">
        <ele>70.5</ele>
        <time>2022-10-23T12:15:29Z</time>
      </trkpt>
      <trkpt lat="49.05933" lon="1.94564">
        <ele>70.5</ele>
        <time>2022-10-23T12:15:34Z</time>
      </trkpt>
      <trkpt lat="49.05938" lon="1.94551">
        <ele>70.2</ele>
        <time>2022-10-23T12:15:40Z</time>
      </trkpt>
      <trkpt lat="49.05942" lon="1.94536">
        <ele>69.5</ele>
        <time>2022-10-23T12:15:46Z</time>
      </trkpt>
      <trkpt lat="49.05948" lon="1.94525">
        <ele>69</ele>
        <time>2022-10-23T12:15:51Z</time>
      </trkpt>
      <trkpt lat="49.05952" lon="1.94514">
        <ele>68.8</ele>
        <time>2022-10-23T12:15:57Z</time>
      </trkpt>
      <trkpt lat="49.05956" lon="1.94503">
        <ele>68.5</ele>
        <time>2022-10-23T12:16:02Z</time>
      </trkpt>
      <trkpt lat="49.05959" lon="1.94495">
        <ele>68.5</ele>
        <time>2022-10-23T12:16:07Z</time>
      </trkpt>
      <trkpt lat="49.05964" lon="1.94486">
        <ele>68.5</ele>
        <time>2022-10-23T12:16:13Z</time>
      </trkpt>
      <trkpt lat="49.05968" lon="1.94475">
        <ele>68.7</ele>
        <time>2022-10-23T12:16:19Z</time>
      </trkpt>
      <trkpt lat="49.0597" lon="1.94464">
        <ele>68.6</ele>
        <time>2022-10-23T12:16:25Z</time>
      </trkpt>
      <trkpt lat="49.05974" lon="1.94455">
        <ele>68.4</ele>
        <time>2022-10-23T12:16:31Z</time>
      </trkpt>
      <trkpt lat="49.05979" lon="1.94446">
        <ele>68.3</ele>
        <time>2022-10-23T12:16:36Z</time>
      </trkpt>
      <trkpt lat="49.05984" lon="1.94437">
        <ele>68.3</ele>
        <time>2022-10-23T12:16:42Z</time>
      </trkpt>
      <trkpt lat="49.05989" lon="1.94429">
        <ele>68.4</ele>
        <time>2022-10-23T12:16:47Z</time>
      </trkpt>
      <trkpt lat="49.05995" lon="1.94421">
        <ele>68.7</ele>
        <time>2022-10-23T12:16:53Z</time>
      </trkpt>
      <trkpt lat="49.06" lon="1.94412">
        <ele>69</ele>
        <time>2022-10-23T12:16:58Z</time>
      </trkpt>
      <trkpt lat="49.06007" lon="1.94398">
        <ele>69.3</ele>
        <time>2022-10-23T12:17:04Z</time>
      </trkpt>
      <trkpt lat="49.06014" lon="1.94386">
        <ele>69.5</ele>
        <time>2022-10-23T12:17:09Z</time>
      </trkpt>
      <trkpt lat="49.0602" lon="1.94376">
        <ele>69.7</ele>
        <time>2022-10-23T12:17:14Z</time>
      </trkpt>
      <trkpt lat="49.06027" lon="1.94365">
        <ele>70</ele>
        <time>2022-10-23T12:17:20Z</time>
      </trkpt>
      <trkpt lat="49.06033" lon="1.94357">
        <ele>70</ele>
        <time>2022-10-23T12:17:25Z</time>
      </trkpt>
      <trkpt lat="49.06039" lon="1.94347">
        <ele>70.2</ele>
        <time>2022-10-23T12:17:31Z</time>
      </trkpt>
      <trkpt lat="49.06043" lon="1.9434">
        <ele>70.4</ele>
        <time>2022-10-23T12:17:36Z</time>
      </trkpt>
      <trkpt lat="49.06048" lon="1.9433">
        <ele>70.7</ele>
        <time>2022-10-23T12:17:42Z</time>
      </trkpt>
      <trkpt lat="49.06053" lon="1.94322">
        <ele>70.9</ele>
        <time>2022-10-23T12:17:48Z</time>
      </trkpt>
      <trkpt lat="49.06058" lon="1.94314">
        <ele>71.1</ele>
        <time>2022-10-23T12:17:54Z</time>
      </trkpt>
      <trkpt lat="49.06064" lon="1.94306">
        <ele>71.3</ele>
        <time>2022-10-23T12:17:59Z</time>
      </trkpt>
      <trkpt lat="49.06071" lon="1.94294">
        <ele>71.6</ele>
        <time>2022-10-23T12:18:05Z</time>
      </trkpt>
      <trkpt lat="49.06078" lon="1.94282">
        <ele>71.8</ele>
        <time>2022-10-23T12:18:10Z</time>
      </trkpt>
      <trkpt lat="49.06087" lon="1.94272">
        <ele>72.5</ele>
        <time>2022-10-23T12:18:16Z</time>
      </trkpt>
      <trkpt lat="49.06092" lon="1.94265">
        <ele>72.9</ele>
        <time>2022-10-23T12:18:21Z</time>
      </trkpt>
      <trkpt lat="49.06097" lon="1.94258">
        <ele>73.4</ele>
        <time>2022-10-23T12:18:27Z</time>
      </trkpt>
      <trkpt lat="49.06104" lon="1.94248">
        <ele>73.7</ele>
        <time>2022-10-23T12:18:33Z</time>
      </trkpt>
      <trkpt lat="49.0611" lon="1.94237">
        <ele>74</ele>
        <time>2022-10-23T12:18:38Z</time>
      </trkpt>
      <trkpt lat="49.06117" lon="1.94227">
        <ele>74.4</ele>
        <time>2022-10-23T12:18:43Z</time>
      </trkpt>
      <trkpt lat="49.06123" lon="1.94218">
        <ele>74.9</ele>
        <time>2022-10-23T12:18:48Z</time>
      </trkpt>
      <trkpt lat="49.06129" lon="1.94209">
        <ele>75.4</ele>
        <time>2022-10-23T12:18:54Z</time>
      </trkpt>
      <trkpt lat="49.06132" lon="1.94205">
        <ele>75.7</ele>
        <time>2022-10-23T12:18:59Z</time>
      </trkpt>
      <trkpt lat="49.06137" lon="1.94198">
        <ele>75.9</ele>
        <time>2022-10-23T12:19:05Z</time>
      </trkpt>
      <trkpt lat="49.06144" lon="1.94186">
        <ele>76.2</ele>
        <time>2022-10-23T12:19:11Z</time>
      </trkpt>
      <trkpt lat="49.0615" lon="1.94177">
        <ele>76.4</ele>
        <time>2022-10-23T12:19:17Z</time>
      </trkpt>
      <trkpt lat="49.06153" lon="1.94171">
        <ele>76.5</ele>
        <time>2022-10-23T12:19:22Z</time>
      </trkpt>
      <trkpt lat="49.06159" lon="1.94161">
        <ele>76.7</ele>
        <time>2022-10-23T12:19:28Z</time>
      </trkpt>
      <trkpt lat="49.06166" lon="1.94149">
        <ele>77</ele>
        <time>2022-10-23T12:19:34Z</time>
      </trkpt>
      <trkpt lat="49.06173" lon="1.94137">
        <ele>77.2</ele>
        <time>2022-10-23T12:19:40Z</time>
      </trkpt>
      <trkpt lat="49.0618" lon="1.94125">
        <ele>77.5</ele>
        <time>2022-10-23T12:19:46Z</time>
      </trkpt>
      <trkpt lat="49.06186" lon="1.94115">
        <ele>77.7</ele>
        <time>2022-10-23T12:19:51Z</time>
      </trkpt>
      <trkpt lat="49.06192" lon="1.94104">
        <ele>77.7</ele>
        <time>2022-10-23T12:19:57Z</time>
      </trkpt>
      <trkpt lat="49.06198" lon="1.94095">
        <ele>77.5</ele>
        <time>2022-10-23T12:20:02Z</time>
      </trkpt>
      <trkpt lat="49.06203" lon="1.94087">
        <ele>77.4</ele>
        <time>2022-10-23T12:20:08Z</time>
      </trkpt>
      <trkpt lat="49.06209" lon="1.94078">
        <ele>77.4</ele>
        <time>2022-10-23T12:20:14Z</time>
      </trkpt>
      <trkpt lat="49.06214" lon="1.9407">
        <ele>77.4</ele>
        <time>2022-10-23T12:20:20Z</time>
      </trkpt>
      <trkpt lat="49.06217" lon="1.94062">
        <ele>77.2</ele>
        <time>2022-10-23T12:20:25Z</time>
      </trkpt>
      <trkpt lat="49.06222" lon="1.9405">
        <ele>77</ele>
        <time>2022-10-23T12:20:31Z</time>
      </trkpt>
      <trkpt lat="49.06231" lon="1.94034">
        <ele>77</ele>
        <time>2022-10-23T12:20:39Z</time>
      </trkpt>
      <trkpt lat="49.06237" lon="1.94021">
        <ele>77</ele>
        <time>2022-10-23T12:20:45Z</time>
      </trkpt>
      <trkpt lat="49.06242" lon="1.94014">
        <ele>77</ele>
        <time>2022-10-23T12:20:50Z</time>
      </trkpt>
      <trkpt lat="49.06248" lon="1.94007">
        <ele>77</ele>
        <time>2022-10-23T12:20:55Z</time>
      </trkpt>
      <trkpt lat="49.06252" lon="1.94">
        <ele>76.9</ele>
        <time>2022-10-23T12:21:00Z</time>
      </trkpt>
      <trkpt lat="49.06256" lon="1.9399">
        <ele>76.4</ele>
        <time>2022-10-23T12:21:05Z</time>
      </trkpt>
      <trkpt lat="49.06262" lon="1.93977">
        <ele>75.7</ele>
        <time>2022-10-23T12:21:11Z</time>
      </trkpt>
      <trkpt lat="49.06268" lon="1.93969">
        <ele>75.3</ele>
        <time>2022-10-23T12:21:16Z</time>
      </trkpt>
      <trkpt lat="49.06273" lon="1.93961">
        <ele>75.1</ele>
        <time>2022-10-23T12:21:21Z</time>
      </trkpt>
      <trkpt lat="49.06276" lon="1.93953">
        <ele>75</ele>
        <time>2022-10-23T12:21:26Z</time>
      </trkpt>
      <trkpt lat="49.06282" lon="1.93942">
        <ele>74.8</ele>
        <time>2022-10-23T12:21:32Z</time>
      </trkpt>
      <trkpt lat="49.06287" lon="1.93934">
        <ele>74.3</ele>
        <time>2022-10-23T12:21:37Z</time>
      </trkpt>
      <trkpt lat="49.06294" lon="1.93923">
        <ele>73.6</ele>
        <time>2022-10-23T12:21:43Z</time>
      </trkpt>
      <trkpt lat="49.06299" lon="1.93916">
        <ele>73.2</ele>
        <time>2022-10-23T12:21:48Z</time>
      </trkpt>
      <trkpt lat="49.06305" lon="1.93907">
        <ele>73</ele>
        <time>2022-10-23T12:21:54Z</time>
      </trkpt>
      <trkpt lat="49.06312" lon="1.93897">
        <ele>72.8</ele>
        <time>2022-10-23T12:22:00Z</time>
      </trkpt>
      <trkpt lat="49.06317" lon="1.93883">
        <ele>72.4</ele>
        <time>2022-10-23T12:22:05Z</time>
      </trkpt>
      <trkpt lat="49.06323" lon="1.93871">
        <ele>71.7</ele>
        <time>2022-10-23T12:22:11Z</time>
      </trkpt>
      <trkpt lat="49.06328" lon="1.93863">
        <ele>71.3</ele>
        <time>2022-10-23T12:22:16Z</time>
      </trkpt>
      <trkpt lat="49.06333" lon="1.93855">
        <ele>70.8</ele>
        <time>2022-10-23T12:22:22Z</time>
      </trkpt>
      <trkpt lat="49.06341" lon="1.93843">
        <ele>70.4</ele>
        <time>2022-10-23T12:22:28Z</time>
      </trkpt>
      <trkpt lat="49.06347" lon="1.93834">
        <ele>70</ele>
        <time>2022-10-23T12:22:33Z</time>
      </trkpt>
      <trkpt lat="49.06354" lon="1.93826">
        <ele>69.8</ele>
        <time>2022-10-23T12:22:39Z</time>
      </trkpt>
      <trkpt lat="49.0636" lon="1.93816">
        <ele>69.4</ele>
        <time>2022-10-23T12:22:45Z</time>
      </trkpt>
      <trkpt lat="49.06367" lon="1.93809">
        <ele>68.9</ele>
        <time>2022-10-23T12:22:51Z</time>
      </trkpt>
      <trkpt lat="49.06371" lon="1.93801">
        <ele>68.5</ele>
        <time>2022-10-23T12:22:56Z</time>
      </trkpt>
      <trkpt lat="49.06378" lon="1.93791">
        <ele>67.9</ele>
        <time>2022-10-23T12:23:02Z</time>
      </trkpt>
      <trkpt lat="49.06385" lon="1.93781">
        <ele>67.3</ele>
        <time>2022-10-23T12:23:08Z</time>
      </trkpt>
      <trkpt lat="49.06391" lon="1.93771">
        <ele>66.4</ele>
        <time>2022-10-23T12:23:14Z</time>
      </trkpt>
      <trkpt lat="49.06399" lon="1.93765">
        <ele>65.5</ele>
        <time>2022-10-23T12:23:20Z</time>
      </trkpt>
      <trkpt lat="49.06407" lon="1.93756">
        <ele>64.6</ele>
        <time>2022-10-23T12:23:26Z</time>
      </trkpt>
      <trkpt lat="49.06415" lon="1.93748">
        <ele>64</ele>
        <time>2022-10-23T12:23:32Z</time>
      </trkpt>
      <trkpt lat="49.0642" lon="1.93742">
        <ele>63.6</ele>
        <time>2022-10-23T12:23:37Z</time>
      </trkpt>
      <trkpt lat="49.06424" lon="1.93735">
        <ele>63.3</ele>
        <time>2022-10-23T12:23:43Z</time>
      </trkpt>
      <trkpt lat="49.0643" lon="1.93729">
        <ele>63.1</ele>
        <time>2022-10-23T12:23:48Z</time>
      </trkpt>
      <trkpt lat="49.06433" lon="1.93722">
        <ele>63</ele>
        <time>2022-10-23T12:23:54Z</time>
      </trkpt>
      <trkpt lat="49.06432" lon="1.93718">
        <ele>63</ele>
        <time>2022-10-23T12:23:59Z</time>
      </trkpt>
      <trkpt lat="49.06432" lon="1.93718">
        <ele>63</ele>
        <time>2022-10-23T12:24:05Z</time>
      </trkpt>
      <trkpt lat="49.06432" lon="1.93718">
        <ele>63</ele>
        <time>2022-10-23T12:24:10Z</time>
      </trkpt>
      <trkpt lat="49.06429" lon="1.93713">
        <ele>63</ele>
        <time>2022-10-23T12:24:15Z</time>
      </trkpt>
      <trkpt lat="49.06424" lon="1.93706">
        <ele>62.7</ele>
        <time>2022-10-23T12:24:21Z</time>
      </trkpt>
      <trkpt lat="49.06417" lon="1.93699">
        <ele>62.2</ele>
        <time>2022-10-23T12:24:26Z</time>
      </trkpt>
      <trkpt lat="49.06409" lon="1.93689">
        <ele>61.9</ele>
        <time>2022-10-23T12:24:32Z</time>
      </trkpt>
      <trkpt lat="49.06403" lon="1.93679">
        <ele>61.7</ele>
        <time>2022-10-23T12:24:38Z</time>
      </trkpt>
      <trkpt lat="49.06396" lon="1.9367">
        <ele>61.4</ele>
        <time>2022-10-23T12:24:44Z</time>
      </trkpt>
      <trkpt lat="49.06392" lon="1.93661">
        <ele>60.9</ele>
        <time>2022-10-23T12:24:50Z</time>
      </trkpt>
      <trkpt lat="49.06387" lon="1.93651">
        <ele>60.5</ele>
        <time>2022-10-23T12:24:56Z</time>
      </trkpt>
      <trkpt lat="49.06382" lon="1.93643">
        <ele>60.2</ele>
        <time>2022-10-23T12:25:02Z</time>
      </trkpt>
      <trkpt lat="49.06377" lon="1.93636">
        <ele>60</ele>
        <time>2022-10-23T12:25:07Z</time>
      </trkpt>
      <trkpt lat="49.06369" lon="1.93623">
        <ele>59.8</ele>
        <time>2022-10-23T12:25:13Z</time>
      </trkpt>
      <trkpt lat="49.06363" lon="1.93611">
        <ele>59.1</ele>
        <time>2022-10-23T12:25:19Z</time>
      </trkpt>
      <trkpt lat="49.06359" lon="1.93604">
        <ele>59.1</ele>
        <time>2022-10-23T12:25:24Z</time>
      </trkpt>
      <trkpt lat="49.06354" lon="1.93596">
        <ele>59.2</ele>
        <time>2022-10-23T12:25:30Z</time>
      </trkpt>
      <trkpt lat="49.06348" lon="1.93586">
        <ele>59.1</ele>
        <time>2022-10-23T12:25:36Z</time>
      </trkpt>
      <trkpt lat="49.06344" lon="1.93578">
        <ele>58.9</ele>
        <time>2022-10-23T12:25:41Z</time>
      </trkpt>
      <trkpt lat="49.06339" lon="1.9357">
        <ele>58.6</ele>
        <time>2022-10-23T12:25:47Z</time>
      </trkpt>
      <trkpt lat="49.06337" lon="1.9356">
        <ele>58.3</ele>
        <time>2022-10-23T12:25:53Z</time>
      </trkpt>
      <trkpt lat="49.0633" lon="1.9355">
        <ele>58.1</ele>
        <time>2022-10-23T12:25:59Z</time>
      </trkpt>
      <trkpt lat="49.06325" lon="1.93538">
        <ele>58.1</ele>
        <time>2022-10-23T12:26:05Z</time>
      </trkpt>
      <trkpt lat="49.06321" lon="1.93526">
        <ele>57.8</ele>
        <time>2022-10-23T12:26:10Z</time>
      </trkpt>
      <trkpt lat="49.06319" lon="1.93514">
        <ele>57.5</ele>
        <time>2022-10-23T12:26:15Z</time>
      </trkpt>
      <trkpt lat="49.06319" lon="1.93504">
        <ele>57.1</ele>
        <time>2022-10-23T12:26:21Z</time>
      </trkpt>
      <trkpt lat="49.0632" lon="1.93496">
        <ele>57</ele>
        <time>2022-10-23T12:26:27Z</time>
      </trkpt>
      <trkpt lat="49.06326" lon="1.93486">
        <ele>57</ele>
        <time>2022-10-23T12:26:33Z</time>
      </trkpt>
      <trkpt lat="49.0633" lon="1.93482">
        <ele>57</ele>
        <time>2022-10-23T12:26:38Z</time>
      </trkpt>
      <trkpt lat="49.06333" lon="1.93474">
        <ele>57</ele>
        <time>2022-10-23T12:26:43Z</time>
      </trkpt>
      <trkpt lat="49.06339" lon="1.93465">
        <ele>56.7</ele>
        <time>2022-10-23T12:26:49Z</time>
      </trkpt>
      <trkpt lat="49.06346" lon="1.93461">
        <ele>56.6</ele>
        <time>2022-10-23T12:26:54Z</time>
      </trkpt>
      <trkpt lat="49.06354" lon="1.93453">
        <ele>56.4</ele>
        <time>2022-10-23T12:27:00Z</time>
      </trkpt>
      <trkpt lat="49.06362" lon="1.93446">
        <ele>56.1</ele>
        <time>2022-10-23T12:27:06Z</time>
      </trkpt>
      <trkpt lat="49.06369" lon="1.93443">
        <ele>56</ele>
        <time>2022-10-23T12:27:12Z</time>
      </trkpt>
      <trkpt lat="49.06377" lon="1.93442">
        <ele>55.9</ele>
        <time>2022-10-23T12:27:17Z</time>
      </trkpt>
      <trkpt lat="49.06383" lon="1.9344">
        <ele>55.9</ele>
        <time>2022-10-23T12:27:23Z</time>
      </trkpt>
      <trkpt lat="49.06388" lon="1.93439">
        <ele>55.8</ele>
        <time>2022-10-23T12:27:28Z</time>
      </trkpt>
      <trkpt lat="49.06397" lon="1.93436">
        <ele>56.6</ele>
        <time>2022-10-23T12:27:34Z</time>
      </trkpt>
      <trkpt lat="49.06406" lon="1.93438">
        <ele>57.8</ele>
        <time>2022-10-23T12:27:40Z</time>
      </trkpt>
      <trkpt lat="49.06413" lon="1.93435">
        <ele>58.3</ele>
        <time>2022-10-23T12:27:45Z</time>
      </trkpt>
      <trkpt lat="49.06421" lon="1.93431">
        <ele>58.9</ele>
        <time>2022-10-23T12:27:51Z</time>
      </trkpt>
      <trkpt lat="49.06428" lon="1.93425">
        <ele>59.6</ele>
        <time>2022-10-23T12:27:57Z</time>
      </trkpt>
      <trkpt lat="49.06433" lon="1.93419">
        <ele>60.3</ele>
        <time>2022-10-23T12:28:02Z</time>
      </trkpt>
      <trkpt lat="49.06438" lon="1.9341">
        <ele>60.9</ele>
        <time>2022-10-23T12:28:08Z</time>
      </trkpt>
      <trkpt lat="49.06445" lon="1.934">
        <ele>61.2</ele>
        <time>2022-10-23T12:28:14Z</time>
      </trkpt>
      <trkpt lat="49.06451" lon="1.93394">
        <ele>60.9</ele>
        <time>2022-10-23T12:28:19Z</time>
      </trkpt>
      <trkpt lat="49.06457" lon="1.93392">
        <ele>61</ele>
        <time>2022-10-23T12:28:24Z</time>
      </trkpt>
      <trkpt lat="49.06462" lon="1.93392">
        <ele>61.2</ele>
        <time>2022-10-23T12:28:30Z</time>
      </trkpt>
      <trkpt lat="49.06469" lon="1.93394">
        <ele>61.7</ele>
        <time>2022-10-23T12:28:36Z</time>
      </trkpt>
      <trkpt lat="49.06478" lon="1.93401">
        <ele>63.6</ele>
        <time>2022-10-23T12:28:42Z</time>
      </trkpt>
      <trkpt lat="49.06484" lon="1.93404">
        <ele>64.6</ele>
        <time>2022-10-23T12:28:47Z</time>
      </trkpt>
      <trkpt lat="49.0649" lon="1.93405">
        <ele>65.1</ele>
        <time>2022-10-23T12:28:52Z</time>
      </trkpt>
      <trkpt lat="49.06498" lon="1.93405">
        <ele>65.6</ele>
        <time>2022-10-23T12:28:57Z</time>
      </trkpt>
      <trkpt lat="49.06505" lon="1.93403">
        <ele>65.9</ele>
        <time>2022-10-23T12:29:03Z</time>
      </trkpt>
      <trkpt lat="49.06512" lon="1.934">
        <ele>66.1</ele>
        <time>2022-10-23T12:29:08Z</time>
      </trkpt>
      <trkpt lat="49.06521" lon="1.93394">
        <ele>66.6</ele>
        <time>2022-10-23T12:29:15Z</time>
      </trkpt>
      <trkpt lat="49.0653" lon="1.93389">
        <ele>67.2</ele>
        <time>2022-10-23T12:29:20Z</time>
      </trkpt>
      <trkpt lat="49.06538" lon="1.93385">
        <ele>67.5</ele>
        <time>2022-10-23T12:29:25Z</time>
      </trkpt>
      <trkpt lat="49.06546" lon="1.93383">
        <ele>67.9</ele>
        <time>2022-10-23T12:29:30Z</time>
      </trkpt>
      <trkpt lat="49.06555" lon="1.93382">
        <ele>68.5</ele>
        <time>2022-10-23T12:29:36Z</time>
      </trkpt>
      <trkpt lat="49.06565" lon="1.9338">
        <ele>68.9</ele>
        <time>2022-10-23T12:29:42Z</time>
      </trkpt>
      <trkpt lat="49.06573" lon="1.93378">
        <ele>69.3</ele>
        <time>2022-10-23T12:29:47Z</time>
      </trkpt>
      <trkpt lat="49.0658" lon="1.93375">
        <ele>69.8</ele>
        <time>2022-10-23T12:29:53Z</time>
      </trkpt>
      <trkpt lat="49.06588" lon="1.93374">
        <ele>70.3</ele>
        <time>2022-10-23T12:29:59Z</time>
      </trkpt>
      <trkpt lat="49.06593" lon="1.93372">
        <ele>70.7</ele>
        <time>2022-10-23T12:30:04Z</time>
      </trkpt>
      <trkpt lat="49.06602" lon="1.93369">
        <ele>71.3</ele>
        <time>2022-10-23T12:30:10Z</time>
      </trkpt>
      <trkpt lat="49.06607" lon="1.93368">
        <ele>71.7</ele>
        <time>2022-10-23T12:30:15Z</time>
      </trkpt>
      <trkpt lat="49.06614" lon="1.93365">
        <ele>72.3</ele>
        <time>2022-10-23T12:30:20Z</time>
      </trkpt>
      <trkpt lat="49.06623" lon="1.9336">
        <ele>72.9</ele>
        <time>2022-10-23T12:30:26Z</time>
      </trkpt>
      <trkpt lat="49.06631" lon="1.93358">
        <ele>73.5</ele>
        <time>2022-10-23T12:30:32Z</time>
      </trkpt>
      <trkpt lat="49.06638" lon="1.93357">
        <ele>74.1</ele>
        <time>2022-10-23T12:30:38Z</time>
      </trkpt>
      <trkpt lat="49.06646" lon="1.93352">
        <ele>75.1</ele>
        <time>2022-10-23T12:30:44Z</time>
      </trkpt>
      <trkpt lat="49.06653" lon="1.93351">
        <ele>75.9</ele>
        <time>2022-10-23T12:30:50Z</time>
      </trkpt>
      <trkpt lat="49.0666" lon="1.93349">
        <ele>76.8</ele>
        <time>2022-10-23T12:30:55Z</time>
      </trkpt>
      <trkpt lat="49.06668" lon="1.93346">
        <ele>77.6</ele>
        <time>2022-10-23T12:31:01Z</time>
      </trkpt>
      <trkpt lat="49.06673" lon="1.93342">
        <ele>78.1</ele>
        <time>2022-10-23T12:31:06Z</time>
      </trkpt>
      <trkpt lat="49.0668" lon="1.93338">
        <ele>78.8</ele>
        <time>2022-10-23T12:31:12Z</time>
      </trkpt>
      <trkpt lat="49.06688" lon="1.93333">
        <ele>79.5</ele>
        <time>2022-10-23T12:31:18Z</time>
      </trkpt>
      <trkpt lat="49.06696" lon="1.93327">
        <ele>80.4</ele>
        <time>2022-10-23T12:31:24Z</time>
      </trkpt>
      <trkpt lat="49.06703" lon="1.93321">
        <ele>81.3</ele>
        <time>2022-10-23T12:31:29Z</time>
      </trkpt>
      <trkpt lat="49.06709" lon="1.93317">
        <ele>81.9</ele>
        <time>2022-10-23T12:31:34Z</time>
      </trkpt>
      <trkpt lat="49.06716" lon="1.93312">
        <ele>82.5</ele>
        <time>2022-10-23T12:31:40Z</time>
      </trkpt>
      <trkpt lat="49.06721" lon="1.93306">
        <ele>82.9</ele>
        <time>2022-10-23T12:31:45Z</time>
      </trkpt>
      <trkpt lat="49.06726" lon="1.93304">
        <ele>83.4</ele>
        <time>2022-10-23T12:31:51Z</time>
      </trkpt>
      <trkpt lat="49.06729" lon="1.93301">
        <ele>83.8</ele>
        <time>2022-10-23T12:31:56Z</time>
      </trkpt>
      <trkpt lat="49.06733" lon="1.93291">
        <ele>84.4</ele>
        <time>2022-10-23T12:32:02Z</time>
      </trkpt>
      <trkpt lat="49.06737" lon="1.93281">
        <ele>85</ele>
        <time>2022-10-23T12:32:08Z</time>
      </trkpt>
      <trkpt lat="49.06744" lon="1.93273">
        <ele>85.7</ele>
        <time>2022-10-23T12:32:14Z</time>
      </trkpt>
      <trkpt lat="49.0675" lon="1.93264">
        <ele>86.5</ele>
        <time>2022-10-23T12:32:20Z</time>
      </trkpt>
      <trkpt lat="49.06755" lon="1.93256">
        <ele>86.8</ele>
        <time>2022-10-23T12:32:25Z</time>
      </trkpt>
      <trkpt lat="49.06761" lon="1.93247">
        <ele>87</ele>
        <time>2022-10-23T12:32:31Z</time>
      </trkpt>
      <trkpt lat="49.06765" lon="1.93238">
        <ele>87.2</ele>
        <time>2022-10-23T12:32:37Z</time>
      </trkpt>
      <trkpt lat="49.06769" lon="1.93229">
        <ele>87.5</ele>
        <time>2022-10-23T12:32:42Z</time>
      </trkpt>
      <trkpt lat="49.06777" lon="1.93221">
        <ele>88</ele>
        <time>2022-10-23T12:32:48Z</time>
      </trkpt>
      <trkpt lat="49.06782" lon="1.93214">
        <ele>88</ele>
        <time>2022-10-23T12:32:55Z</time>
      </trkpt>
      <trkpt lat="49.06783" lon="1.93212">
        <ele>88</ele>
        <time>2022-10-23T12:33:00Z</time>
      </trkpt>
      <trkpt lat="49.06787" lon="1.93217">
        <ele>88</ele>
        <time>2022-10-23T12:33:06Z</time>
      </trkpt>
      <trkpt lat="49.06792" lon="1.93224">
        <ele>88</ele>
        <time>2022-10-23T12:33:11Z</time>
      </trkpt>
      <trkpt lat="49.06799" lon="1.9323">
        <ele>87.9</ele>
        <time>2022-10-23T12:33:17Z</time>
      </trkpt>
      <trkpt lat="49.06799" lon="1.93229">
        <ele>87.9</ele>
        <time>2022-10-23T12:33:23Z</time>
      </trkpt>
      <trkpt lat="49.06797" lon="1.93228">
        <ele>87.9</ele>
        <time>2022-10-23T12:33:28Z</time>
      </trkpt>
      <trkpt lat="49.06797" lon="1.93228">
        <ele>87.9</ele>
        <time>2022-10-23T12:33:33Z</time>
      </trkpt>
      <trkpt lat="49.06796" lon="1.93228">
        <ele>87.9</ele>
        <time>2022-10-23T12:33:39Z</time>
      </trkpt>
      <trkpt lat="49.06796" lon="1.93227">
        <ele>87.9</ele>
        <time>2022-10-23T12:33:44Z</time>
      </trkpt>
      <trkpt lat="49.06792" lon="1.93228">
        <ele>87.9</ele>
        <time>2022-10-23T12:33:50Z</time>
      </trkpt>
      <trkpt lat="49.06786" lon="1.93229">
        <ele>87.8</ele>
        <time>2022-10-23T12:33:56Z</time>
      </trkpt>
      <trkpt lat="49.06781" lon="1.93222">
        <ele>88</ele>
        <time>2022-10-23T12:34:02Z</time>
      </trkpt>
      <trkpt lat="49.06779" lon="1.93218">
        <ele>88</ele>
        <time>2022-10-23T12:34:07Z</time>
      </trkpt>
      <trkpt lat="49.06775" lon="1.93212">
        <ele>87.9</ele>
        <time>2022-10-23T12:34:13Z</time>
      </trkpt>
      <trkpt lat="49.06776" lon="1.93212">
        <ele>87.9</ele>
        <time>2022-10-23T12:34:19Z</time>
      </trkpt>
      <trkpt lat="49.06775" lon="1.9321">
        <ele>87.9</ele>
        <time>2022-10-23T12:34:25Z</time>
      </trkpt>
      <trkpt lat="49.06775" lon="1.93211">
        <ele>87.9</ele>
        <time>2022-10-23T12:34:30Z</time>
      </trkpt>
      <trkpt lat="49.06775" lon="1.93211">
        <ele>87.9</ele>
        <time>2022-10-23T12:34:36Z</time>
      </trkpt>
      <trkpt lat="49.06776" lon="1.93213">
        <ele>87.9</ele>
        <time>2022-10-23T12:34:42Z</time>
      </trkpt>
      <trkpt lat="49.06776" lon="1.93213">
        <ele>87.9</ele>
        <time>2022-10-23T12:34:48Z</time>
      </trkpt>
      <trkpt lat="49.06777" lon="1.93213">
        <ele>88</ele>
        <time>2022-10-23T12:34:54Z</time>
      </trkpt>
      <trkpt lat="49.06778" lon="1.93213">
        <ele>88</ele>
        <time>2022-10-23T12:35:00Z</time>
      </trkpt>
      <trkpt lat="49.06778" lon="1.93214">
        <ele>88</ele>
        <time>2022-10-23T12:35:06Z</time>
      </trkpt>
      <trkpt lat="49.06782" lon="1.93212">
        <ele>88</ele>
        <time>2022-10-23T12:35:12Z</time>
      </trkpt>
      <trkpt lat="49.06784" lon="1.93209">
        <ele>88</ele>
        <time>2022-10-23T12:35:18Z</time>
      </trkpt>
      <trkpt lat="49.06784" lon="1.93207">
        <ele>88</ele>
        <time>2022-10-23T12:35:24Z</time>
      </trkpt>
      <trkpt lat="49.06785" lon="1.9321">
        <ele>88</ele>
        <time>2022-10-23T12:35:29Z</time>
      </trkpt>
      <trkpt lat="49.06786" lon="1.9321">
        <ele>88</ele>
        <time>2022-10-23T12:35:35Z</time>
      </trkpt>
      <trkpt lat="49.06786" lon="1.93209">
        <ele>88</ele>
        <time>2022-10-23T12:35:41Z</time>
      </trkpt>
      <trkpt lat="49.06786" lon="1.93209">
        <ele>88</ele>
        <time>2022-10-23T12:35:47Z</time>
      </trkpt>
      <trkpt lat="49.06785" lon="1.93209">
        <ele>88</ele>
        <time>2022-10-23T12:35:52Z</time>
      </trkpt>
      <trkpt lat="49.06785" lon="1.9321">
        <ele>88</ele>
        <time>2022-10-23T12:35:58Z</time>
      </trkpt>
      <trkpt lat="49.06784" lon="1.9321">
        <ele>88</ele>
        <time>2022-10-23T12:36:03Z</time>
      </trkpt>
      <trkpt lat="49.06784" lon="1.93211">
        <ele>88</ele>
        <time>2022-10-23T12:36:09Z</time>
      </trkpt>
      <trkpt lat="49.06785" lon="1.93212">
        <ele>88</ele>
        <time>2022-10-23T12:36:15Z</time>
      </trkpt>
      <trkpt lat="49.06784" lon="1.93212">
        <ele>88</ele>
        <time>2022-10-23T12:36:20Z</time>
      </trkpt>
      <trkpt lat="49.06784" lon="1.93213">
        <ele>88</ele>
        <time>2022-10-23T12:36:26Z</time>
      </trkpt>
      <trkpt lat="49.06784" lon="1.93213">
        <ele>88</ele>
        <time>2022-10-23T12:36:32Z</time>
      </trkpt>
      <trkpt lat="49.06784" lon="1.93213">
        <ele>88</ele>
        <time>2022-10-23T12:36:38Z</time>
      </trkpt>
      <trkpt lat="49.06784" lon="1.93213">
        <ele>88</ele>
        <time>2022-10-23T12:36:43Z</time>
      </trkpt>
      <trkpt lat="49.06784" lon="1.93213">
        <ele>88</ele>
        <time>2022-10-23T12:36:49Z</time>
      </trkpt>
      <trkpt lat="49.06784" lon="1.93213">
        <ele>88</ele>
        <time>2022-10-23T12:36:54Z</time>
      </trkpt>
      <trkpt lat="49.06784" lon="1.93213">
        <ele>88</ele>
        <time>2022-10-23T12:37:00Z</time>
      </trkpt>
      <trkpt lat="49.06784" lon="1.93212">
        <ele>88</ele>
        <time>2022-10-23T12:37:05Z</time>
      </trkpt>
      <trkpt lat="49.06784" lon="1.93212">
        <ele>88</ele>
        <time>2022-10-23T12:37:11Z</time>
      </trkpt>
      <trkpt lat="49.06784" lon="1.93212">
        <ele>88</ele>
        <time>2022-10-23T12:37:17Z</time>
      </trkpt>
      <trkpt lat="49.06783" lon="1.93212">
        <ele>88</ele>
        <time>2022-10-23T12:37:22Z</time>
      </trkpt>
      <trkpt lat="49.06783" lon="1.93213">
        <ele>88</ele>
        <time>2022-10-23T12:37:28Z</time>
      </trkpt>
      <trkpt lat="49.06785" lon="1.93213">
        <ele>88</ele>
        <time>2022-10-23T12:37:33Z</time>
      </trkpt>
      <trkpt lat="49.06786" lon="1.93212">
        <ele>88</ele>
        <time>2022-10-23T12:37:39Z</time>
      </trkpt>
      <trkpt lat="49.06786" lon="1.93212">
        <ele>88</ele>
        <time>2022-10-23T12:37:45Z</time>
      </trkpt>
      <trkpt lat="49.06786" lon="1.93211">
        <ele>88</ele>
        <time>2022-10-23T12:37:50Z</time>
      </trkpt>
      <trkpt lat="49.06787" lon="1.93211">
        <ele>88</ele>
        <time>2022-10-23T12:37:55Z</time>
      </trkpt>
      <trkpt lat="49.06788" lon="1.9321">
        <ele>88</ele>
        <time>2022-10-23T12:38:01Z</time>
      </trkpt>
      <trkpt lat="49.06788" lon="1.93209">
        <ele>88</ele>
        <time>2022-10-23T12:38:06Z</time>
      </trkpt>
      <trkpt lat="49.06787" lon="1.93208">
        <ele>88</ele>
        <time>2022-10-23T12:38:12Z</time>
      </trkpt>
      <trkpt lat="49.06787" lon="1.93207">
        <ele>88</ele>
        <time>2022-10-23T12:38:17Z</time>
      </trkpt>
      <trkpt lat="49.06787" lon="1.93207">
        <ele>88</ele>
        <time>2022-10-23T12:38:23Z</time>
      </trkpt>
      <trkpt lat="49.06787" lon="1.93207">
        <ele>88</ele>
        <time>2022-10-23T12:38:29Z</time>
      </trkpt>
      <trkpt lat="49.06786" lon="1.93207">
        <ele>88</ele>
        <time>2022-10-23T12:38:34Z</time>
      </trkpt>
      <trkpt lat="49.06786" lon="1.93207">
        <ele>88</ele>
        <time>2022-10-23T12:38:40Z</time>
      </trkpt>
      <trkpt lat="49.06786" lon="1.93207">
        <ele>88</ele>
        <time>2022-10-23T12:38:45Z</time>
      </trkpt>
      <trkpt lat="49.06786" lon="1.93207">
        <ele>88</ele>
        <time>2022-10-23T12:38:51Z</time>
      </trkpt>
      <trkpt lat="49.06785" lon="1.93207">
        <ele>88</ele>
        <time>2022-10-23T12:38:57Z</time>
      </trkpt>
      <trkpt lat="49.06786" lon="1.93207">
        <ele>88</ele>
        <time>2022-10-23T12:39:02Z</time>
      </trkpt>
      <trkpt lat="49.0679" lon="1.93203">
        <ele>88</ele>
        <time>2022-10-23T12:39:08Z</time>
      </trkpt>
      <trkpt lat="49.06799" lon="1.93194">
        <ele>88</ele>
        <time>2022-10-23T12:39:14Z</time>
      </trkpt>
      <trkpt lat="49.06809" lon="1.93183">
        <ele>88</ele>
        <time>2022-10-23T12:39:19Z</time>
      </trkpt>
      <trkpt lat="49.06818" lon="1.93176">
        <ele>87.7</ele>
        <time>2022-10-23T12:39:24Z</time>
      </trkpt>
      <trkpt lat="49.06824" lon="1.93169">
        <ele>87.4</ele>
        <time>2022-10-23T12:39:30Z</time>
      </trkpt>
      <trkpt lat="49.06829" lon="1.93161">
        <ele>87.2</ele>
        <time>2022-10-23T12:39:36Z</time>
      </trkpt>
      <trkpt lat="49.06832" lon="1.93154">
        <ele>87</ele>
        <time>2022-10-23T12:39:41Z</time>
      </trkpt>
      <trkpt lat="49.06835" lon="1.93149">
        <ele>86.9</ele>
        <time>2022-10-23T12:39:46Z</time>
      </trkpt>
      <trkpt lat="49.0684" lon="1.93143">
        <ele>86.8</ele>
        <time>2022-10-23T12:39:52Z</time>
      </trkpt>
      <trkpt lat="49.06845" lon="1.93136">
        <ele>86.6</ele>
        <time>2022-10-23T12:39:57Z</time>
      </trkpt>
      <trkpt lat="49.06853" lon="1.93127">
        <ele>86.3</ele>
        <time>2022-10-23T12:40:03Z</time>
      </trkpt>
      <trkpt lat="49.06858" lon="1.93122">
        <ele>86.1</ele>
        <time>2022-10-23T12:40:08Z</time>
      </trkpt>
      <trkpt lat="49.06865" lon="1.93113">
        <ele>85.9</ele>
        <time>2022-10-23T12:40:14Z</time>
      </trkpt>
      <trkpt lat="49.06872" lon="1.93104">
        <ele>85.6</ele>
        <time>2022-10-23T12:40:20Z</time>
      </trkpt>
      <trkpt lat="49.06879" lon="1.93096">
        <ele>85.4</ele>
        <time>2022-10-23T12:40:25Z</time>
      </trkpt>
      <trkpt lat="49.06884" lon="1.9309">
        <ele>85.2</ele>
        <time>2022-10-23T12:40:30Z</time>
      </trkpt>
      <trkpt lat="49.06888" lon="1.93085">
        <ele>85</ele>
        <time>2022-10-23T12:40:36Z</time>
      </trkpt>
      <trkpt lat="49.06895" lon="1.93079">
        <ele>84.4</ele>
        <time>2022-10-23T12:40:42Z</time>
      </trkpt>
      <trkpt lat="49.06901" lon="1.93074">
        <ele>83.9</ele>
        <time>2022-10-23T12:40:48Z</time>
      </trkpt>
      <trkpt lat="49.06907" lon="1.93066">
        <ele>83.5</ele>
        <time>2022-10-23T12:40:54Z</time>
      </trkpt>
      <trkpt lat="49.06914" lon="1.93057">
        <ele>83.1</ele>
        <time>2022-10-23T12:40:59Z</time>
      </trkpt>
      <trkpt lat="49.06919" lon="1.93049">
        <ele>82.8</ele>
        <time>2022-10-23T12:41:05Z</time>
      </trkpt>
      <trkpt lat="49.06926" lon="1.93043">
        <ele>82.4</ele>
        <time>2022-10-23T12:41:10Z</time>
      </trkpt>
      <trkpt lat="49.06931" lon="1.93037">
        <ele>82</ele>
        <time>2022-10-23T12:41:16Z</time>
      </trkpt>
      <trkpt lat="49.06935" lon="1.93031">
        <ele>81.7</ele>
        <time>2022-10-23T12:41:21Z</time>
      </trkpt>
      <trkpt lat="49.06942" lon="1.93023">
        <ele>81.1</ele>
        <time>2022-10-23T12:41:27Z</time>
      </trkpt>
      <trkpt lat="49.06948" lon="1.93019">
        <ele>80.8</ele>
        <time>2022-10-23T12:41:32Z</time>
      </trkpt>
      <trkpt lat="49.06953" lon="1.93014">
        <ele>80.4</ele>
        <time>2022-10-23T12:41:38Z</time>
      </trkpt>
      <trkpt lat="49.06959" lon="1.93006">
        <ele>80</ele>
        <time>2022-10-23T12:41:43Z</time>
      </trkpt>
      <trkpt lat="49.06967" lon="1.92999">
        <ele>79.4</ele>
        <time>2022-10-23T12:41:49Z</time>
      </trkpt>
      <trkpt lat="49.06971" lon="1.92996">
        <ele>79.1</ele>
        <time>2022-10-23T12:41:54Z</time>
      </trkpt>
      <trkpt lat="49.06978" lon="1.92987">
        <ele>78.8</ele>
        <time>2022-10-23T12:41:59Z</time>
      </trkpt>
      <trkpt lat="49.06987" lon="1.92978">
        <ele>78.5</ele>
        <time>2022-10-23T12:42:05Z</time>
      </trkpt>
      <trkpt lat="49.06993" lon="1.92973">
        <ele>78.3</ele>
        <time>2022-10-23T12:42:11Z</time>
      </trkpt>
      <trkpt lat="49.06997" lon="1.92967">
        <ele>78.2</ele>
        <time>2022-10-23T12:42:16Z</time>
      </trkpt>
      <trkpt lat="49.07004" lon="1.92962">
        <ele>77.7</ele>
        <time>2022-10-23T12:42:21Z</time>
      </trkpt>
      <trkpt lat="49.07011" lon="1.92954">
        <ele>77.2</ele>
        <time>2022-10-23T12:42:26Z</time>
      </trkpt>
      <trkpt lat="49.0702" lon="1.92947">
        <ele>76.6</ele>
        <time>2022-10-23T12:42:32Z</time>
      </trkpt>
      <trkpt lat="49.07026" lon="1.92941">
        <ele>76.1</ele>
        <time>2022-10-23T12:42:37Z</time>
      </trkpt>
      <trkpt lat="49.07033" lon="1.92933">
        <ele>75.7</ele>
        <time>2022-10-23T12:42:42Z</time>
      </trkpt>
      <trkpt lat="49.07038" lon="1.92927">
        <ele>75.4</ele>
        <time>2022-10-23T12:42:47Z</time>
      </trkpt>
      <trkpt lat="49.07046" lon="1.92918">
        <ele>74.7</ele>
        <time>2022-10-23T12:42:53Z</time>
      </trkpt>
      <trkpt lat="49.07052" lon="1.92912">
        <ele>74.2</ele>
        <time>2022-10-23T12:42:59Z</time>
      </trkpt>
      <trkpt lat="49.07057" lon="1.92907">
        <ele>73.9</ele>
        <time>2022-10-23T12:43:04Z</time>
      </trkpt>
      <trkpt lat="49.07063" lon="1.92896">
        <ele>73.5</ele>
        <time>2022-10-23T12:43:10Z</time>
      </trkpt>
      <trkpt lat="49.0707" lon="1.92887">
        <ele>72.9</ele>
        <time>2022-10-23T12:43:16Z</time>
      </trkpt>
      <trkpt lat="49.07076" lon="1.9288">
        <ele>72.2</ele>
        <time>2022-10-23T12:43:21Z</time>
      </trkpt>
      <trkpt lat="49.07085" lon="1.92873">
        <ele>71.3</ele>
        <time>2022-10-23T12:43:27Z</time>
      </trkpt>
      <trkpt lat="49.07092" lon="1.92866">
        <ele>70.6</ele>
        <time>2022-10-23T12:43:33Z</time>
      </trkpt>
      <trkpt lat="49.07097" lon="1.92859">
        <ele>69.9</ele>
        <time>2022-10-23T12:43:38Z</time>
      </trkpt>
      <trkpt lat="49.07106" lon="1.92851">
        <ele>68.8</ele>
        <time>2022-10-23T12:43:44Z</time>
      </trkpt>
      <trkpt lat="49.07114" lon="1.92842">
        <ele>67.3</ele>
        <time>2022-10-23T12:43:50Z</time>
      </trkpt>
      <trkpt lat="49.07122" lon="1.92833">
        <ele>66.2</ele>
        <time>2022-10-23T12:43:55Z</time>
      </trkpt>
      <trkpt lat="49.07127" lon="1.92827">
        <ele>65.8</ele>
        <time>2022-10-23T12:44:00Z</time>
      </trkpt>
      <trkpt lat="49.07134" lon="1.9282">
        <ele>65.3</ele>
        <time>2022-10-23T12:44:06Z</time>
      </trkpt>
      <trkpt lat="49.07139" lon="1.92813">
        <ele>65</ele>
        <time>2022-10-23T12:44:11Z</time>
      </trkpt>
      <trkpt lat="49.07146" lon="1.92804">
        <ele>64.1</ele>
        <time>2022-10-23T12:44:16Z</time>
      </trkpt>
      <trkpt lat="49.07154" lon="1.92793">
        <ele>63</ele>
        <time>2022-10-23T12:44:22Z</time>
      </trkpt>
      <trkpt lat="49.07162" lon="1.92782">
        <ele>62.8</ele>
        <time>2022-10-23T12:44:28Z</time>
      </trkpt>
      <trkpt lat="49.07168" lon="1.92775">
        <ele>62.9</ele>
        <time>2022-10-23T12:44:33Z</time>
      </trkpt>
      <trkpt lat="49.07174" lon="1.9277">
        <ele>62.6</ele>
        <time>2022-10-23T12:44:39Z</time>
      </trkpt>
      <trkpt lat="49.0718" lon="1.92765">
        <ele>62.5</ele>
        <time>2022-10-23T12:44:44Z</time>
      </trkpt>
      <trkpt lat="49.07189" lon="1.92758">
        <ele>62.6</ele>
        <time>2022-10-23T12:44:50Z</time>
      </trkpt>
      <trkpt lat="49.07196" lon="1.92747">
        <ele>63</ele>
        <time>2022-10-23T12:44:55Z</time>
      </trkpt>
      <trkpt lat="49.07202" lon="1.9274">
        <ele>63.3</ele>
        <time>2022-10-23T12:45:00Z</time>
      </trkpt>
      <trkpt lat="49.07208" lon="1.92731">
        <ele>63.5</ele>
        <time>2022-10-23T12:45:06Z</time>
      </trkpt>
      <trkpt lat="49.07215" lon="1.92723">
        <ele>63.7</ele>
        <time>2022-10-23T12:45:12Z</time>
      </trkpt>
      <trkpt lat="49.07221" lon="1.92714">
        <ele>64</ele>
        <time>2022-10-23T12:45:18Z</time>
      </trkpt>
      <trkpt lat="49.07229" lon="1.92705">
        <ele>64</ele>
        <time>2022-10-23T12:45:24Z</time>
      </trkpt>
      <trkpt lat="49.07235" lon="1.92697">
        <ele>64</ele>
        <time>2022-10-23T12:45:29Z</time>
      </trkpt>
      <trkpt lat="49.07242" lon="1.92688">
        <ele>64.2</ele>
        <time>2022-10-23T12:45:35Z</time>
      </trkpt>
      <trkpt lat="49.07248" lon="1.9268">
        <ele>64.5</ele>
        <time>2022-10-23T12:45:40Z</time>
      </trkpt>
      <trkpt lat="49.07254" lon="1.92672">
        <ele>65.1</ele>
        <time>2022-10-23T12:45:46Z</time>
      </trkpt>
      <trkpt lat="49.07261" lon="1.92666">
        <ele>65.8</ele>
        <time>2022-10-23T12:45:51Z</time>
      </trkpt>
      <trkpt lat="49.07268" lon="1.92659">
        <ele>66.4</ele>
        <time>2022-10-23T12:45:57Z</time>
      </trkpt>
      <trkpt lat="49.07273" lon="1.9265">
        <ele>66.8</ele>
        <time>2022-10-23T12:46:02Z</time>
      </trkpt>
      <trkpt lat="49.0728" lon="1.92641">
        <ele>67.1</ele>
        <time>2022-10-23T12:46:08Z</time>
      </trkpt>
      <trkpt lat="49.07284" lon="1.92636">
        <ele>67.3</ele>
        <time>2022-10-23T12:46:13Z</time>
      </trkpt>
      <trkpt lat="49.07289" lon="1.92625">
        <ele>67.9</ele>
        <time>2022-10-23T12:46:19Z</time>
      </trkpt>
      <trkpt lat="49.07297" lon="1.92616">
        <ele>68.5</ele>
        <time>2022-10-23T12:46:25Z</time>
      </trkpt>
      <trkpt lat="49.07303" lon="1.9261">
        <ele>68.9</ele>
        <time>2022-10-23T12:46:31Z</time>
      </trkpt>
      <trkpt lat="49.07309" lon="1.92603">
        <ele>69.1</ele>
        <time>2022-10-23T12:46:36Z</time>
      </trkpt>
      <trkpt lat="49.07314" lon="1.92595">
        <ele>69.3</ele>
        <time>2022-10-23T12:46:42Z</time>
      </trkpt>
      <trkpt lat="49.07319" lon="1.92587">
        <ele>69.5</ele>
        <time>2022-10-23T12:46:47Z</time>
      </trkpt>
      <trkpt lat="49.07327" lon="1.92578">
        <ele>69.8</ele>
        <time>2022-10-23T12:46:53Z</time>
      </trkpt>
      <trkpt lat="49.07335" lon="1.92574">
        <ele>70.1</ele>
        <time>2022-10-23T12:46:59Z</time>
      </trkpt>
      <trkpt lat="49.0734" lon="1.92569">
        <ele>70.2</ele>
        <time>2022-10-23T12:47:04Z</time>
      </trkpt>
      <trkpt lat="49.07345" lon="1.92558">
        <ele>70.4</ele>
        <time>2022-10-23T12:47:10Z</time>
      </trkpt>
      <trkpt lat="49.07346" lon="1.9255">
        <ele>70.6</ele>
        <time>2022-10-23T12:47:15Z</time>
      </trkpt>
      <trkpt lat="49.0735" lon="1.92539">
        <ele>70.8</ele>
        <time>2022-10-23T12:47:21Z</time>
      </trkpt>
      <trkpt lat="49.07353" lon="1.92529">
        <ele>71</ele>
        <time>2022-10-23T12:47:26Z</time>
      </trkpt>
      <trkpt lat="49.07355" lon="1.92521">
        <ele>71.2</ele>
        <time>2022-10-23T12:47:31Z</time>
      </trkpt>
      <trkpt lat="49.07359" lon="1.92508">
        <ele>71.6</ele>
        <time>2022-10-23T12:47:37Z</time>
      </trkpt>
      <trkpt lat="49.07361" lon="1.92498">
        <ele>72</ele>
        <time>2022-10-23T12:47:43Z</time>
      </trkpt>
      <trkpt lat="49.07363" lon="1.9249">
        <ele>72</ele>
        <time>2022-10-23T12:47:48Z</time>
      </trkpt>
      <trkpt lat="49.07368" lon="1.92478">
        <ele>72</ele>
        <time>2022-10-23T12:47:54Z</time>
      </trkpt>
      <trkpt lat="49.07372" lon="1.92469">
        <ele>72.1</ele>
        <time>2022-10-23T12:47:59Z</time>
      </trkpt>
      <trkpt lat="49.07376" lon="1.92458">
        <ele>72.3</ele>
        <time>2022-10-23T12:48:05Z</time>
      </trkpt>
      <trkpt lat="49.07377" lon="1.92447">
        <ele>72.5</ele>
        <time>2022-10-23T12:48:10Z</time>
      </trkpt>
      <trkpt lat="49.0738" lon="1.92438">
        <ele>72.8</ele>
        <time>2022-10-23T12:48:16Z</time>
      </trkpt>
      <trkpt lat="49.07382" lon="1.92426">
        <ele>72.9</ele>
        <time>2022-10-23T12:48:22Z</time>
      </trkpt>
      <trkpt lat="49.07384" lon="1.92415">
        <ele>73</ele>
        <time>2022-10-23T12:48:27Z</time>
      </trkpt>
      <trkpt lat="49.07386" lon="1.924">
        <ele>73</ele>
        <time>2022-10-23T12:48:33Z</time>
      </trkpt>
      <trkpt lat="49.07388" lon="1.92387">
        <ele>73.1</ele>
        <time>2022-10-23T12:48:38Z</time>
      </trkpt>
      <trkpt lat="49.07392" lon="1.92376">
        <ele>73.5</ele>
        <time>2022-10-23T12:48:44Z</time>
      </trkpt>
      <trkpt lat="49.07397" lon="1.92364">
        <ele>73.9</ele>
        <time>2022-10-23T12:48:50Z</time>
      </trkpt>
      <trkpt lat="49.07399" lon="1.92353">
        <ele>74</ele>
        <time>2022-10-23T12:48:55Z</time>
      </trkpt>
      <trkpt lat="49.07403" lon="1.9234">
        <ele>74</ele>
        <time>2022-10-23T12:49:01Z</time>
      </trkpt>
      <trkpt lat="49.07405" lon="1.92332">
        <ele>74</ele>
        <time>2022-10-23T12:49:06Z</time>
      </trkpt>
      <trkpt lat="49.07406" lon="1.92321">
        <ele>74.2</ele>
        <time>2022-10-23T12:49:11Z</time>
      </trkpt>
      <trkpt lat="49.07408" lon="1.92306">
        <ele>74.3</ele>
        <time>2022-10-23T12:49:17Z</time>
      </trkpt>
      <trkpt lat="49.07411" lon="1.92299">
        <ele>74.4</ele>
        <time>2022-10-23T12:49:23Z</time>
      </trkpt>
      <trkpt lat="49.07413" lon="1.92289">
        <ele>74.6</ele>
        <time>2022-10-23T12:49:28Z</time>
      </trkpt>
      <trkpt lat="49.07416" lon="1.92274">
        <ele>75</ele>
        <time>2022-10-23T12:49:34Z</time>
      </trkpt>
      <trkpt lat="49.07418" lon="1.92258">
        <ele>75</ele>
        <time>2022-10-23T12:49:40Z</time>
      </trkpt>
      <trkpt lat="49.0742" lon="1.92244">
        <ele>75.2</ele>
        <time>2022-10-23T12:49:46Z</time>
      </trkpt>
      <trkpt lat="49.07423" lon="1.92232">
        <ele>75.5</ele>
        <time>2022-10-23T12:49:51Z</time>
      </trkpt>
      <trkpt lat="49.07425" lon="1.92221">
        <ele>75.7</ele>
        <time>2022-10-23T12:49:56Z</time>
      </trkpt>
      <trkpt lat="49.07428" lon="1.9221">
        <ele>75.6</ele>
        <time>2022-10-23T12:50:02Z</time>
      </trkpt>
      <trkpt lat="49.0743" lon="1.922">
        <ele>75.5</ele>
        <time>2022-10-23T12:50:07Z</time>
      </trkpt>
      <trkpt lat="49.07433" lon="1.92188">
        <ele>75.6</ele>
        <time>2022-10-23T12:50:12Z</time>
      </trkpt>
      <trkpt lat="49.07437" lon="1.92173">
        <ele>75.8</ele>
        <time>2022-10-23T12:50:18Z</time>
      </trkpt>
      <trkpt lat="49.07439" lon="1.92159">
        <ele>76</ele>
        <time>2022-10-23T12:50:24Z</time>
      </trkpt>
      <trkpt lat="49.07442" lon="1.92148">
        <ele>76</ele>
        <time>2022-10-23T12:50:29Z</time>
      </trkpt>
      <trkpt lat="49.07445" lon="1.92137">
        <ele>76</ele>
        <time>2022-10-23T12:50:34Z</time>
      </trkpt>
      <trkpt lat="49.07447" lon="1.92126">
        <ele>76</ele>
        <time>2022-10-23T12:50:39Z</time>
      </trkpt>
      <trkpt lat="49.0745" lon="1.92112">
        <ele>76</ele>
        <time>2022-10-23T12:50:45Z</time>
      </trkpt>
      <trkpt lat="49.07453" lon="1.92101">
        <ele>76</ele>
        <time>2022-10-23T12:50:50Z</time>
      </trkpt>
      <trkpt lat="49.07457" lon="1.9209">
        <ele>76</ele>
        <time>2022-10-23T12:50:55Z</time>
      </trkpt>
      <trkpt lat="49.0746" lon="1.92079">
        <ele>76.1</ele>
        <time>2022-10-23T12:51:00Z</time>
      </trkpt>
      <trkpt lat="49.07465" lon="1.92067">
        <ele>76.2</ele>
        <time>2022-10-23T12:51:06Z</time>
      </trkpt>
      <trkpt lat="49.07467" lon="1.92056">
        <ele>76.2</ele>
        <time>2022-10-23T12:51:11Z</time>
      </trkpt>
      <trkpt lat="49.07469" lon="1.92042">
        <ele>76.1</ele>
        <time>2022-10-23T12:51:17Z</time>
      </trkpt>
      <trkpt lat="49.07471" lon="1.92029">
        <ele>76</ele>
        <time>2022-10-23T12:51:23Z</time>
      </trkpt>
      <trkpt lat="49.07474" lon="1.92015">
        <ele>76</ele>
        <time>2022-10-23T12:51:29Z</time>
      </trkpt>
      <trkpt lat="49.07477" lon="1.92003">
        <ele>76</ele>
        <time>2022-10-23T12:51:34Z</time>
      </trkpt>
      <trkpt lat="49.0748" lon="1.91988">
        <ele>76.3</ele>
        <time>2022-10-23T12:51:40Z</time>
      </trkpt>
      <trkpt lat="49.07485" lon="1.91973">
        <ele>76.5</ele>
        <time>2022-10-23T12:51:46Z</time>
      </trkpt>
      <trkpt lat="49.0749" lon="1.91956">
        <ele>76.4</ele>
        <time>2022-10-23T12:51:52Z</time>
      </trkpt>
      <trkpt lat="49.07495" lon="1.91941">
        <ele>76.3</ele>
        <time>2022-10-23T12:51:58Z</time>
      </trkpt>
      <trkpt lat="49.07499" lon="1.9193">
        <ele>76.5</ele>
        <time>2022-10-23T12:52:03Z</time>
      </trkpt>
      <trkpt lat="49.07504" lon="1.91916">
        <ele>76.9</ele>
        <time>2022-10-23T12:52:09Z</time>
      </trkpt>
      <trkpt lat="49.07508" lon="1.91905">
        <ele>76.7</ele>
        <time>2022-10-23T12:52:14Z</time>
      </trkpt>
      <trkpt lat="49.07512" lon="1.91895">
        <ele>76.6</ele>
        <time>2022-10-23T12:52:19Z</time>
      </trkpt>
      <trkpt lat="49.07516" lon="1.91883">
        <ele>76.4</ele>
        <time>2022-10-23T12:52:25Z</time>
      </trkpt>
      <trkpt lat="49.0752" lon="1.91874">
        <ele>76.3</ele>
        <time>2022-10-23T12:52:30Z</time>
      </trkpt>
      <trkpt lat="49.07524" lon="1.91866">
        <ele>76.1</ele>
        <time>2022-10-23T12:52:35Z</time>
      </trkpt>
      <trkpt lat="49.07529" lon="1.91854">
        <ele>76.2</ele>
        <time>2022-10-23T12:52:41Z</time>
      </trkpt>
      <trkpt lat="49.07533" lon="1.91842">
        <ele>76.4</ele>
        <time>2022-10-23T12:52:47Z</time>
      </trkpt>
      <trkpt lat="49.07538" lon="1.91831">
        <ele>76.3</ele>
        <time>2022-10-23T12:52:52Z</time>
      </trkpt>
      <trkpt lat="49.07543" lon="1.91819">
        <ele>76.2</ele>
        <time>2022-10-23T12:52:58Z</time>
      </trkpt>
      <trkpt lat="49.07548" lon="1.91809">
        <ele>76.2</ele>
        <time>2022-10-23T12:53:03Z</time>
      </trkpt>
      <trkpt lat="49.07553" lon="1.91796">
        <ele>76.1</ele>
        <time>2022-10-23T12:53:09Z</time>
      </trkpt>
      <trkpt lat="49.07558" lon="1.91782">
        <ele>75.8</ele>
        <time>2022-10-23T12:53:15Z</time>
      </trkpt>
      <trkpt lat="49.07562" lon="1.91769">
        <ele>75.5</ele>
        <time>2022-10-23T12:53:21Z</time>
      </trkpt>
      <trkpt lat="49.07565" lon="1.9176">
        <ele>75.3</ele>
        <time>2022-10-23T12:53:26Z</time>
      </trkpt>
      <trkpt lat="49.07569" lon="1.91748">
        <ele>75</ele>
        <time>2022-10-23T12:53:32Z</time>
      </trkpt>
      <trkpt lat="49.07572" lon="1.91737">
        <ele>74.8</ele>
        <time>2022-10-23T12:53:37Z</time>
      </trkpt>
      <trkpt lat="49.07577" lon="1.91724">
        <ele>74.5</ele>
        <time>2022-10-23T12:53:43Z</time>
      </trkpt>
      <trkpt lat="49.07581" lon="1.91714">
        <ele>74.1</ele>
        <time>2022-10-23T12:53:48Z</time>
      </trkpt>
      <trkpt lat="49.07585" lon="1.91702">
        <ele>73.9</ele>
        <time>2022-10-23T12:53:54Z</time>
      </trkpt>
      <trkpt lat="49.0759" lon="1.91691">
        <ele>73.5</ele>
        <time>2022-10-23T12:54:00Z</time>
      </trkpt>
      <trkpt lat="49.07593" lon="1.9168">
        <ele>73.5</ele>
        <time>2022-10-23T12:54:05Z</time>
      </trkpt>
      <trkpt lat="49.07596" lon="1.91667">
        <ele>73.5</ele>
        <time>2022-10-23T12:54:11Z</time>
      </trkpt>
      <trkpt lat="49.076" lon="1.91657">
        <ele>73.5</ele>
        <time>2022-10-23T12:54:16Z</time>
      </trkpt>
      <trkpt lat="49.07604" lon="1.91643">
        <ele>73.4</ele>
        <time>2022-10-23T12:54:22Z</time>
      </trkpt>
      <trkpt lat="49.07608" lon="1.91632">
        <ele>73.2</ele>
        <time>2022-10-23T12:54:27Z</time>
      </trkpt>
      <trkpt lat="49.07611" lon="1.91624">
        <ele>73</ele>
        <time>2022-10-23T12:54:32Z</time>
      </trkpt>
      <trkpt lat="49.07615" lon="1.91614">
        <ele>72.7</ele>
        <time>2022-10-23T12:54:38Z</time>
      </trkpt>
      <trkpt lat="49.07618" lon="1.91603">
        <ele>72.5</ele>
        <time>2022-10-23T12:54:43Z</time>
      </trkpt>
      <trkpt lat="49.07622" lon="1.91589">
        <ele>72.2</ele>
        <time>2022-10-23T12:54:49Z</time>
      </trkpt>
      <trkpt lat="49.07626" lon="1.9158">
        <ele>72</ele>
        <time>2022-10-23T12:54:54Z</time>
      </trkpt>
      <trkpt lat="49.0763" lon="1.91569">
        <ele>72</ele>
        <time>2022-10-23T12:55:00Z</time>
      </trkpt>
      <trkpt lat="49.07633" lon="1.91556">
        <ele>72.2</ele>
        <time>2022-10-23T12:55:05Z</time>
      </trkpt>
      <trkpt lat="49.07637" lon="1.91546">
        <ele>72.1</ele>
        <time>2022-10-23T12:55:11Z</time>
      </trkpt>
      <trkpt lat="49.0764" lon="1.91536">
        <ele>71.9</ele>
        <time>2022-10-23T12:55:16Z</time>
      </trkpt>
      <trkpt lat="49.07644" lon="1.91523">
        <ele>71.7</ele>
        <time>2022-10-23T12:55:22Z</time>
      </trkpt>
      <trkpt lat="49.07646" lon="1.91513">
        <ele>71.6</ele>
        <time>2022-10-23T12:55:27Z</time>
      </trkpt>
      <trkpt lat="49.07651" lon="1.91501">
        <ele>71.6</ele>
        <time>2022-10-23T12:55:33Z</time>
      </trkpt>
      <trkpt lat="49.07656" lon="1.91489">
        <ele>71.4</ele>
        <time>2022-10-23T12:55:38Z</time>
      </trkpt>
      <trkpt lat="49.07659" lon="1.91479">
        <ele>71.3</ele>
        <time>2022-10-23T12:55:43Z</time>
      </trkpt>
      <trkpt lat="49.07663" lon="1.91467">
        <ele>71.3</ele>
        <time>2022-10-23T12:55:49Z</time>
      </trkpt>
      <trkpt lat="49.07667" lon="1.91457">
        <ele>71.5</ele>
        <time>2022-10-23T12:55:54Z</time>
      </trkpt>
      <trkpt lat="49.07671" lon="1.91445">
        <ele>71.7</ele>
        <time>2022-10-23T12:56:00Z</time>
      </trkpt>
      <trkpt lat="49.07673" lon="1.91437">
        <ele>71.5</ele>
        <time>2022-10-23T12:56:05Z</time>
      </trkpt>
      <trkpt lat="49.07678" lon="1.91427">
        <ele>71.2</ele>
        <time>2022-10-23T12:56:11Z</time>
      </trkpt>
      <trkpt lat="49.07682" lon="1.91418">
        <ele>70.9</ele>
        <time>2022-10-23T12:56:16Z</time>
      </trkpt>
      <trkpt lat="49.0769" lon="1.91408">
        <ele>70.6</ele>
        <time>2022-10-23T12:56:22Z</time>
      </trkpt>
      <trkpt lat="49.07696" lon="1.91398">
        <ele>70.6</ele>
        <time>2022-10-23T12:56:27Z</time>
      </trkpt>
      <trkpt lat="49.07702" lon="1.91388">
        <ele>70.7</ele>
        <time>2022-10-23T12:56:32Z</time>
      </trkpt>
      <trkpt lat="49.07709" lon="1.91378">
        <ele>70.5</ele>
        <time>2022-10-23T12:56:38Z</time>
      </trkpt>
      <trkpt lat="49.07714" lon="1.91369">
        <ele>70.3</ele>
        <time>2022-10-23T12:56:43Z</time>
      </trkpt>
      <trkpt lat="49.0772" lon="1.9136">
        <ele>70.1</ele>
        <time>2022-10-23T12:56:49Z</time>
      </trkpt>
      <trkpt lat="49.07725" lon="1.91353">
        <ele>70</ele>
        <time>2022-10-23T12:56:54Z</time>
      </trkpt>
      <trkpt lat="49.07732" lon="1.91347">
        <ele>70</ele>
        <time>2022-10-23T12:57:00Z</time>
      </trkpt>
      <trkpt lat="49.07738" lon="1.9134">
        <ele>70</ele>
        <time>2022-10-23T12:57:05Z</time>
      </trkpt>
      <trkpt lat="49.07745" lon="1.91332">
        <ele>70</ele>
        <time>2022-10-23T12:57:11Z</time>
      </trkpt>
      <trkpt lat="49.0775" lon="1.91326">
        <ele>70</ele>
        <time>2022-10-23T12:57:16Z</time>
      </trkpt>
      <trkpt lat="49.07755" lon="1.9132">
        <ele>69.9</ele>
        <time>2022-10-23T12:57:22Z</time>
      </trkpt>
      <trkpt lat="49.07762" lon="1.91313">
        <ele>69.9</ele>
        <time>2022-10-23T12:57:28Z</time>
      </trkpt>
      <trkpt lat="49.0777" lon="1.91308">
        <ele>69.9</ele>
        <time>2022-10-23T12:57:34Z</time>
      </trkpt>
      <trkpt lat="49.07778" lon="1.91299">
        <ele>70</ele>
        <time>2022-10-23T12:57:40Z</time>
      </trkpt>
      <trkpt lat="49.07788" lon="1.9129">
        <ele>70</ele>
        <time>2022-10-23T12:57:46Z</time>
      </trkpt>
      <trkpt lat="49.07797" lon="1.91284">
        <ele>70</ele>
        <time>2022-10-23T12:57:52Z</time>
      </trkpt>
      <trkpt lat="49.07804" lon="1.91277">
        <ele>70</ele>
        <time>2022-10-23T12:57:58Z</time>
      </trkpt>
      <trkpt lat="49.0781" lon="1.9127">
        <ele>69.9</ele>
        <time>2022-10-23T12:58:03Z</time>
      </trkpt>
      <trkpt lat="49.07819" lon="1.91263">
        <ele>69.8</ele>
        <time>2022-10-23T12:58:09Z</time>
      </trkpt>
      <trkpt lat="49.07826" lon="1.91257">
        <ele>69.8</ele>
        <time>2022-10-23T12:58:14Z</time>
      </trkpt>
      <trkpt lat="49.07835" lon="1.91252">
        <ele>69.9</ele>
        <time>2022-10-23T12:58:20Z</time>
      </trkpt>
      <trkpt lat="49.07841" lon="1.91244">
        <ele>70</ele>
        <time>2022-10-23T12:58:26Z</time>
      </trkpt>
      <trkpt lat="49.07847" lon="1.91238">
        <ele>70</ele>
        <time>2022-10-23T12:58:31Z</time>
      </trkpt>
      <trkpt lat="49.07853" lon="1.91232">
        <ele>70</ele>
        <time>2022-10-23T12:58:36Z</time>
      </trkpt>
      <trkpt lat="49.07858" lon="1.91226">
        <ele>70</ele>
        <time>2022-10-23T12:58:41Z</time>
      </trkpt>
      <trkpt lat="49.07865" lon="1.91219">
        <ele>70</ele>
        <time>2022-10-23T12:58:47Z</time>
      </trkpt>
      <trkpt lat="49.07871" lon="1.91213">
        <ele>70</ele>
        <time>2022-10-23T12:58:52Z</time>
      </trkpt>
      <trkpt lat="49.07879" lon="1.91206">
        <ele>70</ele>
        <time>2022-10-23T12:58:58Z</time>
      </trkpt>
      <trkpt lat="49.07887" lon="1.91198">
        <ele>70</ele>
        <time>2022-10-23T12:59:04Z</time>
      </trkpt>
      <trkpt lat="49.07896" lon="1.91188">
        <ele>70</ele>
        <time>2022-10-23T12:59:10Z</time>
      </trkpt>
      <trkpt lat="49.07904" lon="1.91182">
        <ele>70</ele>
        <time>2022-10-23T12:59:15Z</time>
      </trkpt>
      <trkpt lat="49.07913" lon="1.91175">
        <ele>70</ele>
        <time>2022-10-23T12:59:21Z</time>
      </trkpt>
      <trkpt lat="49.0792" lon="1.91169">
        <ele>70</ele>
        <time>2022-10-23T12:59:26Z</time>
      </trkpt>
      <trkpt lat="49.07927" lon="1.91163">
        <ele>70.1</ele>
        <time>2022-10-23T12:59:31Z</time>
      </trkpt>
      <trkpt lat="49.07935" lon="1.91156">
        <ele>70.1</ele>
        <time>2022-10-23T12:59:37Z</time>
      </trkpt>
      <trkpt lat="49.07941" lon="1.9115">
        <ele>70.1</ele>
        <time>2022-10-23T12:59:42Z</time>
      </trkpt>
      <trkpt lat="49.07949" lon="1.91142">
        <ele>70.2</ele>
        <time>2022-10-23T12:59:48Z</time>
      </trkpt>
      <trkpt lat="49.07956" lon="1.91138">
        <ele>70.4</ele>
        <time>2022-10-23T12:59:53Z</time>
      </trkpt>
      <trkpt lat="49.07962" lon="1.91131">
        <ele>70.7</ele>
        <time>2022-10-23T12:59:58Z</time>
      </trkpt>
      <trkpt lat="49.0797" lon="1.91124">
        <ele>71</ele>
        <time>2022-10-23T13:00:04Z</time>
      </trkpt>
      <trkpt lat="49.07978" lon="1.91115">
        <ele>71</ele>
        <time>2022-10-23T13:00:10Z</time>
      </trkpt>
      <trkpt lat="49.07982" lon="1.91108">
        <ele>71</ele>
        <time>2022-10-23T13:00:15Z</time>
      </trkpt>
      <trkpt lat="49.07991" lon="1.911">
        <ele>71.3</ele>
        <time>2022-10-23T13:00:21Z</time>
      </trkpt>
      <trkpt lat="49.07997" lon="1.91092">
        <ele>71.6</ele>
        <time>2022-10-23T13:00:26Z</time>
      </trkpt>
      <trkpt lat="49.08003" lon="1.91081">
        <ele>72</ele>
        <time>2022-10-23T13:00:32Z</time>
      </trkpt>
      <trkpt lat="49.0801" lon="1.91074">
        <ele>72.1</ele>
        <time>2022-10-23T13:00:37Z</time>
      </trkpt>
      <trkpt lat="49.08015" lon="1.91065">
        <ele>72.4</ele>
        <time>2022-10-23T13:00:42Z</time>
      </trkpt>
      <trkpt lat="49.08022" lon="1.91055">
        <ele>72.8</ele>
        <time>2022-10-23T13:00:48Z</time>
      </trkpt>
      <trkpt lat="49.08027" lon="1.91047">
        <ele>73</ele>
        <time>2022-10-23T13:00:53Z</time>
      </trkpt>
      <trkpt lat="49.08033" lon="1.91037">
        <ele>72.8</ele>
        <time>2022-10-23T13:00:59Z</time>
      </trkpt>
      <trkpt lat="49.08039" lon="1.9103">
        <ele>72.6</ele>
        <time>2022-10-23T13:01:04Z</time>
      </trkpt>
      <trkpt lat="49.08042" lon="1.9102">
        <ele>72.6</ele>
        <time>2022-10-23T13:01:09Z</time>
      </trkpt>
      <trkpt lat="49.08048" lon="1.91009">
        <ele>72.8</ele>
        <time>2022-10-23T13:01:15Z</time>
      </trkpt>
      <trkpt lat="49.08054" lon="1.91002">
        <ele>72.9</ele>
        <time>2022-10-23T13:01:20Z</time>
      </trkpt>
      <trkpt lat="49.0806" lon="1.90995">
        <ele>73</ele>
        <time>2022-10-23T13:01:26Z</time>
      </trkpt>
      <trkpt lat="49.08067" lon="1.90985">
        <ele>73</ele>
        <time>2022-10-23T13:01:32Z</time>
      </trkpt>
      <trkpt lat="49.08071" lon="1.90974">
        <ele>73</ele>
        <time>2022-10-23T13:01:38Z</time>
      </trkpt>
      <trkpt lat="49.08074" lon="1.90964">
        <ele>73.3</ele>
        <time>2022-10-23T13:01:44Z</time>
      </trkpt>
      <trkpt lat="49.08081" lon="1.90953">
        <ele>73.7</ele>
        <time>2022-10-23T13:01:50Z</time>
      </trkpt>
      <trkpt lat="49.08085" lon="1.90942">
        <ele>74</ele>
        <time>2022-10-23T13:01:56Z</time>
      </trkpt>
      <trkpt lat="49.08089" lon="1.9093">
        <ele>74</ele>
        <time>2022-10-23T13:02:02Z</time>
      </trkpt>
      <trkpt lat="49.08093" lon="1.90921">
        <ele>74</ele>
        <time>2022-10-23T13:02:07Z</time>
      </trkpt>
      <trkpt lat="49.08097" lon="1.90907">
        <ele>74.3</ele>
        <time>2022-10-23T13:02:13Z</time>
      </trkpt>
      <trkpt lat="49.08101" lon="1.90899">
        <ele>74.6</ele>
        <time>2022-10-23T13:02:18Z</time>
      </trkpt>
      <trkpt lat="49.08104" lon="1.90887">
        <ele>75</ele>
        <time>2022-10-23T13:02:24Z</time>
      </trkpt>
      <trkpt lat="49.08108" lon="1.90876">
        <ele>75</ele>
        <time>2022-10-23T13:02:29Z</time>
      </trkpt>
      <trkpt lat="49.08114" lon="1.90865">
        <ele>75</ele>
        <time>2022-10-23T13:02:35Z</time>
      </trkpt>
      <trkpt lat="49.08117" lon="1.90855">
        <ele>75.2</ele>
        <time>2022-10-23T13:02:40Z</time>
      </trkpt>
      <trkpt lat="49.08123" lon="1.90844">
        <ele>75.4</ele>
        <time>2022-10-23T13:02:46Z</time>
      </trkpt>
      <trkpt lat="49.08127" lon="1.90836">
        <ele>75.4</ele>
        <time>2022-10-23T13:02:51Z</time>
      </trkpt>
      <trkpt lat="49.08131" lon="1.90824">
        <ele>75.5</ele>
        <time>2022-10-23T13:02:57Z</time>
      </trkpt>
      <trkpt lat="49.08135" lon="1.90812">
        <ele>75.8</ele>
        <time>2022-10-23T13:03:03Z</time>
      </trkpt>
      <trkpt lat="49.08139" lon="1.90801">
        <ele>76</ele>
        <time>2022-10-23T13:03:09Z</time>
      </trkpt>
      <trkpt lat="49.08143" lon="1.90793">
        <ele>75.8</ele>
        <time>2022-10-23T13:03:14Z</time>
      </trkpt>
      <trkpt lat="49.08148" lon="1.90784">
        <ele>75.7</ele>
        <time>2022-10-23T13:03:20Z</time>
      </trkpt>
      <trkpt lat="49.08151" lon="1.90773">
        <ele>75.6</ele>
        <time>2022-10-23T13:03:25Z</time>
      </trkpt>
      <trkpt lat="49.08156" lon="1.9076">
        <ele>75.8</ele>
        <time>2022-10-23T13:03:31Z</time>
      </trkpt>
      <trkpt lat="49.08161" lon="1.90748">
        <ele>76.1</ele>
        <time>2022-10-23T13:03:37Z</time>
      </trkpt>
      <trkpt lat="49.08165" lon="1.90738">
        <ele>76.4</ele>
        <time>2022-10-23T13:03:42Z</time>
      </trkpt>
      <trkpt lat="49.08169" lon="1.90725">
        <ele>76.8</ele>
        <time>2022-10-23T13:03:48Z</time>
      </trkpt>
      <trkpt lat="49.08171" lon="1.90715">
        <ele>76.8</ele>
        <time>2022-10-23T13:03:53Z</time>
      </trkpt>
      <trkpt lat="49.08174" lon="1.90702">
        <ele>76.7</ele>
        <time>2022-10-23T13:03:59Z</time>
      </trkpt>
      <trkpt lat="49.08177" lon="1.90688">
        <ele>76.6</ele>
        <time>2022-10-23T13:04:05Z</time>
      </trkpt>
      <trkpt lat="49.08181" lon="1.90677">
        <ele>76.5</ele>
        <time>2022-10-23T13:04:10Z</time>
      </trkpt>
      <trkpt lat="49.08184" lon="1.90664">
        <ele>76.4</ele>
        <time>2022-10-23T13:04:16Z</time>
      </trkpt>
      <trkpt lat="49.08187" lon="1.90655">
        <ele>76.6</ele>
        <time>2022-10-23T13:04:21Z</time>
      </trkpt>
      <trkpt lat="49.08191" lon="1.90646">
        <ele>76.8</ele>
        <time>2022-10-23T13:04:26Z</time>
      </trkpt>
      <trkpt lat="49.08195" lon="1.90638">
        <ele>77</ele>
        <time>2022-10-23T13:04:31Z</time>
      </trkpt>
      <trkpt lat="49.08198" lon="1.90627">
        <ele>76.9</ele>
        <time>2022-10-23T13:04:37Z</time>
      </trkpt>
      <trkpt lat="49.08202" lon="1.90617">
        <ele>76.7</ele>
        <time>2022-10-23T13:04:42Z</time>
      </trkpt>
      <trkpt lat="49.08206" lon="1.90604">
        <ele>76.8</ele>
        <time>2022-10-23T13:04:48Z</time>
      </trkpt>
      <trkpt lat="49.0821" lon="1.9059">
        <ele>77.2</ele>
        <time>2022-10-23T13:04:54Z</time>
      </trkpt>
      <trkpt lat="49.08215" lon="1.90579">
        <ele>77.4</ele>
        <time>2022-10-23T13:05:00Z</time>
      </trkpt>
      <trkpt lat="49.08217" lon="1.90565">
        <ele>77.7</ele>
        <time>2022-10-23T13:05:06Z</time>
      </trkpt>
      <trkpt lat="49.08221" lon="1.90551">
        <ele>78</ele>
        <time>2022-10-23T13:05:12Z</time>
      </trkpt>
      <trkpt lat="49.08224" lon="1.9054">
        <ele>77.9</ele>
        <time>2022-10-23T13:05:17Z</time>
      </trkpt>
      <trkpt lat="49.08228" lon="1.90529">
        <ele>77.8</ele>
        <time>2022-10-23T13:05:23Z</time>
      </trkpt>
      <trkpt lat="49.08231" lon="1.90518">
        <ele>77.7</ele>
        <time>2022-10-23T13:05:29Z</time>
      </trkpt>
      <trkpt lat="49.08233" lon="1.90508">
        <ele>77.6</ele>
        <time>2022-10-23T13:05:34Z</time>
      </trkpt>
      <trkpt lat="49.08236" lon="1.90494">
        <ele>77.6</ele>
        <time>2022-10-23T13:05:40Z</time>
      </trkpt>
      <trkpt lat="49.08241" lon="1.90481">
        <ele>77.8</ele>
        <time>2022-10-23T13:05:46Z</time>
      </trkpt>
      <trkpt lat="49.08245" lon="1.90469">
        <ele>78</ele>
        <time>2022-10-23T13:05:52Z</time>
      </trkpt>
      <trkpt lat="49.08248" lon="1.90459">
        <ele>78</ele>
        <time>2022-10-23T13:05:57Z</time>
      </trkpt>
      <trkpt lat="49.0825" lon="1.90447">
        <ele>78</ele>
        <time>2022-10-23T13:06:03Z</time>
      </trkpt>
      <trkpt lat="49.08253" lon="1.90437">
        <ele>77.8</ele>
        <time>2022-10-23T13:06:08Z</time>
      </trkpt>
      <trkpt lat="49.08256" lon="1.90423">
        <ele>77.7</ele>
        <time>2022-10-23T13:06:14Z</time>
      </trkpt>
      <trkpt lat="49.08259" lon="1.90409">
        <ele>77.7</ele>
        <time>2022-10-23T13:06:19Z</time>
      </trkpt>
      <trkpt lat="49.08263" lon="1.90396">
        <ele>77.5</ele>
        <time>2022-10-23T13:06:25Z</time>
      </trkpt>
      <trkpt lat="49.08266" lon="1.90388">
        <ele>77.5</ele>
        <time>2022-10-23T13:06:30Z</time>
      </trkpt>
      <trkpt lat="49.08267" lon="1.90381">
        <ele>77.5</ele>
        <time>2022-10-23T13:06:35Z</time>
      </trkpt>
      <trkpt lat="49.08271" lon="1.9037">
        <ele>77.8</ele>
        <time>2022-10-23T13:06:41Z</time>
      </trkpt>
      <trkpt lat="49.08277" lon="1.90357">
        <ele>78</ele>
        <time>2022-10-23T13:06:47Z</time>
      </trkpt>
      <trkpt lat="49.08282" lon="1.90343">
        <ele>77.7</ele>
        <time>2022-10-23T13:06:53Z</time>
      </trkpt>
      <trkpt lat="49.08284" lon="1.90334">
        <ele>77.6</ele>
        <time>2022-10-23T13:06:59Z</time>
      </trkpt>
      <trkpt lat="49.08287" lon="1.9032">
        <ele>77.3</ele>
        <time>2022-10-23T13:07:05Z</time>
      </trkpt>
      <trkpt lat="49.0829" lon="1.90307">
        <ele>77.1</ele>
        <time>2022-10-23T13:07:10Z</time>
      </trkpt>
      <trkpt lat="49.08293" lon="1.90297">
        <ele>77.1</ele>
        <time>2022-10-23T13:07:15Z</time>
      </trkpt>
      <trkpt lat="49.08297" lon="1.90284">
        <ele>77.1</ele>
        <time>2022-10-23T13:07:21Z</time>
      </trkpt>
      <trkpt lat="49.08303" lon="1.90268">
        <ele>77.1</ele>
        <time>2022-10-23T13:07:27Z</time>
      </trkpt>
      <trkpt lat="49.08306" lon="1.90254">
        <ele>76.9</ele>
        <time>2022-10-23T13:07:33Z</time>
      </trkpt>
      <trkpt lat="49.0831" lon="1.90243">
        <ele>76.7</ele>
        <time>2022-10-23T13:07:38Z</time>
      </trkpt>
      <trkpt lat="49.08315" lon="1.90233">
        <ele>76.3</ele>
        <time>2022-10-23T13:07:44Z</time>
      </trkpt>
      <trkpt lat="49.08318" lon="1.90224">
        <ele>76.1</ele>
        <time>2022-10-23T13:07:49Z</time>
      </trkpt>
      <trkpt lat="49.0832" lon="1.90211">
        <ele>76.1</ele>
        <time>2022-10-23T13:07:55Z</time>
      </trkpt>
      <trkpt lat="49.08323" lon="1.90199">
        <ele>76.3</ele>
        <time>2022-10-23T13:08:01Z</time>
      </trkpt>
      <trkpt lat="49.08326" lon="1.90188">
        <ele>76.3</ele>
        <time>2022-10-23T13:08:06Z</time>
      </trkpt>
      <trkpt lat="49.0833" lon="1.90176">
        <ele>76.1</ele>
        <time>2022-10-23T13:08:12Z</time>
      </trkpt>
      <trkpt lat="49.08334" lon="1.90166">
        <ele>76</ele>
        <time>2022-10-23T13:08:17Z</time>
      </trkpt>
      <trkpt lat="49.08338" lon="1.90152">
        <ele>76.3</ele>
        <time>2022-10-23T13:08:23Z</time>
      </trkpt>
      <trkpt lat="49.08341" lon="1.90138">
        <ele>76.4</ele>
        <time>2022-10-23T13:08:29Z</time>
      </trkpt>
      <trkpt lat="49.08344" lon="1.90126">
        <ele>76.4</ele>
        <time>2022-10-23T13:08:35Z</time>
      </trkpt>
      <trkpt lat="49.08348" lon="1.90117">
        <ele>76.4</ele>
        <time>2022-10-23T13:08:40Z</time>
      </trkpt>
      <trkpt lat="49.08351" lon="1.90101">
        <ele>76.4</ele>
        <time>2022-10-23T13:08:46Z</time>
      </trkpt>
      <trkpt lat="49.08355" lon="1.90088">
        <ele>76.2</ele>
        <time>2022-10-23T13:08:52Z</time>
      </trkpt>
      <trkpt lat="49.08358" lon="1.9008">
        <ele>76.2</ele>
        <time>2022-10-23T13:08:57Z</time>
      </trkpt>
      <trkpt lat="49.0836" lon="1.90072">
        <ele>76.4</ele>
        <time>2022-10-23T13:09:02Z</time>
      </trkpt>
      <trkpt lat="49.08363" lon="1.90064">
        <ele>76.6</ele>
        <time>2022-10-23T13:09:08Z</time>
      </trkpt>
      <trkpt lat="49.08366" lon="1.90054">
        <ele>76.7</ele>
        <time>2022-10-23T13:09:13Z</time>
      </trkpt>
      <trkpt lat="49.0837" lon="1.90043">
        <ele>76.3</ele>
        <time>2022-10-23T13:09:18Z</time>
      </trkpt>
      <trkpt lat="49.08372" lon="1.90034">
        <ele>76.2</ele>
        <time>2022-10-23T13:09:23Z</time>
      </trkpt>
      <trkpt lat="49.08375" lon="1.90021">
        <ele>76.1</ele>
        <time>2022-10-23T13:09:29Z</time>
      </trkpt>
      <trkpt lat="49.08379" lon="1.90007">
        <ele>76.2</ele>
        <time>2022-10-23T13:09:35Z</time>
      </trkpt>
      <trkpt lat="49.08383" lon="1.89993">
        <ele>76.2</ele>
        <time>2022-10-23T13:09:41Z</time>
      </trkpt>
      <trkpt lat="49.08387" lon="1.89983">
        <ele>76.1</ele>
        <time>2022-10-23T13:09:46Z</time>
      </trkpt>
      <trkpt lat="49.08391" lon="1.89968">
        <ele>76.1</ele>
        <time>2022-10-23T13:09:52Z</time>
      </trkpt>
      <trkpt lat="49.08392" lon="1.89958">
        <ele>76.4</ele>
        <time>2022-10-23T13:09:57Z</time>
      </trkpt>
      <trkpt lat="49.08395" lon="1.89947">
        <ele>76.7</ele>
        <time>2022-10-23T13:10:03Z</time>
      </trkpt>
      <trkpt lat="49.08398" lon="1.89936">
        <ele>77</ele>
        <time>2022-10-23T13:10:08Z</time>
      </trkpt>
      <trkpt lat="49.08403" lon="1.89924">
        <ele>77.2</ele>
        <time>2022-10-23T13:10:13Z</time>
      </trkpt>
      <trkpt lat="49.08404" lon="1.8991">
        <ele>77.5</ele>
        <time>2022-10-23T13:10:19Z</time>
      </trkpt>
      <trkpt lat="49.08404" lon="1.89899">
        <ele>77.5</ele>
        <time>2022-10-23T13:10:25Z</time>
      </trkpt>
      <trkpt lat="49.08407" lon="1.89886">
        <ele>77.4</ele>
        <time>2022-10-23T13:10:31Z</time>
      </trkpt>
      <trkpt lat="49.08407" lon="1.89877">
        <ele>77.4</ele>
        <time>2022-10-23T13:10:36Z</time>
      </trkpt>
      <trkpt lat="49.08407" lon="1.89865">
        <ele>77.3</ele>
        <time>2022-10-23T13:10:42Z</time>
      </trkpt>
      <trkpt lat="49.0841" lon="1.89852">
        <ele>77.3</ele>
        <time>2022-10-23T13:10:48Z</time>
      </trkpt>
      <trkpt lat="49.08412" lon="1.89838">
        <ele>77.3</ele>
        <time>2022-10-23T13:10:54Z</time>
      </trkpt>
      <trkpt lat="49.08415" lon="1.89828">
        <ele>77.1</ele>
        <time>2022-10-23T13:10:59Z</time>
      </trkpt>
      <trkpt lat="49.08417" lon="1.8981">
        <ele>77</ele>
        <time>2022-10-23T13:11:05Z</time>
      </trkpt>
      <trkpt lat="49.0842" lon="1.89802">
        <ele>77.1</ele>
        <time>2022-10-23T13:11:10Z</time>
      </trkpt>
      <trkpt lat="49.08423" lon="1.89792">
        <ele>77.2</ele>
        <time>2022-10-23T13:11:16Z</time>
      </trkpt>
      <trkpt lat="49.08425" lon="1.89781">
        <ele>77.3</ele>
        <time>2022-10-23T13:11:21Z</time>
      </trkpt>
      <trkpt lat="49.08425" lon="1.8977">
        <ele>77.7</ele>
        <time>2022-10-23T13:11:27Z</time>
      </trkpt>
      <trkpt lat="49.08427" lon="1.89762">
        <ele>78.1</ele>
        <time>2022-10-23T13:11:32Z</time>
      </trkpt>
      <trkpt lat="49.08428" lon="1.89756">
        <ele>78.4</ele>
        <time>2022-10-23T13:11:38Z</time>
      </trkpt>
      <trkpt lat="49.08428" lon="1.89753">
        <ele>78.5</ele>
        <time>2022-10-23T13:11:43Z</time>
      </trkpt>
      <trkpt lat="49.08428" lon="1.89751">
        <ele>78.6</ele>
        <time>2022-10-23T13:11:50Z</time>
      </trkpt>
      <trkpt lat="49.08428" lon="1.89751">
        <ele>78.5</ele>
        <time>2022-10-23T13:11:56Z</time>
      </trkpt>
      <trkpt lat="49.08428" lon="1.89752">
        <ele>78.5</ele>
        <time>2022-10-23T13:12:02Z</time>
      </trkpt>
      <trkpt lat="49.08428" lon="1.89753">
        <ele>78.4</ele>
        <time>2022-10-23T13:12:08Z</time>
      </trkpt>
      <trkpt lat="49.08429" lon="1.89754">
        <ele>78.4</ele>
        <time>2022-10-23T13:12:13Z</time>
      </trkpt>
      <trkpt lat="49.08429" lon="1.89755">
        <ele>78.4</ele>
        <time>2022-10-23T13:12:19Z</time>
      </trkpt>
      <trkpt lat="49.08429" lon="1.89755">
        <ele>78.3</ele>
        <time>2022-10-23T13:12:24Z</time>
      </trkpt>
      <trkpt lat="49.08429" lon="1.89756">
        <ele>78.3</ele>
        <time>2022-10-23T13:12:30Z</time>
      </trkpt>
      <trkpt lat="49.08429" lon="1.89756">
        <ele>78.3</ele>
        <time>2022-10-23T13:12:36Z</time>
      </trkpt>
      <trkpt lat="49.08429" lon="1.89756">
        <ele>78.3</ele>
        <time>2022-10-23T13:12:41Z</time>
      </trkpt>
      <trkpt lat="49.08429" lon="1.89756">
        <ele>78.3</ele>
        <time>2022-10-23T13:12:47Z</time>
      </trkpt>
      <trkpt lat="49.08429" lon="1.89756">
        <ele>78.3</ele>
        <time>2022-10-23T13:12:53Z</time>
      </trkpt>
      <trkpt lat="49.0843" lon="1.89756">
        <ele>78.3</ele>
        <time>2022-10-23T13:12:58Z</time>
      </trkpt>
      <trkpt lat="49.0843" lon="1.89756">
        <ele>78.3</ele>
        <time>2022-10-23T13:13:03Z</time>
      </trkpt>
      <trkpt lat="49.0843" lon="1.89756">
        <ele>78.3</ele>
        <time>2022-10-23T13:13:09Z</time>
      </trkpt>
      <trkpt lat="49.0843" lon="1.89756">
        <ele>78.3</ele>
        <time>2022-10-23T13:13:15Z</time>
      </trkpt>
      <trkpt lat="49.0843" lon="1.89756">
        <ele>78.3</ele>
        <time>2022-10-23T13:13:21Z</time>
      </trkpt>
      <trkpt lat="49.0843" lon="1.89756">
        <ele>78.3</ele>
        <time>2022-10-23T13:13:27Z</time>
      </trkpt>
      <trkpt lat="49.0843" lon="1.89756">
        <ele>78.3</ele>
        <time>2022-10-23T13:13:32Z</time>
      </trkpt>
      <trkpt lat="49.0843" lon="1.89756">
        <ele>78.3</ele>
        <time>2022-10-23T13:13:37Z</time>
      </trkpt>
      <trkpt lat="49.0843" lon="1.89756">
        <ele>78.3</ele>
        <time>2022-10-23T13:13:42Z</time>
      </trkpt>
      <trkpt lat="49.08429" lon="1.89757">
        <ele>78.3</ele>
        <time>2022-10-23T13:13:48Z</time>
      </trkpt>
      <trkpt lat="49.08429" lon="1.89757">
        <ele>78.3</ele>
        <time>2022-10-23T13:13:54Z</time>
      </trkpt>
      <trkpt lat="49.08428" lon="1.89759">
        <ele>78.2</ele>
        <time>2022-10-23T13:13:59Z</time>
      </trkpt>
      <trkpt lat="49.08427" lon="1.8976">
        <ele>78.2</ele>
        <time>2022-10-23T13:14:04Z</time>
      </trkpt>
      <trkpt lat="49.08427" lon="1.89759">
        <ele>78.2</ele>
        <time>2022-10-23T13:14:10Z</time>
      </trkpt>
      <trkpt lat="49.08427" lon="1.8976">
        <ele>78.2</ele>
        <time>2022-10-23T13:14:15Z</time>
      </trkpt>
      <trkpt lat="49.08427" lon="1.8976">
        <ele>78.2</ele>
        <time>2022-10-23T13:14:21Z</time>
      </trkpt>
      <trkpt lat="49.08429" lon="1.89756">
        <ele>78.3</ele>
        <time>2022-10-23T13:14:26Z</time>
      </trkpt>
      <trkpt lat="49.08434" lon="1.89749">
        <ele>78.4</ele>
        <time>2022-10-23T13:14:32Z</time>
      </trkpt>
      <trkpt lat="49.08435" lon="1.89743">
        <ele>78.5</ele>
        <time>2022-10-23T13:14:38Z</time>
      </trkpt>
      <trkpt lat="49.08436" lon="1.89733">
        <ele>78.7</ele>
        <time>2022-10-23T13:14:44Z</time>
      </trkpt>
      <trkpt lat="49.08435" lon="1.89725">
        <ele>78.9</ele>
        <time>2022-10-23T13:14:49Z</time>
      </trkpt>
      <trkpt lat="49.08435" lon="1.89712">
        <ele>79</ele>
        <time>2022-10-23T13:14:55Z</time>
      </trkpt>
      <trkpt lat="49.08437" lon="1.897">
        <ele>79</ele>
        <time>2022-10-23T13:15:00Z</time>
      </trkpt>
      <trkpt lat="49.08441" lon="1.89689">
        <ele>79</ele>
        <time>2022-10-23T13:15:05Z</time>
      </trkpt>
      <trkpt lat="49.08448" lon="1.89678">
        <ele>79.1</ele>
        <time>2022-10-23T13:15:11Z</time>
      </trkpt>
      <trkpt lat="49.08453" lon="1.89667">
        <ele>79.3</ele>
        <time>2022-10-23T13:15:17Z</time>
      </trkpt>
      <trkpt lat="49.08457" lon="1.89656">
        <ele>79.9</ele>
        <time>2022-10-23T13:15:23Z</time>
      </trkpt>
      <trkpt lat="49.08458" lon="1.89648">
        <ele>80.2</ele>
        <time>2022-10-23T13:15:28Z</time>
      </trkpt>
      <trkpt lat="49.08462" lon="1.89639">
        <ele>80.4</ele>
        <time>2022-10-23T13:15:34Z</time>
      </trkpt>
      <trkpt lat="49.08468" lon="1.89632">
        <ele>80.1</ele>
        <time>2022-10-23T13:15:39Z</time>
      </trkpt>
      <trkpt lat="49.08471" lon="1.89619">
        <ele>80</ele>
        <time>2022-10-23T13:15:45Z</time>
      </trkpt>
      <trkpt lat="49.08474" lon="1.89609">
        <ele>80</ele>
        <time>2022-10-23T13:15:50Z</time>
      </trkpt>
      <trkpt lat="49.08474" lon="1.89599">
        <ele>80.3</ele>
        <time>2022-10-23T13:15:56Z</time>
      </trkpt>
      <trkpt lat="49.08475" lon="1.89595">
        <ele>80.5</ele>
        <time>2022-10-23T13:16:02Z</time>
      </trkpt>
      <trkpt lat="49.08475" lon="1.89587">
        <ele>80.7</ele>
        <time>2022-10-23T13:16:07Z</time>
      </trkpt>
      <trkpt lat="49.08478" lon="1.89573">
        <ele>80.7</ele>
        <time>2022-10-23T13:16:13Z</time>
      </trkpt>
      <trkpt lat="49.08481" lon="1.89562">
        <ele>80.9</ele>
        <time>2022-10-23T13:16:18Z</time>
      </trkpt>
      <trkpt lat="49.08485" lon="1.89548">
        <ele>81.1</ele>
        <time>2022-10-23T13:16:24Z</time>
      </trkpt>
      <trkpt lat="49.08488" lon="1.89538">
        <ele>81.3</ele>
        <time>2022-10-23T13:16:30Z</time>
      </trkpt>
      <trkpt lat="49.0849" lon="1.89531">
        <ele>81.3</ele>
        <time>2022-10-23T13:16:35Z</time>
      </trkpt>
      <trkpt lat="49.08492" lon="1.89521">
        <ele>81.4</ele>
        <time>2022-10-23T13:16:41Z</time>
      </trkpt>
      <trkpt lat="49.08495" lon="1.89512">
        <ele>81.6</ele>
        <time>2022-10-23T13:16:46Z</time>
      </trkpt>
      <trkpt lat="49.08499" lon="1.89499">
        <ele>82</ele>
        <time>2022-10-23T13:16:52Z</time>
      </trkpt>
      <trkpt lat="49.08502" lon="1.89488">
        <ele>81.8</ele>
        <time>2022-10-23T13:16:57Z</time>
      </trkpt>
      <trkpt lat="49.08507" lon="1.89476">
        <ele>81.5</ele>
        <time>2022-10-23T13:17:03Z</time>
      </trkpt>
      <trkpt lat="49.08511" lon="1.89465">
        <ele>81.3</ele>
        <time>2022-10-23T13:17:08Z</time>
      </trkpt>
      <trkpt lat="49.08516" lon="1.89452">
        <ele>81.2</ele>
        <time>2022-10-23T13:17:14Z</time>
      </trkpt>
      <trkpt lat="49.08522" lon="1.8944">
        <ele>81.2</ele>
        <time>2022-10-23T13:17:20Z</time>
      </trkpt>
      <trkpt lat="49.08525" lon="1.89427">
        <ele>81.1</ele>
        <time>2022-10-23T13:17:26Z</time>
      </trkpt>
      <trkpt lat="49.08526" lon="1.89417">
        <ele>81.1</ele>
        <time>2022-10-23T13:17:31Z</time>
      </trkpt>
      <trkpt lat="49.08527" lon="1.89406">
        <ele>81.4</ele>
        <time>2022-10-23T13:17:37Z</time>
      </trkpt>
      <trkpt lat="49.08528" lon="1.89395">
        <ele>81.8</ele>
        <time>2022-10-23T13:17:43Z</time>
      </trkpt>
      <trkpt lat="49.08532" lon="1.89391">
        <ele>81.7</ele>
        <time>2022-10-23T13:17:48Z</time>
      </trkpt>
      <trkpt lat="49.08537" lon="1.89383">
        <ele>81.4</ele>
        <time>2022-10-23T13:17:53Z</time>
      </trkpt>
      <trkpt lat="49.0854" lon="1.89369">
        <ele>81.4</ele>
        <time>2022-10-23T13:17:59Z</time>
      </trkpt>
      <trkpt lat="49.08542" lon="1.89355">
        <ele>81.5</ele>
        <time>2022-10-23T13:18:04Z</time>
      </trkpt>
      <trkpt lat="49.08543" lon="1.89344">
        <ele>81.4</ele>
        <time>2022-10-23T13:18:09Z</time>
      </trkpt>
      <trkpt lat="49.08545" lon="1.89331">
        <ele>81.4</ele>
        <time>2022-10-23T13:18:15Z</time>
      </trkpt>
      <trkpt lat="49.08548" lon="1.89323">
        <ele>81.3</ele>
        <time>2022-10-23T13:18:21Z</time>
      </trkpt>
      <trkpt lat="49.08551" lon="1.89315">
        <ele>81.2</ele>
        <time>2022-10-23T13:18:26Z</time>
      </trkpt>
      <trkpt lat="49.08554" lon="1.89303">
        <ele>81.1</ele>
        <time>2022-10-23T13:18:32Z</time>
      </trkpt>
      <trkpt lat="49.08558" lon="1.89291">
        <ele>81.4</ele>
        <time>2022-10-23T13:18:38Z</time>
      </trkpt>
      <trkpt lat="49.08562" lon="1.89282">
        <ele>81.4</ele>
        <time>2022-10-23T13:18:43Z</time>
      </trkpt>
      <trkpt lat="49.08565" lon="1.8927">
        <ele>81.4</ele>
        <time>2022-10-23T13:18:48Z</time>
      </trkpt>
      <trkpt lat="49.08571" lon="1.8926">
        <ele>81.3</ele>
        <time>2022-10-23T13:18:53Z</time>
      </trkpt>
      <trkpt lat="49.08575" lon="1.89253">
        <ele>81.2</ele>
        <time>2022-10-23T13:18:58Z</time>
      </trkpt>
      <trkpt lat="49.0858" lon="1.89245">
        <ele>81.3</ele>
        <time>2022-10-23T13:19:04Z</time>
      </trkpt>
      <trkpt lat="49.08585" lon="1.89236">
        <ele>81.4</ele>
        <time>2022-10-23T13:19:10Z</time>
      </trkpt>
      <trkpt lat="49.08589" lon="1.89226">
        <ele>81.5</ele>
        <time>2022-10-23T13:19:16Z</time>
      </trkpt>
      <trkpt lat="49.0859" lon="1.89214">
        <ele>81.6</ele>
        <time>2022-10-23T13:19:21Z</time>
      </trkpt>
      <trkpt lat="49.08592" lon="1.89197">
        <ele>81.7</ele>
        <time>2022-10-23T13:19:27Z</time>
      </trkpt>
      <trkpt lat="49.08596" lon="1.89188">
        <ele>81.7</ele>
        <time>2022-10-23T13:19:33Z</time>
      </trkpt>
      <trkpt lat="49.08599" lon="1.89181">
        <ele>81.7</ele>
        <time>2022-10-23T13:19:38Z</time>
      </trkpt>
      <trkpt lat="49.08603" lon="1.89173">
        <ele>81.8</ele>
        <time>2022-10-23T13:19:44Z</time>
      </trkpt>
      <trkpt lat="49.08608" lon="1.89163">
        <ele>82</ele>
        <time>2022-10-23T13:19:49Z</time>
      </trkpt>
      <trkpt lat="49.08615" lon="1.89152">
        <ele>81.9</ele>
        <time>2022-10-23T13:19:55Z</time>
      </trkpt>
      <trkpt lat="49.08619" lon="1.89141">
        <ele>82</ele>
        <time>2022-10-23T13:20:00Z</time>
      </trkpt>
      <trkpt lat="49.08623" lon="1.89129">
        <ele>81.8</ele>
        <time>2022-10-23T13:20:06Z</time>
      </trkpt>
      <trkpt lat="49.08627" lon="1.89118">
        <ele>81.6</ele>
        <time>2022-10-23T13:20:11Z</time>
      </trkpt>
      <trkpt lat="49.08632" lon="1.89106">
        <ele>81.4</ele>
        <time>2022-10-23T13:20:17Z</time>
      </trkpt>
      <trkpt lat="49.08637" lon="1.89092">
        <ele>81.7</ele>
        <time>2022-10-23T13:20:23Z</time>
      </trkpt>
      <trkpt lat="49.08642" lon="1.89077">
        <ele>82</ele>
        <time>2022-10-23T13:20:29Z</time>
      </trkpt>
      <trkpt lat="49.08646" lon="1.89065">
        <ele>82</ele>
        <time>2022-10-23T13:20:34Z</time>
      </trkpt>
      <trkpt lat="49.0865" lon="1.89053">
        <ele>82.1</ele>
        <time>2022-10-23T13:20:39Z</time>
      </trkpt>
      <trkpt lat="49.08655" lon="1.89039">
        <ele>82.6</ele>
        <time>2022-10-23T13:20:45Z</time>
      </trkpt>
      <trkpt lat="49.08658" lon="1.89027">
        <ele>83</ele>
        <time>2022-10-23T13:20:50Z</time>
      </trkpt>
      <trkpt lat="49.08661" lon="1.89012">
        <ele>83</ele>
        <time>2022-10-23T13:20:56Z</time>
      </trkpt>
      <trkpt lat="49.08665" lon="1.88998">
        <ele>83</ele>
        <time>2022-10-23T13:21:02Z</time>
      </trkpt>
      <trkpt lat="49.08666" lon="1.88986">
        <ele>83</ele>
        <time>2022-10-23T13:21:07Z</time>
      </trkpt>
      <trkpt lat="49.08668" lon="1.88976">
        <ele>83</ele>
        <time>2022-10-23T13:21:12Z</time>
      </trkpt>
      <trkpt lat="49.0867" lon="1.88967">
        <ele>83.3</ele>
        <time>2022-10-23T13:21:17Z</time>
      </trkpt>
      <trkpt lat="49.08674" lon="1.88959">
        <ele>83.6</ele>
        <time>2022-10-23T13:21:23Z</time>
      </trkpt>
      <trkpt lat="49.08678" lon="1.88951">
        <ele>83.9</ele>
        <time>2022-10-23T13:21:29Z</time>
      </trkpt>
      <trkpt lat="49.08679" lon="1.8895">
        <ele>83.9</ele>
        <time>2022-10-23T13:21:36Z</time>
      </trkpt>
      <trkpt lat="49.08679" lon="1.8895">
        <ele>83.9</ele>
        <time>2022-10-23T13:21:41Z</time>
      </trkpt>
    </trkseg>
  </trk>
</gpx>